<?xml version="1.0" encoding="UTF-8" standalone="no" ?>
<gpx xmlns="http://www.topografix.com/GPX/1/1" xmlns:xsi="http://www.w3.org/2001/XMLSchema-instance" xsi:schemaLocation="http://www.topografix.com/GPX/1/1 http://www.topografix.com/GPX/1/1/gpx.xsd" version="1.1" creator="VisuGPX - https://www.visugpx.com">
  <metadata>
    <name>Rando VTT du 04-08-2019</name>
    <desc><![CDATA[Rando tôt le matin pour cause canicule. Peu après Champcevinel, 2 anglais se sont joints à nous.]]></desc>
  </metadata>
  <trk>
    <name><![CDATA[Rando VTT du 04-08-2019_1]]></name>
    <trkseg>
      <trkpt lat="45.19115" lon="0.69421">
        <ele>102.7</ele>
        <time>2019-08-04T05:45:24Z</time>
      </trkpt>
      <trkpt lat="45.19115" lon="0.69421">
        <ele>169.884</ele>
        <time>2019-08-04T05:45:28Z</time>
      </trkpt>
      <trkpt lat="45.19122" lon="0.6942">
        <ele>165.091</ele>
        <time>2019-08-04T05:45:32Z</time>
      </trkpt>
      <trkpt lat="45.19129" lon="0.69424">
        <ele>163.44</ele>
        <time>2019-08-04T05:45:35Z</time>
      </trkpt>
      <trkpt lat="45.19131" lon="0.69425">
        <ele>163.09</ele>
        <time>2019-08-04T05:45:36Z</time>
      </trkpt>
      <trkpt lat="45.19141" lon="0.69432">
        <ele>161.254</ele>
        <time>2019-08-04T05:45:39Z</time>
      </trkpt>
      <trkpt lat="45.19147" lon="0.69435">
        <ele>159.077</ele>
        <time>2019-08-04T05:45:41Z</time>
      </trkpt>
      <trkpt lat="45.19153" lon="0.69438">
        <ele>158.709</ele>
        <time>2019-08-04T05:45:43Z</time>
      </trkpt>
      <trkpt lat="45.19157" lon="0.69439">
        <ele>158.778</ele>
        <time>2019-08-04T05:45:44Z</time>
      </trkpt>
      <trkpt lat="45.19168" lon="0.69443">
        <ele>159.26</ele>
        <time>2019-08-04T05:45:47Z</time>
      </trkpt>
      <trkpt lat="45.19173" lon="0.69444">
        <ele>160.386</ele>
        <time>2019-08-04T05:45:48Z</time>
      </trkpt>
      <trkpt lat="45.19177" lon="0.69445">
        <ele>161.143</ele>
        <time>2019-08-04T05:45:49Z</time>
      </trkpt>
      <trkpt lat="45.19186" lon="0.69445">
        <ele>160.994</ele>
        <time>2019-08-04T05:45:51Z</time>
      </trkpt>
      <trkpt lat="45.1919" lon="0.69445">
        <ele>159.53</ele>
        <time>2019-08-04T05:45:52Z</time>
      </trkpt>
      <trkpt lat="45.19198" lon="0.69444">
        <ele>159.496</ele>
        <time>2019-08-04T05:45:53Z</time>
      </trkpt>
      <trkpt lat="45.19203" lon="0.69443">
        <ele>159.225</ele>
        <time>2019-08-04T05:45:54Z</time>
      </trkpt>
      <trkpt lat="45.19216" lon="0.69441">
        <ele>157.575</ele>
        <time>2019-08-04T05:45:56Z</time>
      </trkpt>
      <trkpt lat="45.19223" lon="0.69438">
        <ele>153.697</ele>
        <time>2019-08-04T05:45:57Z</time>
      </trkpt>
      <trkpt lat="45.19233" lon="0.69438">
        <ele>153.832</ele>
        <time>2019-08-04T05:45:59Z</time>
      </trkpt>
      <trkpt lat="45.19237" lon="0.69443">
        <ele>153.165</ele>
        <time>2019-08-04T05:46:00Z</time>
      </trkpt>
      <trkpt lat="45.19248" lon="0.69461">
        <ele>151.249</ele>
        <time>2019-08-04T05:46:03Z</time>
      </trkpt>
      <trkpt lat="45.1925" lon="0.69472">
        <ele>152.139</ele>
        <time>2019-08-04T05:46:05Z</time>
      </trkpt>
      <trkpt lat="45.19255" lon="0.69475">
        <ele>148.917</ele>
        <time>2019-08-04T05:46:07Z</time>
      </trkpt>
      <trkpt lat="45.19261" lon="0.69481">
        <ele>148.345</ele>
        <time>2019-08-04T05:46:09Z</time>
      </trkpt>
      <trkpt lat="45.19268" lon="0.69489">
        <ele>146.515</ele>
        <time>2019-08-04T05:46:11Z</time>
      </trkpt>
      <trkpt lat="45.19272" lon="0.695">
        <ele>144.336</ele>
        <time>2019-08-04T05:46:13Z</time>
      </trkpt>
      <trkpt lat="45.19275" lon="0.69505">
        <ele>144.284</ele>
        <time>2019-08-04T05:46:14Z</time>
      </trkpt>
      <trkpt lat="45.19279" lon="0.69519">
        <ele>144.177</ele>
        <time>2019-08-04T05:46:17Z</time>
      </trkpt>
      <trkpt lat="45.19279" lon="0.69519">
        <ele>144.177</ele>
        <time>2019-08-04T05:46:24Z</time>
      </trkpt>
      <trkpt lat="45.19279" lon="0.69519">
        <ele>144.177</ele>
        <time>2019-08-04T05:46:25Z</time>
      </trkpt>
      <trkpt lat="45.19284" lon="0.69522">
        <ele>143.779</ele>
        <time>2019-08-04T05:46:46Z</time>
      </trkpt>
      <trkpt lat="45.19287" lon="0.69523">
        <ele>143.76</ele>
        <time>2019-08-04T05:46:47Z</time>
      </trkpt>
      <trkpt lat="45.1929" lon="0.69525">
        <ele>143.822</ele>
        <time>2019-08-04T05:46:48Z</time>
      </trkpt>
      <trkpt lat="45.19302" lon="0.69527">
        <ele>145.163</ele>
        <time>2019-08-04T05:46:51Z</time>
      </trkpt>
      <trkpt lat="45.19307" lon="0.69526">
        <ele>145.16</ele>
        <time>2019-08-04T05:46:52Z</time>
      </trkpt>
      <trkpt lat="45.19311" lon="0.69525">
        <ele>145.614</ele>
        <time>2019-08-04T05:46:53Z</time>
      </trkpt>
      <trkpt lat="45.19316" lon="0.69525">
        <ele>145.522</ele>
        <time>2019-08-04T05:46:54Z</time>
      </trkpt>
      <trkpt lat="45.1932" lon="0.69523">
        <ele>145.424</ele>
        <time>2019-08-04T05:46:55Z</time>
      </trkpt>
      <trkpt lat="45.19325" lon="0.69522">
        <ele>145.797</ele>
        <time>2019-08-04T05:46:56Z</time>
      </trkpt>
      <trkpt lat="45.19331" lon="0.69519">
        <ele>145.724</ele>
        <time>2019-08-04T05:46:57Z</time>
      </trkpt>
      <trkpt lat="45.19335" lon="0.69517">
        <ele>145.244</ele>
        <time>2019-08-04T05:46:58Z</time>
      </trkpt>
      <trkpt lat="45.1934" lon="0.69515">
        <ele>144.986</ele>
        <time>2019-08-04T05:46:59Z</time>
      </trkpt>
      <trkpt lat="45.19348" lon="0.6951">
        <ele>144.26</ele>
        <time>2019-08-04T05:47:01Z</time>
      </trkpt>
      <trkpt lat="45.19352" lon="0.69507">
        <ele>143.419</ele>
        <time>2019-08-04T05:47:02Z</time>
      </trkpt>
      <trkpt lat="45.19356" lon="0.69504">
        <ele>142.732</ele>
        <time>2019-08-04T05:47:03Z</time>
      </trkpt>
      <trkpt lat="45.1936" lon="0.69501">
        <ele>141.938</ele>
        <time>2019-08-04T05:47:04Z</time>
      </trkpt>
      <trkpt lat="45.19369" lon="0.69495">
        <ele>140.657</ele>
        <time>2019-08-04T05:47:06Z</time>
      </trkpt>
      <trkpt lat="45.19373" lon="0.69492">
        <ele>140.438</ele>
        <time>2019-08-04T05:47:07Z</time>
      </trkpt>
      <trkpt lat="45.19377" lon="0.69489">
        <ele>140.379</ele>
        <time>2019-08-04T05:47:08Z</time>
      </trkpt>
      <trkpt lat="45.19383" lon="0.69485">
        <ele>139.477</ele>
        <time>2019-08-04T05:47:09Z</time>
      </trkpt>
      <trkpt lat="45.19389" lon="0.69482">
        <ele>138.377</ele>
        <time>2019-08-04T05:47:10Z</time>
      </trkpt>
      <trkpt lat="45.19394" lon="0.69478">
        <ele>138.031</ele>
        <time>2019-08-04T05:47:11Z</time>
      </trkpt>
      <trkpt lat="45.19398" lon="0.69475">
        <ele>137.277</ele>
        <time>2019-08-04T05:47:12Z</time>
      </trkpt>
      <trkpt lat="45.19402" lon="0.69472">
        <ele>137.075</ele>
        <time>2019-08-04T05:47:13Z</time>
      </trkpt>
      <trkpt lat="45.19407" lon="0.69468">
        <ele>136.779</ele>
        <time>2019-08-04T05:47:14Z</time>
      </trkpt>
      <trkpt lat="45.19412" lon="0.69464">
        <ele>136.199</ele>
        <time>2019-08-04T05:47:15Z</time>
      </trkpt>
      <trkpt lat="45.19416" lon="0.69461">
        <ele>135.603</ele>
        <time>2019-08-04T05:47:16Z</time>
      </trkpt>
      <trkpt lat="45.19421" lon="0.69458">
        <ele>135.41</ele>
        <time>2019-08-04T05:47:17Z</time>
      </trkpt>
      <trkpt lat="45.19425" lon="0.69455">
        <ele>135.014</ele>
        <time>2019-08-04T05:47:18Z</time>
      </trkpt>
      <trkpt lat="45.1943" lon="0.69452">
        <ele>135.395</ele>
        <time>2019-08-04T05:47:19Z</time>
      </trkpt>
      <trkpt lat="45.19435" lon="0.69448">
        <ele>134.806</ele>
        <time>2019-08-04T05:47:20Z</time>
      </trkpt>
      <trkpt lat="45.19442" lon="0.6944">
        <ele>133.543</ele>
        <time>2019-08-04T05:47:22Z</time>
      </trkpt>
      <trkpt lat="45.19447" lon="0.69436">
        <ele>133.627</ele>
        <time>2019-08-04T05:47:23Z</time>
      </trkpt>
      <trkpt lat="45.19451" lon="0.69432">
        <ele>133.398</ele>
        <time>2019-08-04T05:47:24Z</time>
      </trkpt>
      <trkpt lat="45.19456" lon="0.69428">
        <ele>133.466</ele>
        <time>2019-08-04T05:47:25Z</time>
      </trkpt>
      <trkpt lat="45.1946" lon="0.69424">
        <ele>133.492</ele>
        <time>2019-08-04T05:47:26Z</time>
      </trkpt>
      <trkpt lat="45.19465" lon="0.69419">
        <ele>134.011</ele>
        <time>2019-08-04T05:47:27Z</time>
      </trkpt>
      <trkpt lat="45.1947" lon="0.69414">
        <ele>133.583</ele>
        <time>2019-08-04T05:47:28Z</time>
      </trkpt>
      <trkpt lat="45.19474" lon="0.69411">
        <ele>133.53</ele>
        <time>2019-08-04T05:47:29Z</time>
      </trkpt>
      <trkpt lat="45.19477" lon="0.69407">
        <ele>133.407</ele>
        <time>2019-08-04T05:47:30Z</time>
      </trkpt>
      <trkpt lat="45.19481" lon="0.69403">
        <ele>133.795</ele>
        <time>2019-08-04T05:47:31Z</time>
      </trkpt>
      <trkpt lat="45.19485" lon="0.694">
        <ele>134.914</ele>
        <time>2019-08-04T05:47:32Z</time>
      </trkpt>
      <trkpt lat="45.19487" lon="0.69397">
        <ele>135.566</ele>
        <time>2019-08-04T05:47:33Z</time>
      </trkpt>
      <trkpt lat="45.19491" lon="0.69394">
        <ele>136.019</ele>
        <time>2019-08-04T05:47:34Z</time>
      </trkpt>
      <trkpt lat="45.19497" lon="0.69388">
        <ele>134.633</ele>
        <time>2019-08-04T05:47:36Z</time>
      </trkpt>
      <trkpt lat="45.19502" lon="0.69385">
        <ele>134.052</ele>
        <time>2019-08-04T05:47:37Z</time>
      </trkpt>
      <trkpt lat="45.19506" lon="0.69382">
        <ele>133.86</ele>
        <time>2019-08-04T05:47:38Z</time>
      </trkpt>
      <trkpt lat="45.19513" lon="0.69376">
        <ele>133.504</ele>
        <time>2019-08-04T05:47:40Z</time>
      </trkpt>
      <trkpt lat="45.19516" lon="0.69373">
        <ele>133.525</ele>
        <time>2019-08-04T05:47:41Z</time>
      </trkpt>
      <trkpt lat="45.19519" lon="0.69371">
        <ele>133.843</ele>
        <time>2019-08-04T05:47:42Z</time>
      </trkpt>
      <trkpt lat="45.19525" lon="0.69365">
        <ele>133.35</ele>
        <time>2019-08-04T05:47:44Z</time>
      </trkpt>
      <trkpt lat="45.19535" lon="0.69361">
        <ele>132.815</ele>
        <time>2019-08-04T05:47:47Z</time>
      </trkpt>
      <trkpt lat="45.19541" lon="0.69358">
        <ele>133.668</ele>
        <time>2019-08-04T05:47:49Z</time>
      </trkpt>
      <trkpt lat="45.19549" lon="0.69354">
        <ele>134.716</ele>
        <time>2019-08-04T05:47:51Z</time>
      </trkpt>
      <trkpt lat="45.19552" lon="0.69352">
        <ele>134.965</ele>
        <time>2019-08-04T05:47:52Z</time>
      </trkpt>
      <trkpt lat="45.19556" lon="0.6935">
        <ele>134.805</ele>
        <time>2019-08-04T05:47:53Z</time>
      </trkpt>
      <trkpt lat="45.19562" lon="0.69349">
        <ele>134.351</ele>
        <time>2019-08-04T05:47:54Z</time>
      </trkpt>
      <trkpt lat="45.19567" lon="0.69348">
        <ele>134.4</ele>
        <time>2019-08-04T05:47:55Z</time>
      </trkpt>
      <trkpt lat="45.19577" lon="0.69344">
        <ele>134.281</ele>
        <time>2019-08-04T05:47:57Z</time>
      </trkpt>
      <trkpt lat="45.19582" lon="0.69343">
        <ele>134.295</ele>
        <time>2019-08-04T05:47:58Z</time>
      </trkpt>
      <trkpt lat="45.19587" lon="0.69343">
        <ele>133.939</ele>
        <time>2019-08-04T05:47:59Z</time>
      </trkpt>
      <trkpt lat="45.19599" lon="0.69339">
        <ele>132.938</ele>
        <time>2019-08-04T05:48:02Z</time>
      </trkpt>
      <trkpt lat="45.19604" lon="0.69337">
        <ele>132.355</ele>
        <time>2019-08-04T05:48:04Z</time>
      </trkpt>
      <trkpt lat="45.1961" lon="0.69341">
        <ele>131.338</ele>
        <time>2019-08-04T05:48:06Z</time>
      </trkpt>
      <trkpt lat="45.19608" lon="0.69353">
        <ele>131.253</ele>
        <time>2019-08-04T05:48:09Z</time>
      </trkpt>
      <trkpt lat="45.19609" lon="0.69364">
        <ele>132.371</ele>
        <time>2019-08-04T05:48:11Z</time>
      </trkpt>
      <trkpt lat="45.19609" lon="0.69375">
        <ele>132.07</ele>
        <time>2019-08-04T05:48:13Z</time>
      </trkpt>
      <trkpt lat="45.19609" lon="0.69381">
        <ele>131.63</ele>
        <time>2019-08-04T05:48:14Z</time>
      </trkpt>
      <trkpt lat="45.1961" lon="0.69389">
        <ele>131.786</ele>
        <time>2019-08-04T05:48:15Z</time>
      </trkpt>
      <trkpt lat="45.19609" lon="0.69396">
        <ele>133.029</ele>
        <time>2019-08-04T05:48:16Z</time>
      </trkpt>
      <trkpt lat="45.19609" lon="0.69403">
        <ele>133.412</ele>
        <time>2019-08-04T05:48:17Z</time>
      </trkpt>
      <trkpt lat="45.19609" lon="0.6941">
        <ele>134.22</ele>
        <time>2019-08-04T05:48:18Z</time>
      </trkpt>
      <trkpt lat="45.19609" lon="0.69417">
        <ele>133.967</ele>
        <time>2019-08-04T05:48:19Z</time>
      </trkpt>
      <trkpt lat="45.19609" lon="0.69431">
        <ele>134.048</ele>
        <time>2019-08-04T05:48:21Z</time>
      </trkpt>
      <trkpt lat="45.19608" lon="0.69439">
        <ele>134.641</ele>
        <time>2019-08-04T05:48:22Z</time>
      </trkpt>
      <trkpt lat="45.19609" lon="0.69445">
        <ele>134.22</ele>
        <time>2019-08-04T05:48:23Z</time>
      </trkpt>
      <trkpt lat="45.19608" lon="0.69452">
        <ele>134.607</ele>
        <time>2019-08-04T05:48:24Z</time>
      </trkpt>
      <trkpt lat="45.1961" lon="0.69464">
        <ele>131.798</ele>
        <time>2019-08-04T05:48:26Z</time>
      </trkpt>
      <trkpt lat="45.1961" lon="0.6947">
        <ele>131.283</ele>
        <time>2019-08-04T05:48:27Z</time>
      </trkpt>
      <trkpt lat="45.1961" lon="0.69477">
        <ele>130.475</ele>
        <time>2019-08-04T05:48:28Z</time>
      </trkpt>
      <trkpt lat="45.1961" lon="0.69484">
        <ele>130.033</ele>
        <time>2019-08-04T05:48:29Z</time>
      </trkpt>
      <trkpt lat="45.1961" lon="0.69491">
        <ele>130.17</ele>
        <time>2019-08-04T05:48:30Z</time>
      </trkpt>
      <trkpt lat="45.1961" lon="0.69498">
        <ele>130.365</ele>
        <time>2019-08-04T05:48:31Z</time>
      </trkpt>
      <trkpt lat="45.1961" lon="0.69505">
        <ele>130.13</ele>
        <time>2019-08-04T05:48:32Z</time>
      </trkpt>
      <trkpt lat="45.1961" lon="0.69513">
        <ele>130.446</ele>
        <time>2019-08-04T05:48:33Z</time>
      </trkpt>
      <trkpt lat="45.1961" lon="0.6952">
        <ele>129.849</ele>
        <time>2019-08-04T05:48:34Z</time>
      </trkpt>
      <trkpt lat="45.1961" lon="0.69533">
        <ele>130.486</ele>
        <time>2019-08-04T05:48:36Z</time>
      </trkpt>
      <trkpt lat="45.19609" lon="0.69541">
        <ele>131.07</ele>
        <time>2019-08-04T05:48:37Z</time>
      </trkpt>
      <trkpt lat="45.19609" lon="0.69548">
        <ele>131.948</ele>
        <time>2019-08-04T05:48:38Z</time>
      </trkpt>
      <trkpt lat="45.19609" lon="0.69555">
        <ele>131.695</ele>
        <time>2019-08-04T05:48:39Z</time>
      </trkpt>
      <trkpt lat="45.19609" lon="0.69562">
        <ele>131.677</ele>
        <time>2019-08-04T05:48:40Z</time>
      </trkpt>
      <trkpt lat="45.19609" lon="0.69569">
        <ele>131.885</ele>
        <time>2019-08-04T05:48:41Z</time>
      </trkpt>
      <trkpt lat="45.19608" lon="0.69578">
        <ele>132.445</ele>
        <time>2019-08-04T05:48:43Z</time>
      </trkpt>
      <trkpt lat="45.19608" lon="0.6959">
        <ele>132.181</ele>
        <time>2019-08-04T05:48:45Z</time>
      </trkpt>
      <trkpt lat="45.19608" lon="0.69596">
        <ele>132.12</ele>
        <time>2019-08-04T05:48:46Z</time>
      </trkpt>
      <trkpt lat="45.19608" lon="0.69602">
        <ele>132.091</ele>
        <time>2019-08-04T05:48:47Z</time>
      </trkpt>
      <trkpt lat="45.19608" lon="0.69607">
        <ele>132.414</ele>
        <time>2019-08-04T05:48:48Z</time>
      </trkpt>
      <trkpt lat="45.19607" lon="0.69619">
        <ele>132.07</ele>
        <time>2019-08-04T05:48:50Z</time>
      </trkpt>
      <trkpt lat="45.19607" lon="0.69634">
        <ele>131.67</ele>
        <time>2019-08-04T05:48:53Z</time>
      </trkpt>
      <trkpt lat="45.19608" lon="0.69639">
        <ele>131.753</ele>
        <time>2019-08-04T05:48:54Z</time>
      </trkpt>
      <trkpt lat="45.19608" lon="0.69644">
        <ele>131.605</ele>
        <time>2019-08-04T05:48:55Z</time>
      </trkpt>
      <trkpt lat="45.19608" lon="0.69649">
        <ele>132.404</ele>
        <time>2019-08-04T05:48:56Z</time>
      </trkpt>
      <trkpt lat="45.19608" lon="0.69654">
        <ele>132.109</ele>
        <time>2019-08-04T05:48:57Z</time>
      </trkpt>
      <trkpt lat="45.19609" lon="0.6966">
        <ele>132.717</ele>
        <time>2019-08-04T05:48:58Z</time>
      </trkpt>
      <trkpt lat="45.19609" lon="0.69666">
        <ele>131.78</ele>
        <time>2019-08-04T05:48:59Z</time>
      </trkpt>
      <trkpt lat="45.1961" lon="0.69671">
        <ele>130.13</ele>
        <time>2019-08-04T05:49:00Z</time>
      </trkpt>
      <trkpt lat="45.1961" lon="0.69677">
        <ele>129.5</ele>
        <time>2019-08-04T05:49:01Z</time>
      </trkpt>
      <trkpt lat="45.19611" lon="0.69683">
        <ele>130.186</ele>
        <time>2019-08-04T05:49:02Z</time>
      </trkpt>
      <trkpt lat="45.19611" lon="0.69688">
        <ele>130.193</ele>
        <time>2019-08-04T05:49:03Z</time>
      </trkpt>
      <trkpt lat="45.19611" lon="0.69694">
        <ele>130.664</ele>
        <time>2019-08-04T05:49:04Z</time>
      </trkpt>
      <trkpt lat="45.19612" lon="0.69707">
        <ele>131.303</ele>
        <time>2019-08-04T05:49:06Z</time>
      </trkpt>
      <trkpt lat="45.19615" lon="0.6972">
        <ele>131.573</ele>
        <time>2019-08-04T05:49:08Z</time>
      </trkpt>
      <trkpt lat="45.19617" lon="0.69735">
        <ele>131.88</ele>
        <time>2019-08-04T05:49:10Z</time>
      </trkpt>
      <trkpt lat="45.19619" lon="0.69742">
        <ele>132.212</ele>
        <time>2019-08-04T05:49:11Z</time>
      </trkpt>
      <trkpt lat="45.19623" lon="0.69749">
        <ele>132.941</ele>
        <time>2019-08-04T05:49:12Z</time>
      </trkpt>
      <trkpt lat="45.19626" lon="0.69755">
        <ele>131.417</ele>
        <time>2019-08-04T05:49:13Z</time>
      </trkpt>
      <trkpt lat="45.19627" lon="0.69762">
        <ele>131.699</ele>
        <time>2019-08-04T05:49:14Z</time>
      </trkpt>
      <trkpt lat="45.19631" lon="0.69774">
        <ele>131.543</ele>
        <time>2019-08-04T05:49:16Z</time>
      </trkpt>
      <trkpt lat="45.19632" lon="0.6978">
        <ele>132.083</ele>
        <time>2019-08-04T05:49:17Z</time>
      </trkpt>
      <trkpt lat="45.19635" lon="0.69787">
        <ele>131.674</ele>
        <time>2019-08-04T05:49:18Z</time>
      </trkpt>
      <trkpt lat="45.19641" lon="0.69797">
        <ele>133.137</ele>
        <time>2019-08-04T05:49:20Z</time>
      </trkpt>
      <trkpt lat="45.19646" lon="0.69804">
        <ele>132.847</ele>
        <time>2019-08-04T05:49:22Z</time>
      </trkpt>
      <trkpt lat="45.19649" lon="0.69809">
        <ele>134.084</ele>
        <time>2019-08-04T05:49:23Z</time>
      </trkpt>
      <trkpt lat="45.19652" lon="0.69814">
        <ele>134.482</ele>
        <time>2019-08-04T05:49:24Z</time>
      </trkpt>
      <trkpt lat="45.19654" lon="0.69819">
        <ele>134.375</ele>
        <time>2019-08-04T05:49:25Z</time>
      </trkpt>
      <trkpt lat="45.19657" lon="0.69824">
        <ele>134.465</ele>
        <time>2019-08-04T05:49:26Z</time>
      </trkpt>
      <trkpt lat="45.1966" lon="0.69829">
        <ele>135.329</ele>
        <time>2019-08-04T05:49:27Z</time>
      </trkpt>
      <trkpt lat="45.19663" lon="0.69835">
        <ele>135.195</ele>
        <time>2019-08-04T05:49:28Z</time>
      </trkpt>
      <trkpt lat="45.19666" lon="0.69839">
        <ele>135.817</ele>
        <time>2019-08-04T05:49:29Z</time>
      </trkpt>
      <trkpt lat="45.1967" lon="0.69843">
        <ele>136.7</ele>
        <time>2019-08-04T05:49:30Z</time>
      </trkpt>
      <trkpt lat="45.19673" lon="0.69847">
        <ele>137.541</ele>
        <time>2019-08-04T05:49:31Z</time>
      </trkpt>
      <trkpt lat="45.19678" lon="0.69852">
        <ele>136.857</ele>
        <time>2019-08-04T05:49:33Z</time>
      </trkpt>
      <trkpt lat="45.1969" lon="0.69859">
        <ele>133.621</ele>
        <time>2019-08-04T05:49:36Z</time>
      </trkpt>
      <trkpt lat="45.19693" lon="0.69861">
        <ele>132.411</ele>
        <time>2019-08-04T05:49:38Z</time>
      </trkpt>
      <trkpt lat="45.19699" lon="0.69865">
        <ele>131.206</ele>
        <time>2019-08-04T05:49:41Z</time>
      </trkpt>
      <trkpt lat="45.19704" lon="0.69867">
        <ele>130.442</ele>
        <time>2019-08-04T05:49:43Z</time>
      </trkpt>
      <trkpt lat="45.1971" lon="0.69868">
        <ele>131.465</ele>
        <time>2019-08-04T05:49:45Z</time>
      </trkpt>
      <trkpt lat="45.19717" lon="0.69869">
        <ele>133.247</ele>
        <time>2019-08-04T05:49:47Z</time>
      </trkpt>
      <trkpt lat="45.19721" lon="0.69869">
        <ele>134.163</ele>
        <time>2019-08-04T05:49:48Z</time>
      </trkpt>
      <trkpt lat="45.19726" lon="0.6987">
        <ele>133.904</ele>
        <time>2019-08-04T05:49:49Z</time>
      </trkpt>
      <trkpt lat="45.1973" lon="0.69871">
        <ele>133.577</ele>
        <time>2019-08-04T05:49:50Z</time>
      </trkpt>
      <trkpt lat="45.19738" lon="0.69875">
        <ele>131.835</ele>
        <time>2019-08-04T05:49:52Z</time>
      </trkpt>
      <trkpt lat="45.19742" lon="0.69876">
        <ele>131.131</ele>
        <time>2019-08-04T05:49:53Z</time>
      </trkpt>
      <trkpt lat="45.19747" lon="0.69878">
        <ele>131.876</ele>
        <time>2019-08-04T05:49:54Z</time>
      </trkpt>
      <trkpt lat="45.19752" lon="0.69878">
        <ele>131.362</ele>
        <time>2019-08-04T05:49:55Z</time>
      </trkpt>
      <trkpt lat="45.19757" lon="0.69878">
        <ele>130.694</ele>
        <time>2019-08-04T05:49:56Z</time>
      </trkpt>
      <trkpt lat="45.19775" lon="0.69873">
        <ele>130.517</ele>
        <time>2019-08-04T05:49:59Z</time>
      </trkpt>
      <trkpt lat="45.1978" lon="0.69871">
        <ele>130.62</ele>
        <time>2019-08-04T05:50:00Z</time>
      </trkpt>
      <trkpt lat="45.19791" lon="0.69869">
        <ele>131.189</ele>
        <time>2019-08-04T05:50:02Z</time>
      </trkpt>
      <trkpt lat="45.19796" lon="0.69868">
        <ele>130.494</ele>
        <time>2019-08-04T05:50:03Z</time>
      </trkpt>
      <trkpt lat="45.19801" lon="0.69868">
        <ele>131.01</ele>
        <time>2019-08-04T05:50:04Z</time>
      </trkpt>
      <trkpt lat="45.19805" lon="0.69866">
        <ele>131.379</ele>
        <time>2019-08-04T05:50:05Z</time>
      </trkpt>
      <trkpt lat="45.19811" lon="0.69864">
        <ele>131.672</ele>
        <time>2019-08-04T05:50:06Z</time>
      </trkpt>
      <trkpt lat="45.19815" lon="0.69862">
        <ele>131.951</ele>
        <time>2019-08-04T05:50:07Z</time>
      </trkpt>
      <trkpt lat="45.1982" lon="0.69859">
        <ele>129.675</ele>
        <time>2019-08-04T05:50:08Z</time>
      </trkpt>
      <trkpt lat="45.19829" lon="0.69853">
        <ele>129.329</ele>
        <time>2019-08-04T05:50:10Z</time>
      </trkpt>
      <trkpt lat="45.19841" lon="0.69844">
        <ele>127.672</ele>
        <time>2019-08-04T05:50:13Z</time>
      </trkpt>
      <trkpt lat="45.19846" lon="0.69842">
        <ele>127.78</ele>
        <time>2019-08-04T05:50:14Z</time>
      </trkpt>
      <trkpt lat="45.1985" lon="0.69839">
        <ele>127.263</ele>
        <time>2019-08-04T05:50:15Z</time>
      </trkpt>
      <trkpt lat="45.19854" lon="0.69836">
        <ele>126.804</ele>
        <time>2019-08-04T05:50:16Z</time>
      </trkpt>
      <trkpt lat="45.19866" lon="0.69828">
        <ele>127.615</ele>
        <time>2019-08-04T05:50:18Z</time>
      </trkpt>
      <trkpt lat="45.19874" lon="0.69822">
        <ele>126.6</ele>
        <time>2019-08-04T05:50:20Z</time>
      </trkpt>
      <trkpt lat="45.19879" lon="0.69818">
        <ele>127.099</ele>
        <time>2019-08-04T05:50:21Z</time>
      </trkpt>
      <trkpt lat="45.19883" lon="0.69816">
        <ele>126.523</ele>
        <time>2019-08-04T05:50:22Z</time>
      </trkpt>
      <trkpt lat="45.19892" lon="0.69809">
        <ele>126.345</ele>
        <time>2019-08-04T05:50:24Z</time>
      </trkpt>
      <trkpt lat="45.19895" lon="0.69805">
        <ele>126.783</ele>
        <time>2019-08-04T05:50:25Z</time>
      </trkpt>
      <trkpt lat="45.19901" lon="0.69797">
        <ele>125.947</ele>
        <time>2019-08-04T05:50:27Z</time>
      </trkpt>
      <trkpt lat="45.19906" lon="0.69793">
        <ele>125.669</ele>
        <time>2019-08-04T05:50:29Z</time>
      </trkpt>
      <trkpt lat="45.19913" lon="0.69791">
        <ele>125.741</ele>
        <time>2019-08-04T05:50:31Z</time>
      </trkpt>
      <trkpt lat="45.19919" lon="0.69786">
        <ele>124.719</ele>
        <time>2019-08-04T05:50:33Z</time>
      </trkpt>
      <trkpt lat="45.19923" lon="0.6978">
        <ele>121.885</ele>
        <time>2019-08-04T05:50:35Z</time>
      </trkpt>
      <trkpt lat="45.19926" lon="0.69777">
        <ele>122.154</ele>
        <time>2019-08-04T05:50:37Z</time>
      </trkpt>
      <trkpt lat="45.19931" lon="0.69774">
        <ele>123.252</ele>
        <time>2019-08-04T05:50:40Z</time>
      </trkpt>
      <trkpt lat="45.19937" lon="0.69774">
        <ele>123.314</ele>
        <time>2019-08-04T05:50:43Z</time>
      </trkpt>
      <trkpt lat="45.19941" lon="0.69788">
        <ele>123.279</ele>
        <time>2019-08-04T05:50:47Z</time>
      </trkpt>
      <trkpt lat="45.19941" lon="0.69795">
        <ele>125.71</ele>
        <time>2019-08-04T05:50:49Z</time>
      </trkpt>
      <trkpt lat="45.19944" lon="0.698">
        <ele>125.095</ele>
        <time>2019-08-04T05:50:51Z</time>
      </trkpt>
      <trkpt lat="45.19953" lon="0.69804">
        <ele>127.098</ele>
        <time>2019-08-04T05:50:54Z</time>
      </trkpt>
      <trkpt lat="45.19957" lon="0.69805">
        <ele>127.349</ele>
        <time>2019-08-04T05:50:55Z</time>
      </trkpt>
      <trkpt lat="45.19961" lon="0.69807">
        <ele>126.816</ele>
        <time>2019-08-04T05:50:56Z</time>
      </trkpt>
      <trkpt lat="45.19968" lon="0.6981">
        <ele>125.74</ele>
        <time>2019-08-04T05:50:58Z</time>
      </trkpt>
      <trkpt lat="45.19971" lon="0.69811">
        <ele>126.378</ele>
        <time>2019-08-04T05:50:59Z</time>
      </trkpt>
      <trkpt lat="45.19975" lon="0.69812">
        <ele>126.529</ele>
        <time>2019-08-04T05:51:00Z</time>
      </trkpt>
      <trkpt lat="45.19978" lon="0.69813">
        <ele>126.723</ele>
        <time>2019-08-04T05:51:01Z</time>
      </trkpt>
      <trkpt lat="45.19982" lon="0.69813">
        <ele>126.787</ele>
        <time>2019-08-04T05:51:02Z</time>
      </trkpt>
      <trkpt lat="45.19985" lon="0.69813">
        <ele>127.928</ele>
        <time>2019-08-04T05:51:03Z</time>
      </trkpt>
      <trkpt lat="45.19988" lon="0.69813">
        <ele>128.17</ele>
        <time>2019-08-04T05:51:04Z</time>
      </trkpt>
      <trkpt lat="45.19991" lon="0.69813">
        <ele>128.124</ele>
        <time>2019-08-04T05:51:05Z</time>
      </trkpt>
      <trkpt lat="45.20001" lon="0.6982">
        <ele>130.111</ele>
        <time>2019-08-04T05:51:08Z</time>
      </trkpt>
      <trkpt lat="45.20005" lon="0.69831">
        <ele>130.177</ele>
        <time>2019-08-04T05:51:10Z</time>
      </trkpt>
      <trkpt lat="45.20007" lon="0.69835">
        <ele>130.108</ele>
        <time>2019-08-04T05:51:11Z</time>
      </trkpt>
      <trkpt lat="45.20008" lon="0.6984">
        <ele>130.071</ele>
        <time>2019-08-04T05:51:12Z</time>
      </trkpt>
      <trkpt lat="45.2001" lon="0.69844">
        <ele>129.693</ele>
        <time>2019-08-04T05:51:13Z</time>
      </trkpt>
      <trkpt lat="45.20014" lon="0.69851">
        <ele>130.657</ele>
        <time>2019-08-04T05:51:15Z</time>
      </trkpt>
      <trkpt lat="45.20018" lon="0.69856">
        <ele>131.232</ele>
        <time>2019-08-04T05:51:17Z</time>
      </trkpt>
      <trkpt lat="45.20023" lon="0.69857">
        <ele>129.25</ele>
        <time>2019-08-04T05:51:20Z</time>
      </trkpt>
      <trkpt lat="45.20029" lon="0.69852">
        <ele>126.978</ele>
        <time>2019-08-04T05:51:23Z</time>
      </trkpt>
      <trkpt lat="45.20031" lon="0.6985">
        <ele>126.84</ele>
        <time>2019-08-04T05:51:24Z</time>
      </trkpt>
      <trkpt lat="45.20039" lon="0.69841">
        <ele>128.179</ele>
        <time>2019-08-04T05:51:27Z</time>
      </trkpt>
      <trkpt lat="45.20042" lon="0.69838">
        <ele>127.63</ele>
        <time>2019-08-04T05:51:28Z</time>
      </trkpt>
      <trkpt lat="45.20045" lon="0.69835">
        <ele>127.848</ele>
        <time>2019-08-04T05:51:29Z</time>
      </trkpt>
      <trkpt lat="45.20051" lon="0.69829">
        <ele>129.319</ele>
        <time>2019-08-04T05:51:31Z</time>
      </trkpt>
      <trkpt lat="45.20054" lon="0.69826">
        <ele>129.492</ele>
        <time>2019-08-04T05:51:32Z</time>
      </trkpt>
      <trkpt lat="45.20057" lon="0.69823">
        <ele>128.955</ele>
        <time>2019-08-04T05:51:33Z</time>
      </trkpt>
      <trkpt lat="45.20061" lon="0.6982">
        <ele>127.933</ele>
        <time>2019-08-04T05:51:34Z</time>
      </trkpt>
      <trkpt lat="45.20064" lon="0.69817">
        <ele>125.674</ele>
        <time>2019-08-04T05:51:35Z</time>
      </trkpt>
      <trkpt lat="45.2007" lon="0.6981">
        <ele>125.474</ele>
        <time>2019-08-04T05:51:37Z</time>
      </trkpt>
      <trkpt lat="45.20077" lon="0.69805">
        <ele>123.874</ele>
        <time>2019-08-04T05:51:39Z</time>
      </trkpt>
      <trkpt lat="45.20081" lon="0.69802">
        <ele>123.323</ele>
        <time>2019-08-04T05:51:40Z</time>
      </trkpt>
      <trkpt lat="45.20087" lon="0.69794">
        <ele>121.593</ele>
        <time>2019-08-04T05:51:42Z</time>
      </trkpt>
      <trkpt lat="45.2009" lon="0.69789">
        <ele>121.846</ele>
        <time>2019-08-04T05:51:43Z</time>
      </trkpt>
      <trkpt lat="45.20093" lon="0.69779">
        <ele>121.363</ele>
        <time>2019-08-04T05:51:44Z</time>
      </trkpt>
      <trkpt lat="45.20095" lon="0.69775">
        <ele>121.989</ele>
        <time>2019-08-04T05:51:45Z</time>
      </trkpt>
      <trkpt lat="45.20098" lon="0.69771">
        <ele>123.161</ele>
        <time>2019-08-04T05:51:47Z</time>
      </trkpt>
      <trkpt lat="45.20108" lon="0.69775">
        <ele>124.035</ele>
        <time>2019-08-04T05:51:49Z</time>
      </trkpt>
      <trkpt lat="45.20119" lon="0.69783">
        <ele>123.794</ele>
        <time>2019-08-04T05:51:52Z</time>
      </trkpt>
      <trkpt lat="45.20123" lon="0.69786">
        <ele>123.451</ele>
        <time>2019-08-04T05:51:53Z</time>
      </trkpt>
      <trkpt lat="45.20127" lon="0.69789">
        <ele>122.33</ele>
        <time>2019-08-04T05:51:54Z</time>
      </trkpt>
      <trkpt lat="45.20131" lon="0.69791">
        <ele>122.228</ele>
        <time>2019-08-04T05:51:55Z</time>
      </trkpt>
      <trkpt lat="45.20138" lon="0.69796">
        <ele>122.423</ele>
        <time>2019-08-04T05:51:57Z</time>
      </trkpt>
      <trkpt lat="45.20142" lon="0.69798">
        <ele>124.059</ele>
        <time>2019-08-04T05:51:58Z</time>
      </trkpt>
      <trkpt lat="45.20147" lon="0.698">
        <ele>124.137</ele>
        <time>2019-08-04T05:51:59Z</time>
      </trkpt>
      <trkpt lat="45.20153" lon="0.69804">
        <ele>124.104</ele>
        <time>2019-08-04T05:52:01Z</time>
      </trkpt>
      <trkpt lat="45.20158" lon="0.69807">
        <ele>125.175</ele>
        <time>2019-08-04T05:52:02Z</time>
      </trkpt>
      <trkpt lat="45.20162" lon="0.69809">
        <ele>126.765</ele>
        <time>2019-08-04T05:52:03Z</time>
      </trkpt>
      <trkpt lat="45.2017" lon="0.69815">
        <ele>126.778</ele>
        <time>2019-08-04T05:52:05Z</time>
      </trkpt>
      <trkpt lat="45.20176" lon="0.69821">
        <ele>129.248</ele>
        <time>2019-08-04T05:52:07Z</time>
      </trkpt>
      <trkpt lat="45.20179" lon="0.69823">
        <ele>129.773</ele>
        <time>2019-08-04T05:52:08Z</time>
      </trkpt>
      <trkpt lat="45.20184" lon="0.69826">
        <ele>129.758</ele>
        <time>2019-08-04T05:52:09Z</time>
      </trkpt>
      <trkpt lat="45.20192" lon="0.69831">
        <ele>132.078</ele>
        <time>2019-08-04T05:52:11Z</time>
      </trkpt>
      <trkpt lat="45.20195" lon="0.69833">
        <ele>131.902</ele>
        <time>2019-08-04T05:52:12Z</time>
      </trkpt>
      <trkpt lat="45.20199" lon="0.69835">
        <ele>133.063</ele>
        <time>2019-08-04T05:52:13Z</time>
      </trkpt>
      <trkpt lat="45.20207" lon="0.69839">
        <ele>133.216</ele>
        <time>2019-08-04T05:52:15Z</time>
      </trkpt>
      <trkpt lat="45.20214" lon="0.69842">
        <ele>130.531</ele>
        <time>2019-08-04T05:52:17Z</time>
      </trkpt>
      <trkpt lat="45.20217" lon="0.69843">
        <ele>130.472</ele>
        <time>2019-08-04T05:52:18Z</time>
      </trkpt>
      <trkpt lat="45.20221" lon="0.69846">
        <ele>130.618</ele>
        <time>2019-08-04T05:52:19Z</time>
      </trkpt>
      <trkpt lat="45.20224" lon="0.69848">
        <ele>130.359</ele>
        <time>2019-08-04T05:52:20Z</time>
      </trkpt>
      <trkpt lat="45.20228" lon="0.6985">
        <ele>130.995</ele>
        <time>2019-08-04T05:52:21Z</time>
      </trkpt>
      <trkpt lat="45.20236" lon="0.69854">
        <ele>131.622</ele>
        <time>2019-08-04T05:52:23Z</time>
      </trkpt>
      <trkpt lat="45.2024" lon="0.69856">
        <ele>131.388</ele>
        <time>2019-08-04T05:52:24Z</time>
      </trkpt>
      <trkpt lat="45.20244" lon="0.69858">
        <ele>131.284</ele>
        <time>2019-08-04T05:52:25Z</time>
      </trkpt>
      <trkpt lat="45.20252" lon="0.69859">
        <ele>131.844</ele>
        <time>2019-08-04T05:52:27Z</time>
      </trkpt>
      <trkpt lat="45.20256" lon="0.6986">
        <ele>131.54</ele>
        <time>2019-08-04T05:52:28Z</time>
      </trkpt>
      <trkpt lat="45.2026" lon="0.6986">
        <ele>131.416</ele>
        <time>2019-08-04T05:52:29Z</time>
      </trkpt>
      <trkpt lat="45.20264" lon="0.69861">
        <ele>132.041</ele>
        <time>2019-08-04T05:52:30Z</time>
      </trkpt>
      <trkpt lat="45.20268" lon="0.69861">
        <ele>131.805</ele>
        <time>2019-08-04T05:52:31Z</time>
      </trkpt>
      <trkpt lat="45.20272" lon="0.69862">
        <ele>132.713</ele>
        <time>2019-08-04T05:52:32Z</time>
      </trkpt>
      <trkpt lat="45.20276" lon="0.69862">
        <ele>132.145</ele>
        <time>2019-08-04T05:52:33Z</time>
      </trkpt>
      <trkpt lat="45.2028" lon="0.69863">
        <ele>132.425</ele>
        <time>2019-08-04T05:52:34Z</time>
      </trkpt>
      <trkpt lat="45.20288" lon="0.69866">
        <ele>131.304</ele>
        <time>2019-08-04T05:52:36Z</time>
      </trkpt>
      <trkpt lat="45.20296" lon="0.6987">
        <ele>131.988</ele>
        <time>2019-08-04T05:52:38Z</time>
      </trkpt>
      <trkpt lat="45.203" lon="0.69872">
        <ele>132.612</ele>
        <time>2019-08-04T05:52:39Z</time>
      </trkpt>
      <trkpt lat="45.20304" lon="0.69875">
        <ele>133.12</ele>
        <time>2019-08-04T05:52:40Z</time>
      </trkpt>
      <trkpt lat="45.20308" lon="0.69878">
        <ele>132.044</ele>
        <time>2019-08-04T05:52:41Z</time>
      </trkpt>
      <trkpt lat="45.20312" lon="0.6988">
        <ele>131.333</ele>
        <time>2019-08-04T05:52:42Z</time>
      </trkpt>
      <trkpt lat="45.20316" lon="0.69883">
        <ele>131.09</ele>
        <time>2019-08-04T05:52:43Z</time>
      </trkpt>
      <trkpt lat="45.2032" lon="0.69886">
        <ele>132.092</ele>
        <time>2019-08-04T05:52:44Z</time>
      </trkpt>
      <trkpt lat="45.20324" lon="0.69889">
        <ele>131.824</ele>
        <time>2019-08-04T05:52:45Z</time>
      </trkpt>
      <trkpt lat="45.20327" lon="0.69892">
        <ele>131.557</ele>
        <time>2019-08-04T05:52:46Z</time>
      </trkpt>
      <trkpt lat="45.20331" lon="0.69896">
        <ele>133.423</ele>
        <time>2019-08-04T05:52:47Z</time>
      </trkpt>
      <trkpt lat="45.20334" lon="0.69899">
        <ele>133.683</ele>
        <time>2019-08-04T05:52:48Z</time>
      </trkpt>
      <trkpt lat="45.20338" lon="0.69903">
        <ele>134.118</ele>
        <time>2019-08-04T05:52:49Z</time>
      </trkpt>
      <trkpt lat="45.20344" lon="0.69908">
        <ele>136.579</ele>
        <time>2019-08-04T05:52:51Z</time>
      </trkpt>
      <trkpt lat="45.20347" lon="0.69911">
        <ele>138.395</ele>
        <time>2019-08-04T05:52:52Z</time>
      </trkpt>
      <trkpt lat="45.2035" lon="0.69914">
        <ele>138.906</ele>
        <time>2019-08-04T05:52:53Z</time>
      </trkpt>
      <trkpt lat="45.20356" lon="0.6992">
        <ele>138.924</ele>
        <time>2019-08-04T05:52:55Z</time>
      </trkpt>
      <trkpt lat="45.20361" lon="0.69926">
        <ele>139.808</ele>
        <time>2019-08-04T05:52:57Z</time>
      </trkpt>
      <trkpt lat="45.2037" lon="0.69932">
        <ele>142.416</ele>
        <time>2019-08-04T05:53:00Z</time>
      </trkpt>
      <trkpt lat="45.20372" lon="0.69933">
        <ele>141.576</ele>
        <time>2019-08-04T05:53:01Z</time>
      </trkpt>
      <trkpt lat="45.20381" lon="0.69938">
        <ele>140.14</ele>
        <time>2019-08-04T05:53:04Z</time>
      </trkpt>
      <trkpt lat="45.20383" lon="0.6994">
        <ele>138.985</ele>
        <time>2019-08-04T05:53:05Z</time>
      </trkpt>
      <trkpt lat="45.20389" lon="0.69946">
        <ele>137.483</ele>
        <time>2019-08-04T05:53:08Z</time>
      </trkpt>
      <trkpt lat="45.20391" lon="0.69947">
        <ele>137.567</ele>
        <time>2019-08-04T05:53:09Z</time>
      </trkpt>
      <trkpt lat="45.20396" lon="0.69951">
        <ele>137.281</ele>
        <time>2019-08-04T05:53:11Z</time>
      </trkpt>
      <trkpt lat="45.20399" lon="0.69957">
        <ele>137.276</ele>
        <time>2019-08-04T05:53:14Z</time>
      </trkpt>
      <trkpt lat="45.20404" lon="0.69963">
        <ele>137.888</ele>
        <time>2019-08-04T05:53:17Z</time>
      </trkpt>
      <trkpt lat="45.2041" lon="0.69967">
        <ele>140.086</ele>
        <time>2019-08-04T05:53:20Z</time>
      </trkpt>
      <trkpt lat="45.20414" lon="0.69971">
        <ele>139.946</ele>
        <time>2019-08-04T05:53:22Z</time>
      </trkpt>
      <trkpt lat="45.20416" lon="0.69973">
        <ele>140.384</ele>
        <time>2019-08-04T05:53:23Z</time>
      </trkpt>
      <trkpt lat="45.20422" lon="0.69976">
        <ele>140.467</ele>
        <time>2019-08-04T05:53:26Z</time>
      </trkpt>
      <trkpt lat="45.20426" lon="0.69979">
        <ele>138.283</ele>
        <time>2019-08-04T05:53:28Z</time>
      </trkpt>
      <trkpt lat="45.20428" lon="0.69981">
        <ele>138.519</ele>
        <time>2019-08-04T05:53:29Z</time>
      </trkpt>
      <trkpt lat="45.20431" lon="0.69984">
        <ele>139.813</ele>
        <time>2019-08-04T05:53:31Z</time>
      </trkpt>
      <trkpt lat="45.20437" lon="0.69988">
        <ele>139.321</ele>
        <time>2019-08-04T05:53:34Z</time>
      </trkpt>
      <trkpt lat="45.20441" lon="0.69995">
        <ele>138.156</ele>
        <time>2019-08-04T05:53:37Z</time>
      </trkpt>
      <trkpt lat="45.20444" lon="0.69999">
        <ele>137.392</ele>
        <time>2019-08-04T05:53:39Z</time>
      </trkpt>
      <trkpt lat="45.20451" lon="0.70004">
        <ele>139.757</ele>
        <time>2019-08-04T05:53:43Z</time>
      </trkpt>
      <trkpt lat="45.2046" lon="0.70009">
        <ele>137.402</ele>
        <time>2019-08-04T05:53:47Z</time>
      </trkpt>
      <trkpt lat="45.20465" lon="0.70013">
        <ele>136.377</ele>
        <time>2019-08-04T05:53:49Z</time>
      </trkpt>
      <trkpt lat="45.2047" lon="0.70014">
        <ele>135.034</ele>
        <time>2019-08-04T05:53:51Z</time>
      </trkpt>
      <trkpt lat="45.20476" lon="0.70014">
        <ele>135.61</ele>
        <time>2019-08-04T05:53:53Z</time>
      </trkpt>
      <trkpt lat="45.20482" lon="0.70014">
        <ele>136.745</ele>
        <time>2019-08-04T05:53:55Z</time>
      </trkpt>
      <trkpt lat="45.20484" lon="0.70015">
        <ele>137.04</ele>
        <time>2019-08-04T05:53:56Z</time>
      </trkpt>
      <trkpt lat="45.20487" lon="0.70015">
        <ele>135.154</ele>
        <time>2019-08-04T05:53:57Z</time>
      </trkpt>
      <trkpt lat="45.2049" lon="0.70015">
        <ele>134.811</ele>
        <time>2019-08-04T05:53:58Z</time>
      </trkpt>
      <trkpt lat="45.20498" lon="0.70017">
        <ele>131.491</ele>
        <time>2019-08-04T05:54:00Z</time>
      </trkpt>
      <trkpt lat="45.20505" lon="0.70019">
        <ele>130.056</ele>
        <time>2019-08-04T05:54:02Z</time>
      </trkpt>
      <trkpt lat="45.20509" lon="0.7002">
        <ele>129.284</ele>
        <time>2019-08-04T05:54:03Z</time>
      </trkpt>
      <trkpt lat="45.20515" lon="0.70021">
        <ele>130.302</ele>
        <time>2019-08-04T05:54:05Z</time>
      </trkpt>
      <trkpt lat="45.20519" lon="0.70021">
        <ele>130.351</ele>
        <time>2019-08-04T05:54:06Z</time>
      </trkpt>
      <trkpt lat="45.20525" lon="0.70022">
        <ele>130.595</ele>
        <time>2019-08-04T05:54:08Z</time>
      </trkpt>
      <trkpt lat="45.2053" lon="0.70024">
        <ele>130.62</ele>
        <time>2019-08-04T05:54:10Z</time>
      </trkpt>
      <trkpt lat="45.20534" lon="0.70025">
        <ele>131.67</ele>
        <time>2019-08-04T05:54:12Z</time>
      </trkpt>
      <trkpt lat="45.2054" lon="0.70024">
        <ele>132.972</ele>
        <time>2019-08-04T05:54:15Z</time>
      </trkpt>
      <trkpt lat="45.20543" lon="0.70024">
        <ele>133.085</ele>
        <time>2019-08-04T05:54:16Z</time>
      </trkpt>
      <trkpt lat="45.20548" lon="0.70024">
        <ele>131.553</ele>
        <time>2019-08-04T05:54:18Z</time>
      </trkpt>
      <trkpt lat="45.20551" lon="0.70024">
        <ele>133.772</ele>
        <time>2019-08-04T05:54:19Z</time>
      </trkpt>
      <trkpt lat="45.20556" lon="0.70023">
        <ele>133.346</ele>
        <time>2019-08-04T05:54:21Z</time>
      </trkpt>
      <trkpt lat="45.20562" lon="0.70021">
        <ele>134.545</ele>
        <time>2019-08-04T05:54:23Z</time>
      </trkpt>
      <trkpt lat="45.20572" lon="0.7002">
        <ele>137.269</ele>
        <time>2019-08-04T05:54:26Z</time>
      </trkpt>
      <trkpt lat="45.20579" lon="0.70021">
        <ele>134.463</ele>
        <time>2019-08-04T05:54:28Z</time>
      </trkpt>
      <trkpt lat="45.20583" lon="0.70021">
        <ele>134.207</ele>
        <time>2019-08-04T05:54:29Z</time>
      </trkpt>
      <trkpt lat="45.20587" lon="0.70021">
        <ele>133.886</ele>
        <time>2019-08-04T05:54:30Z</time>
      </trkpt>
      <trkpt lat="45.20589" lon="0.70021">
        <ele>134.958</ele>
        <time>2019-08-04T05:54:31Z</time>
      </trkpt>
      <trkpt lat="45.20593" lon="0.70021">
        <ele>136.075</ele>
        <time>2019-08-04T05:54:33Z</time>
      </trkpt>
      <trkpt lat="45.20603" lon="0.7002">
        <ele>135.725</ele>
        <time>2019-08-04T05:54:36Z</time>
      </trkpt>
      <trkpt lat="45.20607" lon="0.70019">
        <ele>135.438</ele>
        <time>2019-08-04T05:54:37Z</time>
      </trkpt>
      <trkpt lat="45.20612" lon="0.70018">
        <ele>135.594</ele>
        <time>2019-08-04T05:54:38Z</time>
      </trkpt>
      <trkpt lat="45.20616" lon="0.70018">
        <ele>135.584</ele>
        <time>2019-08-04T05:54:39Z</time>
      </trkpt>
      <trkpt lat="45.20618" lon="0.70018">
        <ele>135.854</ele>
        <time>2019-08-04T05:54:40Z</time>
      </trkpt>
      <trkpt lat="45.20621" lon="0.70018">
        <ele>134.022</ele>
        <time>2019-08-04T05:54:42Z</time>
      </trkpt>
      <trkpt lat="45.20627" lon="0.70019">
        <ele>135.964</ele>
        <time>2019-08-04T05:54:44Z</time>
      </trkpt>
      <trkpt lat="45.2063" lon="0.70019">
        <ele>135.699</ele>
        <time>2019-08-04T05:54:45Z</time>
      </trkpt>
      <trkpt lat="45.2064" lon="0.7002">
        <ele>137.915</ele>
        <time>2019-08-04T05:54:48Z</time>
      </trkpt>
      <trkpt lat="45.2065" lon="0.70015">
        <ele>140.498</ele>
        <time>2019-08-04T05:54:51Z</time>
      </trkpt>
      <trkpt lat="45.2066" lon="0.70008">
        <ele>140.938</ele>
        <time>2019-08-04T05:54:54Z</time>
      </trkpt>
      <trkpt lat="45.20663" lon="0.70005">
        <ele>141.473</ele>
        <time>2019-08-04T05:54:55Z</time>
      </trkpt>
      <trkpt lat="45.2067" lon="0.70002">
        <ele>138.527</ele>
        <time>2019-08-04T05:54:57Z</time>
      </trkpt>
      <trkpt lat="45.20678" lon="0.70001">
        <ele>138.985</ele>
        <time>2019-08-04T05:54:59Z</time>
      </trkpt>
      <trkpt lat="45.20682" lon="0.7">
        <ele>139.984</ele>
        <time>2019-08-04T05:55:00Z</time>
      </trkpt>
      <trkpt lat="45.20686" lon="0.7">
        <ele>141.755</ele>
        <time>2019-08-04T05:55:01Z</time>
      </trkpt>
      <trkpt lat="45.20691" lon="0.70001">
        <ele>140.549</ele>
        <time>2019-08-04T05:55:02Z</time>
      </trkpt>
      <trkpt lat="45.20696" lon="0.70002">
        <ele>140.387</ele>
        <time>2019-08-04T05:55:03Z</time>
      </trkpt>
      <trkpt lat="45.20708" lon="0.70009">
        <ele>137.086</ele>
        <time>2019-08-04T05:55:06Z</time>
      </trkpt>
      <trkpt lat="45.20712" lon="0.70011">
        <ele>136.847</ele>
        <time>2019-08-04T05:55:07Z</time>
      </trkpt>
      <trkpt lat="45.20714" lon="0.70013">
        <ele>136.66</ele>
        <time>2019-08-04T05:55:08Z</time>
      </trkpt>
      <trkpt lat="45.20718" lon="0.70017">
        <ele>134.587</ele>
        <time>2019-08-04T05:55:10Z</time>
      </trkpt>
      <trkpt lat="45.2072" lon="0.7002">
        <ele>134.402</ele>
        <time>2019-08-04T05:55:11Z</time>
      </trkpt>
      <trkpt lat="45.20723" lon="0.70022">
        <ele>133.755</ele>
        <time>2019-08-04T05:55:12Z</time>
      </trkpt>
      <trkpt lat="45.20725" lon="0.70024">
        <ele>134.904</ele>
        <time>2019-08-04T05:55:13Z</time>
      </trkpt>
      <trkpt lat="45.2073" lon="0.70029">
        <ele>135.09</ele>
        <time>2019-08-04T05:55:15Z</time>
      </trkpt>
      <trkpt lat="45.20736" lon="0.70033">
        <ele>136.52</ele>
        <time>2019-08-04T05:55:18Z</time>
      </trkpt>
      <trkpt lat="45.20739" lon="0.70038">
        <ele>135.697</ele>
        <time>2019-08-04T05:55:20Z</time>
      </trkpt>
      <trkpt lat="45.20741" lon="0.70042">
        <ele>135.748</ele>
        <time>2019-08-04T05:55:21Z</time>
      </trkpt>
      <trkpt lat="45.20747" lon="0.70047">
        <ele>135.294</ele>
        <time>2019-08-04T05:55:23Z</time>
      </trkpt>
      <trkpt lat="45.20749" lon="0.7005">
        <ele>134.831</ele>
        <time>2019-08-04T05:55:24Z</time>
      </trkpt>
      <trkpt lat="45.20752" lon="0.70055">
        <ele>135.161</ele>
        <time>2019-08-04T05:55:27Z</time>
      </trkpt>
      <trkpt lat="45.2076" lon="0.70064">
        <ele>132.132</ele>
        <time>2019-08-04T05:55:31Z</time>
      </trkpt>
      <trkpt lat="45.20763" lon="0.70066">
        <ele>132.758</ele>
        <time>2019-08-04T05:55:32Z</time>
      </trkpt>
      <trkpt lat="45.20765" lon="0.70068">
        <ele>133.223</ele>
        <time>2019-08-04T05:55:33Z</time>
      </trkpt>
      <trkpt lat="45.20769" lon="0.70071">
        <ele>132.911</ele>
        <time>2019-08-04T05:55:35Z</time>
      </trkpt>
      <trkpt lat="45.20773" lon="0.70076">
        <ele>132.961</ele>
        <time>2019-08-04T05:55:39Z</time>
      </trkpt>
      <trkpt lat="45.2078" lon="0.70081">
        <ele>129.309</ele>
        <time>2019-08-04T05:55:42Z</time>
      </trkpt>
      <trkpt lat="45.20786" lon="0.70084">
        <ele>130.628</ele>
        <time>2019-08-04T05:55:46Z</time>
      </trkpt>
      <trkpt lat="45.20791" lon="0.70089">
        <ele>127.939</ele>
        <time>2019-08-04T05:55:49Z</time>
      </trkpt>
      <trkpt lat="45.20795" lon="0.70093">
        <ele>128.074</ele>
        <time>2019-08-04T05:55:51Z</time>
      </trkpt>
      <trkpt lat="45.208" lon="0.70098">
        <ele>128.84</ele>
        <time>2019-08-04T05:55:54Z</time>
      </trkpt>
      <trkpt lat="45.20804" lon="0.70103">
        <ele>128.769</ele>
        <time>2019-08-04T05:55:57Z</time>
      </trkpt>
      <trkpt lat="45.20812" lon="0.70111">
        <ele>126.352</ele>
        <time>2019-08-04T05:56:03Z</time>
      </trkpt>
      <trkpt lat="45.20817" lon="0.70115">
        <ele>129.429</ele>
        <time>2019-08-04T05:56:06Z</time>
      </trkpt>
      <trkpt lat="45.20821" lon="0.7012">
        <ele>130.397</ele>
        <time>2019-08-04T05:56:08Z</time>
      </trkpt>
      <trkpt lat="45.20822" lon="0.70123">
        <ele>130.565</ele>
        <time>2019-08-04T05:56:09Z</time>
      </trkpt>
      <trkpt lat="45.20825" lon="0.70127">
        <ele>133.708</ele>
        <time>2019-08-04T05:56:11Z</time>
      </trkpt>
      <trkpt lat="45.20827" lon="0.7013">
        <ele>133.428</ele>
        <time>2019-08-04T05:56:13Z</time>
      </trkpt>
      <trkpt lat="45.20835" lon="0.70136">
        <ele>131.783</ele>
        <time>2019-08-04T05:56:16Z</time>
      </trkpt>
      <trkpt lat="45.20839" lon="0.70139">
        <ele>132.314</ele>
        <time>2019-08-04T05:56:17Z</time>
      </trkpt>
      <trkpt lat="45.20845" lon="0.70143">
        <ele>131.293</ele>
        <time>2019-08-04T05:56:19Z</time>
      </trkpt>
      <trkpt lat="45.20851" lon="0.70149">
        <ele>129.389</ele>
        <time>2019-08-04T05:56:21Z</time>
      </trkpt>
      <trkpt lat="45.20861" lon="0.7016">
        <ele>132.136</ele>
        <time>2019-08-04T05:56:24Z</time>
      </trkpt>
      <trkpt lat="45.20886" lon="0.70165">
        <ele>130.906</ele>
        <time>2019-08-04T05:56:27Z</time>
      </trkpt>
      <trkpt lat="45.20892" lon="0.70165">
        <ele>130.235</ele>
        <time>2019-08-04T05:56:29Z</time>
      </trkpt>
      <trkpt lat="45.20897" lon="0.70168">
        <ele>129.886</ele>
        <time>2019-08-04T05:56:31Z</time>
      </trkpt>
      <trkpt lat="45.20899" lon="0.70169">
        <ele>131.303</ele>
        <time>2019-08-04T05:56:32Z</time>
      </trkpt>
      <trkpt lat="45.20901" lon="0.70171">
        <ele>132.191</ele>
        <time>2019-08-04T05:56:33Z</time>
      </trkpt>
      <trkpt lat="45.20906" lon="0.70174">
        <ele>134.601</ele>
        <time>2019-08-04T05:56:35Z</time>
      </trkpt>
      <trkpt lat="45.20908" lon="0.70176">
        <ele>135.063</ele>
        <time>2019-08-04T05:56:36Z</time>
      </trkpt>
      <trkpt lat="45.20911" lon="0.70178">
        <ele>136.086</ele>
        <time>2019-08-04T05:56:37Z</time>
      </trkpt>
      <trkpt lat="45.20914" lon="0.7018">
        <ele>135.802</ele>
        <time>2019-08-04T05:56:38Z</time>
      </trkpt>
      <trkpt lat="45.20919" lon="0.70185">
        <ele>133.276</ele>
        <time>2019-08-04T05:56:40Z</time>
      </trkpt>
      <trkpt lat="45.20926" lon="0.70194">
        <ele>132.9</ele>
        <time>2019-08-04T05:56:43Z</time>
      </trkpt>
      <trkpt lat="45.20934" lon="0.70203">
        <ele>132.366</ele>
        <time>2019-08-04T05:56:46Z</time>
      </trkpt>
      <trkpt lat="45.20937" lon="0.70206">
        <ele>132.936</ele>
        <time>2019-08-04T05:56:48Z</time>
      </trkpt>
      <trkpt lat="45.20943" lon="0.70209">
        <ele>130.855</ele>
        <time>2019-08-04T05:56:51Z</time>
      </trkpt>
      <trkpt lat="45.20945" lon="0.70211">
        <ele>131.561</ele>
        <time>2019-08-04T05:56:52Z</time>
      </trkpt>
      <trkpt lat="45.20953" lon="0.70214">
        <ele>130.671</ele>
        <time>2019-08-04T05:56:55Z</time>
      </trkpt>
      <trkpt lat="45.20955" lon="0.70215">
        <ele>131.201</ele>
        <time>2019-08-04T05:56:56Z</time>
      </trkpt>
      <trkpt lat="45.20958" lon="0.70216">
        <ele>132.556</ele>
        <time>2019-08-04T05:56:57Z</time>
      </trkpt>
      <trkpt lat="45.20963" lon="0.70217">
        <ele>133.502</ele>
        <time>2019-08-04T05:56:59Z</time>
      </trkpt>
      <trkpt lat="45.20966" lon="0.70218">
        <ele>132.263</ele>
        <time>2019-08-04T05:57:00Z</time>
      </trkpt>
      <trkpt lat="45.2097" lon="0.70222">
        <ele>133.933</ele>
        <time>2019-08-04T05:57:03Z</time>
      </trkpt>
      <trkpt lat="45.20973" lon="0.70226">
        <ele>133.154</ele>
        <time>2019-08-04T05:57:05Z</time>
      </trkpt>
      <trkpt lat="45.20979" lon="0.70228">
        <ele>132.123</ele>
        <time>2019-08-04T05:57:08Z</time>
      </trkpt>
      <trkpt lat="45.20984" lon="0.7023">
        <ele>132.722</ele>
        <time>2019-08-04T05:57:11Z</time>
      </trkpt>
      <trkpt lat="45.2099" lon="0.70235">
        <ele>132.056</ele>
        <time>2019-08-04T05:57:15Z</time>
      </trkpt>
      <trkpt lat="45.20995" lon="0.70238">
        <ele>131.29</ele>
        <time>2019-08-04T05:57:17Z</time>
      </trkpt>
      <trkpt lat="45.20998" lon="0.70241">
        <ele>128.226</ele>
        <time>2019-08-04T05:57:19Z</time>
      </trkpt>
      <trkpt lat="45.21002" lon="0.70244">
        <ele>130.327</ele>
        <time>2019-08-04T05:57:22Z</time>
      </trkpt>
      <trkpt lat="45.21007" lon="0.70247">
        <ele>131.24</ele>
        <time>2019-08-04T05:57:25Z</time>
      </trkpt>
      <trkpt lat="45.21011" lon="0.70251">
        <ele>133.013</ele>
        <time>2019-08-04T05:57:28Z</time>
      </trkpt>
      <trkpt lat="45.21016" lon="0.70256">
        <ele>135.258</ele>
        <time>2019-08-04T05:57:31Z</time>
      </trkpt>
      <trkpt lat="45.21024" lon="0.70265">
        <ele>138.357</ele>
        <time>2019-08-04T05:57:36Z</time>
      </trkpt>
      <trkpt lat="45.21033" lon="0.70267">
        <ele>141.347</ele>
        <time>2019-08-04T05:57:39Z</time>
      </trkpt>
      <trkpt lat="45.21036" lon="0.70268">
        <ele>141.599</ele>
        <time>2019-08-04T05:57:40Z</time>
      </trkpt>
      <trkpt lat="45.21038" lon="0.70269">
        <ele>139.946</ele>
        <time>2019-08-04T05:57:41Z</time>
      </trkpt>
      <trkpt lat="45.21044" lon="0.7027">
        <ele>139.612</ele>
        <time>2019-08-04T05:57:43Z</time>
      </trkpt>
      <trkpt lat="45.21047" lon="0.70271">
        <ele>138.614</ele>
        <time>2019-08-04T05:57:44Z</time>
      </trkpt>
      <trkpt lat="45.21055" lon="0.70277">
        <ele>137.825</ele>
        <time>2019-08-04T05:57:47Z</time>
      </trkpt>
      <trkpt lat="45.21061" lon="0.70282">
        <ele>139.751</ele>
        <time>2019-08-04T05:57:50Z</time>
      </trkpt>
      <trkpt lat="45.21066" lon="0.70284">
        <ele>141.085</ele>
        <time>2019-08-04T05:57:52Z</time>
      </trkpt>
      <trkpt lat="45.21069" lon="0.70285">
        <ele>140.903</ele>
        <time>2019-08-04T05:57:53Z</time>
      </trkpt>
      <trkpt lat="45.21072" lon="0.70286">
        <ele>142.118</ele>
        <time>2019-08-04T05:57:54Z</time>
      </trkpt>
      <trkpt lat="45.21075" lon="0.70287">
        <ele>143.594</ele>
        <time>2019-08-04T05:57:55Z</time>
      </trkpt>
      <trkpt lat="45.2108" lon="0.7029">
        <ele>143.648</ele>
        <time>2019-08-04T05:57:57Z</time>
      </trkpt>
      <trkpt lat="45.21083" lon="0.70291">
        <ele>143.453</ele>
        <time>2019-08-04T05:57:58Z</time>
      </trkpt>
      <trkpt lat="45.21086" lon="0.70293">
        <ele>142.502</ele>
        <time>2019-08-04T05:57:59Z</time>
      </trkpt>
      <trkpt lat="45.2109" lon="0.70295">
        <ele>142.626</ele>
        <time>2019-08-04T05:58:00Z</time>
      </trkpt>
      <trkpt lat="45.21097" lon="0.70297">
        <ele>140.262</ele>
        <time>2019-08-04T05:58:02Z</time>
      </trkpt>
      <trkpt lat="45.21101" lon="0.70297">
        <ele>140.36</ele>
        <time>2019-08-04T05:58:03Z</time>
      </trkpt>
      <trkpt lat="45.21106" lon="0.70298">
        <ele>139.097</ele>
        <time>2019-08-04T05:58:04Z</time>
      </trkpt>
      <trkpt lat="45.2111" lon="0.703">
        <ele>140.161</ele>
        <time>2019-08-04T05:58:05Z</time>
      </trkpt>
      <trkpt lat="45.21115" lon="0.70302">
        <ele>139.248</ele>
        <time>2019-08-04T05:58:06Z</time>
      </trkpt>
      <trkpt lat="45.21118" lon="0.70304">
        <ele>139.092</ele>
        <time>2019-08-04T05:58:07Z</time>
      </trkpt>
      <trkpt lat="45.21126" lon="0.70309">
        <ele>140.295</ele>
        <time>2019-08-04T05:58:09Z</time>
      </trkpt>
      <trkpt lat="45.21135" lon="0.70312">
        <ele>142.983</ele>
        <time>2019-08-04T05:58:11Z</time>
      </trkpt>
      <trkpt lat="45.2114" lon="0.70313">
        <ele>143.278</ele>
        <time>2019-08-04T05:58:12Z</time>
      </trkpt>
      <trkpt lat="45.21145" lon="0.70313">
        <ele>143.277</ele>
        <time>2019-08-04T05:58:13Z</time>
      </trkpt>
      <trkpt lat="45.2115" lon="0.70313">
        <ele>141.736</ele>
        <time>2019-08-04T05:58:14Z</time>
      </trkpt>
      <trkpt lat="45.21159" lon="0.70312">
        <ele>140.406</ele>
        <time>2019-08-04T05:58:16Z</time>
      </trkpt>
      <trkpt lat="45.21167" lon="0.70313">
        <ele>141.038</ele>
        <time>2019-08-04T05:58:19Z</time>
      </trkpt>
      <trkpt lat="45.21176" lon="0.70317">
        <ele>141.116</ele>
        <time>2019-08-04T05:58:22Z</time>
      </trkpt>
      <trkpt lat="45.21183" lon="0.70323">
        <ele>137.669</ele>
        <time>2019-08-04T05:58:25Z</time>
      </trkpt>
      <trkpt lat="45.21186" lon="0.70328">
        <ele>141.217</ele>
        <time>2019-08-04T05:58:28Z</time>
      </trkpt>
      <trkpt lat="45.21189" lon="0.70333">
        <ele>138.672</ele>
        <time>2019-08-04T05:58:31Z</time>
      </trkpt>
      <trkpt lat="45.21192" lon="0.70343">
        <ele>138.214</ele>
        <time>2019-08-04T05:58:36Z</time>
      </trkpt>
      <trkpt lat="45.21194" lon="0.70349">
        <ele>139.823</ele>
        <time>2019-08-04T05:58:39Z</time>
      </trkpt>
      <trkpt lat="45.21197" lon="0.70355">
        <ele>139.362</ele>
        <time>2019-08-04T05:58:42Z</time>
      </trkpt>
      <trkpt lat="45.21201" lon="0.70359">
        <ele>138.839</ele>
        <time>2019-08-04T05:58:45Z</time>
      </trkpt>
      <trkpt lat="45.21206" lon="0.70365">
        <ele>137.744</ele>
        <time>2019-08-04T05:58:49Z</time>
      </trkpt>
      <trkpt lat="45.21212" lon="0.7037">
        <ele>134.723</ele>
        <time>2019-08-04T05:58:52Z</time>
      </trkpt>
      <trkpt lat="45.21215" lon="0.70371">
        <ele>134.318</ele>
        <time>2019-08-04T05:58:53Z</time>
      </trkpt>
      <trkpt lat="45.21221" lon="0.70375">
        <ele>134.456</ele>
        <time>2019-08-04T05:58:55Z</time>
      </trkpt>
      <trkpt lat="45.21227" lon="0.70379">
        <ele>133.8</ele>
        <time>2019-08-04T05:58:57Z</time>
      </trkpt>
      <trkpt lat="45.21237" lon="0.70382">
        <ele>132.797</ele>
        <time>2019-08-04T05:59:00Z</time>
      </trkpt>
      <trkpt lat="45.2124" lon="0.70383">
        <ele>130.919</ele>
        <time>2019-08-04T05:59:01Z</time>
      </trkpt>
      <trkpt lat="45.21243" lon="0.70383">
        <ele>130.381</ele>
        <time>2019-08-04T05:59:02Z</time>
      </trkpt>
      <trkpt lat="45.21247" lon="0.70384">
        <ele>131.669</ele>
        <time>2019-08-04T05:59:03Z</time>
      </trkpt>
      <trkpt lat="45.21251" lon="0.70384">
        <ele>133.084</ele>
        <time>2019-08-04T05:59:04Z</time>
      </trkpt>
      <trkpt lat="45.21255" lon="0.70385">
        <ele>133.257</ele>
        <time>2019-08-04T05:59:05Z</time>
      </trkpt>
      <trkpt lat="45.21259" lon="0.70386">
        <ele>133.45</ele>
        <time>2019-08-04T05:59:06Z</time>
      </trkpt>
      <trkpt lat="45.21266" lon="0.7039">
        <ele>132.922</ele>
        <time>2019-08-04T05:59:08Z</time>
      </trkpt>
      <trkpt lat="45.21269" lon="0.70391">
        <ele>132.918</ele>
        <time>2019-08-04T05:59:09Z</time>
      </trkpt>
      <trkpt lat="45.21277" lon="0.704">
        <ele>134.327</ele>
        <time>2019-08-04T05:59:12Z</time>
      </trkpt>
      <trkpt lat="45.21283" lon="0.70407">
        <ele>133.726</ele>
        <time>2019-08-04T05:59:14Z</time>
      </trkpt>
      <trkpt lat="45.21287" lon="0.70411">
        <ele>134.242</ele>
        <time>2019-08-04T05:59:15Z</time>
      </trkpt>
      <trkpt lat="45.21291" lon="0.70414">
        <ele>134.466</ele>
        <time>2019-08-04T05:59:16Z</time>
      </trkpt>
      <trkpt lat="45.21295" lon="0.70417">
        <ele>138.138</ele>
        <time>2019-08-04T05:59:17Z</time>
      </trkpt>
      <trkpt lat="45.213" lon="0.70419">
        <ele>137.511</ele>
        <time>2019-08-04T05:59:18Z</time>
      </trkpt>
      <trkpt lat="45.21309" lon="0.70423">
        <ele>136.561</ele>
        <time>2019-08-04T05:59:20Z</time>
      </trkpt>
      <trkpt lat="45.21316" lon="0.70428">
        <ele>136.662</ele>
        <time>2019-08-04T05:59:22Z</time>
      </trkpt>
      <trkpt lat="45.21323" lon="0.70435">
        <ele>137.308</ele>
        <time>2019-08-04T05:59:24Z</time>
      </trkpt>
      <trkpt lat="45.21327" lon="0.7044">
        <ele>138.38</ele>
        <time>2019-08-04T05:59:25Z</time>
      </trkpt>
      <trkpt lat="45.21337" lon="0.70446">
        <ele>135.284</ele>
        <time>2019-08-04T05:59:27Z</time>
      </trkpt>
      <trkpt lat="45.21341" lon="0.70448">
        <ele>133.861</ele>
        <time>2019-08-04T05:59:28Z</time>
      </trkpt>
      <trkpt lat="45.21344" lon="0.7045">
        <ele>133.456</ele>
        <time>2019-08-04T05:59:29Z</time>
      </trkpt>
      <trkpt lat="45.21351" lon="0.70456">
        <ele>129.482</ele>
        <time>2019-08-04T05:59:32Z</time>
      </trkpt>
      <trkpt lat="45.21357" lon="0.70461">
        <ele>129.362</ele>
        <time>2019-08-04T05:59:34Z</time>
      </trkpt>
      <trkpt lat="45.21359" lon="0.70463">
        <ele>128.732</ele>
        <time>2019-08-04T05:59:35Z</time>
      </trkpt>
      <trkpt lat="45.21362" lon="0.70466">
        <ele>128.976</ele>
        <time>2019-08-04T05:59:36Z</time>
      </trkpt>
      <trkpt lat="45.21364" lon="0.70469">
        <ele>126.882</ele>
        <time>2019-08-04T05:59:37Z</time>
      </trkpt>
      <trkpt lat="45.21367" lon="0.70472">
        <ele>126.222</ele>
        <time>2019-08-04T05:59:38Z</time>
      </trkpt>
      <trkpt lat="45.21371" lon="0.70478">
        <ele>126.247</ele>
        <time>2019-08-04T05:59:40Z</time>
      </trkpt>
      <trkpt lat="45.21373" lon="0.7048">
        <ele>125.098</ele>
        <time>2019-08-04T05:59:41Z</time>
      </trkpt>
      <trkpt lat="45.21375" lon="0.70482">
        <ele>125.409</ele>
        <time>2019-08-04T05:59:42Z</time>
      </trkpt>
      <trkpt lat="45.2138" lon="0.70487">
        <ele>124.245</ele>
        <time>2019-08-04T05:59:44Z</time>
      </trkpt>
      <trkpt lat="45.21382" lon="0.70489">
        <ele>123.702</ele>
        <time>2019-08-04T05:59:45Z</time>
      </trkpt>
      <trkpt lat="45.21389" lon="0.70497">
        <ele>124.471</ele>
        <time>2019-08-04T05:59:48Z</time>
      </trkpt>
      <trkpt lat="45.21393" lon="0.70507">
        <ele>123.486</ele>
        <time>2019-08-04T05:59:51Z</time>
      </trkpt>
      <trkpt lat="45.21395" lon="0.70512">
        <ele>124.916</ele>
        <time>2019-08-04T05:59:53Z</time>
      </trkpt>
      <trkpt lat="45.214" lon="0.70519">
        <ele>126.84</ele>
        <time>2019-08-04T05:59:56Z</time>
      </trkpt>
      <trkpt lat="45.21405" lon="0.70523">
        <ele>126.762</ele>
        <time>2019-08-04T05:59:58Z</time>
      </trkpt>
      <trkpt lat="45.21408" lon="0.70526">
        <ele>127.315</ele>
        <time>2019-08-04T06:00:00Z</time>
      </trkpt>
      <trkpt lat="45.2141" lon="0.70529">
        <ele>126.557</ele>
        <time>2019-08-04T06:00:01Z</time>
      </trkpt>
      <trkpt lat="45.21413" lon="0.70531">
        <ele>126.419</ele>
        <time>2019-08-04T06:00:02Z</time>
      </trkpt>
      <trkpt lat="45.21415" lon="0.70533">
        <ele>126.134</ele>
        <time>2019-08-04T06:00:03Z</time>
      </trkpt>
      <trkpt lat="45.21416" lon="0.70535">
        <ele>125.05</ele>
        <time>2019-08-04T06:00:04Z</time>
      </trkpt>
      <trkpt lat="45.21421" lon="0.70541">
        <ele>123.836</ele>
        <time>2019-08-04T06:00:06Z</time>
      </trkpt>
      <trkpt lat="45.21427" lon="0.70546">
        <ele>124.927</ele>
        <time>2019-08-04T06:00:08Z</time>
      </trkpt>
      <trkpt lat="45.21432" lon="0.70549">
        <ele>126.666</ele>
        <time>2019-08-04T06:00:10Z</time>
      </trkpt>
      <trkpt lat="45.21437" lon="0.70551">
        <ele>128.319</ele>
        <time>2019-08-04T06:00:12Z</time>
      </trkpt>
      <trkpt lat="45.21444" lon="0.70556">
        <ele>127.732</ele>
        <time>2019-08-04T06:00:15Z</time>
      </trkpt>
      <trkpt lat="45.21448" lon="0.70558">
        <ele>127.619</ele>
        <time>2019-08-04T06:00:17Z</time>
      </trkpt>
      <trkpt lat="45.21452" lon="0.70563">
        <ele>128.726</ele>
        <time>2019-08-04T06:00:20Z</time>
      </trkpt>
      <trkpt lat="45.21455" lon="0.70568">
        <ele>129.492</ele>
        <time>2019-08-04T06:00:23Z</time>
      </trkpt>
      <trkpt lat="45.21464" lon="0.70573">
        <ele>131.28</ele>
        <time>2019-08-04T06:00:27Z</time>
      </trkpt>
      <trkpt lat="45.2147" lon="0.70575">
        <ele>129.426</ele>
        <time>2019-08-04T06:00:29Z</time>
      </trkpt>
      <trkpt lat="45.21472" lon="0.70576">
        <ele>130.079</ele>
        <time>2019-08-04T06:00:30Z</time>
      </trkpt>
      <trkpt lat="45.21475" lon="0.70576">
        <ele>130.451</ele>
        <time>2019-08-04T06:00:31Z</time>
      </trkpt>
      <trkpt lat="45.21479" lon="0.70578">
        <ele>128.831</ele>
        <time>2019-08-04T06:00:33Z</time>
      </trkpt>
      <trkpt lat="45.21483" lon="0.70579">
        <ele>127.19</ele>
        <time>2019-08-04T06:00:35Z</time>
      </trkpt>
      <trkpt lat="45.21486" lon="0.70579">
        <ele>126.874</ele>
        <time>2019-08-04T06:00:36Z</time>
      </trkpt>
      <trkpt lat="45.21488" lon="0.7058">
        <ele>126.942</ele>
        <time>2019-08-04T06:00:37Z</time>
      </trkpt>
      <trkpt lat="45.21492" lon="0.70582">
        <ele>127.601</ele>
        <time>2019-08-04T06:00:39Z</time>
      </trkpt>
      <trkpt lat="45.21503" lon="0.70585">
        <ele>128.052</ele>
        <time>2019-08-04T06:00:44Z</time>
      </trkpt>
      <trkpt lat="45.21507" lon="0.70585">
        <ele>127.368</ele>
        <time>2019-08-04T06:00:45Z</time>
      </trkpt>
      <trkpt lat="45.21517" lon="0.70586">
        <ele>127.674</ele>
        <time>2019-08-04T06:00:48Z</time>
      </trkpt>
      <trkpt lat="45.21524" lon="0.70588">
        <ele>128.779</ele>
        <time>2019-08-04T06:00:50Z</time>
      </trkpt>
      <trkpt lat="45.21532" lon="0.70592">
        <ele>128.277</ele>
        <time>2019-08-04T06:00:52Z</time>
      </trkpt>
      <trkpt lat="45.21539" lon="0.70597">
        <ele>125.149</ele>
        <time>2019-08-04T06:00:54Z</time>
      </trkpt>
      <trkpt lat="45.21546" lon="0.70604">
        <ele>125.608</ele>
        <time>2019-08-04T06:00:57Z</time>
      </trkpt>
      <trkpt lat="45.21547" lon="0.70612">
        <ele>130.069</ele>
        <time>2019-08-04T06:01:03Z</time>
      </trkpt>
      <trkpt lat="45.21547" lon="0.70618">
        <ele>132.871</ele>
        <time>2019-08-04T06:01:09Z</time>
      </trkpt>
      <trkpt lat="45.21544" lon="0.70623">
        <ele>134.482</ele>
        <time>2019-08-04T06:01:14Z</time>
      </trkpt>
      <trkpt lat="45.21542" lon="0.70627">
        <ele>138.816</ele>
        <time>2019-08-04T06:01:19Z</time>
      </trkpt>
      <trkpt lat="45.21539" lon="0.70632">
        <ele>142.406</ele>
        <time>2019-08-04T06:01:23Z</time>
      </trkpt>
      <trkpt lat="45.21535" lon="0.70639">
        <ele>144.109</ele>
        <time>2019-08-04T06:01:26Z</time>
      </trkpt>
      <trkpt lat="45.21531" lon="0.70642">
        <ele>143.267</ele>
        <time>2019-08-04T06:01:28Z</time>
      </trkpt>
      <trkpt lat="45.21525" lon="0.7065">
        <ele>143.175</ele>
        <time>2019-08-04T06:01:31Z</time>
      </trkpt>
      <trkpt lat="45.21522" lon="0.70655">
        <ele>143.293</ele>
        <time>2019-08-04T06:01:33Z</time>
      </trkpt>
      <trkpt lat="45.21519" lon="0.70659">
        <ele>143.599</ele>
        <time>2019-08-04T06:01:36Z</time>
      </trkpt>
      <trkpt lat="45.21515" lon="0.70665">
        <ele>143.64</ele>
        <time>2019-08-04T06:01:39Z</time>
      </trkpt>
      <trkpt lat="45.21511" lon="0.70671">
        <ele>144.79</ele>
        <time>2019-08-04T06:01:42Z</time>
      </trkpt>
      <trkpt lat="45.21507" lon="0.70676">
        <ele>145.474</ele>
        <time>2019-08-04T06:01:45Z</time>
      </trkpt>
      <trkpt lat="45.21502" lon="0.70683">
        <ele>145.94</ele>
        <time>2019-08-04T06:01:48Z</time>
      </trkpt>
      <trkpt lat="45.21499" lon="0.70688">
        <ele>149.277</ele>
        <time>2019-08-04T06:01:51Z</time>
      </trkpt>
      <trkpt lat="45.21497" lon="0.70696">
        <ele>149.368</ele>
        <time>2019-08-04T06:01:56Z</time>
      </trkpt>
      <trkpt lat="45.21495" lon="0.70702">
        <ele>150.843</ele>
        <time>2019-08-04T06:01:59Z</time>
      </trkpt>
      <trkpt lat="45.21495" lon="0.70705">
        <ele>150.416</ele>
        <time>2019-08-04T06:02:01Z</time>
      </trkpt>
      <trkpt lat="45.21492" lon="0.70711">
        <ele>152.853</ele>
        <time>2019-08-04T06:02:03Z</time>
      </trkpt>
      <trkpt lat="45.21489" lon="0.70716">
        <ele>153.045</ele>
        <time>2019-08-04T06:02:05Z</time>
      </trkpt>
      <trkpt lat="45.21487" lon="0.70719">
        <ele>156.261</ele>
        <time>2019-08-04T06:02:07Z</time>
      </trkpt>
      <trkpt lat="45.21485" lon="0.70722">
        <ele>156.124</ele>
        <time>2019-08-04T06:02:09Z</time>
      </trkpt>
      <trkpt lat="45.21483" lon="0.70725">
        <ele>157.139</ele>
        <time>2019-08-04T06:02:11Z</time>
      </trkpt>
      <trkpt lat="45.2148" lon="0.70729">
        <ele>158.617</ele>
        <time>2019-08-04T06:02:14Z</time>
      </trkpt>
      <trkpt lat="45.21474" lon="0.70733">
        <ele>158.586</ele>
        <time>2019-08-04T06:02:17Z</time>
      </trkpt>
      <trkpt lat="45.21471" lon="0.70735">
        <ele>158.117</ele>
        <time>2019-08-04T06:02:18Z</time>
      </trkpt>
      <trkpt lat="45.21466" lon="0.70739">
        <ele>159.49</ele>
        <time>2019-08-04T06:02:20Z</time>
      </trkpt>
      <trkpt lat="45.2146" lon="0.70744">
        <ele>159.952</ele>
        <time>2019-08-04T06:02:22Z</time>
      </trkpt>
      <trkpt lat="45.21457" lon="0.70747">
        <ele>159.521</ele>
        <time>2019-08-04T06:02:23Z</time>
      </trkpt>
      <trkpt lat="45.21453" lon="0.70753">
        <ele>159.23</ele>
        <time>2019-08-04T06:02:26Z</time>
      </trkpt>
      <trkpt lat="45.2145" lon="0.70758">
        <ele>157.597</ele>
        <time>2019-08-04T06:02:30Z</time>
      </trkpt>
      <trkpt lat="45.21447" lon="0.70764">
        <ele>160.176</ele>
        <time>2019-08-04T06:02:36Z</time>
      </trkpt>
      <trkpt lat="45.21443" lon="0.7077">
        <ele>158.556</ele>
        <time>2019-08-04T06:02:39Z</time>
      </trkpt>
      <trkpt lat="45.21439" lon="0.70775">
        <ele>158.751</ele>
        <time>2019-08-04T06:02:43Z</time>
      </trkpt>
      <trkpt lat="45.21437" lon="0.7078">
        <ele>160.686</ele>
        <time>2019-08-04T06:02:47Z</time>
      </trkpt>
      <trkpt lat="45.21435" lon="0.70784">
        <ele>160.973</ele>
        <time>2019-08-04T06:02:49Z</time>
      </trkpt>
      <trkpt lat="45.21431" lon="0.70787">
        <ele>161.675</ele>
        <time>2019-08-04T06:02:52Z</time>
      </trkpt>
      <trkpt lat="45.21426" lon="0.70789">
        <ele>160.935</ele>
        <time>2019-08-04T06:02:55Z</time>
      </trkpt>
      <trkpt lat="45.21421" lon="0.70794">
        <ele>165.389</ele>
        <time>2019-08-04T06:02:59Z</time>
      </trkpt>
      <trkpt lat="45.21418" lon="0.708">
        <ele>164.342</ele>
        <time>2019-08-04T06:03:03Z</time>
      </trkpt>
      <trkpt lat="45.21413" lon="0.70805">
        <ele>165.534</ele>
        <time>2019-08-04T06:03:07Z</time>
      </trkpt>
      <trkpt lat="45.21411" lon="0.70808">
        <ele>165.223</ele>
        <time>2019-08-04T06:03:09Z</time>
      </trkpt>
      <trkpt lat="45.21407" lon="0.70812">
        <ele>163.432</ele>
        <time>2019-08-04T06:03:12Z</time>
      </trkpt>
      <trkpt lat="45.21405" lon="0.70815">
        <ele>162.76</ele>
        <time>2019-08-04T06:03:14Z</time>
      </trkpt>
      <trkpt lat="45.21399" lon="0.70819">
        <ele>151.403</ele>
        <time>2019-08-04T06:03:17Z</time>
      </trkpt>
      <trkpt lat="45.21395" lon="0.70821">
        <ele>155.303</ele>
        <time>2019-08-04T06:03:20Z</time>
      </trkpt>
      <trkpt lat="45.2139" lon="0.70826">
        <ele>156.846</ele>
        <time>2019-08-04T06:03:23Z</time>
      </trkpt>
      <trkpt lat="45.21387" lon="0.70834">
        <ele>158.747</ele>
        <time>2019-08-04T06:03:26Z</time>
      </trkpt>
      <trkpt lat="45.21384" lon="0.70843">
        <ele>157.291</ele>
        <time>2019-08-04T06:03:28Z</time>
      </trkpt>
      <trkpt lat="45.21383" lon="0.70853">
        <ele>158.909</ele>
        <time>2019-08-04T06:03:30Z</time>
      </trkpt>
      <trkpt lat="45.21383" lon="0.70861">
        <ele>158.023</ele>
        <time>2019-08-04T06:03:32Z</time>
      </trkpt>
      <trkpt lat="45.21382" lon="0.70868">
        <ele>156.871</ele>
        <time>2019-08-04T06:03:36Z</time>
      </trkpt>
      <trkpt lat="45.21381" lon="0.70871">
        <ele>156.622</ele>
        <time>2019-08-04T06:03:38Z</time>
      </trkpt>
      <trkpt lat="45.21392" lon="0.70868">
        <ele>148.966</ele>
        <time>2019-08-04T06:03:46Z</time>
      </trkpt>
      <trkpt lat="45.21396" lon="0.70866">
        <ele>150.908</ele>
        <time>2019-08-04T06:03:48Z</time>
      </trkpt>
      <trkpt lat="45.214" lon="0.7087">
        <ele>150.989</ele>
        <time>2019-08-04T06:03:55Z</time>
      </trkpt>
      <trkpt lat="45.21404" lon="0.70866">
        <ele>150.238</ele>
        <time>2019-08-04T06:04:06Z</time>
      </trkpt>
      <trkpt lat="45.21412" lon="0.7086">
        <ele>149.599</ele>
        <time>2019-08-04T06:04:07Z</time>
      </trkpt>
      <trkpt lat="45.21415" lon="0.70858">
        <ele>149.245</ele>
        <time>2019-08-04T06:04:08Z</time>
      </trkpt>
      <trkpt lat="45.21418" lon="0.70856">
        <ele>149.441</ele>
        <time>2019-08-04T06:04:09Z</time>
      </trkpt>
      <trkpt lat="45.21422" lon="0.70853">
        <ele>148.366</ele>
        <time>2019-08-04T06:04:10Z</time>
      </trkpt>
      <trkpt lat="45.21425" lon="0.70852">
        <ele>148.987</ele>
        <time>2019-08-04T06:04:11Z</time>
      </trkpt>
      <trkpt lat="45.2143" lon="0.70847">
        <ele>153.097</ele>
        <time>2019-08-04T06:04:13Z</time>
      </trkpt>
      <trkpt lat="45.21436" lon="0.70842">
        <ele>153.582</ele>
        <time>2019-08-04T06:04:15Z</time>
      </trkpt>
      <trkpt lat="45.21439" lon="0.70839">
        <ele>153.922</ele>
        <time>2019-08-04T06:04:16Z</time>
      </trkpt>
      <trkpt lat="45.21443" lon="0.70836">
        <ele>153.428</ele>
        <time>2019-08-04T06:04:17Z</time>
      </trkpt>
      <trkpt lat="45.21446" lon="0.70833">
        <ele>151.273</ele>
        <time>2019-08-04T06:04:18Z</time>
      </trkpt>
      <trkpt lat="45.21449" lon="0.70831">
        <ele>152.552</ele>
        <time>2019-08-04T06:04:19Z</time>
      </trkpt>
      <trkpt lat="45.21452" lon="0.70829">
        <ele>152.392</ele>
        <time>2019-08-04T06:04:20Z</time>
      </trkpt>
      <trkpt lat="45.21456" lon="0.70827">
        <ele>151.36</ele>
        <time>2019-08-04T06:04:21Z</time>
      </trkpt>
      <trkpt lat="45.21459" lon="0.70826">
        <ele>149.448</ele>
        <time>2019-08-04T06:04:22Z</time>
      </trkpt>
      <trkpt lat="45.21471" lon="0.70816">
        <ele>148.594</ele>
        <time>2019-08-04T06:04:25Z</time>
      </trkpt>
      <trkpt lat="45.21474" lon="0.70813">
        <ele>148.004</ele>
        <time>2019-08-04T06:04:26Z</time>
      </trkpt>
      <trkpt lat="45.21478" lon="0.70809">
        <ele>147.382</ele>
        <time>2019-08-04T06:04:27Z</time>
      </trkpt>
      <trkpt lat="45.21481" lon="0.70805">
        <ele>148.141</ele>
        <time>2019-08-04T06:04:28Z</time>
      </trkpt>
      <trkpt lat="45.21485" lon="0.70801">
        <ele>148.272</ele>
        <time>2019-08-04T06:04:29Z</time>
      </trkpt>
      <trkpt lat="45.21489" lon="0.70797">
        <ele>148.431</ele>
        <time>2019-08-04T06:04:30Z</time>
      </trkpt>
      <trkpt lat="45.21496" lon="0.70789">
        <ele>148.979</ele>
        <time>2019-08-04T06:04:32Z</time>
      </trkpt>
      <trkpt lat="45.21499" lon="0.70785">
        <ele>148.564</ele>
        <time>2019-08-04T06:04:33Z</time>
      </trkpt>
      <trkpt lat="45.21502" lon="0.70781">
        <ele>148.473</ele>
        <time>2019-08-04T06:04:34Z</time>
      </trkpt>
      <trkpt lat="45.21506" lon="0.70777">
        <ele>147.769</ele>
        <time>2019-08-04T06:04:35Z</time>
      </trkpt>
      <trkpt lat="45.2151" lon="0.70772">
        <ele>147.986</ele>
        <time>2019-08-04T06:04:36Z</time>
      </trkpt>
      <trkpt lat="45.21513" lon="0.70768">
        <ele>146.477</ele>
        <time>2019-08-04T06:04:37Z</time>
      </trkpt>
      <trkpt lat="45.21516" lon="0.70763">
        <ele>146.548</ele>
        <time>2019-08-04T06:04:38Z</time>
      </trkpt>
      <trkpt lat="45.21532" lon="0.70738">
        <ele>146.532</ele>
        <time>2019-08-04T06:04:42Z</time>
      </trkpt>
      <trkpt lat="45.21537" lon="0.70733">
        <ele>144.542</ele>
        <time>2019-08-04T06:04:43Z</time>
      </trkpt>
      <trkpt lat="45.21546" lon="0.70724">
        <ele>142.722</ele>
        <time>2019-08-04T06:04:45Z</time>
      </trkpt>
      <trkpt lat="45.21556" lon="0.7071">
        <ele>142.734</ele>
        <time>2019-08-04T06:04:48Z</time>
      </trkpt>
      <trkpt lat="45.21562" lon="0.70701">
        <ele>143.859</ele>
        <time>2019-08-04T06:04:50Z</time>
      </trkpt>
      <trkpt lat="45.21566" lon="0.70696">
        <ele>144.79</ele>
        <time>2019-08-04T06:04:51Z</time>
      </trkpt>
      <trkpt lat="45.21571" lon="0.7069">
        <ele>143.466</ele>
        <time>2019-08-04T06:04:52Z</time>
      </trkpt>
      <trkpt lat="45.21574" lon="0.70687">
        <ele>142.281</ele>
        <time>2019-08-04T06:04:53Z</time>
      </trkpt>
      <trkpt lat="45.21578" lon="0.70683">
        <ele>142.144</ele>
        <time>2019-08-04T06:04:54Z</time>
      </trkpt>
      <trkpt lat="45.21589" lon="0.70679">
        <ele>141.015</ele>
        <time>2019-08-04T06:04:56Z</time>
      </trkpt>
      <trkpt lat="45.21593" lon="0.70674">
        <ele>139.602</ele>
        <time>2019-08-04T06:04:57Z</time>
      </trkpt>
      <trkpt lat="45.216" lon="0.70666">
        <ele>139.574</ele>
        <time>2019-08-04T06:04:59Z</time>
      </trkpt>
      <trkpt lat="45.21604" lon="0.70662">
        <ele>140.692</ele>
        <time>2019-08-04T06:05:00Z</time>
      </trkpt>
      <trkpt lat="45.2161" lon="0.70655">
        <ele>142.021</ele>
        <time>2019-08-04T06:05:02Z</time>
      </trkpt>
      <trkpt lat="45.21614" lon="0.70653">
        <ele>140.145</ele>
        <time>2019-08-04T06:05:03Z</time>
      </trkpt>
      <trkpt lat="45.21621" lon="0.70651">
        <ele>138.773</ele>
        <time>2019-08-04T06:05:06Z</time>
      </trkpt>
      <trkpt lat="45.21627" lon="0.70651">
        <ele>140.959</ele>
        <time>2019-08-04T06:05:11Z</time>
      </trkpt>
      <trkpt lat="45.21627" lon="0.70651">
        <ele>140.959</ele>
        <time>2019-08-04T06:05:18Z</time>
      </trkpt>
      <trkpt lat="45.21627" lon="0.70651">
        <ele>140.959</ele>
        <time>2019-08-04T06:05:19Z</time>
      </trkpt>
      <trkpt lat="45.21621" lon="0.70666">
        <ele>146.621</ele>
        <time>2019-08-04T06:07:38Z</time>
      </trkpt>
      <trkpt lat="45.21627" lon="0.70673">
        <ele>143.547</ele>
        <time>2019-08-04T06:07:46Z</time>
      </trkpt>
      <trkpt lat="45.21633" lon="0.70675">
        <ele>147.069</ele>
        <time>2019-08-04T06:07:52Z</time>
      </trkpt>
      <trkpt lat="45.21639" lon="0.70677">
        <ele>148.471</ele>
        <time>2019-08-04T06:07:56Z</time>
      </trkpt>
      <trkpt lat="45.21645" lon="0.70685">
        <ele>146.734</ele>
        <time>2019-08-04T06:08:00Z</time>
      </trkpt>
      <trkpt lat="45.21649" lon="0.70691">
        <ele>145.552</ele>
        <time>2019-08-04T06:08:04Z</time>
      </trkpt>
      <trkpt lat="45.2165" lon="0.70693">
        <ele>146.036</ele>
        <time>2019-08-04T06:08:13Z</time>
      </trkpt>
      <trkpt lat="45.21655" lon="0.70695">
        <ele>144.074</ele>
        <time>2019-08-04T06:08:29Z</time>
      </trkpt>
      <trkpt lat="45.21661" lon="0.70698">
        <ele>146.832</ele>
        <time>2019-08-04T06:08:32Z</time>
      </trkpt>
      <trkpt lat="45.21665" lon="0.70701">
        <ele>146.403</ele>
        <time>2019-08-04T06:08:34Z</time>
      </trkpt>
      <trkpt lat="45.2167" lon="0.70704">
        <ele>146.6</ele>
        <time>2019-08-04T06:08:37Z</time>
      </trkpt>
      <trkpt lat="45.21675" lon="0.70706">
        <ele>147.091</ele>
        <time>2019-08-04T06:08:40Z</time>
      </trkpt>
      <trkpt lat="45.21678" lon="0.70707">
        <ele>148.16</ele>
        <time>2019-08-04T06:08:42Z</time>
      </trkpt>
      <trkpt lat="45.21682" lon="0.70715">
        <ele>143.094</ele>
        <time>2019-08-04T06:08:49Z</time>
      </trkpt>
      <trkpt lat="45.21686" lon="0.7072">
        <ele>141.013</ele>
        <time>2019-08-04T06:08:52Z</time>
      </trkpt>
      <trkpt lat="45.21691" lon="0.70719">
        <ele>142.864</ele>
        <time>2019-08-04T06:08:58Z</time>
      </trkpt>
      <trkpt lat="45.21695" lon="0.70718">
        <ele>143.002</ele>
        <time>2019-08-04T06:09:02Z</time>
      </trkpt>
      <trkpt lat="45.21697" lon="0.70717">
        <ele>140.743</ele>
        <time>2019-08-04T06:09:05Z</time>
      </trkpt>
      <trkpt lat="45.21701" lon="0.70723">
        <ele>142.653</ele>
        <time>2019-08-04T06:09:16Z</time>
      </trkpt>
      <trkpt lat="45.21705" lon="0.70721">
        <ele>142.731</ele>
        <time>2019-08-04T06:09:20Z</time>
      </trkpt>
      <trkpt lat="45.21708" lon="0.7072">
        <ele>142.966</ele>
        <time>2019-08-04T06:09:22Z</time>
      </trkpt>
      <trkpt lat="45.21712" lon="0.70722">
        <ele>141.266</ele>
        <time>2019-08-04T06:09:26Z</time>
      </trkpt>
      <trkpt lat="45.21716" lon="0.70728">
        <ele>142.698</ele>
        <time>2019-08-04T06:09:56Z</time>
      </trkpt>
      <trkpt lat="45.21722" lon="0.70728">
        <ele>143.764</ele>
        <time>2019-08-04T06:09:58Z</time>
      </trkpt>
      <trkpt lat="45.21725" lon="0.70728">
        <ele>146.647</ele>
        <time>2019-08-04T06:09:59Z</time>
      </trkpt>
      <trkpt lat="45.21729" lon="0.70729">
        <ele>146.542</ele>
        <time>2019-08-04T06:10:00Z</time>
      </trkpt>
      <trkpt lat="45.21732" lon="0.7073">
        <ele>145.628</ele>
        <time>2019-08-04T06:10:01Z</time>
      </trkpt>
      <trkpt lat="45.21736" lon="0.70731">
        <ele>146.531</ele>
        <time>2019-08-04T06:10:02Z</time>
      </trkpt>
      <trkpt lat="45.21739" lon="0.70732">
        <ele>145.873</ele>
        <time>2019-08-04T06:10:03Z</time>
      </trkpt>
      <trkpt lat="45.21742" lon="0.70733">
        <ele>144.194</ele>
        <time>2019-08-04T06:10:04Z</time>
      </trkpt>
      <trkpt lat="45.21745" lon="0.70734">
        <ele>143.974</ele>
        <time>2019-08-04T06:10:05Z</time>
      </trkpt>
      <trkpt lat="45.21747" lon="0.70735">
        <ele>143.013</ele>
        <time>2019-08-04T06:10:06Z</time>
      </trkpt>
      <trkpt lat="45.21753" lon="0.70737">
        <ele>142.602</ele>
        <time>2019-08-04T06:10:08Z</time>
      </trkpt>
      <trkpt lat="45.2176" lon="0.70741">
        <ele>143.533</ele>
        <time>2019-08-04T06:10:12Z</time>
      </trkpt>
      <trkpt lat="45.21765" lon="0.70741">
        <ele>143.022</ele>
        <time>2019-08-04T06:10:16Z</time>
      </trkpt>
      <trkpt lat="45.21764" lon="0.70754">
        <ele>146.479</ele>
        <time>2019-08-04T06:10:21Z</time>
      </trkpt>
      <trkpt lat="45.21763" lon="0.70762">
        <ele>146.641</ele>
        <time>2019-08-04T06:10:24Z</time>
      </trkpt>
      <trkpt lat="45.21768" lon="0.70777">
        <ele>147.015</ele>
        <time>2019-08-04T06:10:28Z</time>
      </trkpt>
      <trkpt lat="45.21771" lon="0.70783">
        <ele>148.147</ele>
        <time>2019-08-04T06:10:30Z</time>
      </trkpt>
      <trkpt lat="45.21775" lon="0.70788">
        <ele>147.987</ele>
        <time>2019-08-04T06:10:32Z</time>
      </trkpt>
      <trkpt lat="45.21781" lon="0.70792">
        <ele>147.96</ele>
        <time>2019-08-04T06:10:34Z</time>
      </trkpt>
      <trkpt lat="45.21789" lon="0.70798">
        <ele>144.396</ele>
        <time>2019-08-04T06:10:37Z</time>
      </trkpt>
      <trkpt lat="45.21798" lon="0.70808">
        <ele>143.815</ele>
        <time>2019-08-04T06:10:41Z</time>
      </trkpt>
      <trkpt lat="45.21804" lon="0.70817">
        <ele>144.585</ele>
        <time>2019-08-04T06:10:44Z</time>
      </trkpt>
      <trkpt lat="45.2181" lon="0.70822">
        <ele>145.073</ele>
        <time>2019-08-04T06:10:46Z</time>
      </trkpt>
      <trkpt lat="45.21813" lon="0.70825">
        <ele>147.32</ele>
        <time>2019-08-04T06:10:48Z</time>
      </trkpt>
      <trkpt lat="45.21817" lon="0.70832">
        <ele>147.397</ele>
        <time>2019-08-04T06:10:51Z</time>
      </trkpt>
      <trkpt lat="45.21818" lon="0.70835">
        <ele>147.845</ele>
        <time>2019-08-04T06:10:52Z</time>
      </trkpt>
      <trkpt lat="45.21822" lon="0.70839">
        <ele>149.365</ele>
        <time>2019-08-04T06:10:54Z</time>
      </trkpt>
      <trkpt lat="45.21825" lon="0.70841">
        <ele>147.158</ele>
        <time>2019-08-04T06:10:56Z</time>
      </trkpt>
      <trkpt lat="45.21828" lon="0.70844">
        <ele>148.794</ele>
        <time>2019-08-04T06:10:58Z</time>
      </trkpt>
      <trkpt lat="45.21831" lon="0.70846">
        <ele>145.572</ele>
        <time>2019-08-04T06:10:59Z</time>
      </trkpt>
      <trkpt lat="45.21833" lon="0.70847">
        <ele>145.279</ele>
        <time>2019-08-04T06:11:00Z</time>
      </trkpt>
      <trkpt lat="45.21837" lon="0.70852">
        <ele>144.616</ele>
        <time>2019-08-04T06:11:02Z</time>
      </trkpt>
      <trkpt lat="45.21842" lon="0.7086">
        <ele>143.402</ele>
        <time>2019-08-04T06:11:05Z</time>
      </trkpt>
      <trkpt lat="45.21848" lon="0.70866">
        <ele>141.53</ele>
        <time>2019-08-04T06:11:07Z</time>
      </trkpt>
      <trkpt lat="45.21854" lon="0.70871">
        <ele>141.564</ele>
        <time>2019-08-04T06:11:09Z</time>
      </trkpt>
      <trkpt lat="45.21857" lon="0.70874">
        <ele>142.327</ele>
        <time>2019-08-04T06:11:10Z</time>
      </trkpt>
      <trkpt lat="45.21862" lon="0.7088">
        <ele>142.02</ele>
        <time>2019-08-04T06:11:12Z</time>
      </trkpt>
      <trkpt lat="45.21864" lon="0.70882">
        <ele>141.967</ele>
        <time>2019-08-04T06:11:13Z</time>
      </trkpt>
      <trkpt lat="45.21866" lon="0.70884">
        <ele>142.606</ele>
        <time>2019-08-04T06:11:14Z</time>
      </trkpt>
      <trkpt lat="45.21868" lon="0.70887">
        <ele>145.427</ele>
        <time>2019-08-04T06:11:15Z</time>
      </trkpt>
      <trkpt lat="45.21874" lon="0.70891">
        <ele>142.855</ele>
        <time>2019-08-04T06:11:17Z</time>
      </trkpt>
      <trkpt lat="45.21881" lon="0.70896">
        <ele>144.281</ele>
        <time>2019-08-04T06:11:19Z</time>
      </trkpt>
      <trkpt lat="45.21887" lon="0.70903">
        <ele>142.771</ele>
        <time>2019-08-04T06:11:21Z</time>
      </trkpt>
      <trkpt lat="45.2189" lon="0.70905">
        <ele>142.81</ele>
        <time>2019-08-04T06:11:22Z</time>
      </trkpt>
      <trkpt lat="45.21893" lon="0.70908">
        <ele>143.219</ele>
        <time>2019-08-04T06:11:23Z</time>
      </trkpt>
      <trkpt lat="45.21897" lon="0.70913">
        <ele>144.229</ele>
        <time>2019-08-04T06:11:25Z</time>
      </trkpt>
      <trkpt lat="45.21899" lon="0.70915">
        <ele>142.212</ele>
        <time>2019-08-04T06:11:26Z</time>
      </trkpt>
      <trkpt lat="45.219" lon="0.70917">
        <ele>141.22</ele>
        <time>2019-08-04T06:11:27Z</time>
      </trkpt>
      <trkpt lat="45.21907" lon="0.70923">
        <ele>139.2</ele>
        <time>2019-08-04T06:11:30Z</time>
      </trkpt>
      <trkpt lat="45.21909" lon="0.70925">
        <ele>139.662</ele>
        <time>2019-08-04T06:11:31Z</time>
      </trkpt>
      <trkpt lat="45.21912" lon="0.70928">
        <ele>139.963</ele>
        <time>2019-08-04T06:11:32Z</time>
      </trkpt>
      <trkpt lat="45.21916" lon="0.70933">
        <ele>138.644</ele>
        <time>2019-08-04T06:11:34Z</time>
      </trkpt>
      <trkpt lat="45.21921" lon="0.70941">
        <ele>140.476</ele>
        <time>2019-08-04T06:11:37Z</time>
      </trkpt>
      <trkpt lat="45.21926" lon="0.70947">
        <ele>142.254</ele>
        <time>2019-08-04T06:11:39Z</time>
      </trkpt>
      <trkpt lat="45.21931" lon="0.70949">
        <ele>143.037</ele>
        <time>2019-08-04T06:11:42Z</time>
      </trkpt>
      <trkpt lat="45.21935" lon="0.70953">
        <ele>143.109</ele>
        <time>2019-08-04T06:11:44Z</time>
      </trkpt>
      <trkpt lat="45.21939" lon="0.70958">
        <ele>144.439</ele>
        <time>2019-08-04T06:11:46Z</time>
      </trkpt>
      <trkpt lat="45.21945" lon="0.70965">
        <ele>146.745</ele>
        <time>2019-08-04T06:11:49Z</time>
      </trkpt>
      <trkpt lat="45.21947" lon="0.70971">
        <ele>149.777</ele>
        <time>2019-08-04T06:11:51Z</time>
      </trkpt>
      <trkpt lat="45.21949" lon="0.70975">
        <ele>149.519</ele>
        <time>2019-08-04T06:11:52Z</time>
      </trkpt>
      <trkpt lat="45.21952" lon="0.7098">
        <ele>150.406</ele>
        <time>2019-08-04T06:11:54Z</time>
      </trkpt>
      <trkpt lat="45.21961" lon="0.70987">
        <ele>152.303</ele>
        <time>2019-08-04T06:11:58Z</time>
      </trkpt>
      <trkpt lat="45.21964" lon="0.70993">
        <ele>149.128</ele>
        <time>2019-08-04T06:12:01Z</time>
      </trkpt>
      <trkpt lat="45.21966" lon="0.70996">
        <ele>148.746</ele>
        <time>2019-08-04T06:12:02Z</time>
      </trkpt>
      <trkpt lat="45.21968" lon="0.70998">
        <ele>149.44</ele>
        <time>2019-08-04T06:12:03Z</time>
      </trkpt>
      <trkpt lat="45.21972" lon="0.71002">
        <ele>150.832</ele>
        <time>2019-08-04T06:12:05Z</time>
      </trkpt>
      <trkpt lat="45.21975" lon="0.71004">
        <ele>150.45</ele>
        <time>2019-08-04T06:12:06Z</time>
      </trkpt>
      <trkpt lat="45.21977" lon="0.71007">
        <ele>150.274</ele>
        <time>2019-08-04T06:12:07Z</time>
      </trkpt>
      <trkpt lat="45.21982" lon="0.71011">
        <ele>149.052</ele>
        <time>2019-08-04T06:12:09Z</time>
      </trkpt>
      <trkpt lat="45.21985" lon="0.71013">
        <ele>150.615</ele>
        <time>2019-08-04T06:12:10Z</time>
      </trkpt>
      <trkpt lat="45.21987" lon="0.71015">
        <ele>148.147</ele>
        <time>2019-08-04T06:12:11Z</time>
      </trkpt>
      <trkpt lat="45.21991" lon="0.71021">
        <ele>149.207</ele>
        <time>2019-08-04T06:12:14Z</time>
      </trkpt>
      <trkpt lat="45.21997" lon="0.71026">
        <ele>150.755</ele>
        <time>2019-08-04T06:12:17Z</time>
      </trkpt>
      <trkpt lat="45.22003" lon="0.7103">
        <ele>153.076</ele>
        <time>2019-08-04T06:12:19Z</time>
      </trkpt>
      <trkpt lat="45.2201" lon="0.71035">
        <ele>150.218</ele>
        <time>2019-08-04T06:12:22Z</time>
      </trkpt>
      <trkpt lat="45.22013" lon="0.71037">
        <ele>150.527</ele>
        <time>2019-08-04T06:12:23Z</time>
      </trkpt>
      <trkpt lat="45.22021" lon="0.71043">
        <ele>149.644</ele>
        <time>2019-08-04T06:12:26Z</time>
      </trkpt>
      <trkpt lat="45.22023" lon="0.71044">
        <ele>149.704</ele>
        <time>2019-08-04T06:12:27Z</time>
      </trkpt>
      <trkpt lat="45.22027" lon="0.71048">
        <ele>148.876</ele>
        <time>2019-08-04T06:12:29Z</time>
      </trkpt>
      <trkpt lat="45.22032" lon="0.7105">
        <ele>147.672</ele>
        <time>2019-08-04T06:12:31Z</time>
      </trkpt>
      <trkpt lat="45.22035" lon="0.71052">
        <ele>147.82</ele>
        <time>2019-08-04T06:12:32Z</time>
      </trkpt>
      <trkpt lat="45.22039" lon="0.71053">
        <ele>147.322</ele>
        <time>2019-08-04T06:12:33Z</time>
      </trkpt>
      <trkpt lat="45.22042" lon="0.71055">
        <ele>147.79</ele>
        <time>2019-08-04T06:12:34Z</time>
      </trkpt>
      <trkpt lat="45.2205" lon="0.71058">
        <ele>144.923</ele>
        <time>2019-08-04T06:12:36Z</time>
      </trkpt>
      <trkpt lat="45.22058" lon="0.71062">
        <ele>145.816</ele>
        <time>2019-08-04T06:12:38Z</time>
      </trkpt>
      <trkpt lat="45.22062" lon="0.71065">
        <ele>145.651</ele>
        <time>2019-08-04T06:12:39Z</time>
      </trkpt>
      <trkpt lat="45.22069" lon="0.71071">
        <ele>144.097</ele>
        <time>2019-08-04T06:12:42Z</time>
      </trkpt>
      <trkpt lat="45.22075" lon="0.71075">
        <ele>142.022</ele>
        <time>2019-08-04T06:12:47Z</time>
      </trkpt>
      <trkpt lat="45.22088" lon="0.71082">
        <ele>139.751</ele>
        <time>2019-08-04T06:12:51Z</time>
      </trkpt>
      <trkpt lat="45.22095" lon="0.71087">
        <ele>140.914</ele>
        <time>2019-08-04T06:12:53Z</time>
      </trkpt>
      <trkpt lat="45.22104" lon="0.71091">
        <ele>143.005</ele>
        <time>2019-08-04T06:12:55Z</time>
      </trkpt>
      <trkpt lat="45.22111" lon="0.71095">
        <ele>144.003</ele>
        <time>2019-08-04T06:12:57Z</time>
      </trkpt>
      <trkpt lat="45.22118" lon="0.711">
        <ele>142.293</ele>
        <time>2019-08-04T06:12:59Z</time>
      </trkpt>
      <trkpt lat="45.22121" lon="0.71103">
        <ele>141.264</ele>
        <time>2019-08-04T06:13:00Z</time>
      </trkpt>
      <trkpt lat="45.22125" lon="0.71105">
        <ele>139.739</ele>
        <time>2019-08-04T06:13:01Z</time>
      </trkpt>
      <trkpt lat="45.22128" lon="0.71107">
        <ele>139.682</ele>
        <time>2019-08-04T06:13:02Z</time>
      </trkpt>
      <trkpt lat="45.22131" lon="0.71108">
        <ele>140.995</ele>
        <time>2019-08-04T06:13:03Z</time>
      </trkpt>
      <trkpt lat="45.22136" lon="0.7111">
        <ele>138.097</ele>
        <time>2019-08-04T06:13:05Z</time>
      </trkpt>
      <trkpt lat="45.22139" lon="0.71111">
        <ele>138.746</ele>
        <time>2019-08-04T06:13:06Z</time>
      </trkpt>
      <trkpt lat="45.22142" lon="0.71112">
        <ele>138.989</ele>
        <time>2019-08-04T06:13:07Z</time>
      </trkpt>
      <trkpt lat="45.22145" lon="0.71114">
        <ele>140.088</ele>
        <time>2019-08-04T06:13:08Z</time>
      </trkpt>
      <trkpt lat="45.22148" lon="0.71115">
        <ele>140.882</ele>
        <time>2019-08-04T06:13:09Z</time>
      </trkpt>
      <trkpt lat="45.22151" lon="0.71117">
        <ele>142.238</ele>
        <time>2019-08-04T06:13:10Z</time>
      </trkpt>
      <trkpt lat="45.22154" lon="0.71119">
        <ele>142.913</ele>
        <time>2019-08-04T06:13:11Z</time>
      </trkpt>
      <trkpt lat="45.22157" lon="0.71121">
        <ele>142.763</ele>
        <time>2019-08-04T06:13:12Z</time>
      </trkpt>
      <trkpt lat="45.2216" lon="0.71123">
        <ele>143.397</ele>
        <time>2019-08-04T06:13:13Z</time>
      </trkpt>
      <trkpt lat="45.22163" lon="0.71125">
        <ele>144.525</ele>
        <time>2019-08-04T06:13:14Z</time>
      </trkpt>
      <trkpt lat="45.22166" lon="0.71127">
        <ele>146.328</ele>
        <time>2019-08-04T06:13:15Z</time>
      </trkpt>
      <trkpt lat="45.22173" lon="0.71136">
        <ele>143.206</ele>
        <time>2019-08-04T06:13:18Z</time>
      </trkpt>
      <trkpt lat="45.22178" lon="0.71139">
        <ele>142.729</ele>
        <time>2019-08-04T06:13:20Z</time>
      </trkpt>
      <trkpt lat="45.22186" lon="0.71141">
        <ele>139.691</ele>
        <time>2019-08-04T06:13:22Z</time>
      </trkpt>
      <trkpt lat="45.2219" lon="0.71142">
        <ele>140.268</ele>
        <time>2019-08-04T06:13:23Z</time>
      </trkpt>
      <trkpt lat="45.22202" lon="0.71148">
        <ele>141.027</ele>
        <time>2019-08-04T06:13:26Z</time>
      </trkpt>
      <trkpt lat="45.22205" lon="0.71151">
        <ele>141.285</ele>
        <time>2019-08-04T06:13:27Z</time>
      </trkpt>
      <trkpt lat="45.22212" lon="0.71156">
        <ele>141.457</ele>
        <time>2019-08-04T06:13:29Z</time>
      </trkpt>
      <trkpt lat="45.22215" lon="0.71158">
        <ele>142.824</ele>
        <time>2019-08-04T06:13:30Z</time>
      </trkpt>
      <trkpt lat="45.2222" lon="0.71161">
        <ele>143.945</ele>
        <time>2019-08-04T06:13:32Z</time>
      </trkpt>
      <trkpt lat="45.22224" lon="0.71163">
        <ele>144.807</ele>
        <time>2019-08-04T06:13:33Z</time>
      </trkpt>
      <trkpt lat="45.22228" lon="0.71165">
        <ele>145.72</ele>
        <time>2019-08-04T06:13:34Z</time>
      </trkpt>
      <trkpt lat="45.22237" lon="0.71172">
        <ele>144.729</ele>
        <time>2019-08-04T06:13:37Z</time>
      </trkpt>
      <trkpt lat="45.22244" lon="0.71181">
        <ele>144.68</ele>
        <time>2019-08-04T06:13:40Z</time>
      </trkpt>
      <trkpt lat="45.22248" lon="0.71187">
        <ele>147.097</ele>
        <time>2019-08-04T06:13:42Z</time>
      </trkpt>
      <trkpt lat="45.2225" lon="0.71191">
        <ele>148.107</ele>
        <time>2019-08-04T06:13:43Z</time>
      </trkpt>
      <trkpt lat="45.22253" lon="0.71194">
        <ele>147.333</ele>
        <time>2019-08-04T06:13:44Z</time>
      </trkpt>
      <trkpt lat="45.22255" lon="0.71197">
        <ele>147.847</ele>
        <time>2019-08-04T06:13:45Z</time>
      </trkpt>
      <trkpt lat="45.22257" lon="0.71201">
        <ele>149</ele>
        <time>2019-08-04T06:13:46Z</time>
      </trkpt>
      <trkpt lat="45.22259" lon="0.71204">
        <ele>149.619</ele>
        <time>2019-08-04T06:13:47Z</time>
      </trkpt>
      <trkpt lat="45.22261" lon="0.71207">
        <ele>150.062</ele>
        <time>2019-08-04T06:13:48Z</time>
      </trkpt>
      <trkpt lat="45.22264" lon="0.71211">
        <ele>148.8</ele>
        <time>2019-08-04T06:13:49Z</time>
      </trkpt>
      <trkpt lat="45.22266" lon="0.71214">
        <ele>148.397</ele>
        <time>2019-08-04T06:13:50Z</time>
      </trkpt>
      <trkpt lat="45.22272" lon="0.71223">
        <ele>149.555</ele>
        <time>2019-08-04T06:13:53Z</time>
      </trkpt>
      <trkpt lat="45.22273" lon="0.71226">
        <ele>149.445</ele>
        <time>2019-08-04T06:13:54Z</time>
      </trkpt>
      <trkpt lat="45.22277" lon="0.71235">
        <ele>148.536</ele>
        <time>2019-08-04T06:13:57Z</time>
      </trkpt>
      <trkpt lat="45.22282" lon="0.71243">
        <ele>148.639</ele>
        <time>2019-08-04T06:14:01Z</time>
      </trkpt>
      <trkpt lat="45.22287" lon="0.71251">
        <ele>148.912</ele>
        <time>2019-08-04T06:14:04Z</time>
      </trkpt>
      <trkpt lat="45.22288" lon="0.71254">
        <ele>148.171</ele>
        <time>2019-08-04T06:14:05Z</time>
      </trkpt>
      <trkpt lat="45.2229" lon="0.71256">
        <ele>147.806</ele>
        <time>2019-08-04T06:14:06Z</time>
      </trkpt>
      <trkpt lat="45.22292" lon="0.71259">
        <ele>147.088</ele>
        <time>2019-08-04T06:14:07Z</time>
      </trkpt>
      <trkpt lat="45.22293" lon="0.71262">
        <ele>145.295</ele>
        <time>2019-08-04T06:14:08Z</time>
      </trkpt>
      <trkpt lat="45.22294" lon="0.71264">
        <ele>144.51</ele>
        <time>2019-08-04T06:14:09Z</time>
      </trkpt>
      <trkpt lat="45.22298" lon="0.71269">
        <ele>144.507</ele>
        <time>2019-08-04T06:14:11Z</time>
      </trkpt>
      <trkpt lat="45.22301" lon="0.71275">
        <ele>142.215</ele>
        <time>2019-08-04T06:14:13Z</time>
      </trkpt>
      <trkpt lat="45.22304" lon="0.7128">
        <ele>140.818</ele>
        <time>2019-08-04T06:14:15Z</time>
      </trkpt>
      <trkpt lat="45.22306" lon="0.71282">
        <ele>141.923</ele>
        <time>2019-08-04T06:14:16Z</time>
      </trkpt>
      <trkpt lat="45.22308" lon="0.71285">
        <ele>141.7</ele>
        <time>2019-08-04T06:14:17Z</time>
      </trkpt>
      <trkpt lat="45.2231" lon="0.71288">
        <ele>142.482</ele>
        <time>2019-08-04T06:14:18Z</time>
      </trkpt>
      <trkpt lat="45.22311" lon="0.7129">
        <ele>141.955</ele>
        <time>2019-08-04T06:14:19Z</time>
      </trkpt>
      <trkpt lat="45.22313" lon="0.71293">
        <ele>140.962</ele>
        <time>2019-08-04T06:14:20Z</time>
      </trkpt>
      <trkpt lat="45.22315" lon="0.71296">
        <ele>140.82</ele>
        <time>2019-08-04T06:14:21Z</time>
      </trkpt>
      <trkpt lat="45.22317" lon="0.71299">
        <ele>139.885</ele>
        <time>2019-08-04T06:14:22Z</time>
      </trkpt>
      <trkpt lat="45.22319" lon="0.71302">
        <ele>140.292</ele>
        <time>2019-08-04T06:14:23Z</time>
      </trkpt>
      <trkpt lat="45.2232" lon="0.71304">
        <ele>140.329</ele>
        <time>2019-08-04T06:14:24Z</time>
      </trkpt>
      <trkpt lat="45.22322" lon="0.71307">
        <ele>139.965</ele>
        <time>2019-08-04T06:14:25Z</time>
      </trkpt>
      <trkpt lat="45.22325" lon="0.71311">
        <ele>138.809</ele>
        <time>2019-08-04T06:14:27Z</time>
      </trkpt>
      <trkpt lat="45.22328" lon="0.71315">
        <ele>138.842</ele>
        <time>2019-08-04T06:14:29Z</time>
      </trkpt>
      <trkpt lat="45.22333" lon="0.71321">
        <ele>139.412</ele>
        <time>2019-08-04T06:14:32Z</time>
      </trkpt>
      <trkpt lat="45.22335" lon="0.71323">
        <ele>139.167</ele>
        <time>2019-08-04T06:14:33Z</time>
      </trkpt>
      <trkpt lat="45.22339" lon="0.71326">
        <ele>140.538</ele>
        <time>2019-08-04T06:14:35Z</time>
      </trkpt>
      <trkpt lat="45.22342" lon="0.71327">
        <ele>141.387</ele>
        <time>2019-08-04T06:14:36Z</time>
      </trkpt>
      <trkpt lat="45.22344" lon="0.71329">
        <ele>143.049</ele>
        <time>2019-08-04T06:14:37Z</time>
      </trkpt>
      <trkpt lat="45.22347" lon="0.71331">
        <ele>142.39</ele>
        <time>2019-08-04T06:14:38Z</time>
      </trkpt>
      <trkpt lat="45.22353" lon="0.71336">
        <ele>142.515</ele>
        <time>2019-08-04T06:14:41Z</time>
      </trkpt>
      <trkpt lat="45.22356" lon="0.71338">
        <ele>141.639</ele>
        <time>2019-08-04T06:14:43Z</time>
      </trkpt>
      <trkpt lat="45.22364" lon="0.71343">
        <ele>139.602</ele>
        <time>2019-08-04T06:14:47Z</time>
      </trkpt>
      <trkpt lat="45.22366" lon="0.71344">
        <ele>140.047</ele>
        <time>2019-08-04T06:14:48Z</time>
      </trkpt>
      <trkpt lat="45.22369" lon="0.71346">
        <ele>139.218</ele>
        <time>2019-08-04T06:14:49Z</time>
      </trkpt>
      <trkpt lat="45.22372" lon="0.71348">
        <ele>138.814</ele>
        <time>2019-08-04T06:14:50Z</time>
      </trkpt>
      <trkpt lat="45.22376" lon="0.71354">
        <ele>137.331</ele>
        <time>2019-08-04T06:14:53Z</time>
      </trkpt>
      <trkpt lat="45.22377" lon="0.71357">
        <ele>136.597</ele>
        <time>2019-08-04T06:14:55Z</time>
      </trkpt>
      <trkpt lat="45.22381" lon="0.71366">
        <ele>136.484</ele>
        <time>2019-08-04T06:15:01Z</time>
      </trkpt>
      <trkpt lat="45.22383" lon="0.7137">
        <ele>139.325</ele>
        <time>2019-08-04T06:15:04Z</time>
      </trkpt>
      <trkpt lat="45.22387" lon="0.71375">
        <ele>141.623</ele>
        <time>2019-08-04T06:15:07Z</time>
      </trkpt>
      <trkpt lat="45.22393" lon="0.71379">
        <ele>139.904</ele>
        <time>2019-08-04T06:15:10Z</time>
      </trkpt>
      <trkpt lat="45.22396" lon="0.71384">
        <ele>144.327</ele>
        <time>2019-08-04T06:15:13Z</time>
      </trkpt>
      <trkpt lat="45.22402" lon="0.7139">
        <ele>142.485</ele>
        <time>2019-08-04T06:15:17Z</time>
      </trkpt>
      <trkpt lat="45.22405" lon="0.71397">
        <ele>145.703</ele>
        <time>2019-08-04T06:15:21Z</time>
      </trkpt>
      <trkpt lat="45.22403" lon="0.71404">
        <ele>144.108</ele>
        <time>2019-08-04T06:15:25Z</time>
      </trkpt>
      <trkpt lat="45.22409" lon="0.71409">
        <ele>145.014</ele>
        <time>2019-08-04T06:15:29Z</time>
      </trkpt>
      <trkpt lat="45.22411" lon="0.71412">
        <ele>147.487</ele>
        <time>2019-08-04T06:15:31Z</time>
      </trkpt>
      <trkpt lat="45.22415" lon="0.71416">
        <ele>148.856</ele>
        <time>2019-08-04T06:15:34Z</time>
      </trkpt>
      <trkpt lat="45.2242" lon="0.71421">
        <ele>150.532</ele>
        <time>2019-08-04T06:15:37Z</time>
      </trkpt>
      <trkpt lat="45.22423" lon="0.71424">
        <ele>150.747</ele>
        <time>2019-08-04T06:15:39Z</time>
      </trkpt>
      <trkpt lat="45.22428" lon="0.71429">
        <ele>152.165</ele>
        <time>2019-08-04T06:15:42Z</time>
      </trkpt>
      <trkpt lat="45.22433" lon="0.71434">
        <ele>149.432</ele>
        <time>2019-08-04T06:15:45Z</time>
      </trkpt>
      <trkpt lat="45.22436" lon="0.71437">
        <ele>149.532</ele>
        <time>2019-08-04T06:15:47Z</time>
      </trkpt>
      <trkpt lat="45.22441" lon="0.71441">
        <ele>149.126</ele>
        <time>2019-08-04T06:15:50Z</time>
      </trkpt>
      <trkpt lat="45.22444" lon="0.71447">
        <ele>150.635</ele>
        <time>2019-08-04T06:15:53Z</time>
      </trkpt>
      <trkpt lat="45.22447" lon="0.71451">
        <ele>150.792</ele>
        <time>2019-08-04T06:15:55Z</time>
      </trkpt>
      <trkpt lat="45.22451" lon="0.71456">
        <ele>151.521</ele>
        <time>2019-08-04T06:15:57Z</time>
      </trkpt>
      <trkpt lat="45.22454" lon="0.71459">
        <ele>152.358</ele>
        <time>2019-08-04T06:15:59Z</time>
      </trkpt>
      <trkpt lat="45.22459" lon="0.71465">
        <ele>151.937</ele>
        <time>2019-08-04T06:16:02Z</time>
      </trkpt>
      <trkpt lat="45.22463" lon="0.71471">
        <ele>151.318</ele>
        <time>2019-08-04T06:16:06Z</time>
      </trkpt>
      <trkpt lat="45.22465" lon="0.71475">
        <ele>152.61</ele>
        <time>2019-08-04T06:16:08Z</time>
      </trkpt>
      <trkpt lat="45.22471" lon="0.71482">
        <ele>153.891</ele>
        <time>2019-08-04T06:16:12Z</time>
      </trkpt>
      <trkpt lat="45.22474" lon="0.71487">
        <ele>153.489</ele>
        <time>2019-08-04T06:16:15Z</time>
      </trkpt>
      <trkpt lat="45.22476" lon="0.71492">
        <ele>154.192</ele>
        <time>2019-08-04T06:16:17Z</time>
      </trkpt>
      <trkpt lat="45.2248" lon="0.71499">
        <ele>154.305</ele>
        <time>2019-08-04T06:16:19Z</time>
      </trkpt>
      <trkpt lat="45.22483" lon="0.71502">
        <ele>154.921</ele>
        <time>2019-08-04T06:16:20Z</time>
      </trkpt>
      <trkpt lat="45.22484" lon="0.71505">
        <ele>154.42</ele>
        <time>2019-08-04T06:16:21Z</time>
      </trkpt>
      <trkpt lat="45.22486" lon="0.71507">
        <ele>155.305</ele>
        <time>2019-08-04T06:16:22Z</time>
      </trkpt>
      <trkpt lat="45.22491" lon="0.7151">
        <ele>158.66</ele>
        <time>2019-08-04T06:16:24Z</time>
      </trkpt>
      <trkpt lat="45.22496" lon="0.7151">
        <ele>159.754</ele>
        <time>2019-08-04T06:16:26Z</time>
      </trkpt>
      <trkpt lat="45.22503" lon="0.71509">
        <ele>160.992</ele>
        <time>2019-08-04T06:16:28Z</time>
      </trkpt>
      <trkpt lat="45.22509" lon="0.71511">
        <ele>159.83</ele>
        <time>2019-08-04T06:16:31Z</time>
      </trkpt>
      <trkpt lat="45.22514" lon="0.71515">
        <ele>160.215</ele>
        <time>2019-08-04T06:16:33Z</time>
      </trkpt>
      <trkpt lat="45.22515" lon="0.71517">
        <ele>160.081</ele>
        <time>2019-08-04T06:16:34Z</time>
      </trkpt>
      <trkpt lat="45.22522" lon="0.71521">
        <ele>159.199</ele>
        <time>2019-08-04T06:16:37Z</time>
      </trkpt>
      <trkpt lat="45.22526" lon="0.71523">
        <ele>158.95</ele>
        <time>2019-08-04T06:16:39Z</time>
      </trkpt>
      <trkpt lat="45.22536" lon="0.71527">
        <ele>158.777</ele>
        <time>2019-08-04T06:16:42Z</time>
      </trkpt>
      <trkpt lat="45.22539" lon="0.71528">
        <ele>157.651</ele>
        <time>2019-08-04T06:16:43Z</time>
      </trkpt>
      <trkpt lat="45.22542" lon="0.7153">
        <ele>157.314</ele>
        <time>2019-08-04T06:16:44Z</time>
      </trkpt>
      <trkpt lat="45.22546" lon="0.71531">
        <ele>156.196</ele>
        <time>2019-08-04T06:16:45Z</time>
      </trkpt>
      <trkpt lat="45.22552" lon="0.71536">
        <ele>153.098</ele>
        <time>2019-08-04T06:16:47Z</time>
      </trkpt>
      <trkpt lat="45.22558" lon="0.71544">
        <ele>153.309</ele>
        <time>2019-08-04T06:16:49Z</time>
      </trkpt>
      <trkpt lat="45.22561" lon="0.71549">
        <ele>153.157</ele>
        <time>2019-08-04T06:16:50Z</time>
      </trkpt>
      <trkpt lat="45.22567" lon="0.71559">
        <ele>151.609</ele>
        <time>2019-08-04T06:16:52Z</time>
      </trkpt>
      <trkpt lat="45.2257" lon="0.71564">
        <ele>152.017</ele>
        <time>2019-08-04T06:16:53Z</time>
      </trkpt>
      <trkpt lat="45.22572" lon="0.71568">
        <ele>149.239</ele>
        <time>2019-08-04T06:16:54Z</time>
      </trkpt>
      <trkpt lat="45.22575" lon="0.71572">
        <ele>148.35</ele>
        <time>2019-08-04T06:16:55Z</time>
      </trkpt>
      <trkpt lat="45.2258" lon="0.71582">
        <ele>146.876</ele>
        <time>2019-08-04T06:16:57Z</time>
      </trkpt>
      <trkpt lat="45.22584" lon="0.7159">
        <ele>146.306</ele>
        <time>2019-08-04T06:16:59Z</time>
      </trkpt>
      <trkpt lat="45.22592" lon="0.71603">
        <ele>146.973</ele>
        <time>2019-08-04T06:17:02Z</time>
      </trkpt>
      <trkpt lat="45.22595" lon="0.71607">
        <ele>147.961</ele>
        <time>2019-08-04T06:17:03Z</time>
      </trkpt>
      <trkpt lat="45.22598" lon="0.71612">
        <ele>147.14</ele>
        <time>2019-08-04T06:17:04Z</time>
      </trkpt>
      <trkpt lat="45.22601" lon="0.71617">
        <ele>146.784</ele>
        <time>2019-08-04T06:17:05Z</time>
      </trkpt>
      <trkpt lat="45.22604" lon="0.71622">
        <ele>147.097</ele>
        <time>2019-08-04T06:17:06Z</time>
      </trkpt>
      <trkpt lat="45.22608" lon="0.71626">
        <ele>148.615</ele>
        <time>2019-08-04T06:17:07Z</time>
      </trkpt>
      <trkpt lat="45.22615" lon="0.71636">
        <ele>147.193</ele>
        <time>2019-08-04T06:17:09Z</time>
      </trkpt>
      <trkpt lat="45.2262" lon="0.71644">
        <ele>148.123</ele>
        <time>2019-08-04T06:17:11Z</time>
      </trkpt>
      <trkpt lat="45.22623" lon="0.71649">
        <ele>148.364</ele>
        <time>2019-08-04T06:17:12Z</time>
      </trkpt>
      <trkpt lat="45.2263" lon="0.71655">
        <ele>149.321</ele>
        <time>2019-08-04T06:17:14Z</time>
      </trkpt>
      <trkpt lat="45.22633" lon="0.71658">
        <ele>149.044</ele>
        <time>2019-08-04T06:17:15Z</time>
      </trkpt>
      <trkpt lat="45.22637" lon="0.71664">
        <ele>148.252</ele>
        <time>2019-08-04T06:17:17Z</time>
      </trkpt>
      <trkpt lat="45.22639" lon="0.71668">
        <ele>147.818</ele>
        <time>2019-08-04T06:17:18Z</time>
      </trkpt>
      <trkpt lat="45.22646" lon="0.71674">
        <ele>148.739</ele>
        <time>2019-08-04T06:17:20Z</time>
      </trkpt>
      <trkpt lat="45.22649" lon="0.71678">
        <ele>149.769</ele>
        <time>2019-08-04T06:17:21Z</time>
      </trkpt>
      <trkpt lat="45.22653" lon="0.71682">
        <ele>149.66</ele>
        <time>2019-08-04T06:17:22Z</time>
      </trkpt>
      <trkpt lat="45.22656" lon="0.71685">
        <ele>149.99</ele>
        <time>2019-08-04T06:17:23Z</time>
      </trkpt>
      <trkpt lat="45.22659" lon="0.71688">
        <ele>150.545</ele>
        <time>2019-08-04T06:17:24Z</time>
      </trkpt>
      <trkpt lat="45.22662" lon="0.71692">
        <ele>150.449</ele>
        <time>2019-08-04T06:17:25Z</time>
      </trkpt>
      <trkpt lat="45.22665" lon="0.71695">
        <ele>148.886</ele>
        <time>2019-08-04T06:17:26Z</time>
      </trkpt>
      <trkpt lat="45.22667" lon="0.71699">
        <ele>148.733</ele>
        <time>2019-08-04T06:17:27Z</time>
      </trkpt>
      <trkpt lat="45.22669" lon="0.71702">
        <ele>147.495</ele>
        <time>2019-08-04T06:17:28Z</time>
      </trkpt>
      <trkpt lat="45.22672" lon="0.71705">
        <ele>148.475</ele>
        <time>2019-08-04T06:17:29Z</time>
      </trkpt>
      <trkpt lat="45.22674" lon="0.71708">
        <ele>148.389</ele>
        <time>2019-08-04T06:17:30Z</time>
      </trkpt>
      <trkpt lat="45.22675" lon="0.71711">
        <ele>148.047</ele>
        <time>2019-08-04T06:17:31Z</time>
      </trkpt>
      <trkpt lat="45.22678" lon="0.71717">
        <ele>147.258</ele>
        <time>2019-08-04T06:17:33Z</time>
      </trkpt>
      <trkpt lat="45.22682" lon="0.71725">
        <ele>147.686</ele>
        <time>2019-08-04T06:17:36Z</time>
      </trkpt>
      <trkpt lat="45.22685" lon="0.7173">
        <ele>148.635</ele>
        <time>2019-08-04T06:17:38Z</time>
      </trkpt>
      <trkpt lat="45.22689" lon="0.71738">
        <ele>147.381</ele>
        <time>2019-08-04T06:17:41Z</time>
      </trkpt>
      <trkpt lat="45.22687" lon="0.71744">
        <ele>148.014</ele>
        <time>2019-08-04T06:17:45Z</time>
      </trkpt>
      <trkpt lat="45.22687" lon="0.71744">
        <ele>148.014</ele>
        <time>2019-08-04T06:17:52Z</time>
      </trkpt>
      <trkpt lat="45.22687" lon="0.71744">
        <ele>148.014</ele>
        <time>2019-08-04T06:17:53Z</time>
      </trkpt>
      <trkpt lat="45.22685" lon="0.71751">
        <ele>157.372</ele>
        <time>2019-08-04T06:18:33Z</time>
      </trkpt>
      <trkpt lat="45.22682" lon="0.7176">
        <ele>156.625</ele>
        <time>2019-08-04T06:18:37Z</time>
      </trkpt>
      <trkpt lat="45.2268" lon="0.71764">
        <ele>158.179</ele>
        <time>2019-08-04T06:18:39Z</time>
      </trkpt>
      <trkpt lat="45.22677" lon="0.7177">
        <ele>154.401</ele>
        <time>2019-08-04T06:18:42Z</time>
      </trkpt>
      <trkpt lat="45.22675" lon="0.71773">
        <ele>155.399</ele>
        <time>2019-08-04T06:18:44Z</time>
      </trkpt>
      <trkpt lat="45.22671" lon="0.71777">
        <ele>156.317</ele>
        <time>2019-08-04T06:18:47Z</time>
      </trkpt>
      <trkpt lat="45.22667" lon="0.71782">
        <ele>156.229</ele>
        <time>2019-08-04T06:18:50Z</time>
      </trkpt>
      <trkpt lat="45.22668" lon="0.7179">
        <ele>152.472</ele>
        <time>2019-08-04T06:18:53Z</time>
      </trkpt>
      <trkpt lat="45.22662" lon="0.71797">
        <ele>154.474</ele>
        <time>2019-08-04T06:18:57Z</time>
      </trkpt>
      <trkpt lat="45.22657" lon="0.71801">
        <ele>154.004</ele>
        <time>2019-08-04T06:18:59Z</time>
      </trkpt>
      <trkpt lat="45.22652" lon="0.71805">
        <ele>155.794</ele>
        <time>2019-08-04T06:19:03Z</time>
      </trkpt>
      <trkpt lat="45.22647" lon="0.71807">
        <ele>156.607</ele>
        <time>2019-08-04T06:19:06Z</time>
      </trkpt>
      <trkpt lat="45.22642" lon="0.7181">
        <ele>154.24</ele>
        <time>2019-08-04T06:19:10Z</time>
      </trkpt>
      <trkpt lat="45.22638" lon="0.7181">
        <ele>155.846</ele>
        <time>2019-08-04T06:19:15Z</time>
      </trkpt>
      <trkpt lat="45.2263" lon="0.71811">
        <ele>158.495</ele>
        <time>2019-08-04T06:19:21Z</time>
      </trkpt>
      <trkpt lat="45.22623" lon="0.71813">
        <ele>158.97</ele>
        <time>2019-08-04T06:19:24Z</time>
      </trkpt>
      <trkpt lat="45.22617" lon="0.71813">
        <ele>162.014</ele>
        <time>2019-08-04T06:19:28Z</time>
      </trkpt>
      <trkpt lat="45.22615" lon="0.71813">
        <ele>161.733</ele>
        <time>2019-08-04T06:19:30Z</time>
      </trkpt>
      <trkpt lat="45.2261" lon="0.71814">
        <ele>159.872</ele>
        <time>2019-08-04T06:19:34Z</time>
      </trkpt>
      <trkpt lat="45.22605" lon="0.71814">
        <ele>160.657</ele>
        <time>2019-08-04T06:19:38Z</time>
      </trkpt>
      <trkpt lat="45.226" lon="0.71814">
        <ele>158.909</ele>
        <time>2019-08-04T06:19:42Z</time>
      </trkpt>
      <trkpt lat="45.22594" lon="0.71817">
        <ele>158.78</ele>
        <time>2019-08-04T06:19:46Z</time>
      </trkpt>
      <trkpt lat="45.22592" lon="0.71819">
        <ele>160.713</ele>
        <time>2019-08-04T06:19:48Z</time>
      </trkpt>
      <trkpt lat="45.22589" lon="0.71821">
        <ele>161.432</ele>
        <time>2019-08-04T06:19:51Z</time>
      </trkpt>
      <trkpt lat="45.22586" lon="0.71827">
        <ele>163.082</ele>
        <time>2019-08-04T06:19:56Z</time>
      </trkpt>
      <trkpt lat="45.22582" lon="0.7183">
        <ele>164.316</ele>
        <time>2019-08-04T06:20:03Z</time>
      </trkpt>
      <trkpt lat="45.22578" lon="0.71835">
        <ele>170.535</ele>
        <time>2019-08-04T06:20:09Z</time>
      </trkpt>
      <trkpt lat="45.22573" lon="0.71838">
        <ele>171.103</ele>
        <time>2019-08-04T06:20:14Z</time>
      </trkpt>
      <trkpt lat="45.22568" lon="0.71839">
        <ele>171.617</ele>
        <time>2019-08-04T06:20:16Z</time>
      </trkpt>
      <trkpt lat="45.22566" lon="0.7184">
        <ele>171.959</ele>
        <time>2019-08-04T06:20:17Z</time>
      </trkpt>
      <trkpt lat="45.2256" lon="0.71841">
        <ele>176.623</ele>
        <time>2019-08-04T06:20:20Z</time>
      </trkpt>
      <trkpt lat="45.22559" lon="0.71841">
        <ele>177.016</ele>
        <time>2019-08-04T06:20:26Z</time>
      </trkpt>
      <trkpt lat="45.22554" lon="0.71844">
        <ele>171.514</ele>
        <time>2019-08-04T06:20:33Z</time>
      </trkpt>
      <trkpt lat="45.22552" lon="0.71845">
        <ele>176.237</ele>
        <time>2019-08-04T06:20:36Z</time>
      </trkpt>
      <trkpt lat="45.22548" lon="0.71846">
        <ele>180.365</ele>
        <time>2019-08-04T06:20:40Z</time>
      </trkpt>
      <trkpt lat="45.22543" lon="0.71847">
        <ele>179.879</ele>
        <time>2019-08-04T06:20:47Z</time>
      </trkpt>
      <trkpt lat="45.22538" lon="0.71849">
        <ele>181.852</ele>
        <time>2019-08-04T06:21:01Z</time>
      </trkpt>
      <trkpt lat="45.22534" lon="0.7185">
        <ele>183.601</ele>
        <time>2019-08-04T06:21:04Z</time>
      </trkpt>
      <trkpt lat="45.22529" lon="0.71848">
        <ele>182.072</ele>
        <time>2019-08-04T06:21:07Z</time>
      </trkpt>
      <trkpt lat="45.22522" lon="0.71849">
        <ele>180.493</ele>
        <time>2019-08-04T06:21:11Z</time>
      </trkpt>
      <trkpt lat="45.22516" lon="0.71851">
        <ele>183.372</ele>
        <time>2019-08-04T06:21:15Z</time>
      </trkpt>
      <trkpt lat="45.22514" lon="0.71852">
        <ele>186.186</ele>
        <time>2019-08-04T06:21:17Z</time>
      </trkpt>
      <trkpt lat="45.22508" lon="0.71853">
        <ele>187.645</ele>
        <time>2019-08-04T06:21:21Z</time>
      </trkpt>
      <trkpt lat="45.22503" lon="0.71857">
        <ele>188.291</ele>
        <time>2019-08-04T06:21:26Z</time>
      </trkpt>
      <trkpt lat="45.22495" lon="0.71855">
        <ele>182.055</ele>
        <time>2019-08-04T06:21:31Z</time>
      </trkpt>
      <trkpt lat="45.22491" lon="0.71851">
        <ele>184.382</ele>
        <time>2019-08-04T06:21:36Z</time>
      </trkpt>
      <trkpt lat="45.22487" lon="0.71852">
        <ele>183.139</ele>
        <time>2019-08-04T06:21:45Z</time>
      </trkpt>
      <trkpt lat="45.22484" lon="0.71857">
        <ele>182.378</ele>
        <time>2019-08-04T06:21:59Z</time>
      </trkpt>
      <trkpt lat="45.22479" lon="0.71862">
        <ele>182.349</ele>
        <time>2019-08-04T06:22:03Z</time>
      </trkpt>
      <trkpt lat="45.22477" lon="0.71864">
        <ele>182.466</ele>
        <time>2019-08-04T06:22:05Z</time>
      </trkpt>
      <trkpt lat="45.22472" lon="0.71866">
        <ele>185.16</ele>
        <time>2019-08-04T06:22:11Z</time>
      </trkpt>
      <trkpt lat="45.22467" lon="0.7187">
        <ele>185.896</ele>
        <time>2019-08-04T06:22:15Z</time>
      </trkpt>
      <trkpt lat="45.22464" lon="0.71873">
        <ele>187.428</ele>
        <time>2019-08-04T06:22:18Z</time>
      </trkpt>
      <trkpt lat="45.22461" lon="0.71875">
        <ele>187.091</ele>
        <time>2019-08-04T06:22:20Z</time>
      </trkpt>
      <trkpt lat="45.22459" lon="0.71876">
        <ele>186.745</ele>
        <time>2019-08-04T06:22:22Z</time>
      </trkpt>
      <trkpt lat="45.22456" lon="0.71881">
        <ele>184.79</ele>
        <time>2019-08-04T06:22:30Z</time>
      </trkpt>
      <trkpt lat="45.22454" lon="0.71883">
        <ele>184.576</ele>
        <time>2019-08-04T06:22:32Z</time>
      </trkpt>
      <trkpt lat="45.22451" lon="0.71886">
        <ele>183.964</ele>
        <time>2019-08-04T06:22:35Z</time>
      </trkpt>
      <trkpt lat="45.22447" lon="0.71893">
        <ele>184.481</ele>
        <time>2019-08-04T06:22:39Z</time>
      </trkpt>
      <trkpt lat="45.22443" lon="0.71898">
        <ele>186.975</ele>
        <time>2019-08-04T06:22:43Z</time>
      </trkpt>
      <trkpt lat="45.22438" lon="0.71903">
        <ele>188.801</ele>
        <time>2019-08-04T06:22:47Z</time>
      </trkpt>
      <trkpt lat="45.22433" lon="0.71909">
        <ele>188.634</ele>
        <time>2019-08-04T06:22:53Z</time>
      </trkpt>
      <trkpt lat="45.2243" lon="0.71912">
        <ele>187.21</ele>
        <time>2019-08-04T06:22:55Z</time>
      </trkpt>
      <trkpt lat="45.22428" lon="0.71914">
        <ele>187.361</ele>
        <time>2019-08-04T06:22:57Z</time>
      </trkpt>
      <trkpt lat="45.22424" lon="0.71917">
        <ele>186.006</ele>
        <time>2019-08-04T06:23:00Z</time>
      </trkpt>
      <trkpt lat="45.22418" lon="0.71924">
        <ele>187.146</ele>
        <time>2019-08-04T06:23:05Z</time>
      </trkpt>
      <trkpt lat="45.22414" lon="0.71928">
        <ele>189.1</ele>
        <time>2019-08-04T06:23:10Z</time>
      </trkpt>
      <trkpt lat="45.22412" lon="0.7193">
        <ele>191.04</ele>
        <time>2019-08-04T06:23:13Z</time>
      </trkpt>
      <trkpt lat="45.22409" lon="0.71936">
        <ele>190.835</ele>
        <time>2019-08-04T06:23:18Z</time>
      </trkpt>
      <trkpt lat="45.22405" lon="0.7194">
        <ele>192.904</ele>
        <time>2019-08-04T06:23:23Z</time>
      </trkpt>
      <trkpt lat="45.22402" lon="0.71947">
        <ele>191.843</ele>
        <time>2019-08-04T06:23:30Z</time>
      </trkpt>
      <trkpt lat="45.224" lon="0.71954">
        <ele>191.052</ele>
        <time>2019-08-04T06:23:37Z</time>
      </trkpt>
      <trkpt lat="45.22397" lon="0.71961">
        <ele>191.835</ele>
        <time>2019-08-04T06:23:42Z</time>
      </trkpt>
      <trkpt lat="45.22395" lon="0.71965">
        <ele>193.125</ele>
        <time>2019-08-04T06:23:44Z</time>
      </trkpt>
      <trkpt lat="45.22392" lon="0.7197">
        <ele>192.782</ele>
        <time>2019-08-04T06:23:46Z</time>
      </trkpt>
      <trkpt lat="45.22388" lon="0.71973">
        <ele>194.857</ele>
        <time>2019-08-04T06:23:49Z</time>
      </trkpt>
      <trkpt lat="45.22385" lon="0.71976">
        <ele>193.901</ele>
        <time>2019-08-04T06:23:51Z</time>
      </trkpt>
      <trkpt lat="45.2238" lon="0.71981">
        <ele>196.346</ele>
        <time>2019-08-04T06:23:54Z</time>
      </trkpt>
      <trkpt lat="45.22377" lon="0.71986">
        <ele>194.897</ele>
        <time>2019-08-04T06:23:58Z</time>
      </trkpt>
      <trkpt lat="45.22375" lon="0.71992">
        <ele>193.808</ele>
        <time>2019-08-04T06:24:02Z</time>
      </trkpt>
      <trkpt lat="45.22371" lon="0.71997">
        <ele>193.038</ele>
        <time>2019-08-04T06:24:07Z</time>
      </trkpt>
      <trkpt lat="45.22369" lon="0.72005">
        <ele>189.62</ele>
        <time>2019-08-04T06:24:11Z</time>
      </trkpt>
      <trkpt lat="45.22368" lon="0.72008">
        <ele>192.446</ele>
        <time>2019-08-04T06:24:13Z</time>
      </trkpt>
      <trkpt lat="45.22366" lon="0.72014">
        <ele>196.98</ele>
        <time>2019-08-04T06:24:17Z</time>
      </trkpt>
      <trkpt lat="45.22363" lon="0.72021">
        <ele>199.037</ele>
        <time>2019-08-04T06:24:21Z</time>
      </trkpt>
      <trkpt lat="45.22361" lon="0.72027">
        <ele>198.328</ele>
        <time>2019-08-04T06:24:26Z</time>
      </trkpt>
      <trkpt lat="45.22356" lon="0.72031">
        <ele>197.496</ele>
        <time>2019-08-04T06:24:31Z</time>
      </trkpt>
      <trkpt lat="45.22352" lon="0.72037">
        <ele>198.067</ele>
        <time>2019-08-04T06:24:37Z</time>
      </trkpt>
      <trkpt lat="45.22349" lon="0.72043">
        <ele>199.058</ele>
        <time>2019-08-04T06:24:40Z</time>
      </trkpt>
      <trkpt lat="45.22344" lon="0.72047">
        <ele>202.478</ele>
        <time>2019-08-04T06:24:44Z</time>
      </trkpt>
      <trkpt lat="45.22342" lon="0.72049">
        <ele>203.316</ele>
        <time>2019-08-04T06:24:47Z</time>
      </trkpt>
      <trkpt lat="45.22337" lon="0.72056">
        <ele>200.974</ele>
        <time>2019-08-04T06:24:53Z</time>
      </trkpt>
      <trkpt lat="45.22333" lon="0.7206">
        <ele>200.37</ele>
        <time>2019-08-04T06:24:57Z</time>
      </trkpt>
      <trkpt lat="45.22331" lon="0.72063">
        <ele>201.302</ele>
        <time>2019-08-04T06:25:00Z</time>
      </trkpt>
      <trkpt lat="45.22328" lon="0.72065">
        <ele>201.532</ele>
        <time>2019-08-04T06:25:02Z</time>
      </trkpt>
      <trkpt lat="45.22324" lon="0.72068">
        <ele>199.979</ele>
        <time>2019-08-04T06:25:05Z</time>
      </trkpt>
      <trkpt lat="45.22322" lon="0.7207">
        <ele>201.937</ele>
        <time>2019-08-04T06:25:07Z</time>
      </trkpt>
      <trkpt lat="45.2232" lon="0.72072">
        <ele>201.97</ele>
        <time>2019-08-04T06:25:09Z</time>
      </trkpt>
      <trkpt lat="45.22318" lon="0.72074">
        <ele>201.756</ele>
        <time>2019-08-04T06:25:11Z</time>
      </trkpt>
      <trkpt lat="45.22315" lon="0.72079">
        <ele>202.093</ele>
        <time>2019-08-04T06:25:15Z</time>
      </trkpt>
      <trkpt lat="45.22311" lon="0.72084">
        <ele>202.514</ele>
        <time>2019-08-04T06:25:19Z</time>
      </trkpt>
      <trkpt lat="45.22309" lon="0.72085">
        <ele>202.506</ele>
        <time>2019-08-04T06:25:21Z</time>
      </trkpt>
      <trkpt lat="45.22306" lon="0.72088">
        <ele>201.323</ele>
        <time>2019-08-04T06:25:23Z</time>
      </trkpt>
      <trkpt lat="45.22304" lon="0.7209">
        <ele>199.918</ele>
        <time>2019-08-04T06:25:25Z</time>
      </trkpt>
      <trkpt lat="45.22301" lon="0.72095">
        <ele>199.76</ele>
        <time>2019-08-04T06:25:29Z</time>
      </trkpt>
      <trkpt lat="45.22298" lon="0.72102">
        <ele>200.076</ele>
        <time>2019-08-04T06:25:33Z</time>
      </trkpt>
      <trkpt lat="45.22293" lon="0.72107">
        <ele>201.401</ele>
        <time>2019-08-04T06:25:37Z</time>
      </trkpt>
      <trkpt lat="45.2229" lon="0.72112">
        <ele>202.889</ele>
        <time>2019-08-04T06:25:42Z</time>
      </trkpt>
      <trkpt lat="45.22287" lon="0.72116">
        <ele>202.477</ele>
        <time>2019-08-04T06:25:46Z</time>
      </trkpt>
      <trkpt lat="45.22283" lon="0.72121">
        <ele>202.981</ele>
        <time>2019-08-04T06:25:50Z</time>
      </trkpt>
      <trkpt lat="45.22279" lon="0.72124">
        <ele>202.966</ele>
        <time>2019-08-04T06:25:53Z</time>
      </trkpt>
      <trkpt lat="45.22276" lon="0.7213">
        <ele>205.731</ele>
        <time>2019-08-04T06:25:58Z</time>
      </trkpt>
      <trkpt lat="45.22273" lon="0.72135">
        <ele>207.541</ele>
        <time>2019-08-04T06:26:04Z</time>
      </trkpt>
      <trkpt lat="45.2227" lon="0.7214">
        <ele>207.033</ele>
        <time>2019-08-04T06:26:07Z</time>
      </trkpt>
      <trkpt lat="45.22266" lon="0.72146">
        <ele>208.275</ele>
        <time>2019-08-04T06:26:11Z</time>
      </trkpt>
      <trkpt lat="45.22264" lon="0.7215">
        <ele>209.423</ele>
        <time>2019-08-04T06:26:13Z</time>
      </trkpt>
      <trkpt lat="45.2226" lon="0.72155">
        <ele>209.907</ele>
        <time>2019-08-04T06:26:16Z</time>
      </trkpt>
      <trkpt lat="45.22255" lon="0.72158">
        <ele>211.408</ele>
        <time>2019-08-04T06:26:19Z</time>
      </trkpt>
      <trkpt lat="45.22253" lon="0.7216">
        <ele>208.397</ele>
        <time>2019-08-04T06:26:22Z</time>
      </trkpt>
      <trkpt lat="45.2225" lon="0.72166">
        <ele>209.287</ele>
        <time>2019-08-04T06:26:27Z</time>
      </trkpt>
      <trkpt lat="45.22246" lon="0.7217">
        <ele>208.505</ele>
        <time>2019-08-04T06:26:31Z</time>
      </trkpt>
      <trkpt lat="45.22243" lon="0.72175">
        <ele>210.512</ele>
        <time>2019-08-04T06:26:35Z</time>
      </trkpt>
      <trkpt lat="45.22239" lon="0.72179">
        <ele>209.402</ele>
        <time>2019-08-04T06:26:39Z</time>
      </trkpt>
      <trkpt lat="45.22235" lon="0.72182">
        <ele>207.433</ele>
        <time>2019-08-04T06:26:44Z</time>
      </trkpt>
      <trkpt lat="45.22232" lon="0.72184">
        <ele>209.235</ele>
        <time>2019-08-04T06:26:47Z</time>
      </trkpt>
      <trkpt lat="45.22228" lon="0.72185">
        <ele>210.408</ele>
        <time>2019-08-04T06:26:51Z</time>
      </trkpt>
      <trkpt lat="45.22225" lon="0.72187">
        <ele>211.813</ele>
        <time>2019-08-04T06:26:54Z</time>
      </trkpt>
      <trkpt lat="45.22221" lon="0.7219">
        <ele>212.205</ele>
        <time>2019-08-04T06:26:59Z</time>
      </trkpt>
      <trkpt lat="45.22216" lon="0.72193">
        <ele>213.394</ele>
        <time>2019-08-04T06:27:03Z</time>
      </trkpt>
      <trkpt lat="45.22212" lon="0.72197">
        <ele>214.093</ele>
        <time>2019-08-04T06:27:07Z</time>
      </trkpt>
      <trkpt lat="45.22207" lon="0.722">
        <ele>214.775</ele>
        <time>2019-08-04T06:27:11Z</time>
      </trkpt>
      <trkpt lat="45.22204" lon="0.72202">
        <ele>215.191</ele>
        <time>2019-08-04T06:27:15Z</time>
      </trkpt>
      <trkpt lat="45.222" lon="0.72207">
        <ele>215.612</ele>
        <time>2019-08-04T06:27:19Z</time>
      </trkpt>
      <trkpt lat="45.22194" lon="0.72213">
        <ele>213.573</ele>
        <time>2019-08-04T06:27:23Z</time>
      </trkpt>
      <trkpt lat="45.2219" lon="0.72219">
        <ele>215.763</ele>
        <time>2019-08-04T06:27:27Z</time>
      </trkpt>
      <trkpt lat="45.22186" lon="0.72222">
        <ele>216.085</ele>
        <time>2019-08-04T06:27:30Z</time>
      </trkpt>
      <trkpt lat="45.22182" lon="0.72225">
        <ele>216.868</ele>
        <time>2019-08-04T06:27:33Z</time>
      </trkpt>
      <trkpt lat="45.22179" lon="0.72228">
        <ele>216.836</ele>
        <time>2019-08-04T06:27:35Z</time>
      </trkpt>
      <trkpt lat="45.22177" lon="0.7223">
        <ele>218.042</ele>
        <time>2019-08-04T06:27:37Z</time>
      </trkpt>
      <trkpt lat="45.22173" lon="0.72235">
        <ele>218.538</ele>
        <time>2019-08-04T06:27:41Z</time>
      </trkpt>
      <trkpt lat="45.22171" lon="0.72237">
        <ele>218.387</ele>
        <time>2019-08-04T06:27:43Z</time>
      </trkpt>
      <trkpt lat="45.22168" lon="0.72243">
        <ele>218.816</ele>
        <time>2019-08-04T06:27:47Z</time>
      </trkpt>
      <trkpt lat="45.22166" lon="0.72248">
        <ele>218.614</ele>
        <time>2019-08-04T06:27:50Z</time>
      </trkpt>
      <trkpt lat="45.22162" lon="0.72252">
        <ele>215.976</ele>
        <time>2019-08-04T06:27:55Z</time>
      </trkpt>
      <trkpt lat="45.2216" lon="0.72254">
        <ele>215.734</ele>
        <time>2019-08-04T06:27:57Z</time>
      </trkpt>
      <trkpt lat="45.22155" lon="0.72259">
        <ele>216.357</ele>
        <time>2019-08-04T06:28:01Z</time>
      </trkpt>
      <trkpt lat="45.22153" lon="0.72262">
        <ele>216.928</ele>
        <time>2019-08-04T06:28:03Z</time>
      </trkpt>
      <trkpt lat="45.2215" lon="0.72268">
        <ele>218.814</ele>
        <time>2019-08-04T06:28:06Z</time>
      </trkpt>
      <trkpt lat="45.22146" lon="0.72274">
        <ele>221.336</ele>
        <time>2019-08-04T06:28:10Z</time>
      </trkpt>
      <trkpt lat="45.22143" lon="0.72278">
        <ele>221.179</ele>
        <time>2019-08-04T06:28:13Z</time>
      </trkpt>
      <trkpt lat="45.22141" lon="0.7228">
        <ele>221.049</ele>
        <time>2019-08-04T06:28:15Z</time>
      </trkpt>
      <trkpt lat="45.22139" lon="0.72282">
        <ele>220.904</ele>
        <time>2019-08-04T06:28:17Z</time>
      </trkpt>
      <trkpt lat="45.22134" lon="0.72286">
        <ele>221.826</ele>
        <time>2019-08-04T06:28:21Z</time>
      </trkpt>
      <trkpt lat="45.2213" lon="0.72292">
        <ele>223.06</ele>
        <time>2019-08-04T06:28:25Z</time>
      </trkpt>
      <trkpt lat="45.22127" lon="0.72297">
        <ele>223.859</ele>
        <time>2019-08-04T06:28:29Z</time>
      </trkpt>
      <trkpt lat="45.22123" lon="0.72303">
        <ele>223.436</ele>
        <time>2019-08-04T06:28:34Z</time>
      </trkpt>
      <trkpt lat="45.22121" lon="0.72305">
        <ele>223.613</ele>
        <time>2019-08-04T06:28:36Z</time>
      </trkpt>
      <trkpt lat="45.22119" lon="0.72307">
        <ele>224.468</ele>
        <time>2019-08-04T06:28:38Z</time>
      </trkpt>
      <trkpt lat="45.22117" lon="0.7231">
        <ele>225.127</ele>
        <time>2019-08-04T06:28:40Z</time>
      </trkpt>
      <trkpt lat="45.22113" lon="0.72315">
        <ele>225.74</ele>
        <time>2019-08-04T06:28:44Z</time>
      </trkpt>
      <trkpt lat="45.22109" lon="0.72319">
        <ele>224.857</ele>
        <time>2019-08-04T06:28:48Z</time>
      </trkpt>
      <trkpt lat="45.22107" lon="0.72321">
        <ele>225.2</ele>
        <time>2019-08-04T06:28:50Z</time>
      </trkpt>
      <trkpt lat="45.22104" lon="0.72324">
        <ele>225.74</ele>
        <time>2019-08-04T06:28:52Z</time>
      </trkpt>
      <trkpt lat="45.22099" lon="0.72329">
        <ele>225.639</ele>
        <time>2019-08-04T06:28:56Z</time>
      </trkpt>
      <trkpt lat="45.22095" lon="0.72334">
        <ele>226.729</ele>
        <time>2019-08-04T06:29:00Z</time>
      </trkpt>
      <trkpt lat="45.22091" lon="0.72338">
        <ele>228.805</ele>
        <time>2019-08-04T06:29:03Z</time>
      </trkpt>
      <trkpt lat="45.22088" lon="0.72341">
        <ele>229.268</ele>
        <time>2019-08-04T06:29:05Z</time>
      </trkpt>
      <trkpt lat="45.22084" lon="0.72347">
        <ele>229.623</ele>
        <time>2019-08-04T06:29:09Z</time>
      </trkpt>
      <trkpt lat="45.22082" lon="0.7235">
        <ele>229.55</ele>
        <time>2019-08-04T06:29:11Z</time>
      </trkpt>
      <trkpt lat="45.22079" lon="0.72353">
        <ele>230.889</ele>
        <time>2019-08-04T06:29:13Z</time>
      </trkpt>
      <trkpt lat="45.22074" lon="0.7236">
        <ele>231.519</ele>
        <time>2019-08-04T06:29:17Z</time>
      </trkpt>
      <trkpt lat="45.22071" lon="0.72363">
        <ele>232.078</ele>
        <time>2019-08-04T06:29:19Z</time>
      </trkpt>
      <trkpt lat="45.22067" lon="0.72367">
        <ele>232.251</ele>
        <time>2019-08-04T06:29:21Z</time>
      </trkpt>
      <trkpt lat="45.22065" lon="0.72369">
        <ele>231.442</ele>
        <time>2019-08-04T06:29:22Z</time>
      </trkpt>
      <trkpt lat="45.22063" lon="0.72371">
        <ele>231.355</ele>
        <time>2019-08-04T06:29:23Z</time>
      </trkpt>
      <trkpt lat="45.2206" lon="0.72374">
        <ele>231.528</ele>
        <time>2019-08-04T06:29:24Z</time>
      </trkpt>
      <trkpt lat="45.22058" lon="0.72376">
        <ele>231.432</ele>
        <time>2019-08-04T06:29:25Z</time>
      </trkpt>
      <trkpt lat="45.22056" lon="0.72378">
        <ele>231.305</ele>
        <time>2019-08-04T06:29:26Z</time>
      </trkpt>
      <trkpt lat="45.22054" lon="0.7238">
        <ele>231.321</ele>
        <time>2019-08-04T06:29:27Z</time>
      </trkpt>
      <trkpt lat="45.22048" lon="0.72389">
        <ele>231.739</ele>
        <time>2019-08-04T06:29:30Z</time>
      </trkpt>
      <trkpt lat="45.22045" lon="0.72392">
        <ele>231.482</ele>
        <time>2019-08-04T06:29:31Z</time>
      </trkpt>
      <trkpt lat="45.22043" lon="0.72395">
        <ele>230.957</ele>
        <time>2019-08-04T06:29:32Z</time>
      </trkpt>
      <trkpt lat="45.2204" lon="0.72398">
        <ele>230.805</ele>
        <time>2019-08-04T06:29:33Z</time>
      </trkpt>
      <trkpt lat="45.22037" lon="0.72402">
        <ele>230.651</ele>
        <time>2019-08-04T06:29:34Z</time>
      </trkpt>
      <trkpt lat="45.22032" lon="0.72407">
        <ele>230.422</ele>
        <time>2019-08-04T06:29:35Z</time>
      </trkpt>
      <trkpt lat="45.22028" lon="0.72412">
        <ele>230.117</ele>
        <time>2019-08-04T06:29:36Z</time>
      </trkpt>
      <trkpt lat="45.22022" lon="0.7242">
        <ele>229.822</ele>
        <time>2019-08-04T06:29:38Z</time>
      </trkpt>
      <trkpt lat="45.22018" lon="0.72424">
        <ele>229.799</ele>
        <time>2019-08-04T06:29:39Z</time>
      </trkpt>
      <trkpt lat="45.2201" lon="0.72432">
        <ele>229.599</ele>
        <time>2019-08-04T06:29:42Z</time>
      </trkpt>
      <trkpt lat="45.22007" lon="0.72435">
        <ele>230.313</ele>
        <time>2019-08-04T06:29:43Z</time>
      </trkpt>
      <trkpt lat="45.22003" lon="0.72439">
        <ele>230.028</ele>
        <time>2019-08-04T06:29:45Z</time>
      </trkpt>
      <trkpt lat="45.21997" lon="0.72445">
        <ele>230.303</ele>
        <time>2019-08-04T06:29:47Z</time>
      </trkpt>
      <trkpt lat="45.2199" lon="0.72451">
        <ele>232.2</ele>
        <time>2019-08-04T06:29:50Z</time>
      </trkpt>
      <trkpt lat="45.21984" lon="0.72458">
        <ele>234.337</ele>
        <time>2019-08-04T06:29:53Z</time>
      </trkpt>
      <trkpt lat="45.21981" lon="0.72461">
        <ele>233.572</ele>
        <time>2019-08-04T06:29:54Z</time>
      </trkpt>
      <trkpt lat="45.21979" lon="0.72463">
        <ele>233.83</ele>
        <time>2019-08-04T06:29:55Z</time>
      </trkpt>
      <trkpt lat="45.21974" lon="0.72467">
        <ele>233.319</ele>
        <time>2019-08-04T06:29:57Z</time>
      </trkpt>
      <trkpt lat="45.21971" lon="0.7247">
        <ele>233.012</ele>
        <time>2019-08-04T06:30:00Z</time>
      </trkpt>
      <trkpt lat="45.21967" lon="0.72474">
        <ele>232.642</ele>
        <time>2019-08-04T06:30:02Z</time>
      </trkpt>
      <trkpt lat="45.21965" lon="0.72481">
        <ele>233.232</ele>
        <time>2019-08-04T06:30:05Z</time>
      </trkpt>
      <trkpt lat="45.21966" lon="0.72489">
        <ele>234.594</ele>
        <time>2019-08-04T06:30:08Z</time>
      </trkpt>
      <trkpt lat="45.21969" lon="0.72496">
        <ele>235.755</ele>
        <time>2019-08-04T06:30:12Z</time>
      </trkpt>
      <trkpt lat="45.21972" lon="0.725">
        <ele>234.805</ele>
        <time>2019-08-04T06:30:16Z</time>
      </trkpt>
      <trkpt lat="45.21973" lon="0.72508">
        <ele>233.726</ele>
        <time>2019-08-04T06:30:22Z</time>
      </trkpt>
      <trkpt lat="45.21968" lon="0.72513">
        <ele>234.322</ele>
        <time>2019-08-04T06:30:26Z</time>
      </trkpt>
      <trkpt lat="45.21961" lon="0.72518">
        <ele>235.347</ele>
        <time>2019-08-04T06:30:30Z</time>
      </trkpt>
      <trkpt lat="45.21952" lon="0.72522">
        <ele>236.488</ele>
        <time>2019-08-04T06:30:34Z</time>
      </trkpt>
      <trkpt lat="45.2195" lon="0.72523">
        <ele>235.774</ele>
        <time>2019-08-04T06:30:35Z</time>
      </trkpt>
      <trkpt lat="45.21947" lon="0.72524">
        <ele>235.538</ele>
        <time>2019-08-04T06:30:36Z</time>
      </trkpt>
      <trkpt lat="45.21944" lon="0.72524">
        <ele>236.391</ele>
        <time>2019-08-04T06:30:37Z</time>
      </trkpt>
      <trkpt lat="45.21941" lon="0.72524">
        <ele>237.289</ele>
        <time>2019-08-04T06:30:38Z</time>
      </trkpt>
      <trkpt lat="45.21937" lon="0.72524">
        <ele>236.984</ele>
        <time>2019-08-04T06:30:39Z</time>
      </trkpt>
      <trkpt lat="45.2193" lon="0.72525">
        <ele>236.371</ele>
        <time>2019-08-04T06:30:41Z</time>
      </trkpt>
      <trkpt lat="45.21922" lon="0.72528">
        <ele>236.826</ele>
        <time>2019-08-04T06:30:43Z</time>
      </trkpt>
      <trkpt lat="45.21918" lon="0.72529">
        <ele>235.662</ele>
        <time>2019-08-04T06:30:44Z</time>
      </trkpt>
      <trkpt lat="45.21909" lon="0.7253">
        <ele>235.258</ele>
        <time>2019-08-04T06:30:46Z</time>
      </trkpt>
      <trkpt lat="45.21904" lon="0.72531">
        <ele>234.962</ele>
        <time>2019-08-04T06:30:47Z</time>
      </trkpt>
      <trkpt lat="45.219" lon="0.72531">
        <ele>236.701</ele>
        <time>2019-08-04T06:30:48Z</time>
      </trkpt>
      <trkpt lat="45.21888" lon="0.72532">
        <ele>234.407</ele>
        <time>2019-08-04T06:30:51Z</time>
      </trkpt>
      <trkpt lat="45.21885" lon="0.72532">
        <ele>233.989</ele>
        <time>2019-08-04T06:30:52Z</time>
      </trkpt>
      <trkpt lat="45.21879" lon="0.72534">
        <ele>233.684</ele>
        <time>2019-08-04T06:30:54Z</time>
      </trkpt>
      <trkpt lat="45.21873" lon="0.72537">
        <ele>235.703</ele>
        <time>2019-08-04T06:30:56Z</time>
      </trkpt>
      <trkpt lat="45.21868" lon="0.7254">
        <ele>234.99</ele>
        <time>2019-08-04T06:30:58Z</time>
      </trkpt>
      <trkpt lat="45.21865" lon="0.72541">
        <ele>234.809</ele>
        <time>2019-08-04T06:30:59Z</time>
      </trkpt>
      <trkpt lat="45.21863" lon="0.72542">
        <ele>235.166</ele>
        <time>2019-08-04T06:31:00Z</time>
      </trkpt>
      <trkpt lat="45.21855" lon="0.72544">
        <ele>235.045</ele>
        <time>2019-08-04T06:31:03Z</time>
      </trkpt>
      <trkpt lat="45.21852" lon="0.72544">
        <ele>234.83</ele>
        <time>2019-08-04T06:31:04Z</time>
      </trkpt>
      <trkpt lat="45.21847" lon="0.72545">
        <ele>235.29</ele>
        <time>2019-08-04T06:31:06Z</time>
      </trkpt>
      <trkpt lat="45.21844" lon="0.72546">
        <ele>235.723</ele>
        <time>2019-08-04T06:31:07Z</time>
      </trkpt>
      <trkpt lat="45.21841" lon="0.72546">
        <ele>235.736</ele>
        <time>2019-08-04T06:31:08Z</time>
      </trkpt>
      <trkpt lat="45.21839" lon="0.72546">
        <ele>236.196</ele>
        <time>2019-08-04T06:31:09Z</time>
      </trkpt>
      <trkpt lat="45.21836" lon="0.72546">
        <ele>235.629</ele>
        <time>2019-08-04T06:31:10Z</time>
      </trkpt>
      <trkpt lat="45.21833" lon="0.72547">
        <ele>235.327</ele>
        <time>2019-08-04T06:31:11Z</time>
      </trkpt>
      <trkpt lat="45.21831" lon="0.72547">
        <ele>235.253</ele>
        <time>2019-08-04T06:31:12Z</time>
      </trkpt>
      <trkpt lat="45.21828" lon="0.72547">
        <ele>235.695</ele>
        <time>2019-08-04T06:31:13Z</time>
      </trkpt>
      <trkpt lat="45.21824" lon="0.72548">
        <ele>236.022</ele>
        <time>2019-08-04T06:31:15Z</time>
      </trkpt>
      <trkpt lat="45.21822" lon="0.72548">
        <ele>236.122</ele>
        <time>2019-08-04T06:31:16Z</time>
      </trkpt>
      <trkpt lat="45.21817" lon="0.72549">
        <ele>236.198</ele>
        <time>2019-08-04T06:31:18Z</time>
      </trkpt>
      <trkpt lat="45.21814" lon="0.72548">
        <ele>235.839</ele>
        <time>2019-08-04T06:31:19Z</time>
      </trkpt>
      <trkpt lat="45.21812" lon="0.72548">
        <ele>235.57</ele>
        <time>2019-08-04T06:31:20Z</time>
      </trkpt>
      <trkpt lat="45.21808" lon="0.72548">
        <ele>235.938</ele>
        <time>2019-08-04T06:31:22Z</time>
      </trkpt>
      <trkpt lat="45.21802" lon="0.72546">
        <ele>235.915</ele>
        <time>2019-08-04T06:31:25Z</time>
      </trkpt>
      <trkpt lat="45.21797" lon="0.72545">
        <ele>234.345</ele>
        <time>2019-08-04T06:31:28Z</time>
      </trkpt>
      <trkpt lat="45.21795" lon="0.72545">
        <ele>234.425</ele>
        <time>2019-08-04T06:31:30Z</time>
      </trkpt>
      <trkpt lat="45.2179" lon="0.72548">
        <ele>236.058</ele>
        <time>2019-08-04T06:31:33Z</time>
      </trkpt>
      <trkpt lat="45.21786" lon="0.72552">
        <ele>235.737</ele>
        <time>2019-08-04T06:31:36Z</time>
      </trkpt>
      <trkpt lat="45.21781" lon="0.72555">
        <ele>237.195</ele>
        <time>2019-08-04T06:31:40Z</time>
      </trkpt>
      <trkpt lat="45.21776" lon="0.72556">
        <ele>238.325</ele>
        <time>2019-08-04T06:31:44Z</time>
      </trkpt>
      <trkpt lat="45.2177" lon="0.72556">
        <ele>239.432</ele>
        <time>2019-08-04T06:31:48Z</time>
      </trkpt>
      <trkpt lat="45.21768" lon="0.72556">
        <ele>239.414</ele>
        <time>2019-08-04T06:31:50Z</time>
      </trkpt>
      <trkpt lat="45.21762" lon="0.72554">
        <ele>239.384</ele>
        <time>2019-08-04T06:31:54Z</time>
      </trkpt>
      <trkpt lat="45.21759" lon="0.72554">
        <ele>239.067</ele>
        <time>2019-08-04T06:31:56Z</time>
      </trkpt>
      <trkpt lat="45.21756" lon="0.72554">
        <ele>238.284</ele>
        <time>2019-08-04T06:31:58Z</time>
      </trkpt>
      <trkpt lat="45.21751" lon="0.72553">
        <ele>239.582</ele>
        <time>2019-08-04T06:32:02Z</time>
      </trkpt>
      <trkpt lat="45.21748" lon="0.72553">
        <ele>239.496</ele>
        <time>2019-08-04T06:32:04Z</time>
      </trkpt>
      <trkpt lat="45.21746" lon="0.72552">
        <ele>240.836</ele>
        <time>2019-08-04T06:32:06Z</time>
      </trkpt>
      <trkpt lat="45.21741" lon="0.72552">
        <ele>241.471</ele>
        <time>2019-08-04T06:32:11Z</time>
      </trkpt>
      <trkpt lat="45.21736" lon="0.72552">
        <ele>241.737</ele>
        <time>2019-08-04T06:32:14Z</time>
      </trkpt>
      <trkpt lat="45.21734" lon="0.72552">
        <ele>242.641</ele>
        <time>2019-08-04T06:32:16Z</time>
      </trkpt>
      <trkpt lat="45.21728" lon="0.72551">
        <ele>242.487</ele>
        <time>2019-08-04T06:32:22Z</time>
      </trkpt>
      <trkpt lat="45.21724" lon="0.72555">
        <ele>239.909</ele>
        <time>2019-08-04T06:32:27Z</time>
      </trkpt>
      <trkpt lat="45.21719" lon="0.72556">
        <ele>240.303</ele>
        <time>2019-08-04T06:32:31Z</time>
      </trkpt>
      <trkpt lat="45.21715" lon="0.72556">
        <ele>240.778</ele>
        <time>2019-08-04T06:32:35Z</time>
      </trkpt>
      <trkpt lat="45.21711" lon="0.72558">
        <ele>239.619</ele>
        <time>2019-08-04T06:32:38Z</time>
      </trkpt>
      <trkpt lat="45.21706" lon="0.72557">
        <ele>244.281</ele>
        <time>2019-08-04T06:32:42Z</time>
      </trkpt>
      <trkpt lat="45.21701" lon="0.72557">
        <ele>244.701</ele>
        <time>2019-08-04T06:32:46Z</time>
      </trkpt>
      <trkpt lat="45.21695" lon="0.72558">
        <ele>244.485</ele>
        <time>2019-08-04T06:32:50Z</time>
      </trkpt>
      <trkpt lat="45.2169" lon="0.72558">
        <ele>244.484</ele>
        <time>2019-08-04T06:32:54Z</time>
      </trkpt>
      <trkpt lat="45.21685" lon="0.72562">
        <ele>244.73</ele>
        <time>2019-08-04T06:32:59Z</time>
      </trkpt>
      <trkpt lat="45.21683" lon="0.72569">
        <ele>245.599</ele>
        <time>2019-08-04T06:33:02Z</time>
      </trkpt>
      <trkpt lat="45.21682" lon="0.72574">
        <ele>246.322</ele>
        <time>2019-08-04T06:33:04Z</time>
      </trkpt>
      <trkpt lat="45.21681" lon="0.72579">
        <ele>246.213</ele>
        <time>2019-08-04T06:33:06Z</time>
      </trkpt>
      <trkpt lat="45.21679" lon="0.72588">
        <ele>246.502</ele>
        <time>2019-08-04T06:33:09Z</time>
      </trkpt>
      <trkpt lat="45.21679" lon="0.72593">
        <ele>247.359</ele>
        <time>2019-08-04T06:33:11Z</time>
      </trkpt>
      <trkpt lat="45.21678" lon="0.72598">
        <ele>248.515</ele>
        <time>2019-08-04T06:33:13Z</time>
      </trkpt>
      <trkpt lat="45.21678" lon="0.72603">
        <ele>248.145</ele>
        <time>2019-08-04T06:33:15Z</time>
      </trkpt>
      <trkpt lat="45.21678" lon="0.7261">
        <ele>247.735</ele>
        <time>2019-08-04T06:33:18Z</time>
      </trkpt>
      <trkpt lat="45.21678" lon="0.72615">
        <ele>247.688</ele>
        <time>2019-08-04T06:33:20Z</time>
      </trkpt>
      <trkpt lat="45.21678" lon="0.72619">
        <ele>248.765</ele>
        <time>2019-08-04T06:33:22Z</time>
      </trkpt>
      <trkpt lat="45.21678" lon="0.72624">
        <ele>248.9</ele>
        <time>2019-08-04T06:33:24Z</time>
      </trkpt>
      <trkpt lat="45.21678" lon="0.7263">
        <ele>248.57</ele>
        <time>2019-08-04T06:33:26Z</time>
      </trkpt>
      <trkpt lat="45.21679" lon="0.72639">
        <ele>246.631</ele>
        <time>2019-08-04T06:33:29Z</time>
      </trkpt>
      <trkpt lat="45.21684" lon="0.7265">
        <ele>246.392</ele>
        <time>2019-08-04T06:33:32Z</time>
      </trkpt>
      <trkpt lat="45.2169" lon="0.72657">
        <ele>247.044</ele>
        <time>2019-08-04T06:33:34Z</time>
      </trkpt>
      <trkpt lat="45.21694" lon="0.72661">
        <ele>246.895</ele>
        <time>2019-08-04T06:33:35Z</time>
      </trkpt>
      <trkpt lat="45.21702" lon="0.72675">
        <ele>246.526</ele>
        <time>2019-08-04T06:33:38Z</time>
      </trkpt>
      <trkpt lat="45.21705" lon="0.72686">
        <ele>247.8</ele>
        <time>2019-08-04T06:33:40Z</time>
      </trkpt>
      <trkpt lat="45.21706" lon="0.72695">
        <ele>247.857</ele>
        <time>2019-08-04T06:33:42Z</time>
      </trkpt>
      <trkpt lat="45.21707" lon="0.72703">
        <ele>248.818</ele>
        <time>2019-08-04T06:33:44Z</time>
      </trkpt>
      <trkpt lat="45.21706" lon="0.72713">
        <ele>248.486</ele>
        <time>2019-08-04T06:33:47Z</time>
      </trkpt>
      <trkpt lat="45.21704" lon="0.72721">
        <ele>247.296</ele>
        <time>2019-08-04T06:33:50Z</time>
      </trkpt>
      <trkpt lat="45.21703" lon="0.72726">
        <ele>248.105</ele>
        <time>2019-08-04T06:33:52Z</time>
      </trkpt>
      <trkpt lat="45.21701" lon="0.72731">
        <ele>248.719</ele>
        <time>2019-08-04T06:33:54Z</time>
      </trkpt>
      <trkpt lat="45.21699" lon="0.72739">
        <ele>248.617</ele>
        <time>2019-08-04T06:33:57Z</time>
      </trkpt>
      <trkpt lat="45.21697" lon="0.72745">
        <ele>248.109</ele>
        <time>2019-08-04T06:33:59Z</time>
      </trkpt>
      <trkpt lat="45.21696" lon="0.72748">
        <ele>248.615</ele>
        <time>2019-08-04T06:34:00Z</time>
      </trkpt>
      <trkpt lat="45.21694" lon="0.72756">
        <ele>248.447</ele>
        <time>2019-08-04T06:34:03Z</time>
      </trkpt>
      <trkpt lat="45.21698" lon="0.72767">
        <ele>249.521</ele>
        <time>2019-08-04T06:34:06Z</time>
      </trkpt>
      <trkpt lat="45.21704" lon="0.72774">
        <ele>248.823</ele>
        <time>2019-08-04T06:34:08Z</time>
      </trkpt>
      <trkpt lat="45.21723" lon="0.72787">
        <ele>246.145</ele>
        <time>2019-08-04T06:34:12Z</time>
      </trkpt>
      <trkpt lat="45.21732" lon="0.72795">
        <ele>246.414</ele>
        <time>2019-08-04T06:34:14Z</time>
      </trkpt>
      <trkpt lat="45.21736" lon="0.72803">
        <ele>245.97</ele>
        <time>2019-08-04T06:34:15Z</time>
      </trkpt>
      <trkpt lat="45.21738" lon="0.72811">
        <ele>245.402</ele>
        <time>2019-08-04T06:34:16Z</time>
      </trkpt>
      <trkpt lat="45.21741" lon="0.72837">
        <ele>244.991</ele>
        <time>2019-08-04T06:34:19Z</time>
      </trkpt>
      <trkpt lat="45.21739" lon="0.72845">
        <ele>244.71</ele>
        <time>2019-08-04T06:34:20Z</time>
      </trkpt>
      <trkpt lat="45.21732" lon="0.72871">
        <ele>245.195</ele>
        <time>2019-08-04T06:34:23Z</time>
      </trkpt>
      <trkpt lat="45.2173" lon="0.72879">
        <ele>245.24</ele>
        <time>2019-08-04T06:34:24Z</time>
      </trkpt>
      <trkpt lat="45.21728" lon="0.72896">
        <ele>245.644</ele>
        <time>2019-08-04T06:34:26Z</time>
      </trkpt>
      <trkpt lat="45.21727" lon="0.72905">
        <ele>245.834</ele>
        <time>2019-08-04T06:34:27Z</time>
      </trkpt>
      <trkpt lat="45.21726" lon="0.72923">
        <ele>245.134</ele>
        <time>2019-08-04T06:34:29Z</time>
      </trkpt>
      <trkpt lat="45.21729" lon="0.72932">
        <ele>244.915</ele>
        <time>2019-08-04T06:34:30Z</time>
      </trkpt>
      <trkpt lat="45.21729" lon="0.72941">
        <ele>244.377</ele>
        <time>2019-08-04T06:34:31Z</time>
      </trkpt>
      <trkpt lat="45.21732" lon="0.72951">
        <ele>244.179</ele>
        <time>2019-08-04T06:34:32Z</time>
      </trkpt>
      <trkpt lat="45.21735" lon="0.72959">
        <ele>243.411</ele>
        <time>2019-08-04T06:34:33Z</time>
      </trkpt>
      <trkpt lat="45.21739" lon="0.72968">
        <ele>243.055</ele>
        <time>2019-08-04T06:34:34Z</time>
      </trkpt>
      <trkpt lat="45.21743" lon="0.72974">
        <ele>242.573</ele>
        <time>2019-08-04T06:34:35Z</time>
      </trkpt>
      <trkpt lat="45.21748" lon="0.72982">
        <ele>242.199</ele>
        <time>2019-08-04T06:34:36Z</time>
      </trkpt>
      <trkpt lat="45.2177" lon="0.73011">
        <ele>242.125</ele>
        <time>2019-08-04T06:34:40Z</time>
      </trkpt>
      <trkpt lat="45.21785" lon="0.73034">
        <ele>240.369</ele>
        <time>2019-08-04T06:34:43Z</time>
      </trkpt>
      <trkpt lat="45.21789" lon="0.73041">
        <ele>239.835</ele>
        <time>2019-08-04T06:34:44Z</time>
      </trkpt>
      <trkpt lat="45.21795" lon="0.7305">
        <ele>240.561</ele>
        <time>2019-08-04T06:34:45Z</time>
      </trkpt>
      <trkpt lat="45.218" lon="0.73059">
        <ele>240.291</ele>
        <time>2019-08-04T06:34:46Z</time>
      </trkpt>
      <trkpt lat="45.21804" lon="0.73068">
        <ele>240.017</ele>
        <time>2019-08-04T06:34:47Z</time>
      </trkpt>
      <trkpt lat="45.21809" lon="0.73077">
        <ele>239.473</ele>
        <time>2019-08-04T06:34:48Z</time>
      </trkpt>
      <trkpt lat="45.21813" lon="0.73086">
        <ele>238.868</ele>
        <time>2019-08-04T06:34:49Z</time>
      </trkpt>
      <trkpt lat="45.21817" lon="0.73095">
        <ele>238.398</ele>
        <time>2019-08-04T06:34:50Z</time>
      </trkpt>
      <trkpt lat="45.21822" lon="0.73103">
        <ele>237.894</ele>
        <time>2019-08-04T06:34:51Z</time>
      </trkpt>
      <trkpt lat="45.21826" lon="0.73112">
        <ele>237.925</ele>
        <time>2019-08-04T06:34:52Z</time>
      </trkpt>
      <trkpt lat="45.2183" lon="0.73122">
        <ele>237.362</ele>
        <time>2019-08-04T06:34:53Z</time>
      </trkpt>
      <trkpt lat="45.21835" lon="0.73139">
        <ele>237.939</ele>
        <time>2019-08-04T06:34:55Z</time>
      </trkpt>
      <trkpt lat="45.21835" lon="0.73148">
        <ele>237.741</ele>
        <time>2019-08-04T06:34:56Z</time>
      </trkpt>
      <trkpt lat="45.21835" lon="0.73155">
        <ele>238.553</ele>
        <time>2019-08-04T06:34:57Z</time>
      </trkpt>
      <trkpt lat="45.21835" lon="0.73161">
        <ele>238.167</ele>
        <time>2019-08-04T06:34:58Z</time>
      </trkpt>
      <trkpt lat="45.21833" lon="0.73177">
        <ele>237.951</ele>
        <time>2019-08-04T06:35:00Z</time>
      </trkpt>
      <trkpt lat="45.21828" lon="0.73193">
        <ele>238.262</ele>
        <time>2019-08-04T06:35:03Z</time>
      </trkpt>
      <trkpt lat="45.21826" lon="0.73204">
        <ele>237.516</ele>
        <time>2019-08-04T06:35:05Z</time>
      </trkpt>
      <trkpt lat="45.21826" lon="0.73213">
        <ele>237.188</ele>
        <time>2019-08-04T06:35:07Z</time>
      </trkpt>
      <trkpt lat="45.2182" lon="0.73223">
        <ele>237.474</ele>
        <time>2019-08-04T06:35:10Z</time>
      </trkpt>
      <trkpt lat="45.2182" lon="0.7323">
        <ele>237.01</ele>
        <time>2019-08-04T06:35:12Z</time>
      </trkpt>
      <trkpt lat="45.2182" lon="0.73234">
        <ele>236.828</ele>
        <time>2019-08-04T06:35:13Z</time>
      </trkpt>
      <trkpt lat="45.2182" lon="0.73238">
        <ele>237.033</ele>
        <time>2019-08-04T06:35:14Z</time>
      </trkpt>
      <trkpt lat="45.21819" lon="0.73245">
        <ele>238.99</ele>
        <time>2019-08-04T06:35:16Z</time>
      </trkpt>
      <trkpt lat="45.2182" lon="0.73252">
        <ele>238.411</ele>
        <time>2019-08-04T06:35:18Z</time>
      </trkpt>
      <trkpt lat="45.21817" lon="0.73261">
        <ele>237.698</ele>
        <time>2019-08-04T06:35:21Z</time>
      </trkpt>
      <trkpt lat="45.21813" lon="0.73265">
        <ele>239.873</ele>
        <time>2019-08-04T06:35:23Z</time>
      </trkpt>
      <trkpt lat="45.21808" lon="0.73269">
        <ele>240.676</ele>
        <time>2019-08-04T06:35:25Z</time>
      </trkpt>
      <trkpt lat="45.21801" lon="0.73278">
        <ele>240.579</ele>
        <time>2019-08-04T06:35:28Z</time>
      </trkpt>
      <trkpt lat="45.21801" lon="0.73286">
        <ele>241.439</ele>
        <time>2019-08-04T06:35:30Z</time>
      </trkpt>
      <trkpt lat="45.21804" lon="0.73296">
        <ele>243.126</ele>
        <time>2019-08-04T06:35:32Z</time>
      </trkpt>
      <trkpt lat="45.21807" lon="0.73304">
        <ele>242.706</ele>
        <time>2019-08-04T06:35:34Z</time>
      </trkpt>
      <trkpt lat="45.21809" lon="0.73309">
        <ele>242.846</ele>
        <time>2019-08-04T06:35:35Z</time>
      </trkpt>
      <trkpt lat="45.2181" lon="0.73313">
        <ele>242.651</ele>
        <time>2019-08-04T06:35:36Z</time>
      </trkpt>
      <trkpt lat="45.21812" lon="0.73317">
        <ele>243.236</ele>
        <time>2019-08-04T06:35:37Z</time>
      </trkpt>
      <trkpt lat="45.21813" lon="0.7332">
        <ele>243.465</ele>
        <time>2019-08-04T06:35:38Z</time>
      </trkpt>
      <trkpt lat="45.21815" lon="0.73324">
        <ele>243.021</ele>
        <time>2019-08-04T06:35:39Z</time>
      </trkpt>
      <trkpt lat="45.21816" lon="0.73327">
        <ele>243.723</ele>
        <time>2019-08-04T06:35:40Z</time>
      </trkpt>
      <trkpt lat="45.21817" lon="0.7333">
        <ele>244.001</ele>
        <time>2019-08-04T06:35:41Z</time>
      </trkpt>
      <trkpt lat="45.21821" lon="0.73342">
        <ele>243.531</ele>
        <time>2019-08-04T06:35:44Z</time>
      </trkpt>
      <trkpt lat="45.21822" lon="0.73346">
        <ele>242.91</ele>
        <time>2019-08-04T06:35:45Z</time>
      </trkpt>
      <trkpt lat="45.21824" lon="0.73351">
        <ele>242.517</ele>
        <time>2019-08-04T06:35:46Z</time>
      </trkpt>
      <trkpt lat="45.21825" lon="0.73355">
        <ele>243.179</ele>
        <time>2019-08-04T06:35:47Z</time>
      </trkpt>
      <trkpt lat="45.21826" lon="0.73359">
        <ele>242.957</ele>
        <time>2019-08-04T06:35:48Z</time>
      </trkpt>
      <trkpt lat="45.21827" lon="0.73363">
        <ele>243.16</ele>
        <time>2019-08-04T06:35:49Z</time>
      </trkpt>
      <trkpt lat="45.21828" lon="0.73372">
        <ele>242.13</ele>
        <time>2019-08-04T06:35:51Z</time>
      </trkpt>
      <trkpt lat="45.21828" lon="0.73381">
        <ele>240.52</ele>
        <time>2019-08-04T06:35:53Z</time>
      </trkpt>
      <trkpt lat="45.21828" lon="0.73385">
        <ele>240.787</ele>
        <time>2019-08-04T06:35:54Z</time>
      </trkpt>
      <trkpt lat="45.21828" lon="0.7339">
        <ele>241.147</ele>
        <time>2019-08-04T06:35:55Z</time>
      </trkpt>
      <trkpt lat="45.21829" lon="0.73399">
        <ele>241.265</ele>
        <time>2019-08-04T06:35:57Z</time>
      </trkpt>
      <trkpt lat="45.2183" lon="0.73403">
        <ele>240.178</ele>
        <time>2019-08-04T06:35:58Z</time>
      </trkpt>
      <trkpt lat="45.2183" lon="0.73412">
        <ele>239.657</ele>
        <time>2019-08-04T06:36:00Z</time>
      </trkpt>
      <trkpt lat="45.2183" lon="0.73417">
        <ele>240.897</ele>
        <time>2019-08-04T06:36:01Z</time>
      </trkpt>
      <trkpt lat="45.21831" lon="0.73422">
        <ele>241.165</ele>
        <time>2019-08-04T06:36:02Z</time>
      </trkpt>
      <trkpt lat="45.21831" lon="0.73427">
        <ele>240.193</ele>
        <time>2019-08-04T06:36:03Z</time>
      </trkpt>
      <trkpt lat="45.21831" lon="0.73432">
        <ele>239.044</ele>
        <time>2019-08-04T06:36:04Z</time>
      </trkpt>
      <trkpt lat="45.21831" lon="0.73436">
        <ele>238.107</ele>
        <time>2019-08-04T06:36:05Z</time>
      </trkpt>
      <trkpt lat="45.21831" lon="0.7344">
        <ele>237.365</ele>
        <time>2019-08-04T06:36:06Z</time>
      </trkpt>
      <trkpt lat="45.21831" lon="0.73444">
        <ele>237.391</ele>
        <time>2019-08-04T06:36:07Z</time>
      </trkpt>
      <trkpt lat="45.21831" lon="0.73448">
        <ele>238.095</ele>
        <time>2019-08-04T06:36:08Z</time>
      </trkpt>
      <trkpt lat="45.2183" lon="0.73452">
        <ele>238.914</ele>
        <time>2019-08-04T06:36:09Z</time>
      </trkpt>
      <trkpt lat="45.2183" lon="0.73455">
        <ele>239.335</ele>
        <time>2019-08-04T06:36:10Z</time>
      </trkpt>
      <trkpt lat="45.21829" lon="0.73463">
        <ele>238.515</ele>
        <time>2019-08-04T06:36:12Z</time>
      </trkpt>
      <trkpt lat="45.21829" lon="0.73467">
        <ele>239.58</ele>
        <time>2019-08-04T06:36:13Z</time>
      </trkpt>
      <trkpt lat="45.21828" lon="0.7347">
        <ele>239.693</ele>
        <time>2019-08-04T06:36:14Z</time>
      </trkpt>
      <trkpt lat="45.21828" lon="0.73478">
        <ele>240.514</ele>
        <time>2019-08-04T06:36:16Z</time>
      </trkpt>
      <trkpt lat="45.21828" lon="0.73482">
        <ele>239.689</ele>
        <time>2019-08-04T06:36:17Z</time>
      </trkpt>
      <trkpt lat="45.21826" lon="0.73491">
        <ele>240.143</ele>
        <time>2019-08-04T06:36:19Z</time>
      </trkpt>
      <trkpt lat="45.21822" lon="0.73502">
        <ele>241.132</ele>
        <time>2019-08-04T06:36:21Z</time>
      </trkpt>
      <trkpt lat="45.21819" lon="0.73507">
        <ele>240.951</ele>
        <time>2019-08-04T06:36:22Z</time>
      </trkpt>
      <trkpt lat="45.21816" lon="0.73521">
        <ele>239.932</ele>
        <time>2019-08-04T06:36:24Z</time>
      </trkpt>
      <trkpt lat="45.21814" lon="0.73528">
        <ele>239.722</ele>
        <time>2019-08-04T06:36:25Z</time>
      </trkpt>
      <trkpt lat="45.21813" lon="0.73535">
        <ele>239.78</ele>
        <time>2019-08-04T06:36:26Z</time>
      </trkpt>
      <trkpt lat="45.21811" lon="0.73542">
        <ele>239.479</ele>
        <time>2019-08-04T06:36:27Z</time>
      </trkpt>
      <trkpt lat="45.2181" lon="0.73549">
        <ele>238.957</ele>
        <time>2019-08-04T06:36:28Z</time>
      </trkpt>
      <trkpt lat="45.2181" lon="0.73556">
        <ele>237.995</ele>
        <time>2019-08-04T06:36:29Z</time>
      </trkpt>
      <trkpt lat="45.2181" lon="0.73567">
        <ele>239.211</ele>
        <time>2019-08-04T06:36:31Z</time>
      </trkpt>
      <trkpt lat="45.21809" lon="0.73574">
        <ele>238.831</ele>
        <time>2019-08-04T06:36:32Z</time>
      </trkpt>
      <trkpt lat="45.21808" lon="0.73584">
        <ele>239.328</ele>
        <time>2019-08-04T06:36:34Z</time>
      </trkpt>
      <trkpt lat="45.21805" lon="0.73593">
        <ele>240.536</ele>
        <time>2019-08-04T06:36:36Z</time>
      </trkpt>
      <trkpt lat="45.21803" lon="0.73602">
        <ele>242.049</ele>
        <time>2019-08-04T06:36:39Z</time>
      </trkpt>
      <trkpt lat="45.21801" lon="0.73608">
        <ele>243.532</ele>
        <time>2019-08-04T06:36:41Z</time>
      </trkpt>
      <trkpt lat="45.218" lon="0.73615">
        <ele>243.935</ele>
        <time>2019-08-04T06:36:44Z</time>
      </trkpt>
      <trkpt lat="45.218" lon="0.73619">
        <ele>242.974</ele>
        <time>2019-08-04T06:36:46Z</time>
      </trkpt>
      <trkpt lat="45.218" lon="0.73625">
        <ele>242.776</ele>
        <time>2019-08-04T06:36:49Z</time>
      </trkpt>
      <trkpt lat="45.21803" lon="0.73631">
        <ele>242.993</ele>
        <time>2019-08-04T06:36:53Z</time>
      </trkpt>
      <trkpt lat="45.21802" lon="0.73639">
        <ele>244.512</ele>
        <time>2019-08-04T06:36:56Z</time>
      </trkpt>
      <trkpt lat="45.21799" lon="0.73648">
        <ele>244.087</ele>
        <time>2019-08-04T06:37:00Z</time>
      </trkpt>
      <trkpt lat="45.21799" lon="0.73654">
        <ele>244.855</ele>
        <time>2019-08-04T06:37:03Z</time>
      </trkpt>
      <trkpt lat="45.21798" lon="0.73659">
        <ele>244.39</ele>
        <time>2019-08-04T06:37:05Z</time>
      </trkpt>
      <trkpt lat="45.21798" lon="0.73666">
        <ele>246.441</ele>
        <time>2019-08-04T06:37:08Z</time>
      </trkpt>
      <trkpt lat="45.21799" lon="0.73677">
        <ele>246.129</ele>
        <time>2019-08-04T06:37:12Z</time>
      </trkpt>
      <trkpt lat="45.218" lon="0.73686">
        <ele>248.393</ele>
        <time>2019-08-04T06:37:16Z</time>
      </trkpt>
      <trkpt lat="45.21798" lon="0.73694">
        <ele>247.489</ele>
        <time>2019-08-04T06:37:20Z</time>
      </trkpt>
      <trkpt lat="45.21797" lon="0.73699">
        <ele>249.184</ele>
        <time>2019-08-04T06:37:22Z</time>
      </trkpt>
      <trkpt lat="45.21796" lon="0.73704">
        <ele>249.512</ele>
        <time>2019-08-04T06:37:24Z</time>
      </trkpt>
      <trkpt lat="45.21794" lon="0.73709">
        <ele>250.067</ele>
        <time>2019-08-04T06:37:26Z</time>
      </trkpt>
      <trkpt lat="45.21793" lon="0.73717">
        <ele>250.083</ele>
        <time>2019-08-04T06:37:29Z</time>
      </trkpt>
      <trkpt lat="45.21792" lon="0.73722">
        <ele>250.674</ele>
        <time>2019-08-04T06:37:31Z</time>
      </trkpt>
      <trkpt lat="45.21791" lon="0.73731">
        <ele>250.324</ele>
        <time>2019-08-04T06:37:34Z</time>
      </trkpt>
      <trkpt lat="45.21791" lon="0.73737">
        <ele>250.388</ele>
        <time>2019-08-04T06:37:36Z</time>
      </trkpt>
      <trkpt lat="45.2179" lon="0.73743">
        <ele>251.492</ele>
        <time>2019-08-04T06:37:38Z</time>
      </trkpt>
      <trkpt lat="45.2179" lon="0.73749">
        <ele>250.692</ele>
        <time>2019-08-04T06:37:40Z</time>
      </trkpt>
      <trkpt lat="45.2179" lon="0.73752">
        <ele>250.926</ele>
        <time>2019-08-04T06:37:41Z</time>
      </trkpt>
      <trkpt lat="45.21791" lon="0.73761">
        <ele>250.222</ele>
        <time>2019-08-04T06:37:44Z</time>
      </trkpt>
      <trkpt lat="45.21792" lon="0.73766">
        <ele>249.388</ele>
        <time>2019-08-04T06:37:46Z</time>
      </trkpt>
      <trkpt lat="45.21792" lon="0.73773">
        <ele>248.889</ele>
        <time>2019-08-04T06:37:48Z</time>
      </trkpt>
      <trkpt lat="45.21791" lon="0.7378">
        <ele>248.769</ele>
        <time>2019-08-04T06:37:50Z</time>
      </trkpt>
      <trkpt lat="45.21792" lon="0.73787">
        <ele>248.897</ele>
        <time>2019-08-04T06:37:52Z</time>
      </trkpt>
      <trkpt lat="45.21792" lon="0.7379">
        <ele>248.624</ele>
        <time>2019-08-04T06:37:53Z</time>
      </trkpt>
      <trkpt lat="45.21787" lon="0.73796">
        <ele>248.411</ele>
        <time>2019-08-04T06:37:56Z</time>
      </trkpt>
      <trkpt lat="45.2178" lon="0.73795">
        <ele>248.933</ele>
        <time>2019-08-04T06:38:00Z</time>
      </trkpt>
      <trkpt lat="45.21776" lon="0.73794">
        <ele>250.055</ele>
        <time>2019-08-04T06:38:02Z</time>
      </trkpt>
      <trkpt lat="45.21773" lon="0.73793">
        <ele>250.61</ele>
        <time>2019-08-04T06:38:04Z</time>
      </trkpt>
      <trkpt lat="45.21769" lon="0.73793">
        <ele>250.912</ele>
        <time>2019-08-04T06:38:06Z</time>
      </trkpt>
      <trkpt lat="45.21766" lon="0.73793">
        <ele>251.485</ele>
        <time>2019-08-04T06:38:08Z</time>
      </trkpt>
      <trkpt lat="45.21761" lon="0.73794">
        <ele>252.398</ele>
        <time>2019-08-04T06:38:12Z</time>
      </trkpt>
      <trkpt lat="45.21758" lon="0.73794">
        <ele>253.026</ele>
        <time>2019-08-04T06:38:14Z</time>
      </trkpt>
      <trkpt lat="45.21752" lon="0.73795">
        <ele>254.036</ele>
        <time>2019-08-04T06:38:18Z</time>
      </trkpt>
      <trkpt lat="45.21749" lon="0.738">
        <ele>253.828</ele>
        <time>2019-08-04T06:38:21Z</time>
      </trkpt>
      <trkpt lat="45.21749" lon="0.73809">
        <ele>252.267</ele>
        <time>2019-08-04T06:38:24Z</time>
      </trkpt>
      <trkpt lat="45.21748" lon="0.73815">
        <ele>252.794</ele>
        <time>2019-08-04T06:38:26Z</time>
      </trkpt>
      <trkpt lat="45.21746" lon="0.73826">
        <ele>251.097</ele>
        <time>2019-08-04T06:38:30Z</time>
      </trkpt>
      <trkpt lat="45.21745" lon="0.73835">
        <ele>252.123</ele>
        <time>2019-08-04T06:38:33Z</time>
      </trkpt>
      <trkpt lat="45.21744" lon="0.73845">
        <ele>253.305</ele>
        <time>2019-08-04T06:38:36Z</time>
      </trkpt>
      <trkpt lat="45.21744" lon="0.73851">
        <ele>254.026</ele>
        <time>2019-08-04T06:38:38Z</time>
      </trkpt>
      <trkpt lat="45.21744" lon="0.73855">
        <ele>254.733</ele>
        <time>2019-08-04T06:38:39Z</time>
      </trkpt>
      <trkpt lat="45.21744" lon="0.73858">
        <ele>255.586</ele>
        <time>2019-08-04T06:38:40Z</time>
      </trkpt>
      <trkpt lat="45.21745" lon="0.73862">
        <ele>256.512</ele>
        <time>2019-08-04T06:38:41Z</time>
      </trkpt>
      <trkpt lat="45.21745" lon="0.73865">
        <ele>256.153</ele>
        <time>2019-08-04T06:38:42Z</time>
      </trkpt>
      <trkpt lat="45.21745" lon="0.73873">
        <ele>253.317</ele>
        <time>2019-08-04T06:38:45Z</time>
      </trkpt>
      <trkpt lat="45.21743" lon="0.73881">
        <ele>252.871</ele>
        <time>2019-08-04T06:38:48Z</time>
      </trkpt>
      <trkpt lat="45.21743" lon="0.73891">
        <ele>251.047</ele>
        <time>2019-08-04T06:38:53Z</time>
      </trkpt>
      <trkpt lat="45.21738" lon="0.73894">
        <ele>253.007</ele>
        <time>2019-08-04T06:38:56Z</time>
      </trkpt>
      <trkpt lat="45.21728" lon="0.73892">
        <ele>251.543</ele>
        <time>2019-08-04T06:39:01Z</time>
      </trkpt>
      <trkpt lat="45.21722" lon="0.73894">
        <ele>250.38</ele>
        <time>2019-08-04T06:39:05Z</time>
      </trkpt>
      <trkpt lat="45.21719" lon="0.73899">
        <ele>251.647</ele>
        <time>2019-08-04T06:39:07Z</time>
      </trkpt>
      <trkpt lat="45.21716" lon="0.73908">
        <ele>252.063</ele>
        <time>2019-08-04T06:39:10Z</time>
      </trkpt>
      <trkpt lat="45.21715" lon="0.73916">
        <ele>250.134</ele>
        <time>2019-08-04T06:39:13Z</time>
      </trkpt>
      <trkpt lat="45.21714" lon="0.73921">
        <ele>251.096</ele>
        <time>2019-08-04T06:39:15Z</time>
      </trkpt>
      <trkpt lat="45.21711" lon="0.73929">
        <ele>250.741</ele>
        <time>2019-08-04T06:39:18Z</time>
      </trkpt>
      <trkpt lat="45.21709" lon="0.73935">
        <ele>247.659</ele>
        <time>2019-08-04T06:39:20Z</time>
      </trkpt>
      <trkpt lat="45.21708" lon="0.73939">
        <ele>249.74</ele>
        <time>2019-08-04T06:39:21Z</time>
      </trkpt>
      <trkpt lat="45.21705" lon="0.7395">
        <ele>250.484</ele>
        <time>2019-08-04T06:39:25Z</time>
      </trkpt>
      <trkpt lat="45.21702" lon="0.73957">
        <ele>249.374</ele>
        <time>2019-08-04T06:39:28Z</time>
      </trkpt>
      <trkpt lat="45.21702" lon="0.73967">
        <ele>249.498</ele>
        <time>2019-08-04T06:39:31Z</time>
      </trkpt>
      <trkpt lat="45.21706" lon="0.73974">
        <ele>249.548</ele>
        <time>2019-08-04T06:39:33Z</time>
      </trkpt>
      <trkpt lat="45.21711" lon="0.7398">
        <ele>250.928</ele>
        <time>2019-08-04T06:39:35Z</time>
      </trkpt>
      <trkpt lat="45.21713" lon="0.73983">
        <ele>251.218</ele>
        <time>2019-08-04T06:39:36Z</time>
      </trkpt>
      <trkpt lat="45.21715" lon="0.73986">
        <ele>251.439</ele>
        <time>2019-08-04T06:39:37Z</time>
      </trkpt>
      <trkpt lat="45.21717" lon="0.73989">
        <ele>251.53</ele>
        <time>2019-08-04T06:39:38Z</time>
      </trkpt>
      <trkpt lat="45.21719" lon="0.73992">
        <ele>251.219</ele>
        <time>2019-08-04T06:39:39Z</time>
      </trkpt>
      <trkpt lat="45.21725" lon="0.74001">
        <ele>251.071</ele>
        <time>2019-08-04T06:39:42Z</time>
      </trkpt>
      <trkpt lat="45.21729" lon="0.74006">
        <ele>250.834</ele>
        <time>2019-08-04T06:39:44Z</time>
      </trkpt>
      <trkpt lat="45.21731" lon="0.74009">
        <ele>250.655</ele>
        <time>2019-08-04T06:39:45Z</time>
      </trkpt>
      <trkpt lat="45.21733" lon="0.74012">
        <ele>251.199</ele>
        <time>2019-08-04T06:39:46Z</time>
      </trkpt>
      <trkpt lat="45.21734" lon="0.74015">
        <ele>252.2</ele>
        <time>2019-08-04T06:39:47Z</time>
      </trkpt>
      <trkpt lat="45.21736" lon="0.74018">
        <ele>253.05</ele>
        <time>2019-08-04T06:39:48Z</time>
      </trkpt>
      <trkpt lat="45.21738" lon="0.74021">
        <ele>253.069</ele>
        <time>2019-08-04T06:39:49Z</time>
      </trkpt>
      <trkpt lat="45.2174" lon="0.74025">
        <ele>253.415</ele>
        <time>2019-08-04T06:39:50Z</time>
      </trkpt>
      <trkpt lat="45.21742" lon="0.74028">
        <ele>253.289</ele>
        <time>2019-08-04T06:39:51Z</time>
      </trkpt>
      <trkpt lat="45.21745" lon="0.74035">
        <ele>253.213</ele>
        <time>2019-08-04T06:39:53Z</time>
      </trkpt>
      <trkpt lat="45.21746" lon="0.74038">
        <ele>253.313</ele>
        <time>2019-08-04T06:39:54Z</time>
      </trkpt>
      <trkpt lat="45.21748" lon="0.74041">
        <ele>253.762</ele>
        <time>2019-08-04T06:39:55Z</time>
      </trkpt>
      <trkpt lat="45.2175" lon="0.74044">
        <ele>253.758</ele>
        <time>2019-08-04T06:39:56Z</time>
      </trkpt>
      <trkpt lat="45.21751" lon="0.74047">
        <ele>254.473</ele>
        <time>2019-08-04T06:39:57Z</time>
      </trkpt>
      <trkpt lat="45.21753" lon="0.7405">
        <ele>254.71</ele>
        <time>2019-08-04T06:39:58Z</time>
      </trkpt>
      <trkpt lat="45.21755" lon="0.74054">
        <ele>254.891</ele>
        <time>2019-08-04T06:39:59Z</time>
      </trkpt>
      <trkpt lat="45.21756" lon="0.74057">
        <ele>254.623</ele>
        <time>2019-08-04T06:40:00Z</time>
      </trkpt>
      <trkpt lat="45.21758" lon="0.7406">
        <ele>254.583</ele>
        <time>2019-08-04T06:40:01Z</time>
      </trkpt>
      <trkpt lat="45.2176" lon="0.74062">
        <ele>254.14</ele>
        <time>2019-08-04T06:40:02Z</time>
      </trkpt>
      <trkpt lat="45.21761" lon="0.74065">
        <ele>254.66</ele>
        <time>2019-08-04T06:40:03Z</time>
      </trkpt>
      <trkpt lat="45.21763" lon="0.74068">
        <ele>254.883</ele>
        <time>2019-08-04T06:40:04Z</time>
      </trkpt>
      <trkpt lat="45.21767" lon="0.74074">
        <ele>255.444</ele>
        <time>2019-08-04T06:40:06Z</time>
      </trkpt>
      <trkpt lat="45.21769" lon="0.74077">
        <ele>255.506</ele>
        <time>2019-08-04T06:40:07Z</time>
      </trkpt>
      <trkpt lat="45.21771" lon="0.7408">
        <ele>254.857</ele>
        <time>2019-08-04T06:40:08Z</time>
      </trkpt>
      <trkpt lat="45.21775" lon="0.7409">
        <ele>254.843</ele>
        <time>2019-08-04T06:40:11Z</time>
      </trkpt>
      <trkpt lat="45.21778" lon="0.74098">
        <ele>255.245</ele>
        <time>2019-08-04T06:40:13Z</time>
      </trkpt>
      <trkpt lat="45.21779" lon="0.74101">
        <ele>255.542</ele>
        <time>2019-08-04T06:40:14Z</time>
      </trkpt>
      <trkpt lat="45.2178" lon="0.74104">
        <ele>255.613</ele>
        <time>2019-08-04T06:40:15Z</time>
      </trkpt>
      <trkpt lat="45.21782" lon="0.74108">
        <ele>256.406</ele>
        <time>2019-08-04T06:40:16Z</time>
      </trkpt>
      <trkpt lat="45.21783" lon="0.74111">
        <ele>256.316</ele>
        <time>2019-08-04T06:40:17Z</time>
      </trkpt>
      <trkpt lat="45.21785" lon="0.74116">
        <ele>255.335</ele>
        <time>2019-08-04T06:40:19Z</time>
      </trkpt>
      <trkpt lat="45.21787" lon="0.74123">
        <ele>256.413</ele>
        <time>2019-08-04T06:40:21Z</time>
      </trkpt>
      <trkpt lat="45.2179" lon="0.74129">
        <ele>258.191</ele>
        <time>2019-08-04T06:40:23Z</time>
      </trkpt>
      <trkpt lat="45.21795" lon="0.74137">
        <ele>258.169</ele>
        <time>2019-08-04T06:40:26Z</time>
      </trkpt>
      <trkpt lat="45.21797" lon="0.7414">
        <ele>258.193</ele>
        <time>2019-08-04T06:40:27Z</time>
      </trkpt>
      <trkpt lat="45.218" lon="0.74145">
        <ele>257.777</ele>
        <time>2019-08-04T06:40:29Z</time>
      </trkpt>
      <trkpt lat="45.21802" lon="0.74147">
        <ele>257.615</ele>
        <time>2019-08-04T06:40:30Z</time>
      </trkpt>
      <trkpt lat="45.21804" lon="0.7415">
        <ele>257.161</ele>
        <time>2019-08-04T06:40:31Z</time>
      </trkpt>
      <trkpt lat="45.21805" lon="0.74152">
        <ele>257.467</ele>
        <time>2019-08-04T06:40:32Z</time>
      </trkpt>
      <trkpt lat="45.21807" lon="0.74154">
        <ele>257.416</ele>
        <time>2019-08-04T06:40:33Z</time>
      </trkpt>
      <trkpt lat="45.21808" lon="0.74157">
        <ele>257.479</ele>
        <time>2019-08-04T06:40:34Z</time>
      </trkpt>
      <trkpt lat="45.21812" lon="0.74165">
        <ele>257.422</ele>
        <time>2019-08-04T06:40:37Z</time>
      </trkpt>
      <trkpt lat="45.21814" lon="0.74173">
        <ele>256.735</ele>
        <time>2019-08-04T06:40:40Z</time>
      </trkpt>
      <trkpt lat="45.21814" lon="0.7418">
        <ele>257.623</ele>
        <time>2019-08-04T06:40:43Z</time>
      </trkpt>
      <trkpt lat="45.21814" lon="0.74187">
        <ele>256.219</ele>
        <time>2019-08-04T06:40:46Z</time>
      </trkpt>
      <trkpt lat="45.21812" lon="0.74194">
        <ele>257.89</ele>
        <time>2019-08-04T06:40:49Z</time>
      </trkpt>
      <trkpt lat="45.21811" lon="0.74198">
        <ele>257.965</ele>
        <time>2019-08-04T06:40:51Z</time>
      </trkpt>
      <trkpt lat="45.21809" lon="0.74206">
        <ele>257.092</ele>
        <time>2019-08-04T06:40:55Z</time>
      </trkpt>
      <trkpt lat="45.21808" lon="0.74214">
        <ele>257.724</ele>
        <time>2019-08-04T06:40:58Z</time>
      </trkpt>
      <trkpt lat="45.21807" lon="0.74221">
        <ele>256.557</ele>
        <time>2019-08-04T06:41:01Z</time>
      </trkpt>
      <trkpt lat="45.21806" lon="0.74227">
        <ele>257.388</ele>
        <time>2019-08-04T06:41:03Z</time>
      </trkpt>
      <trkpt lat="45.21804" lon="0.74236">
        <ele>257.033</ele>
        <time>2019-08-04T06:41:07Z</time>
      </trkpt>
      <trkpt lat="45.21803" lon="0.74241">
        <ele>255.734</ele>
        <time>2019-08-04T06:41:09Z</time>
      </trkpt>
      <trkpt lat="45.21801" lon="0.74247">
        <ele>254.385</ele>
        <time>2019-08-04T06:41:12Z</time>
      </trkpt>
      <trkpt lat="45.21799" lon="0.74256">
        <ele>256.055</ele>
        <time>2019-08-04T06:41:15Z</time>
      </trkpt>
      <trkpt lat="45.21798" lon="0.74266">
        <ele>255.388</ele>
        <time>2019-08-04T06:41:18Z</time>
      </trkpt>
      <trkpt lat="45.21797" lon="0.7427">
        <ele>256.219</ele>
        <time>2019-08-04T06:41:19Z</time>
      </trkpt>
      <trkpt lat="45.21797" lon="0.74277">
        <ele>256.086</ele>
        <time>2019-08-04T06:41:21Z</time>
      </trkpt>
      <trkpt lat="45.21797" lon="0.74284">
        <ele>256.63</ele>
        <time>2019-08-04T06:41:23Z</time>
      </trkpt>
      <trkpt lat="45.21796" lon="0.74297">
        <ele>256.627</ele>
        <time>2019-08-04T06:41:26Z</time>
      </trkpt>
      <trkpt lat="45.21794" lon="0.74311">
        <ele>256.387</ele>
        <time>2019-08-04T06:41:29Z</time>
      </trkpt>
      <trkpt lat="45.21795" lon="0.74322">
        <ele>256.33</ele>
        <time>2019-08-04T06:41:31Z</time>
      </trkpt>
      <trkpt lat="45.21795" lon="0.74327">
        <ele>256.117</ele>
        <time>2019-08-04T06:41:32Z</time>
      </trkpt>
      <trkpt lat="45.21794" lon="0.74333">
        <ele>256.145</ele>
        <time>2019-08-04T06:41:33Z</time>
      </trkpt>
      <trkpt lat="45.21793" lon="0.74344">
        <ele>255.184</ele>
        <time>2019-08-04T06:41:35Z</time>
      </trkpt>
      <trkpt lat="45.2179" lon="0.74351">
        <ele>253.716</ele>
        <time>2019-08-04T06:41:36Z</time>
      </trkpt>
      <trkpt lat="45.21786" lon="0.74374">
        <ele>253.163</ele>
        <time>2019-08-04T06:41:39Z</time>
      </trkpt>
      <trkpt lat="45.21786" lon="0.74381">
        <ele>253.128</ele>
        <time>2019-08-04T06:41:40Z</time>
      </trkpt>
      <trkpt lat="45.21785" lon="0.7439">
        <ele>252.486</ele>
        <time>2019-08-04T06:41:41Z</time>
      </trkpt>
      <trkpt lat="45.21787" lon="0.74422">
        <ele>254.592</ele>
        <time>2019-08-04T06:41:44Z</time>
      </trkpt>
      <trkpt lat="45.21789" lon="0.74432">
        <ele>253.193</ele>
        <time>2019-08-04T06:41:45Z</time>
      </trkpt>
      <trkpt lat="45.21788" lon="0.74443">
        <ele>252.756</ele>
        <time>2019-08-04T06:41:46Z</time>
      </trkpt>
      <trkpt lat="45.21787" lon="0.74452">
        <ele>251.8</ele>
        <time>2019-08-04T06:41:47Z</time>
      </trkpt>
      <trkpt lat="45.21787" lon="0.74461">
        <ele>252.035</ele>
        <time>2019-08-04T06:41:48Z</time>
      </trkpt>
      <trkpt lat="45.21784" lon="0.7447">
        <ele>251.923</ele>
        <time>2019-08-04T06:41:49Z</time>
      </trkpt>
      <trkpt lat="45.21779" lon="0.74476">
        <ele>251.57</ele>
        <time>2019-08-04T06:41:50Z</time>
      </trkpt>
      <trkpt lat="45.21776" lon="0.74482">
        <ele>252.274</ele>
        <time>2019-08-04T06:41:51Z</time>
      </trkpt>
      <trkpt lat="45.21771" lon="0.74493">
        <ele>251.058</ele>
        <time>2019-08-04T06:41:53Z</time>
      </trkpt>
      <trkpt lat="45.21767" lon="0.74502">
        <ele>250.449</ele>
        <time>2019-08-04T06:41:55Z</time>
      </trkpt>
      <trkpt lat="45.21763" lon="0.74512">
        <ele>250.747</ele>
        <time>2019-08-04T06:41:58Z</time>
      </trkpt>
      <trkpt lat="45.2176" lon="0.74518">
        <ele>250.566</ele>
        <time>2019-08-04T06:42:01Z</time>
      </trkpt>
      <trkpt lat="45.21758" lon="0.74521">
        <ele>251.12</ele>
        <time>2019-08-04T06:42:03Z</time>
      </trkpt>
      <trkpt lat="45.21753" lon="0.74527">
        <ele>250.464</ele>
        <time>2019-08-04T06:42:06Z</time>
      </trkpt>
      <trkpt lat="45.21749" lon="0.74533">
        <ele>249.08</ele>
        <time>2019-08-04T06:42:09Z</time>
      </trkpt>
      <trkpt lat="45.21745" lon="0.74545">
        <ele>252.114</ele>
        <time>2019-08-04T06:42:13Z</time>
      </trkpt>
      <trkpt lat="45.21744" lon="0.74549">
        <ele>253.219</ele>
        <time>2019-08-04T06:42:14Z</time>
      </trkpt>
      <trkpt lat="45.21742" lon="0.74559">
        <ele>253.799</ele>
        <time>2019-08-04T06:42:17Z</time>
      </trkpt>
      <trkpt lat="45.21741" lon="0.74562">
        <ele>254.112</ele>
        <time>2019-08-04T06:42:18Z</time>
      </trkpt>
      <trkpt lat="45.2174" lon="0.74566">
        <ele>254.507</ele>
        <time>2019-08-04T06:42:19Z</time>
      </trkpt>
      <trkpt lat="45.21738" lon="0.74573">
        <ele>254.371</ele>
        <time>2019-08-04T06:42:21Z</time>
      </trkpt>
      <trkpt lat="45.21735" lon="0.74582">
        <ele>253.414</ele>
        <time>2019-08-04T06:42:23Z</time>
      </trkpt>
      <trkpt lat="45.21731" lon="0.74595">
        <ele>254.989</ele>
        <time>2019-08-04T06:42:26Z</time>
      </trkpt>
      <trkpt lat="45.2173" lon="0.746">
        <ele>254.91</ele>
        <time>2019-08-04T06:42:27Z</time>
      </trkpt>
      <trkpt lat="45.21728" lon="0.74609">
        <ele>257.182</ele>
        <time>2019-08-04T06:42:29Z</time>
      </trkpt>
      <trkpt lat="45.21727" lon="0.74614">
        <ele>258.409</ele>
        <time>2019-08-04T06:42:30Z</time>
      </trkpt>
      <trkpt lat="45.21726" lon="0.74619">
        <ele>257.814</ele>
        <time>2019-08-04T06:42:31Z</time>
      </trkpt>
      <trkpt lat="45.21725" lon="0.74624">
        <ele>258.51</ele>
        <time>2019-08-04T06:42:32Z</time>
      </trkpt>
      <trkpt lat="45.21723" lon="0.74633">
        <ele>257.58</ele>
        <time>2019-08-04T06:42:34Z</time>
      </trkpt>
      <trkpt lat="45.21722" lon="0.74637">
        <ele>257.585</ele>
        <time>2019-08-04T06:42:35Z</time>
      </trkpt>
      <trkpt lat="45.21721" lon="0.74642">
        <ele>257.179</ele>
        <time>2019-08-04T06:42:36Z</time>
      </trkpt>
      <trkpt lat="45.2172" lon="0.74646">
        <ele>256.086</ele>
        <time>2019-08-04T06:42:37Z</time>
      </trkpt>
      <trkpt lat="45.21718" lon="0.74651">
        <ele>255.446</ele>
        <time>2019-08-04T06:42:38Z</time>
      </trkpt>
      <trkpt lat="45.21716" lon="0.74655">
        <ele>255.557</ele>
        <time>2019-08-04T06:42:39Z</time>
      </trkpt>
      <trkpt lat="45.21714" lon="0.7466">
        <ele>256.975</ele>
        <time>2019-08-04T06:42:40Z</time>
      </trkpt>
      <trkpt lat="45.21712" lon="0.74665">
        <ele>256.99</ele>
        <time>2019-08-04T06:42:41Z</time>
      </trkpt>
      <trkpt lat="45.2171" lon="0.7467">
        <ele>255.79</ele>
        <time>2019-08-04T06:42:42Z</time>
      </trkpt>
      <trkpt lat="45.21707" lon="0.74675">
        <ele>254.88</ele>
        <time>2019-08-04T06:42:43Z</time>
      </trkpt>
      <trkpt lat="45.21705" lon="0.74679">
        <ele>254.538</ele>
        <time>2019-08-04T06:42:44Z</time>
      </trkpt>
      <trkpt lat="45.21702" lon="0.74683">
        <ele>254.615</ele>
        <time>2019-08-04T06:42:45Z</time>
      </trkpt>
      <trkpt lat="45.217" lon="0.74687">
        <ele>253.965</ele>
        <time>2019-08-04T06:42:46Z</time>
      </trkpt>
      <trkpt lat="45.21697" lon="0.74691">
        <ele>253.938</ele>
        <time>2019-08-04T06:42:47Z</time>
      </trkpt>
      <trkpt lat="45.21695" lon="0.74694">
        <ele>254.683</ele>
        <time>2019-08-04T06:42:48Z</time>
      </trkpt>
      <trkpt lat="45.21689" lon="0.74701">
        <ele>255.277</ele>
        <time>2019-08-04T06:42:50Z</time>
      </trkpt>
      <trkpt lat="45.21685" lon="0.74704">
        <ele>256.746</ele>
        <time>2019-08-04T06:42:51Z</time>
      </trkpt>
      <trkpt lat="45.21682" lon="0.74707">
        <ele>257.089</ele>
        <time>2019-08-04T06:42:52Z</time>
      </trkpt>
      <trkpt lat="45.21679" lon="0.7471">
        <ele>257.69</ele>
        <time>2019-08-04T06:42:53Z</time>
      </trkpt>
      <trkpt lat="45.21676" lon="0.74713">
        <ele>258.242</ele>
        <time>2019-08-04T06:42:54Z</time>
      </trkpt>
      <trkpt lat="45.21673" lon="0.74716">
        <ele>257.635</ele>
        <time>2019-08-04T06:42:55Z</time>
      </trkpt>
      <trkpt lat="45.21669" lon="0.74718">
        <ele>258.603</ele>
        <time>2019-08-04T06:42:56Z</time>
      </trkpt>
      <trkpt lat="45.21666" lon="0.7472">
        <ele>257.667</ele>
        <time>2019-08-04T06:42:57Z</time>
      </trkpt>
      <trkpt lat="45.21663" lon="0.74722">
        <ele>256.577</ele>
        <time>2019-08-04T06:42:58Z</time>
      </trkpt>
      <trkpt lat="45.21659" lon="0.74725">
        <ele>256.151</ele>
        <time>2019-08-04T06:42:59Z</time>
      </trkpt>
      <trkpt lat="45.2165" lon="0.74731">
        <ele>257.556</ele>
        <time>2019-08-04T06:43:02Z</time>
      </trkpt>
      <trkpt lat="45.21647" lon="0.74733">
        <ele>257.93</ele>
        <time>2019-08-04T06:43:03Z</time>
      </trkpt>
      <trkpt lat="45.21644" lon="0.74735">
        <ele>257.984</ele>
        <time>2019-08-04T06:43:04Z</time>
      </trkpt>
      <trkpt lat="45.21641" lon="0.74737">
        <ele>257.58</ele>
        <time>2019-08-04T06:43:05Z</time>
      </trkpt>
      <trkpt lat="45.21638" lon="0.74739">
        <ele>258.026</ele>
        <time>2019-08-04T06:43:06Z</time>
      </trkpt>
      <trkpt lat="45.21635" lon="0.74742">
        <ele>258.19</ele>
        <time>2019-08-04T06:43:07Z</time>
      </trkpt>
      <trkpt lat="45.2163" lon="0.74746">
        <ele>259.255</ele>
        <time>2019-08-04T06:43:09Z</time>
      </trkpt>
      <trkpt lat="45.21627" lon="0.74748">
        <ele>259.791</ele>
        <time>2019-08-04T06:43:10Z</time>
      </trkpt>
      <trkpt lat="45.21624" lon="0.74751">
        <ele>260.026</ele>
        <time>2019-08-04T06:43:11Z</time>
      </trkpt>
      <trkpt lat="45.21619" lon="0.74756">
        <ele>260.609</ele>
        <time>2019-08-04T06:43:13Z</time>
      </trkpt>
      <trkpt lat="45.21616" lon="0.74759">
        <ele>260.814</ele>
        <time>2019-08-04T06:43:14Z</time>
      </trkpt>
      <trkpt lat="45.21613" lon="0.74763">
        <ele>261.485</ele>
        <time>2019-08-04T06:43:15Z</time>
      </trkpt>
      <trkpt lat="45.21611" lon="0.74766">
        <ele>262.079</ele>
        <time>2019-08-04T06:43:16Z</time>
      </trkpt>
      <trkpt lat="45.21608" lon="0.74769">
        <ele>263.084</ele>
        <time>2019-08-04T06:43:17Z</time>
      </trkpt>
      <trkpt lat="45.21606" lon="0.74772">
        <ele>263.328</ele>
        <time>2019-08-04T06:43:18Z</time>
      </trkpt>
      <trkpt lat="45.21603" lon="0.74775">
        <ele>264.303</ele>
        <time>2019-08-04T06:43:19Z</time>
      </trkpt>
      <trkpt lat="45.21596" lon="0.74786">
        <ele>264.608</ele>
        <time>2019-08-04T06:43:22Z</time>
      </trkpt>
      <trkpt lat="45.21594" lon="0.7479">
        <ele>263.631</ele>
        <time>2019-08-04T06:43:23Z</time>
      </trkpt>
      <trkpt lat="45.21589" lon="0.74798">
        <ele>264.273</ele>
        <time>2019-08-04T06:43:25Z</time>
      </trkpt>
      <trkpt lat="45.21585" lon="0.74807">
        <ele>264.039</ele>
        <time>2019-08-04T06:43:27Z</time>
      </trkpt>
      <trkpt lat="45.2158" lon="0.7482">
        <ele>257.634</ele>
        <time>2019-08-04T06:43:31Z</time>
      </trkpt>
      <trkpt lat="45.21579" lon="0.74827">
        <ele>260.521</ele>
        <time>2019-08-04T06:43:33Z</time>
      </trkpt>
      <trkpt lat="45.21579" lon="0.74836">
        <ele>261.506</ele>
        <time>2019-08-04T06:43:35Z</time>
      </trkpt>
      <trkpt lat="45.21575" lon="0.74851">
        <ele>259.877</ele>
        <time>2019-08-04T06:43:39Z</time>
      </trkpt>
      <trkpt lat="45.21574" lon="0.74855">
        <ele>258.724</ele>
        <time>2019-08-04T06:43:40Z</time>
      </trkpt>
      <trkpt lat="45.21572" lon="0.74863">
        <ele>259.837</ele>
        <time>2019-08-04T06:43:42Z</time>
      </trkpt>
      <trkpt lat="45.2157" lon="0.74867">
        <ele>260.431</ele>
        <time>2019-08-04T06:43:43Z</time>
      </trkpt>
      <trkpt lat="45.21569" lon="0.74871">
        <ele>260.062</ele>
        <time>2019-08-04T06:43:44Z</time>
      </trkpt>
      <trkpt lat="45.21567" lon="0.74879">
        <ele>260.128</ele>
        <time>2019-08-04T06:43:46Z</time>
      </trkpt>
      <trkpt lat="45.21565" lon="0.74886">
        <ele>261.241</ele>
        <time>2019-08-04T06:43:48Z</time>
      </trkpt>
      <trkpt lat="45.2156" lon="0.74897">
        <ele>262.531</ele>
        <time>2019-08-04T06:43:51Z</time>
      </trkpt>
      <trkpt lat="45.21558" lon="0.74901">
        <ele>262.325</ele>
        <time>2019-08-04T06:43:52Z</time>
      </trkpt>
      <trkpt lat="45.21557" lon="0.74905">
        <ele>262.236</ele>
        <time>2019-08-04T06:43:53Z</time>
      </trkpt>
      <trkpt lat="45.21556" lon="0.7491">
        <ele>261.182</ele>
        <time>2019-08-04T06:43:54Z</time>
      </trkpt>
      <trkpt lat="45.21555" lon="0.74917">
        <ele>260.939</ele>
        <time>2019-08-04T06:43:56Z</time>
      </trkpt>
      <trkpt lat="45.21555" lon="0.74921">
        <ele>261.021</ele>
        <time>2019-08-04T06:43:57Z</time>
      </trkpt>
      <trkpt lat="45.21554" lon="0.74925">
        <ele>261.339</ele>
        <time>2019-08-04T06:43:58Z</time>
      </trkpt>
      <trkpt lat="45.21553" lon="0.74929">
        <ele>261.096</ele>
        <time>2019-08-04T06:43:59Z</time>
      </trkpt>
      <trkpt lat="45.21552" lon="0.74933">
        <ele>261.488</ele>
        <time>2019-08-04T06:44:00Z</time>
      </trkpt>
      <trkpt lat="45.21551" lon="0.74938">
        <ele>261.061</ele>
        <time>2019-08-04T06:44:01Z</time>
      </trkpt>
      <trkpt lat="45.21549" lon="0.74943">
        <ele>261.3</ele>
        <time>2019-08-04T06:44:02Z</time>
      </trkpt>
      <trkpt lat="45.21548" lon="0.74948">
        <ele>263.939</ele>
        <time>2019-08-04T06:44:03Z</time>
      </trkpt>
      <trkpt lat="45.21546" lon="0.74952">
        <ele>264.693</ele>
        <time>2019-08-04T06:44:04Z</time>
      </trkpt>
      <trkpt lat="45.21544" lon="0.74956">
        <ele>264.051</ele>
        <time>2019-08-04T06:44:05Z</time>
      </trkpt>
      <trkpt lat="45.21543" lon="0.7496">
        <ele>264.646</ele>
        <time>2019-08-04T06:44:06Z</time>
      </trkpt>
      <trkpt lat="45.21541" lon="0.74963">
        <ele>265.52</ele>
        <time>2019-08-04T06:44:07Z</time>
      </trkpt>
      <trkpt lat="45.21539" lon="0.74966">
        <ele>266.442</ele>
        <time>2019-08-04T06:44:08Z</time>
      </trkpt>
      <trkpt lat="45.21538" lon="0.7497">
        <ele>267.229</ele>
        <time>2019-08-04T06:44:09Z</time>
      </trkpt>
      <trkpt lat="45.21536" lon="0.74973">
        <ele>267.054</ele>
        <time>2019-08-04T06:44:10Z</time>
      </trkpt>
      <trkpt lat="45.21535" lon="0.74976">
        <ele>266.688</ele>
        <time>2019-08-04T06:44:11Z</time>
      </trkpt>
      <trkpt lat="45.21534" lon="0.74979">
        <ele>267.152</ele>
        <time>2019-08-04T06:44:12Z</time>
      </trkpt>
      <trkpt lat="45.21531" lon="0.74985">
        <ele>265.105</ele>
        <time>2019-08-04T06:44:14Z</time>
      </trkpt>
      <trkpt lat="45.2153" lon="0.74988">
        <ele>265.339</ele>
        <time>2019-08-04T06:44:15Z</time>
      </trkpt>
      <trkpt lat="45.21528" lon="0.74991">
        <ele>265.274</ele>
        <time>2019-08-04T06:44:16Z</time>
      </trkpt>
      <trkpt lat="45.21526" lon="0.74994">
        <ele>264.874</ele>
        <time>2019-08-04T06:44:17Z</time>
      </trkpt>
      <trkpt lat="45.21522" lon="0.75">
        <ele>264.97</ele>
        <time>2019-08-04T06:44:19Z</time>
      </trkpt>
      <trkpt lat="45.2152" lon="0.75003">
        <ele>264.271</ele>
        <time>2019-08-04T06:44:20Z</time>
      </trkpt>
      <trkpt lat="45.21518" lon="0.75005">
        <ele>265.839</ele>
        <time>2019-08-04T06:44:21Z</time>
      </trkpt>
      <trkpt lat="45.21517" lon="0.75008">
        <ele>266.324</ele>
        <time>2019-08-04T06:44:22Z</time>
      </trkpt>
      <trkpt lat="45.21513" lon="0.75014">
        <ele>265.976</ele>
        <time>2019-08-04T06:44:24Z</time>
      </trkpt>
      <trkpt lat="45.21512" lon="0.75016">
        <ele>265.416</ele>
        <time>2019-08-04T06:44:25Z</time>
      </trkpt>
      <trkpt lat="45.21511" lon="0.75019">
        <ele>264.529</ele>
        <time>2019-08-04T06:44:26Z</time>
      </trkpt>
      <trkpt lat="45.21509" lon="0.75022">
        <ele>265.543</ele>
        <time>2019-08-04T06:44:27Z</time>
      </trkpt>
      <trkpt lat="45.21507" lon="0.75026">
        <ele>266.192</ele>
        <time>2019-08-04T06:44:28Z</time>
      </trkpt>
      <trkpt lat="45.21502" lon="0.75032">
        <ele>268.09</ele>
        <time>2019-08-04T06:44:30Z</time>
      </trkpt>
      <trkpt lat="45.215" lon="0.75035">
        <ele>268.076</ele>
        <time>2019-08-04T06:44:31Z</time>
      </trkpt>
      <trkpt lat="45.21498" lon="0.75037">
        <ele>267.084</ele>
        <time>2019-08-04T06:44:32Z</time>
      </trkpt>
      <trkpt lat="45.21494" lon="0.75042">
        <ele>267.516</ele>
        <time>2019-08-04T06:44:34Z</time>
      </trkpt>
      <trkpt lat="45.21491" lon="0.75048">
        <ele>266.352</ele>
        <time>2019-08-04T06:44:36Z</time>
      </trkpt>
      <trkpt lat="45.21489" lon="0.75051">
        <ele>265.727</ele>
        <time>2019-08-04T06:44:37Z</time>
      </trkpt>
      <trkpt lat="45.21487" lon="0.75054">
        <ele>266.706</ele>
        <time>2019-08-04T06:44:38Z</time>
      </trkpt>
      <trkpt lat="45.21485" lon="0.75058">
        <ele>267.011</ele>
        <time>2019-08-04T06:44:39Z</time>
      </trkpt>
      <trkpt lat="45.21484" lon="0.75061">
        <ele>265.765</ele>
        <time>2019-08-04T06:44:40Z</time>
      </trkpt>
      <trkpt lat="45.2148" lon="0.7507">
        <ele>266.447</ele>
        <time>2019-08-04T06:44:43Z</time>
      </trkpt>
      <trkpt lat="45.21477" lon="0.75074">
        <ele>264.934</ele>
        <time>2019-08-04T06:44:45Z</time>
      </trkpt>
      <trkpt lat="45.21475" lon="0.75077">
        <ele>264.75</ele>
        <time>2019-08-04T06:44:46Z</time>
      </trkpt>
      <trkpt lat="45.21472" lon="0.75082">
        <ele>264.738</ele>
        <time>2019-08-04T06:44:48Z</time>
      </trkpt>
      <trkpt lat="45.21471" lon="0.75085">
        <ele>265.082</ele>
        <time>2019-08-04T06:44:49Z</time>
      </trkpt>
      <trkpt lat="45.2147" lon="0.75088">
        <ele>265.791</ele>
        <time>2019-08-04T06:44:50Z</time>
      </trkpt>
      <trkpt lat="45.21468" lon="0.75091">
        <ele>265.41</ele>
        <time>2019-08-04T06:44:51Z</time>
      </trkpt>
      <trkpt lat="45.21467" lon="0.75093">
        <ele>265.048</ele>
        <time>2019-08-04T06:44:52Z</time>
      </trkpt>
      <trkpt lat="45.21464" lon="0.751">
        <ele>265.733</ele>
        <time>2019-08-04T06:44:54Z</time>
      </trkpt>
      <trkpt lat="45.21462" lon="0.75105">
        <ele>265.579</ele>
        <time>2019-08-04T06:44:56Z</time>
      </trkpt>
      <trkpt lat="45.2146" lon="0.75108">
        <ele>265.73</ele>
        <time>2019-08-04T06:44:57Z</time>
      </trkpt>
      <trkpt lat="45.21459" lon="0.75111">
        <ele>265.217</ele>
        <time>2019-08-04T06:44:58Z</time>
      </trkpt>
      <trkpt lat="45.21456" lon="0.75117">
        <ele>263.555</ele>
        <time>2019-08-04T06:45:00Z</time>
      </trkpt>
      <trkpt lat="45.21453" lon="0.75123">
        <ele>263.794</ele>
        <time>2019-08-04T06:45:02Z</time>
      </trkpt>
      <trkpt lat="45.21451" lon="0.75126">
        <ele>263.843</ele>
        <time>2019-08-04T06:45:03Z</time>
      </trkpt>
      <trkpt lat="45.21449" lon="0.7513">
        <ele>263.433</ele>
        <time>2019-08-04T06:45:04Z</time>
      </trkpt>
      <trkpt lat="45.21445" lon="0.75136">
        <ele>264.406</ele>
        <time>2019-08-04T06:45:06Z</time>
      </trkpt>
      <trkpt lat="45.21439" lon="0.7514">
        <ele>264.066</ele>
        <time>2019-08-04T06:45:08Z</time>
      </trkpt>
      <trkpt lat="45.2143" lon="0.75143">
        <ele>264.192</ele>
        <time>2019-08-04T06:45:11Z</time>
      </trkpt>
      <trkpt lat="45.21427" lon="0.75143">
        <ele>263.923</ele>
        <time>2019-08-04T06:45:12Z</time>
      </trkpt>
      <trkpt lat="45.21422" lon="0.75145">
        <ele>264.009</ele>
        <time>2019-08-04T06:45:14Z</time>
      </trkpt>
      <trkpt lat="45.21419" lon="0.75145">
        <ele>264.43</ele>
        <time>2019-08-04T06:45:15Z</time>
      </trkpt>
      <trkpt lat="45.21416" lon="0.75146">
        <ele>265.228</ele>
        <time>2019-08-04T06:45:16Z</time>
      </trkpt>
      <trkpt lat="45.21409" lon="0.75145">
        <ele>265.586</ele>
        <time>2019-08-04T06:45:18Z</time>
      </trkpt>
      <trkpt lat="45.21406" lon="0.75144">
        <ele>265.706</ele>
        <time>2019-08-04T06:45:19Z</time>
      </trkpt>
      <trkpt lat="45.21402" lon="0.75144">
        <ele>265.344</ele>
        <time>2019-08-04T06:45:20Z</time>
      </trkpt>
      <trkpt lat="45.21399" lon="0.75144">
        <ele>266.324</ele>
        <time>2019-08-04T06:45:21Z</time>
      </trkpt>
      <trkpt lat="45.21396" lon="0.75144">
        <ele>266.76</ele>
        <time>2019-08-04T06:45:22Z</time>
      </trkpt>
      <trkpt lat="45.21392" lon="0.75144">
        <ele>267.123</ele>
        <time>2019-08-04T06:45:23Z</time>
      </trkpt>
      <trkpt lat="45.21389" lon="0.75144">
        <ele>267.465</ele>
        <time>2019-08-04T06:45:24Z</time>
      </trkpt>
      <trkpt lat="45.21386" lon="0.75144">
        <ele>268.495</ele>
        <time>2019-08-04T06:45:25Z</time>
      </trkpt>
      <trkpt lat="45.21383" lon="0.75144">
        <ele>267.995</ele>
        <time>2019-08-04T06:45:26Z</time>
      </trkpt>
      <trkpt lat="45.21379" lon="0.75144">
        <ele>268.13</ele>
        <time>2019-08-04T06:45:27Z</time>
      </trkpt>
      <trkpt lat="45.21373" lon="0.75143">
        <ele>269.293</ele>
        <time>2019-08-04T06:45:29Z</time>
      </trkpt>
      <trkpt lat="45.2137" lon="0.75142">
        <ele>268.912</ele>
        <time>2019-08-04T06:45:30Z</time>
      </trkpt>
      <trkpt lat="45.21366" lon="0.75141">
        <ele>269.251</ele>
        <time>2019-08-04T06:45:31Z</time>
      </trkpt>
      <trkpt lat="45.21363" lon="0.7514">
        <ele>269.303</ele>
        <time>2019-08-04T06:45:32Z</time>
      </trkpt>
      <trkpt lat="45.21357" lon="0.75136">
        <ele>269.268</ele>
        <time>2019-08-04T06:45:34Z</time>
      </trkpt>
      <trkpt lat="45.21351" lon="0.75131">
        <ele>269.026</ele>
        <time>2019-08-04T06:45:36Z</time>
      </trkpt>
      <trkpt lat="45.21348" lon="0.75129">
        <ele>268.947</ele>
        <time>2019-08-04T06:45:37Z</time>
      </trkpt>
      <trkpt lat="45.21346" lon="0.75126">
        <ele>268.625</ele>
        <time>2019-08-04T06:45:38Z</time>
      </trkpt>
      <trkpt lat="45.21343" lon="0.75124">
        <ele>269.73</ele>
        <time>2019-08-04T06:45:39Z</time>
      </trkpt>
      <trkpt lat="45.21337" lon="0.75117">
        <ele>270.121</ele>
        <time>2019-08-04T06:45:41Z</time>
      </trkpt>
      <trkpt lat="45.21335" lon="0.75113">
        <ele>270.068</ele>
        <time>2019-08-04T06:45:42Z</time>
      </trkpt>
      <trkpt lat="45.21332" lon="0.7511">
        <ele>270.565</ele>
        <time>2019-08-04T06:45:43Z</time>
      </trkpt>
      <trkpt lat="45.2133" lon="0.75106">
        <ele>270.269</ele>
        <time>2019-08-04T06:45:44Z</time>
      </trkpt>
      <trkpt lat="45.21327" lon="0.75103">
        <ele>270.372</ele>
        <time>2019-08-04T06:45:45Z</time>
      </trkpt>
      <trkpt lat="45.21322" lon="0.75095">
        <ele>270.356</ele>
        <time>2019-08-04T06:45:47Z</time>
      </trkpt>
      <trkpt lat="45.2132" lon="0.75091">
        <ele>269.954</ele>
        <time>2019-08-04T06:45:48Z</time>
      </trkpt>
      <trkpt lat="45.21318" lon="0.75088">
        <ele>269.873</ele>
        <time>2019-08-04T06:45:49Z</time>
      </trkpt>
      <trkpt lat="45.21316" lon="0.75084">
        <ele>269.209</ele>
        <time>2019-08-04T06:45:50Z</time>
      </trkpt>
      <trkpt lat="45.21315" lon="0.7508">
        <ele>268.03</ele>
        <time>2019-08-04T06:45:51Z</time>
      </trkpt>
      <trkpt lat="45.21313" lon="0.75076">
        <ele>267.734</ele>
        <time>2019-08-04T06:45:52Z</time>
      </trkpt>
      <trkpt lat="45.21311" lon="0.75071">
        <ele>268.273</ele>
        <time>2019-08-04T06:45:53Z</time>
      </trkpt>
      <trkpt lat="45.21309" lon="0.75067">
        <ele>268.483</ele>
        <time>2019-08-04T06:45:54Z</time>
      </trkpt>
      <trkpt lat="45.21307" lon="0.75063">
        <ele>268.333</ele>
        <time>2019-08-04T06:45:55Z</time>
      </trkpt>
      <trkpt lat="45.21305" lon="0.75059">
        <ele>268.691</ele>
        <time>2019-08-04T06:45:56Z</time>
      </trkpt>
      <trkpt lat="45.21303" lon="0.75055">
        <ele>268.797</ele>
        <time>2019-08-04T06:45:57Z</time>
      </trkpt>
      <trkpt lat="45.21301" lon="0.75051">
        <ele>268.405</ele>
        <time>2019-08-04T06:45:58Z</time>
      </trkpt>
      <trkpt lat="45.21299" lon="0.75047">
        <ele>269.246</ele>
        <time>2019-08-04T06:45:59Z</time>
      </trkpt>
      <trkpt lat="45.21297" lon="0.75043">
        <ele>269.467</ele>
        <time>2019-08-04T06:46:00Z</time>
      </trkpt>
      <trkpt lat="45.21292" lon="0.75036">
        <ele>270.071</ele>
        <time>2019-08-04T06:46:02Z</time>
      </trkpt>
      <trkpt lat="45.2129" lon="0.75032">
        <ele>270.504</ele>
        <time>2019-08-04T06:46:03Z</time>
      </trkpt>
      <trkpt lat="45.21288" lon="0.75028">
        <ele>270.515</ele>
        <time>2019-08-04T06:46:04Z</time>
      </trkpt>
      <trkpt lat="45.21284" lon="0.75022">
        <ele>269.61</ele>
        <time>2019-08-04T06:46:06Z</time>
      </trkpt>
      <trkpt lat="45.2128" lon="0.75015">
        <ele>270.162</ele>
        <time>2019-08-04T06:46:08Z</time>
      </trkpt>
      <trkpt lat="45.21278" lon="0.75012">
        <ele>268.901</ele>
        <time>2019-08-04T06:46:09Z</time>
      </trkpt>
      <trkpt lat="45.21276" lon="0.75009">
        <ele>268.887</ele>
        <time>2019-08-04T06:46:10Z</time>
      </trkpt>
      <trkpt lat="45.21273" lon="0.75006">
        <ele>268.602</ele>
        <time>2019-08-04T06:46:11Z</time>
      </trkpt>
      <trkpt lat="45.21271" lon="0.75002">
        <ele>269.25</ele>
        <time>2019-08-04T06:46:12Z</time>
      </trkpt>
      <trkpt lat="45.21268" lon="0.75">
        <ele>269.83</ele>
        <time>2019-08-04T06:46:13Z</time>
      </trkpt>
      <trkpt lat="45.21265" lon="0.74997">
        <ele>269.577</ele>
        <time>2019-08-04T06:46:14Z</time>
      </trkpt>
      <trkpt lat="45.21262" lon="0.74994">
        <ele>269.042</ele>
        <time>2019-08-04T06:46:15Z</time>
      </trkpt>
      <trkpt lat="45.21259" lon="0.74992">
        <ele>268.792</ele>
        <time>2019-08-04T06:46:16Z</time>
      </trkpt>
      <trkpt lat="45.21256" lon="0.7499">
        <ele>269.076</ele>
        <time>2019-08-04T06:46:17Z</time>
      </trkpt>
      <trkpt lat="45.21252" lon="0.74988">
        <ele>268.224</ele>
        <time>2019-08-04T06:46:18Z</time>
      </trkpt>
      <trkpt lat="45.21249" lon="0.74985">
        <ele>268.952</ele>
        <time>2019-08-04T06:46:19Z</time>
      </trkpt>
      <trkpt lat="45.21245" lon="0.74983">
        <ele>269.659</ele>
        <time>2019-08-04T06:46:20Z</time>
      </trkpt>
      <trkpt lat="45.21237" lon="0.74979">
        <ele>268.787</ele>
        <time>2019-08-04T06:46:22Z</time>
      </trkpt>
      <trkpt lat="45.21233" lon="0.74977">
        <ele>268.278</ele>
        <time>2019-08-04T06:46:23Z</time>
      </trkpt>
      <trkpt lat="45.21229" lon="0.74975">
        <ele>269.032</ele>
        <time>2019-08-04T06:46:24Z</time>
      </trkpt>
      <trkpt lat="45.21225" lon="0.74974">
        <ele>269.208</ele>
        <time>2019-08-04T06:46:25Z</time>
      </trkpt>
      <trkpt lat="45.21221" lon="0.74972">
        <ele>269.28</ele>
        <time>2019-08-04T06:46:26Z</time>
      </trkpt>
      <trkpt lat="45.21212" lon="0.74969">
        <ele>268.594</ele>
        <time>2019-08-04T06:46:28Z</time>
      </trkpt>
      <trkpt lat="45.21207" lon="0.74968">
        <ele>268.612</ele>
        <time>2019-08-04T06:46:29Z</time>
      </trkpt>
      <trkpt lat="45.21202" lon="0.74966">
        <ele>268.545</ele>
        <time>2019-08-04T06:46:30Z</time>
      </trkpt>
      <trkpt lat="45.21197" lon="0.74966">
        <ele>267.979</ele>
        <time>2019-08-04T06:46:31Z</time>
      </trkpt>
      <trkpt lat="45.21191" lon="0.74964">
        <ele>268.137</ele>
        <time>2019-08-04T06:46:32Z</time>
      </trkpt>
      <trkpt lat="45.21186" lon="0.74961">
        <ele>268.727</ele>
        <time>2019-08-04T06:46:33Z</time>
      </trkpt>
      <trkpt lat="45.2118" lon="0.7496">
        <ele>268.328</ele>
        <time>2019-08-04T06:46:34Z</time>
      </trkpt>
      <trkpt lat="45.21174" lon="0.7496">
        <ele>268.063</ele>
        <time>2019-08-04T06:46:35Z</time>
      </trkpt>
      <trkpt lat="45.21168" lon="0.74958">
        <ele>266.943</ele>
        <time>2019-08-04T06:46:36Z</time>
      </trkpt>
      <trkpt lat="45.21162" lon="0.74956">
        <ele>267.126</ele>
        <time>2019-08-04T06:46:37Z</time>
      </trkpt>
      <trkpt lat="45.21156" lon="0.74955">
        <ele>266.8</ele>
        <time>2019-08-04T06:46:38Z</time>
      </trkpt>
      <trkpt lat="45.2115" lon="0.74953">
        <ele>267.36</ele>
        <time>2019-08-04T06:46:39Z</time>
      </trkpt>
      <trkpt lat="45.21143" lon="0.74951">
        <ele>267.854</ele>
        <time>2019-08-04T06:46:40Z</time>
      </trkpt>
      <trkpt lat="45.21137" lon="0.74949">
        <ele>268.096</ele>
        <time>2019-08-04T06:46:41Z</time>
      </trkpt>
      <trkpt lat="45.2113" lon="0.74946">
        <ele>267.532</ele>
        <time>2019-08-04T06:46:42Z</time>
      </trkpt>
      <trkpt lat="45.21123" lon="0.74944">
        <ele>266.979</ele>
        <time>2019-08-04T06:46:43Z</time>
      </trkpt>
      <trkpt lat="45.21116" lon="0.74941">
        <ele>267.734</ele>
        <time>2019-08-04T06:46:44Z</time>
      </trkpt>
      <trkpt lat="45.21109" lon="0.74939">
        <ele>267.532</ele>
        <time>2019-08-04T06:46:45Z</time>
      </trkpt>
      <trkpt lat="45.21102" lon="0.74936">
        <ele>267.924</ele>
        <time>2019-08-04T06:46:46Z</time>
      </trkpt>
      <trkpt lat="45.21096" lon="0.74933">
        <ele>267.757</ele>
        <time>2019-08-04T06:46:47Z</time>
      </trkpt>
      <trkpt lat="45.21089" lon="0.7493">
        <ele>267.706</ele>
        <time>2019-08-04T06:46:48Z</time>
      </trkpt>
      <trkpt lat="45.21083" lon="0.74926">
        <ele>267.495</ele>
        <time>2019-08-04T06:46:49Z</time>
      </trkpt>
      <trkpt lat="45.21076" lon="0.74923">
        <ele>267.382</ele>
        <time>2019-08-04T06:46:50Z</time>
      </trkpt>
      <trkpt lat="45.21069" lon="0.74919">
        <ele>267.461</ele>
        <time>2019-08-04T06:46:51Z</time>
      </trkpt>
      <trkpt lat="45.21063" lon="0.74915">
        <ele>267.166</ele>
        <time>2019-08-04T06:46:52Z</time>
      </trkpt>
      <trkpt lat="45.21057" lon="0.74912">
        <ele>266.718</ele>
        <time>2019-08-04T06:46:53Z</time>
      </trkpt>
      <trkpt lat="45.21051" lon="0.74908">
        <ele>267.219</ele>
        <time>2019-08-04T06:46:54Z</time>
      </trkpt>
      <trkpt lat="45.21046" lon="0.74905">
        <ele>266.562</ele>
        <time>2019-08-04T06:46:55Z</time>
      </trkpt>
      <trkpt lat="45.21041" lon="0.74902">
        <ele>266.723</ele>
        <time>2019-08-04T06:46:56Z</time>
      </trkpt>
      <trkpt lat="45.21036" lon="0.749">
        <ele>267.25</ele>
        <time>2019-08-04T06:46:57Z</time>
      </trkpt>
      <trkpt lat="45.21031" lon="0.74897">
        <ele>266.774</ele>
        <time>2019-08-04T06:46:58Z</time>
      </trkpt>
      <trkpt lat="45.21026" lon="0.74896">
        <ele>266.091</ele>
        <time>2019-08-04T06:46:59Z</time>
      </trkpt>
      <trkpt lat="45.21022" lon="0.74892">
        <ele>265.196</ele>
        <time>2019-08-04T06:47:00Z</time>
      </trkpt>
      <trkpt lat="45.21017" lon="0.74889">
        <ele>264.829</ele>
        <time>2019-08-04T06:47:01Z</time>
      </trkpt>
      <trkpt lat="45.21013" lon="0.74886">
        <ele>264.108</ele>
        <time>2019-08-04T06:47:02Z</time>
      </trkpt>
      <trkpt lat="45.21009" lon="0.74884">
        <ele>263.116</ele>
        <time>2019-08-04T06:47:03Z</time>
      </trkpt>
      <trkpt lat="45.21001" lon="0.74879">
        <ele>263.395</ele>
        <time>2019-08-04T06:47:05Z</time>
      </trkpt>
      <trkpt lat="45.20996" lon="0.74875">
        <ele>262.87</ele>
        <time>2019-08-04T06:47:07Z</time>
      </trkpt>
      <trkpt lat="45.2099" lon="0.74872">
        <ele>262.486</ele>
        <time>2019-08-04T06:47:09Z</time>
      </trkpt>
      <trkpt lat="45.20981" lon="0.74875">
        <ele>262.555</ele>
        <time>2019-08-04T06:47:11Z</time>
      </trkpt>
      <trkpt lat="45.20979" lon="0.74881">
        <ele>261.94</ele>
        <time>2019-08-04T06:47:12Z</time>
      </trkpt>
      <trkpt lat="45.20976" lon="0.74886">
        <ele>261.22</ele>
        <time>2019-08-04T06:47:13Z</time>
      </trkpt>
      <trkpt lat="45.20974" lon="0.74895">
        <ele>261.675</ele>
        <time>2019-08-04T06:47:15Z</time>
      </trkpt>
      <trkpt lat="45.20973" lon="0.74899">
        <ele>262.311</ele>
        <time>2019-08-04T06:47:16Z</time>
      </trkpt>
      <trkpt lat="45.20972" lon="0.74903">
        <ele>262.512</ele>
        <time>2019-08-04T06:47:17Z</time>
      </trkpt>
      <trkpt lat="45.20971" lon="0.74906">
        <ele>262.908</ele>
        <time>2019-08-04T06:47:18Z</time>
      </trkpt>
      <trkpt lat="45.2097" lon="0.7491">
        <ele>263.364</ele>
        <time>2019-08-04T06:47:19Z</time>
      </trkpt>
      <trkpt lat="45.20968" lon="0.74919">
        <ele>262.762</ele>
        <time>2019-08-04T06:47:22Z</time>
      </trkpt>
      <trkpt lat="45.20968" lon="0.74922">
        <ele>262.857</ele>
        <time>2019-08-04T06:47:23Z</time>
      </trkpt>
      <trkpt lat="45.20967" lon="0.74925">
        <ele>264.005</ele>
        <time>2019-08-04T06:47:24Z</time>
      </trkpt>
      <trkpt lat="45.20966" lon="0.74931">
        <ele>263.998</ele>
        <time>2019-08-04T06:47:26Z</time>
      </trkpt>
      <trkpt lat="45.20965" lon="0.74937">
        <ele>264.575</ele>
        <time>2019-08-04T06:47:28Z</time>
      </trkpt>
      <trkpt lat="45.20963" lon="0.74943">
        <ele>264.462</ele>
        <time>2019-08-04T06:47:30Z</time>
      </trkpt>
      <trkpt lat="45.20963" lon="0.74946">
        <ele>265.101</ele>
        <time>2019-08-04T06:47:31Z</time>
      </trkpt>
      <trkpt lat="45.20962" lon="0.7495">
        <ele>263.897</ele>
        <time>2019-08-04T06:47:32Z</time>
      </trkpt>
      <trkpt lat="45.20961" lon="0.74953">
        <ele>263.849</ele>
        <time>2019-08-04T06:47:33Z</time>
      </trkpt>
      <trkpt lat="45.2096" lon="0.74956">
        <ele>263.987</ele>
        <time>2019-08-04T06:47:34Z</time>
      </trkpt>
      <trkpt lat="45.20958" lon="0.74962">
        <ele>263.202</ele>
        <time>2019-08-04T06:47:36Z</time>
      </trkpt>
      <trkpt lat="45.20954" lon="0.7497">
        <ele>262.445</ele>
        <time>2019-08-04T06:47:39Z</time>
      </trkpt>
      <trkpt lat="45.2095" lon="0.74981">
        <ele>262.77</ele>
        <time>2019-08-04T06:47:42Z</time>
      </trkpt>
      <trkpt lat="45.20947" lon="0.74994">
        <ele>262.676</ele>
        <time>2019-08-04T06:47:45Z</time>
      </trkpt>
      <trkpt lat="45.20946" lon="0.75">
        <ele>262.597</ele>
        <time>2019-08-04T06:47:46Z</time>
      </trkpt>
      <trkpt lat="45.20944" lon="0.75005">
        <ele>262.263</ele>
        <time>2019-08-04T06:47:47Z</time>
      </trkpt>
      <trkpt lat="45.20943" lon="0.75011">
        <ele>260.745</ele>
        <time>2019-08-04T06:47:48Z</time>
      </trkpt>
      <trkpt lat="45.20943" lon="0.75029">
        <ele>260.367</ele>
        <time>2019-08-04T06:47:51Z</time>
      </trkpt>
      <trkpt lat="45.20941" lon="0.7504">
        <ele>259.684</ele>
        <time>2019-08-04T06:47:53Z</time>
      </trkpt>
      <trkpt lat="45.20941" lon="0.7505">
        <ele>258.889</ele>
        <time>2019-08-04T06:47:55Z</time>
      </trkpt>
      <trkpt lat="45.20947" lon="0.75062">
        <ele>258.64</ele>
        <time>2019-08-04T06:47:57Z</time>
      </trkpt>
      <trkpt lat="45.20947" lon="0.75073">
        <ele>260.993</ele>
        <time>2019-08-04T06:47:59Z</time>
      </trkpt>
      <trkpt lat="45.20948" lon="0.75083">
        <ele>261.415</ele>
        <time>2019-08-04T06:48:01Z</time>
      </trkpt>
      <trkpt lat="45.20948" lon="0.75092">
        <ele>261.771</ele>
        <time>2019-08-04T06:48:03Z</time>
      </trkpt>
      <trkpt lat="45.20948" lon="0.75103">
        <ele>260.394</ele>
        <time>2019-08-04T06:48:06Z</time>
      </trkpt>
      <trkpt lat="45.2095" lon="0.7511">
        <ele>259.452</ele>
        <time>2019-08-04T06:48:08Z</time>
      </trkpt>
      <trkpt lat="45.20951" lon="0.75117">
        <ele>258.999</ele>
        <time>2019-08-04T06:48:10Z</time>
      </trkpt>
      <trkpt lat="45.20952" lon="0.75125">
        <ele>259.146</ele>
        <time>2019-08-04T06:48:12Z</time>
      </trkpt>
      <trkpt lat="45.20957" lon="0.75137">
        <ele>257.756</ele>
        <time>2019-08-04T06:48:15Z</time>
      </trkpt>
      <trkpt lat="45.20958" lon="0.75141">
        <ele>257.205</ele>
        <time>2019-08-04T06:48:16Z</time>
      </trkpt>
      <trkpt lat="45.20962" lon="0.75151">
        <ele>257.462</ele>
        <time>2019-08-04T06:48:18Z</time>
      </trkpt>
      <trkpt lat="45.20965" lon="0.75156">
        <ele>258.365</ele>
        <time>2019-08-04T06:48:19Z</time>
      </trkpt>
      <trkpt lat="45.20968" lon="0.75161">
        <ele>258.487</ele>
        <time>2019-08-04T06:48:20Z</time>
      </trkpt>
      <trkpt lat="45.20974" lon="0.75179">
        <ele>258.417</ele>
        <time>2019-08-04T06:48:23Z</time>
      </trkpt>
      <trkpt lat="45.20975" lon="0.75187">
        <ele>257.736</ele>
        <time>2019-08-04T06:48:24Z</time>
      </trkpt>
      <trkpt lat="45.20977" lon="0.75199">
        <ele>258.782</ele>
        <time>2019-08-04T06:48:26Z</time>
      </trkpt>
      <trkpt lat="45.20982" lon="0.75204">
        <ele>259.638</ele>
        <time>2019-08-04T06:48:27Z</time>
      </trkpt>
      <trkpt lat="45.20983" lon="0.75214">
        <ele>258.696</ele>
        <time>2019-08-04T06:48:29Z</time>
      </trkpt>
      <trkpt lat="45.20986" lon="0.75225">
        <ele>260.223</ele>
        <time>2019-08-04T06:48:31Z</time>
      </trkpt>
      <trkpt lat="45.20989" lon="0.75233">
        <ele>260.283</ele>
        <time>2019-08-04T06:48:33Z</time>
      </trkpt>
      <trkpt lat="45.20989" lon="0.75241">
        <ele>260.564</ele>
        <time>2019-08-04T06:48:35Z</time>
      </trkpt>
      <trkpt lat="45.20991" lon="0.75248">
        <ele>259.205</ele>
        <time>2019-08-04T06:48:37Z</time>
      </trkpt>
      <trkpt lat="45.20992" lon="0.75251">
        <ele>258.728</ele>
        <time>2019-08-04T06:48:38Z</time>
      </trkpt>
      <trkpt lat="45.20993" lon="0.75258">
        <ele>258.827</ele>
        <time>2019-08-04T06:48:40Z</time>
      </trkpt>
      <trkpt lat="45.20994" lon="0.75262">
        <ele>261.281</ele>
        <time>2019-08-04T06:48:46Z</time>
      </trkpt>
      <trkpt lat="45.20994" lon="0.75262">
        <ele>262.061</ele>
        <time>2019-08-04T06:48:52Z</time>
      </trkpt>
      <trkpt lat="45.20998" lon="0.75268">
        <ele>266.02</ele>
        <time>2019-08-04T06:49:59Z</time>
      </trkpt>
      <trkpt lat="45.20999" lon="0.75274">
        <ele>265.199</ele>
        <time>2019-08-04T06:50:12Z</time>
      </trkpt>
      <trkpt lat="45.21003" lon="0.75279">
        <ele>263.764</ele>
        <time>2019-08-04T06:50:15Z</time>
      </trkpt>
      <trkpt lat="45.21004" lon="0.75286">
        <ele>264.88</ele>
        <time>2019-08-04T06:50:18Z</time>
      </trkpt>
      <trkpt lat="45.21005" lon="0.75291">
        <ele>264.757</ele>
        <time>2019-08-04T06:50:20Z</time>
      </trkpt>
      <trkpt lat="45.21006" lon="0.75296">
        <ele>264.104</ele>
        <time>2019-08-04T06:50:22Z</time>
      </trkpt>
      <trkpt lat="45.2101" lon="0.75303">
        <ele>262.531</ele>
        <time>2019-08-04T06:50:24Z</time>
      </trkpt>
      <trkpt lat="45.21015" lon="0.75308">
        <ele>262.432</ele>
        <time>2019-08-04T06:50:26Z</time>
      </trkpt>
      <trkpt lat="45.21019" lon="0.75312">
        <ele>264.448</ele>
        <time>2019-08-04T06:50:28Z</time>
      </trkpt>
      <trkpt lat="45.21023" lon="0.75315">
        <ele>264.167</ele>
        <time>2019-08-04T06:50:30Z</time>
      </trkpt>
      <trkpt lat="45.21028" lon="0.7532">
        <ele>263.937</ele>
        <time>2019-08-04T06:50:32Z</time>
      </trkpt>
      <trkpt lat="45.21039" lon="0.75332">
        <ele>260.083</ele>
        <time>2019-08-04T06:50:36Z</time>
      </trkpt>
      <trkpt lat="45.21045" lon="0.75338">
        <ele>259.794</ele>
        <time>2019-08-04T06:50:38Z</time>
      </trkpt>
      <trkpt lat="45.21051" lon="0.75344">
        <ele>258.87</ele>
        <time>2019-08-04T06:50:40Z</time>
      </trkpt>
      <trkpt lat="45.21073" lon="0.7536">
        <ele>260.253</ele>
        <time>2019-08-04T06:50:44Z</time>
      </trkpt>
      <trkpt lat="45.21083" lon="0.75366">
        <ele>255.67</ele>
        <time>2019-08-04T06:50:47Z</time>
      </trkpt>
      <trkpt lat="45.21097" lon="0.75377">
        <ele>255.028</ele>
        <time>2019-08-04T06:50:50Z</time>
      </trkpt>
      <trkpt lat="45.21101" lon="0.75384">
        <ele>251.698</ele>
        <time>2019-08-04T06:50:53Z</time>
      </trkpt>
      <trkpt lat="45.21106" lon="0.75391">
        <ele>250.774</ele>
        <time>2019-08-04T06:50:55Z</time>
      </trkpt>
      <trkpt lat="45.2111" lon="0.75394">
        <ele>249.871</ele>
        <time>2019-08-04T06:50:56Z</time>
      </trkpt>
      <trkpt lat="45.21113" lon="0.75399">
        <ele>248.745</ele>
        <time>2019-08-04T06:50:58Z</time>
      </trkpt>
      <trkpt lat="45.21119" lon="0.75406">
        <ele>249.552</ele>
        <time>2019-08-04T06:51:00Z</time>
      </trkpt>
      <trkpt lat="45.21127" lon="0.75413">
        <ele>247.555</ele>
        <time>2019-08-04T06:51:03Z</time>
      </trkpt>
      <trkpt lat="45.2113" lon="0.75415">
        <ele>246.698</ele>
        <time>2019-08-04T06:51:04Z</time>
      </trkpt>
      <trkpt lat="45.21141" lon="0.75431">
        <ele>245.205</ele>
        <time>2019-08-04T06:51:10Z</time>
      </trkpt>
      <trkpt lat="45.21144" lon="0.75435">
        <ele>245.068</ele>
        <time>2019-08-04T06:51:11Z</time>
      </trkpt>
      <trkpt lat="45.21147" lon="0.75438">
        <ele>245.045</ele>
        <time>2019-08-04T06:51:12Z</time>
      </trkpt>
      <trkpt lat="45.21159" lon="0.75449">
        <ele>243.414</ele>
        <time>2019-08-04T06:51:15Z</time>
      </trkpt>
      <trkpt lat="45.21164" lon="0.75453">
        <ele>242.363</ele>
        <time>2019-08-04T06:51:16Z</time>
      </trkpt>
      <trkpt lat="45.21168" lon="0.75458">
        <ele>241.526</ele>
        <time>2019-08-04T06:51:17Z</time>
      </trkpt>
      <trkpt lat="45.21173" lon="0.75463">
        <ele>242.37</ele>
        <time>2019-08-04T06:51:18Z</time>
      </trkpt>
      <trkpt lat="45.21177" lon="0.75466">
        <ele>239.975</ele>
        <time>2019-08-04T06:51:19Z</time>
      </trkpt>
      <trkpt lat="45.21182" lon="0.75468">
        <ele>240.021</ele>
        <time>2019-08-04T06:51:20Z</time>
      </trkpt>
      <trkpt lat="45.21191" lon="0.75473">
        <ele>238.373</ele>
        <time>2019-08-04T06:51:22Z</time>
      </trkpt>
      <trkpt lat="45.21202" lon="0.75479">
        <ele>238.075</ele>
        <time>2019-08-04T06:51:23Z</time>
      </trkpt>
      <trkpt lat="45.21205" lon="0.75484">
        <ele>237.144</ele>
        <time>2019-08-04T06:51:24Z</time>
      </trkpt>
      <trkpt lat="45.21214" lon="0.75487">
        <ele>237.471</ele>
        <time>2019-08-04T06:51:26Z</time>
      </trkpt>
      <trkpt lat="45.2122" lon="0.75494">
        <ele>235.86</ele>
        <time>2019-08-04T06:51:27Z</time>
      </trkpt>
      <trkpt lat="45.21226" lon="0.75498">
        <ele>236.622</ele>
        <time>2019-08-04T06:51:28Z</time>
      </trkpt>
      <trkpt lat="45.21241" lon="0.75522">
        <ele>241.258</ele>
        <time>2019-08-04T06:51:32Z</time>
      </trkpt>
      <trkpt lat="45.21242" lon="0.75529">
        <ele>239.932</ele>
        <time>2019-08-04T06:51:34Z</time>
      </trkpt>
      <trkpt lat="45.21245" lon="0.75533">
        <ele>239.428</ele>
        <time>2019-08-04T06:51:35Z</time>
      </trkpt>
      <trkpt lat="45.21251" lon="0.75543">
        <ele>240.947</ele>
        <time>2019-08-04T06:51:38Z</time>
      </trkpt>
      <trkpt lat="45.21256" lon="0.7555">
        <ele>242.612</ele>
        <time>2019-08-04T06:51:40Z</time>
      </trkpt>
      <trkpt lat="45.21259" lon="0.75556">
        <ele>242.835</ele>
        <time>2019-08-04T06:51:42Z</time>
      </trkpt>
      <trkpt lat="45.21261" lon="0.75559">
        <ele>241.855</ele>
        <time>2019-08-04T06:51:43Z</time>
      </trkpt>
      <trkpt lat="45.21262" lon="0.75562">
        <ele>242.64</ele>
        <time>2019-08-04T06:51:44Z</time>
      </trkpt>
      <trkpt lat="45.21265" lon="0.75567">
        <ele>243.898</ele>
        <time>2019-08-04T06:51:46Z</time>
      </trkpt>
      <trkpt lat="45.21267" lon="0.75572">
        <ele>244.281</ele>
        <time>2019-08-04T06:51:48Z</time>
      </trkpt>
      <trkpt lat="45.21269" lon="0.75579">
        <ele>240.942</ele>
        <time>2019-08-04T06:51:51Z</time>
      </trkpt>
      <trkpt lat="45.2127" lon="0.7559">
        <ele>240.395</ele>
        <time>2019-08-04T06:51:54Z</time>
      </trkpt>
      <trkpt lat="45.2127" lon="0.75595">
        <ele>241.162</ele>
        <time>2019-08-04T06:51:55Z</time>
      </trkpt>
      <trkpt lat="45.21269" lon="0.75605">
        <ele>239.825</ele>
        <time>2019-08-04T06:51:57Z</time>
      </trkpt>
      <trkpt lat="45.21269" lon="0.75619">
        <ele>240.959</ele>
        <time>2019-08-04T06:51:59Z</time>
      </trkpt>
      <trkpt lat="45.21269" lon="0.75625">
        <ele>242.404</ele>
        <time>2019-08-04T06:52:00Z</time>
      </trkpt>
      <trkpt lat="45.21271" lon="0.75638">
        <ele>244.136</ele>
        <time>2019-08-04T06:52:02Z</time>
      </trkpt>
      <trkpt lat="45.21271" lon="0.75645">
        <ele>244.115</ele>
        <time>2019-08-04T06:52:03Z</time>
      </trkpt>
      <trkpt lat="45.21271" lon="0.75667">
        <ele>242.518</ele>
        <time>2019-08-04T06:52:07Z</time>
      </trkpt>
      <trkpt lat="45.21271" lon="0.75672">
        <ele>243.916</ele>
        <time>2019-08-04T06:52:08Z</time>
      </trkpt>
      <trkpt lat="45.21271" lon="0.75681">
        <ele>243.999</ele>
        <time>2019-08-04T06:52:10Z</time>
      </trkpt>
      <trkpt lat="45.2127" lon="0.75692">
        <ele>242.657</ele>
        <time>2019-08-04T06:52:12Z</time>
      </trkpt>
      <trkpt lat="45.21269" lon="0.75711">
        <ele>243.784</ele>
        <time>2019-08-04T06:52:15Z</time>
      </trkpt>
      <trkpt lat="45.21266" lon="0.75724">
        <ele>241.342</ele>
        <time>2019-08-04T06:52:17Z</time>
      </trkpt>
      <trkpt lat="45.21265" lon="0.7573">
        <ele>240.211</ele>
        <time>2019-08-04T06:52:18Z</time>
      </trkpt>
      <trkpt lat="45.21261" lon="0.75744">
        <ele>239.472</ele>
        <time>2019-08-04T06:52:19Z</time>
      </trkpt>
      <trkpt lat="45.21256" lon="0.75759">
        <ele>238.197</ele>
        <time>2019-08-04T06:52:21Z</time>
      </trkpt>
      <trkpt lat="45.21255" lon="0.7577">
        <ele>237.883</ele>
        <time>2019-08-04T06:52:23Z</time>
      </trkpt>
      <trkpt lat="45.21256" lon="0.75777">
        <ele>237.099</ele>
        <time>2019-08-04T06:52:24Z</time>
      </trkpt>
      <trkpt lat="45.21259" lon="0.75787">
        <ele>236.296</ele>
        <time>2019-08-04T06:52:26Z</time>
      </trkpt>
      <trkpt lat="45.21257" lon="0.75796">
        <ele>237.179</ele>
        <time>2019-08-04T06:52:27Z</time>
      </trkpt>
      <trkpt lat="45.21252" lon="0.75802">
        <ele>238.72</ele>
        <time>2019-08-04T06:52:28Z</time>
      </trkpt>
      <trkpt lat="45.21249" lon="0.75807">
        <ele>238.018</ele>
        <time>2019-08-04T06:52:29Z</time>
      </trkpt>
      <trkpt lat="45.21245" lon="0.75812">
        <ele>238.808</ele>
        <time>2019-08-04T06:52:30Z</time>
      </trkpt>
      <trkpt lat="45.21243" lon="0.75822">
        <ele>236.957</ele>
        <time>2019-08-04T06:52:32Z</time>
      </trkpt>
      <trkpt lat="45.21237" lon="0.75832">
        <ele>236.828</ele>
        <time>2019-08-04T06:52:34Z</time>
      </trkpt>
      <trkpt lat="45.21234" lon="0.7584">
        <ele>238.675</ele>
        <time>2019-08-04T06:52:35Z</time>
      </trkpt>
      <trkpt lat="45.21233" lon="0.75846">
        <ele>237.567</ele>
        <time>2019-08-04T06:52:36Z</time>
      </trkpt>
      <trkpt lat="45.21229" lon="0.75859">
        <ele>238.872</ele>
        <time>2019-08-04T06:52:38Z</time>
      </trkpt>
      <trkpt lat="45.21226" lon="0.75864">
        <ele>238.637</ele>
        <time>2019-08-04T06:52:39Z</time>
      </trkpt>
      <trkpt lat="45.21223" lon="0.75875">
        <ele>238.196</ele>
        <time>2019-08-04T06:52:41Z</time>
      </trkpt>
      <trkpt lat="45.2122" lon="0.75884">
        <ele>239.033</ele>
        <time>2019-08-04T06:52:43Z</time>
      </trkpt>
      <trkpt lat="45.21218" lon="0.75891">
        <ele>239.792</ele>
        <time>2019-08-04T06:52:44Z</time>
      </trkpt>
      <trkpt lat="45.21214" lon="0.759">
        <ele>240.94</ele>
        <time>2019-08-04T06:52:46Z</time>
      </trkpt>
      <trkpt lat="45.21212" lon="0.75906">
        <ele>240.8</ele>
        <time>2019-08-04T06:52:47Z</time>
      </trkpt>
      <trkpt lat="45.2121" lon="0.75912">
        <ele>241.309</ele>
        <time>2019-08-04T06:52:48Z</time>
      </trkpt>
      <trkpt lat="45.21207" lon="0.75917">
        <ele>241.085</ele>
        <time>2019-08-04T06:52:49Z</time>
      </trkpt>
      <trkpt lat="45.21205" lon="0.75922">
        <ele>241.536</ele>
        <time>2019-08-04T06:52:50Z</time>
      </trkpt>
      <trkpt lat="45.21204" lon="0.75927">
        <ele>240.939</ele>
        <time>2019-08-04T06:52:51Z</time>
      </trkpt>
      <trkpt lat="45.21199" lon="0.75937">
        <ele>240.82</ele>
        <time>2019-08-04T06:52:53Z</time>
      </trkpt>
      <trkpt lat="45.21197" lon="0.75941">
        <ele>241.519</ele>
        <time>2019-08-04T06:52:54Z</time>
      </trkpt>
      <trkpt lat="45.21195" lon="0.75945">
        <ele>241.071</ele>
        <time>2019-08-04T06:52:55Z</time>
      </trkpt>
      <trkpt lat="45.21193" lon="0.7595">
        <ele>241.402</ele>
        <time>2019-08-04T06:52:56Z</time>
      </trkpt>
      <trkpt lat="45.21191" lon="0.75955">
        <ele>241.574</ele>
        <time>2019-08-04T06:52:57Z</time>
      </trkpt>
      <trkpt lat="45.2119" lon="0.75959">
        <ele>241.992</ele>
        <time>2019-08-04T06:52:58Z</time>
      </trkpt>
      <trkpt lat="45.21188" lon="0.75964">
        <ele>241.933</ele>
        <time>2019-08-04T06:52:59Z</time>
      </trkpt>
      <trkpt lat="45.21186" lon="0.75969">
        <ele>242.117</ele>
        <time>2019-08-04T06:53:00Z</time>
      </trkpt>
      <trkpt lat="45.21182" lon="0.75978">
        <ele>242.236</ele>
        <time>2019-08-04T06:53:02Z</time>
      </trkpt>
      <trkpt lat="45.21178" lon="0.75985">
        <ele>242.54</ele>
        <time>2019-08-04T06:53:04Z</time>
      </trkpt>
      <trkpt lat="45.21177" lon="0.75988">
        <ele>242.66</ele>
        <time>2019-08-04T06:53:05Z</time>
      </trkpt>
      <trkpt lat="45.21176" lon="0.75991">
        <ele>242.849</ele>
        <time>2019-08-04T06:53:06Z</time>
      </trkpt>
      <trkpt lat="45.21173" lon="0.75996">
        <ele>242.365</ele>
        <time>2019-08-04T06:53:08Z</time>
      </trkpt>
      <trkpt lat="45.21171" lon="0.76002">
        <ele>242.558</ele>
        <time>2019-08-04T06:53:10Z</time>
      </trkpt>
      <trkpt lat="45.2117" lon="0.76006">
        <ele>242.372</ele>
        <time>2019-08-04T06:53:11Z</time>
      </trkpt>
      <trkpt lat="45.21169" lon="0.76009">
        <ele>241.395</ele>
        <time>2019-08-04T06:53:12Z</time>
      </trkpt>
      <trkpt lat="45.21167" lon="0.76016">
        <ele>242.122</ele>
        <time>2019-08-04T06:53:14Z</time>
      </trkpt>
      <trkpt lat="45.21165" lon="0.7602">
        <ele>242.248</ele>
        <time>2019-08-04T06:53:15Z</time>
      </trkpt>
      <trkpt lat="45.21163" lon="0.76025">
        <ele>242.525</ele>
        <time>2019-08-04T06:53:16Z</time>
      </trkpt>
      <trkpt lat="45.21161" lon="0.7603">
        <ele>242.845</ele>
        <time>2019-08-04T06:53:17Z</time>
      </trkpt>
      <trkpt lat="45.21159" lon="0.76034">
        <ele>242.498</ele>
        <time>2019-08-04T06:53:18Z</time>
      </trkpt>
      <trkpt lat="45.21156" lon="0.76044">
        <ele>243.752</ele>
        <time>2019-08-04T06:53:20Z</time>
      </trkpt>
      <trkpt lat="45.21154" lon="0.76049">
        <ele>243.694</ele>
        <time>2019-08-04T06:53:21Z</time>
      </trkpt>
      <trkpt lat="45.21152" lon="0.76055">
        <ele>243.215</ele>
        <time>2019-08-04T06:53:22Z</time>
      </trkpt>
      <trkpt lat="45.2115" lon="0.7606">
        <ele>242.581</ele>
        <time>2019-08-04T06:53:23Z</time>
      </trkpt>
      <trkpt lat="45.21148" lon="0.76065">
        <ele>242.237</ele>
        <time>2019-08-04T06:53:24Z</time>
      </trkpt>
      <trkpt lat="45.21144" lon="0.76075">
        <ele>241.21</ele>
        <time>2019-08-04T06:53:26Z</time>
      </trkpt>
      <trkpt lat="45.2114" lon="0.76089">
        <ele>241.167</ele>
        <time>2019-08-04T06:53:28Z</time>
      </trkpt>
      <trkpt lat="45.21139" lon="0.76108">
        <ele>242.567</ele>
        <time>2019-08-04T06:53:30Z</time>
      </trkpt>
      <trkpt lat="45.21137" lon="0.76123">
        <ele>240.58</ele>
        <time>2019-08-04T06:53:33Z</time>
      </trkpt>
      <trkpt lat="45.21135" lon="0.76138">
        <ele>241.03</ele>
        <time>2019-08-04T06:53:35Z</time>
      </trkpt>
      <trkpt lat="45.21133" lon="0.76144">
        <ele>240.966</ele>
        <time>2019-08-04T06:53:36Z</time>
      </trkpt>
      <trkpt lat="45.21132" lon="0.76157">
        <ele>240.797</ele>
        <time>2019-08-04T06:53:38Z</time>
      </trkpt>
      <trkpt lat="45.21129" lon="0.76169">
        <ele>240.179</ele>
        <time>2019-08-04T06:53:40Z</time>
      </trkpt>
      <trkpt lat="45.21126" lon="0.76186">
        <ele>241.756</ele>
        <time>2019-08-04T06:53:43Z</time>
      </trkpt>
      <trkpt lat="45.21123" lon="0.76191">
        <ele>240.992</ele>
        <time>2019-08-04T06:53:44Z</time>
      </trkpt>
      <trkpt lat="45.21116" lon="0.76203">
        <ele>240.456</ele>
        <time>2019-08-04T06:53:46Z</time>
      </trkpt>
      <trkpt lat="45.21111" lon="0.76208">
        <ele>239.559</ele>
        <time>2019-08-04T06:53:47Z</time>
      </trkpt>
      <trkpt lat="45.21107" lon="0.76212">
        <ele>239.685</ele>
        <time>2019-08-04T06:53:48Z</time>
      </trkpt>
      <trkpt lat="45.21098" lon="0.76222">
        <ele>239.475</ele>
        <time>2019-08-04T06:53:50Z</time>
      </trkpt>
      <trkpt lat="45.21094" lon="0.76229">
        <ele>240.044</ele>
        <time>2019-08-04T06:53:51Z</time>
      </trkpt>
      <trkpt lat="45.21091" lon="0.76234">
        <ele>240.509</ele>
        <time>2019-08-04T06:53:52Z</time>
      </trkpt>
      <trkpt lat="45.21087" lon="0.7624">
        <ele>241.519</ele>
        <time>2019-08-04T06:53:53Z</time>
      </trkpt>
      <trkpt lat="45.21083" lon="0.76247">
        <ele>241.688</ele>
        <time>2019-08-04T06:53:54Z</time>
      </trkpt>
      <trkpt lat="45.2108" lon="0.76253">
        <ele>240.578</ele>
        <time>2019-08-04T06:53:55Z</time>
      </trkpt>
      <trkpt lat="45.21076" lon="0.76259">
        <ele>240.098</ele>
        <time>2019-08-04T06:53:56Z</time>
      </trkpt>
      <trkpt lat="45.21073" lon="0.76265">
        <ele>240.162</ele>
        <time>2019-08-04T06:53:57Z</time>
      </trkpt>
      <trkpt lat="45.21069" lon="0.76272">
        <ele>240.524</ele>
        <time>2019-08-04T06:53:58Z</time>
      </trkpt>
      <trkpt lat="45.21066" lon="0.76278">
        <ele>241.098</ele>
        <time>2019-08-04T06:53:59Z</time>
      </trkpt>
      <trkpt lat="45.21064" lon="0.76282">
        <ele>241.085</ele>
        <time>2019-08-04T06:54:00Z</time>
      </trkpt>
      <trkpt lat="45.21059" lon="0.76294">
        <ele>240.797</ele>
        <time>2019-08-04T06:54:02Z</time>
      </trkpt>
      <trkpt lat="45.21055" lon="0.76304">
        <ele>241.04</ele>
        <time>2019-08-04T06:54:04Z</time>
      </trkpt>
      <trkpt lat="45.21053" lon="0.76312">
        <ele>239.92</ele>
        <time>2019-08-04T06:54:06Z</time>
      </trkpt>
      <trkpt lat="45.21048" lon="0.76321">
        <ele>238.938</ele>
        <time>2019-08-04T06:54:08Z</time>
      </trkpt>
      <trkpt lat="45.21041" lon="0.76334">
        <ele>237.318</ele>
        <time>2019-08-04T06:54:11Z</time>
      </trkpt>
      <trkpt lat="45.21039" lon="0.76339">
        <ele>236.85</ele>
        <time>2019-08-04T06:54:12Z</time>
      </trkpt>
      <trkpt lat="45.21035" lon="0.76345">
        <ele>236.193</ele>
        <time>2019-08-04T06:54:13Z</time>
      </trkpt>
      <trkpt lat="45.21031" lon="0.76358">
        <ele>234.601</ele>
        <time>2019-08-04T06:54:15Z</time>
      </trkpt>
      <trkpt lat="45.21028" lon="0.76365">
        <ele>234.606</ele>
        <time>2019-08-04T06:54:16Z</time>
      </trkpt>
      <trkpt lat="45.21012" lon="0.76398">
        <ele>231.665</ele>
        <time>2019-08-04T06:54:20Z</time>
      </trkpt>
      <trkpt lat="45.21007" lon="0.76406">
        <ele>231.835</ele>
        <time>2019-08-04T06:54:21Z</time>
      </trkpt>
      <trkpt lat="45.21002" lon="0.76412">
        <ele>231.889</ele>
        <time>2019-08-04T06:54:22Z</time>
      </trkpt>
      <trkpt lat="45.20998" lon="0.76419">
        <ele>231.577</ele>
        <time>2019-08-04T06:54:23Z</time>
      </trkpt>
      <trkpt lat="45.20993" lon="0.76426">
        <ele>231.131</ele>
        <time>2019-08-04T06:54:24Z</time>
      </trkpt>
      <trkpt lat="45.20989" lon="0.76432">
        <ele>230.867</ele>
        <time>2019-08-04T06:54:25Z</time>
      </trkpt>
      <trkpt lat="45.20984" lon="0.76438">
        <ele>231.174</ele>
        <time>2019-08-04T06:54:26Z</time>
      </trkpt>
      <trkpt lat="45.20981" lon="0.76442">
        <ele>231.595</ele>
        <time>2019-08-04T06:54:27Z</time>
      </trkpt>
      <trkpt lat="45.20973" lon="0.76452">
        <ele>231.302</ele>
        <time>2019-08-04T06:54:30Z</time>
      </trkpt>
      <trkpt lat="45.20969" lon="0.76455">
        <ele>231.969</ele>
        <time>2019-08-04T06:54:31Z</time>
      </trkpt>
      <trkpt lat="45.20964" lon="0.76458">
        <ele>232.368</ele>
        <time>2019-08-04T06:54:32Z</time>
      </trkpt>
      <trkpt lat="45.20952" lon="0.76462">
        <ele>232.864</ele>
        <time>2019-08-04T06:54:35Z</time>
      </trkpt>
      <trkpt lat="45.20948" lon="0.76463">
        <ele>232.921</ele>
        <time>2019-08-04T06:54:36Z</time>
      </trkpt>
      <trkpt lat="45.20934" lon="0.76463">
        <ele>233.052</ele>
        <time>2019-08-04T06:54:39Z</time>
      </trkpt>
      <trkpt lat="45.20921" lon="0.7646">
        <ele>231.931</ele>
        <time>2019-08-04T06:54:42Z</time>
      </trkpt>
      <trkpt lat="45.20913" lon="0.76456">
        <ele>231.661</ele>
        <time>2019-08-04T06:54:44Z</time>
      </trkpt>
      <trkpt lat="45.20905" lon="0.76452">
        <ele>231.105</ele>
        <time>2019-08-04T06:54:46Z</time>
      </trkpt>
      <trkpt lat="45.209" lon="0.76449">
        <ele>230.937</ele>
        <time>2019-08-04T06:54:47Z</time>
      </trkpt>
      <trkpt lat="45.20887" lon="0.76444">
        <ele>230.639</ele>
        <time>2019-08-04T06:54:50Z</time>
      </trkpt>
      <trkpt lat="45.20883" lon="0.76443">
        <ele>230.707</ele>
        <time>2019-08-04T06:54:51Z</time>
      </trkpt>
      <trkpt lat="45.20879" lon="0.76441">
        <ele>230.69</ele>
        <time>2019-08-04T06:54:52Z</time>
      </trkpt>
      <trkpt lat="45.20874" lon="0.76439">
        <ele>230.518</ele>
        <time>2019-08-04T06:54:53Z</time>
      </trkpt>
      <trkpt lat="45.2087" lon="0.76436">
        <ele>230.522</ele>
        <time>2019-08-04T06:54:54Z</time>
      </trkpt>
      <trkpt lat="45.20865" lon="0.76433">
        <ele>230.346</ele>
        <time>2019-08-04T06:54:55Z</time>
      </trkpt>
      <trkpt lat="45.20861" lon="0.7643">
        <ele>230.331</ele>
        <time>2019-08-04T06:54:56Z</time>
      </trkpt>
      <trkpt lat="45.20856" lon="0.76428">
        <ele>230.124</ele>
        <time>2019-08-04T06:54:57Z</time>
      </trkpt>
      <trkpt lat="45.20851" lon="0.76426">
        <ele>230.225</ele>
        <time>2019-08-04T06:54:58Z</time>
      </trkpt>
      <trkpt lat="45.20845" lon="0.76425">
        <ele>230.178</ele>
        <time>2019-08-04T06:54:59Z</time>
      </trkpt>
      <trkpt lat="45.20839" lon="0.76424">
        <ele>229.748</ele>
        <time>2019-08-04T06:55:00Z</time>
      </trkpt>
      <trkpt lat="45.20833" lon="0.76426">
        <ele>229.138</ele>
        <time>2019-08-04T06:55:01Z</time>
      </trkpt>
      <trkpt lat="45.20827" lon="0.76426">
        <ele>229.054</ele>
        <time>2019-08-04T06:55:02Z</time>
      </trkpt>
      <trkpt lat="45.20821" lon="0.76426">
        <ele>232.044</ele>
        <time>2019-08-04T06:55:03Z</time>
      </trkpt>
      <trkpt lat="45.20815" lon="0.76426">
        <ele>230.288</ele>
        <time>2019-08-04T06:55:04Z</time>
      </trkpt>
      <trkpt lat="45.20809" lon="0.76426">
        <ele>229.602</ele>
        <time>2019-08-04T06:55:05Z</time>
      </trkpt>
      <trkpt lat="45.20803" lon="0.76427">
        <ele>230.02</ele>
        <time>2019-08-04T06:55:06Z</time>
      </trkpt>
      <trkpt lat="45.20798" lon="0.76427">
        <ele>228.827</ele>
        <time>2019-08-04T06:55:07Z</time>
      </trkpt>
      <trkpt lat="45.20791" lon="0.76429">
        <ele>228.224</ele>
        <time>2019-08-04T06:55:08Z</time>
      </trkpt>
      <trkpt lat="45.20784" lon="0.76431">
        <ele>228.08</ele>
        <time>2019-08-04T06:55:09Z</time>
      </trkpt>
      <trkpt lat="45.20779" lon="0.76434">
        <ele>228.247</ele>
        <time>2019-08-04T06:55:10Z</time>
      </trkpt>
      <trkpt lat="45.20773" lon="0.76439">
        <ele>227.897</ele>
        <time>2019-08-04T06:55:11Z</time>
      </trkpt>
      <trkpt lat="45.20765" lon="0.76454">
        <ele>223.517</ele>
        <time>2019-08-04T06:55:13Z</time>
      </trkpt>
      <trkpt lat="45.20761" lon="0.76461">
        <ele>222.974</ele>
        <time>2019-08-04T06:55:14Z</time>
      </trkpt>
      <trkpt lat="45.20757" lon="0.76469">
        <ele>221.877</ele>
        <time>2019-08-04T06:55:15Z</time>
      </trkpt>
      <trkpt lat="45.20753" lon="0.76475">
        <ele>221.693</ele>
        <time>2019-08-04T06:55:16Z</time>
      </trkpt>
      <trkpt lat="45.20748" lon="0.76487">
        <ele>221.415</ele>
        <time>2019-08-04T06:55:18Z</time>
      </trkpt>
      <trkpt lat="45.20746" lon="0.76495">
        <ele>220.652</ele>
        <time>2019-08-04T06:55:19Z</time>
      </trkpt>
      <trkpt lat="45.2075" lon="0.76521">
        <ele>219.674</ele>
        <time>2019-08-04T06:55:22Z</time>
      </trkpt>
      <trkpt lat="45.20749" lon="0.76539">
        <ele>219.491</ele>
        <time>2019-08-04T06:55:24Z</time>
      </trkpt>
      <trkpt lat="45.20731" lon="0.76564">
        <ele>218.709</ele>
        <time>2019-08-04T06:55:28Z</time>
      </trkpt>
      <trkpt lat="45.20709" lon="0.76563">
        <ele>215.91</ele>
        <time>2019-08-04T06:55:31Z</time>
      </trkpt>
      <trkpt lat="45.207" lon="0.76563">
        <ele>214.417</ele>
        <time>2019-08-04T06:55:32Z</time>
      </trkpt>
      <trkpt lat="45.20691" lon="0.76566">
        <ele>213.702</ele>
        <time>2019-08-04T06:55:33Z</time>
      </trkpt>
      <trkpt lat="45.20683" lon="0.76571">
        <ele>213.097</ele>
        <time>2019-08-04T06:55:34Z</time>
      </trkpt>
      <trkpt lat="45.20674" lon="0.76576">
        <ele>212.787</ele>
        <time>2019-08-04T06:55:35Z</time>
      </trkpt>
      <trkpt lat="45.20666" lon="0.7658">
        <ele>212.498</ele>
        <time>2019-08-04T06:55:36Z</time>
      </trkpt>
      <trkpt lat="45.20644" lon="0.76596">
        <ele>210.939</ele>
        <time>2019-08-04T06:55:39Z</time>
      </trkpt>
      <trkpt lat="45.20636" lon="0.76608">
        <ele>209.628</ele>
        <time>2019-08-04T06:55:41Z</time>
      </trkpt>
      <trkpt lat="45.20645" lon="0.76648">
        <ele>207.744</ele>
        <time>2019-08-04T06:55:46Z</time>
      </trkpt>
      <trkpt lat="45.20678" lon="0.76669">
        <ele>204.85</ele>
        <time>2019-08-04T06:55:50Z</time>
      </trkpt>
      <trkpt lat="45.20679" lon="0.76679">
        <ele>201.833</ele>
        <time>2019-08-04T06:55:51Z</time>
      </trkpt>
      <trkpt lat="45.20681" lon="0.76691">
        <ele>200.584</ele>
        <time>2019-08-04T06:55:52Z</time>
      </trkpt>
      <trkpt lat="45.20677" lon="0.76698">
        <ele>196.864</ele>
        <time>2019-08-04T06:55:53Z</time>
      </trkpt>
      <trkpt lat="45.20671" lon="0.76703">
        <ele>194.055</ele>
        <time>2019-08-04T06:55:54Z</time>
      </trkpt>
      <trkpt lat="45.20647" lon="0.76713">
        <ele>206.61</ele>
        <time>2019-08-04T06:55:57Z</time>
      </trkpt>
      <trkpt lat="45.2063" lon="0.76702">
        <ele>201.994</ele>
        <time>2019-08-04T06:56:00Z</time>
      </trkpt>
      <trkpt lat="45.20624" lon="0.76699">
        <ele>200.159</ele>
        <time>2019-08-04T06:56:01Z</time>
      </trkpt>
      <trkpt lat="45.20617" lon="0.76696">
        <ele>195.48</ele>
        <time>2019-08-04T06:56:04Z</time>
      </trkpt>
      <trkpt lat="45.20608" lon="0.76697">
        <ele>194.161</ele>
        <time>2019-08-04T06:56:07Z</time>
      </trkpt>
      <trkpt lat="45.20606" lon="0.76705">
        <ele>188.398</ele>
        <time>2019-08-04T06:56:13Z</time>
      </trkpt>
      <trkpt lat="45.20611" lon="0.76715">
        <ele>188.008</ele>
        <time>2019-08-04T06:56:18Z</time>
      </trkpt>
      <trkpt lat="45.20616" lon="0.76721">
        <ele>188.016</ele>
        <time>2019-08-04T06:56:21Z</time>
      </trkpt>
      <trkpt lat="45.20617" lon="0.76723">
        <ele>187.593</ele>
        <time>2019-08-04T06:56:22Z</time>
      </trkpt>
      <trkpt lat="45.20621" lon="0.76727">
        <ele>185.297</ele>
        <time>2019-08-04T06:56:24Z</time>
      </trkpt>
      <trkpt lat="45.20627" lon="0.76732">
        <ele>185.333</ele>
        <time>2019-08-04T06:56:28Z</time>
      </trkpt>
      <trkpt lat="45.2063" lon="0.76735">
        <ele>184.714</ele>
        <time>2019-08-04T06:56:30Z</time>
      </trkpt>
      <trkpt lat="45.20635" lon="0.76741">
        <ele>183.916</ele>
        <time>2019-08-04T06:56:33Z</time>
      </trkpt>
      <trkpt lat="45.20638" lon="0.76749">
        <ele>184.413</ele>
        <time>2019-08-04T06:56:36Z</time>
      </trkpt>
      <trkpt lat="45.20642" lon="0.76756">
        <ele>184.707</ele>
        <time>2019-08-04T06:56:39Z</time>
      </trkpt>
      <trkpt lat="45.20646" lon="0.76761">
        <ele>184.554</ele>
        <time>2019-08-04T06:56:42Z</time>
      </trkpt>
      <trkpt lat="45.2065" lon="0.76765">
        <ele>183.624</ele>
        <time>2019-08-04T06:56:44Z</time>
      </trkpt>
      <trkpt lat="45.20653" lon="0.76768">
        <ele>183.504</ele>
        <time>2019-08-04T06:56:46Z</time>
      </trkpt>
      <trkpt lat="45.20655" lon="0.7677">
        <ele>183.246</ele>
        <time>2019-08-04T06:56:47Z</time>
      </trkpt>
      <trkpt lat="45.20661" lon="0.76773">
        <ele>180.804</ele>
        <time>2019-08-04T06:56:50Z</time>
      </trkpt>
      <trkpt lat="45.20666" lon="0.76778">
        <ele>181.124</ele>
        <time>2019-08-04T06:56:53Z</time>
      </trkpt>
      <trkpt lat="45.20671" lon="0.76786">
        <ele>179.359</ele>
        <time>2019-08-04T06:56:56Z</time>
      </trkpt>
      <trkpt lat="45.20673" lon="0.76788">
        <ele>179.448</ele>
        <time>2019-08-04T06:56:57Z</time>
      </trkpt>
      <trkpt lat="45.20674" lon="0.76791">
        <ele>179.576</ele>
        <time>2019-08-04T06:56:58Z</time>
      </trkpt>
      <trkpt lat="45.20677" lon="0.76794">
        <ele>180.384</ele>
        <time>2019-08-04T06:56:59Z</time>
      </trkpt>
      <trkpt lat="45.20679" lon="0.76798">
        <ele>181.406</ele>
        <time>2019-08-04T06:57:00Z</time>
      </trkpt>
      <trkpt lat="45.20682" lon="0.76802">
        <ele>181.109</ele>
        <time>2019-08-04T06:57:01Z</time>
      </trkpt>
      <trkpt lat="45.20684" lon="0.76805">
        <ele>180.28</ele>
        <time>2019-08-04T06:57:02Z</time>
      </trkpt>
      <trkpt lat="45.20686" lon="0.76809">
        <ele>180.132</ele>
        <time>2019-08-04T06:57:03Z</time>
      </trkpt>
      <trkpt lat="45.20688" lon="0.76812">
        <ele>179.418</ele>
        <time>2019-08-04T06:57:04Z</time>
      </trkpt>
      <trkpt lat="45.20691" lon="0.76823">
        <ele>175.653</ele>
        <time>2019-08-04T06:57:07Z</time>
      </trkpt>
      <trkpt lat="45.20692" lon="0.7683">
        <ele>174.547</ele>
        <time>2019-08-04T06:57:09Z</time>
      </trkpt>
      <trkpt lat="45.20693" lon="0.76842">
        <ele>172.979</ele>
        <time>2019-08-04T06:57:11Z</time>
      </trkpt>
      <trkpt lat="45.20702" lon="0.76861">
        <ele>173.009</ele>
        <time>2019-08-04T06:57:13Z</time>
      </trkpt>
      <trkpt lat="45.20703" lon="0.76868">
        <ele>172.304</ele>
        <time>2019-08-04T06:57:15Z</time>
      </trkpt>
      <trkpt lat="45.20706" lon="0.76879">
        <ele>172.034</ele>
        <time>2019-08-04T06:57:18Z</time>
      </trkpt>
      <trkpt lat="45.20715" lon="0.7688">
        <ele>170.445</ele>
        <time>2019-08-04T06:57:22Z</time>
      </trkpt>
      <trkpt lat="45.20721" lon="0.76883">
        <ele>170.201</ele>
        <time>2019-08-04T06:57:24Z</time>
      </trkpt>
      <trkpt lat="45.20731" lon="0.76888">
        <ele>169.631</ele>
        <time>2019-08-04T06:57:27Z</time>
      </trkpt>
      <trkpt lat="45.20733" lon="0.76889">
        <ele>168.91</ele>
        <time>2019-08-04T06:57:28Z</time>
      </trkpt>
      <trkpt lat="45.20743" lon="0.76892">
        <ele>169.773</ele>
        <time>2019-08-04T06:57:31Z</time>
      </trkpt>
      <trkpt lat="45.20748" lon="0.76892">
        <ele>170.132</ele>
        <time>2019-08-04T06:57:32Z</time>
      </trkpt>
      <trkpt lat="45.20761" lon="0.76896">
        <ele>169.871</ele>
        <time>2019-08-04T06:57:35Z</time>
      </trkpt>
      <trkpt lat="45.20765" lon="0.76897">
        <ele>170.557</ele>
        <time>2019-08-04T06:57:36Z</time>
      </trkpt>
      <trkpt lat="45.20792" lon="0.76908">
        <ele>171.087</ele>
        <time>2019-08-04T06:57:40Z</time>
      </trkpt>
      <trkpt lat="45.20798" lon="0.76909">
        <ele>168.174</ele>
        <time>2019-08-04T06:57:43Z</time>
      </trkpt>
      <trkpt lat="45.20804" lon="0.7691">
        <ele>167.206</ele>
        <time>2019-08-04T06:57:44Z</time>
      </trkpt>
      <trkpt lat="45.2081" lon="0.76909">
        <ele>166.562</ele>
        <time>2019-08-04T06:57:46Z</time>
      </trkpt>
      <trkpt lat="45.20813" lon="0.76908">
        <ele>167.415</ele>
        <time>2019-08-04T06:57:47Z</time>
      </trkpt>
      <trkpt lat="45.2082" lon="0.76909">
        <ele>167.076</ele>
        <time>2019-08-04T06:57:49Z</time>
      </trkpt>
      <trkpt lat="45.20826" lon="0.76909">
        <ele>168.409</ele>
        <time>2019-08-04T06:57:51Z</time>
      </trkpt>
      <trkpt lat="45.20835" lon="0.76911">
        <ele>168.029</ele>
        <time>2019-08-04T06:57:54Z</time>
      </trkpt>
      <trkpt lat="45.20839" lon="0.76912">
        <ele>167.038</ele>
        <time>2019-08-04T06:57:58Z</time>
      </trkpt>
      <trkpt lat="45.20842" lon="0.76913">
        <ele>167.887</ele>
        <time>2019-08-04T06:57:59Z</time>
      </trkpt>
      <trkpt lat="45.20847" lon="0.76913">
        <ele>167.298</ele>
        <time>2019-08-04T06:58:02Z</time>
      </trkpt>
      <trkpt lat="45.2085" lon="0.76913">
        <ele>166.343</ele>
        <time>2019-08-04T06:58:03Z</time>
      </trkpt>
      <trkpt lat="45.20857" lon="0.76913">
        <ele>167.796</ele>
        <time>2019-08-04T06:58:05Z</time>
      </trkpt>
      <trkpt lat="45.2086" lon="0.76914">
        <ele>167.783</ele>
        <time>2019-08-04T06:58:06Z</time>
      </trkpt>
      <trkpt lat="45.20867" lon="0.76914">
        <ele>167.739</ele>
        <time>2019-08-04T06:58:08Z</time>
      </trkpt>
      <trkpt lat="45.20875" lon="0.76915">
        <ele>167.068</ele>
        <time>2019-08-04T06:58:10Z</time>
      </trkpt>
      <trkpt lat="45.20879" lon="0.76915">
        <ele>167.522</ele>
        <time>2019-08-04T06:58:11Z</time>
      </trkpt>
      <trkpt lat="45.20883" lon="0.76915">
        <ele>168.605</ele>
        <time>2019-08-04T06:58:12Z</time>
      </trkpt>
      <trkpt lat="45.20886" lon="0.76915">
        <ele>168.182</ele>
        <time>2019-08-04T06:58:13Z</time>
      </trkpt>
      <trkpt lat="45.2089" lon="0.76915">
        <ele>165.558</ele>
        <time>2019-08-04T06:58:15Z</time>
      </trkpt>
      <trkpt lat="45.20895" lon="0.76915">
        <ele>165.708</ele>
        <time>2019-08-04T06:58:17Z</time>
      </trkpt>
      <trkpt lat="45.20898" lon="0.76915">
        <ele>164.67</ele>
        <time>2019-08-04T06:58:18Z</time>
      </trkpt>
      <trkpt lat="45.20902" lon="0.76915">
        <ele>163.026</ele>
        <time>2019-08-04T06:58:19Z</time>
      </trkpt>
      <trkpt lat="45.20906" lon="0.76914">
        <ele>163.324</ele>
        <time>2019-08-04T06:58:20Z</time>
      </trkpt>
      <trkpt lat="45.20917" lon="0.76915">
        <ele>161.624</ele>
        <time>2019-08-04T06:58:22Z</time>
      </trkpt>
      <trkpt lat="45.20923" lon="0.76917">
        <ele>161.689</ele>
        <time>2019-08-04T06:58:24Z</time>
      </trkpt>
      <trkpt lat="45.20931" lon="0.76922">
        <ele>159.715</ele>
        <time>2019-08-04T06:58:27Z</time>
      </trkpt>
      <trkpt lat="45.20942" lon="0.76923">
        <ele>159.788</ele>
        <time>2019-08-04T06:58:30Z</time>
      </trkpt>
      <trkpt lat="45.20948" lon="0.76922">
        <ele>159.728</ele>
        <time>2019-08-04T06:58:32Z</time>
      </trkpt>
      <trkpt lat="45.20953" lon="0.76921">
        <ele>161.952</ele>
        <time>2019-08-04T06:58:34Z</time>
      </trkpt>
      <trkpt lat="45.20964" lon="0.76919">
        <ele>161.086</ele>
        <time>2019-08-04T06:58:38Z</time>
      </trkpt>
      <trkpt lat="45.20969" lon="0.76918">
        <ele>163.775</ele>
        <time>2019-08-04T06:58:40Z</time>
      </trkpt>
      <trkpt lat="45.20976" lon="0.76917">
        <ele>164.42</ele>
        <time>2019-08-04T06:58:43Z</time>
      </trkpt>
      <trkpt lat="45.20983" lon="0.76916">
        <ele>164.442</ele>
        <time>2019-08-04T06:58:46Z</time>
      </trkpt>
      <trkpt lat="45.2099" lon="0.76916">
        <ele>165.313</ele>
        <time>2019-08-04T06:58:48Z</time>
      </trkpt>
      <trkpt lat="45.20994" lon="0.76914">
        <ele>163.564</ele>
        <time>2019-08-04T06:58:50Z</time>
      </trkpt>
      <trkpt lat="45.20999" lon="0.76912">
        <ele>163.632</ele>
        <time>2019-08-04T06:58:52Z</time>
      </trkpt>
      <trkpt lat="45.2101" lon="0.76909">
        <ele>167.613</ele>
        <time>2019-08-04T06:58:55Z</time>
      </trkpt>
      <trkpt lat="45.21018" lon="0.76906">
        <ele>170.825</ele>
        <time>2019-08-04T06:58:58Z</time>
      </trkpt>
      <trkpt lat="45.21021" lon="0.76905">
        <ele>168.715</ele>
        <time>2019-08-04T06:58:59Z</time>
      </trkpt>
      <trkpt lat="45.21023" lon="0.76904">
        <ele>168.245</ele>
        <time>2019-08-04T06:59:00Z</time>
      </trkpt>
      <trkpt lat="45.21039" lon="0.76902">
        <ele>166.255</ele>
        <time>2019-08-04T06:59:04Z</time>
      </trkpt>
      <trkpt lat="45.21052" lon="0.76897">
        <ele>167.337</ele>
        <time>2019-08-04T06:59:07Z</time>
      </trkpt>
      <trkpt lat="45.21057" lon="0.76893">
        <ele>167.218</ele>
        <time>2019-08-04T06:59:08Z</time>
      </trkpt>
      <trkpt lat="45.21087" lon="0.7689">
        <ele>165.18</ele>
        <time>2019-08-04T06:59:12Z</time>
      </trkpt>
      <trkpt lat="45.21088" lon="0.7691">
        <ele>165.842</ele>
        <time>2019-08-04T06:59:16Z</time>
      </trkpt>
      <trkpt lat="45.21094" lon="0.76913">
        <ele>168.432</ele>
        <time>2019-08-04T06:59:18Z</time>
      </trkpt>
      <trkpt lat="45.21099" lon="0.76919">
        <ele>168.798</ele>
        <time>2019-08-04T06:59:20Z</time>
      </trkpt>
      <trkpt lat="45.21104" lon="0.76925">
        <ele>168.684</ele>
        <time>2019-08-04T06:59:22Z</time>
      </trkpt>
      <trkpt lat="45.2111" lon="0.76924">
        <ele>168.905</ele>
        <time>2019-08-04T06:59:23Z</time>
      </trkpt>
      <trkpt lat="45.21113" lon="0.76929">
        <ele>167.371</ele>
        <time>2019-08-04T06:59:25Z</time>
      </trkpt>
      <trkpt lat="45.21118" lon="0.76934">
        <ele>168.995</ele>
        <time>2019-08-04T06:59:27Z</time>
      </trkpt>
      <trkpt lat="45.21123" lon="0.76939">
        <ele>170.355</ele>
        <time>2019-08-04T06:59:29Z</time>
      </trkpt>
      <trkpt lat="45.21127" lon="0.76944">
        <ele>172.185</ele>
        <time>2019-08-04T06:59:31Z</time>
      </trkpt>
      <trkpt lat="45.2113" lon="0.76947">
        <ele>172.086</ele>
        <time>2019-08-04T06:59:32Z</time>
      </trkpt>
      <trkpt lat="45.21133" lon="0.76949">
        <ele>167.445</ele>
        <time>2019-08-04T06:59:33Z</time>
      </trkpt>
      <trkpt lat="45.21135" lon="0.76951">
        <ele>166.972</ele>
        <time>2019-08-04T06:59:34Z</time>
      </trkpt>
      <trkpt lat="45.21139" lon="0.76955">
        <ele>167.967</ele>
        <time>2019-08-04T06:59:36Z</time>
      </trkpt>
      <trkpt lat="45.21143" lon="0.76959">
        <ele>169.165</ele>
        <time>2019-08-04T06:59:38Z</time>
      </trkpt>
      <trkpt lat="45.21147" lon="0.76965">
        <ele>169.741</ele>
        <time>2019-08-04T06:59:41Z</time>
      </trkpt>
      <trkpt lat="45.21152" lon="0.76968">
        <ele>168.65</ele>
        <time>2019-08-04T06:59:43Z</time>
      </trkpt>
      <trkpt lat="45.21157" lon="0.76974">
        <ele>169.615</ele>
        <time>2019-08-04T06:59:45Z</time>
      </trkpt>
      <trkpt lat="45.21159" lon="0.76977">
        <ele>170.566</ele>
        <time>2019-08-04T06:59:46Z</time>
      </trkpt>
      <trkpt lat="45.21165" lon="0.76982">
        <ele>168.356</ele>
        <time>2019-08-04T06:59:48Z</time>
      </trkpt>
      <trkpt lat="45.21168" lon="0.76985">
        <ele>168.913</ele>
        <time>2019-08-04T06:59:49Z</time>
      </trkpt>
      <trkpt lat="45.21171" lon="0.76988">
        <ele>168.987</ele>
        <time>2019-08-04T06:59:50Z</time>
      </trkpt>
      <trkpt lat="45.21176" lon="0.76994">
        <ele>168.8</ele>
        <time>2019-08-04T06:59:52Z</time>
      </trkpt>
      <trkpt lat="45.21179" lon="0.76998">
        <ele>166.629</ele>
        <time>2019-08-04T06:59:53Z</time>
      </trkpt>
      <trkpt lat="45.21182" lon="0.77001">
        <ele>166.784</ele>
        <time>2019-08-04T06:59:54Z</time>
      </trkpt>
      <trkpt lat="45.21185" lon="0.77004">
        <ele>167.274</ele>
        <time>2019-08-04T06:59:55Z</time>
      </trkpt>
      <trkpt lat="45.21188" lon="0.77006">
        <ele>166.796</ele>
        <time>2019-08-04T06:59:56Z</time>
      </trkpt>
      <trkpt lat="45.21193" lon="0.7701">
        <ele>166.989</ele>
        <time>2019-08-04T06:59:58Z</time>
      </trkpt>
      <trkpt lat="45.21198" lon="0.77015">
        <ele>167.058</ele>
        <time>2019-08-04T07:00:00Z</time>
      </trkpt>
      <trkpt lat="45.21201" lon="0.77018">
        <ele>167.898</ele>
        <time>2019-08-04T07:00:01Z</time>
      </trkpt>
      <trkpt lat="45.21203" lon="0.7702">
        <ele>167.195</ele>
        <time>2019-08-04T07:00:02Z</time>
      </trkpt>
      <trkpt lat="45.21205" lon="0.77022">
        <ele>167.077</ele>
        <time>2019-08-04T07:00:03Z</time>
      </trkpt>
      <trkpt lat="45.2121" lon="0.77025">
        <ele>167.455</ele>
        <time>2019-08-04T07:00:05Z</time>
      </trkpt>
      <trkpt lat="45.21215" lon="0.77028">
        <ele>172.066</ele>
        <time>2019-08-04T07:00:07Z</time>
      </trkpt>
      <trkpt lat="45.2122" lon="0.7704">
        <ele>170.238</ele>
        <time>2019-08-04T07:00:11Z</time>
      </trkpt>
      <trkpt lat="45.21222" lon="0.7705">
        <ele>170.47</ele>
        <time>2019-08-04T07:00:14Z</time>
      </trkpt>
      <trkpt lat="45.21227" lon="0.77062">
        <ele>168.444</ele>
        <time>2019-08-04T07:00:18Z</time>
      </trkpt>
      <trkpt lat="45.21231" lon="0.77068">
        <ele>169.716</ele>
        <time>2019-08-04T07:00:20Z</time>
      </trkpt>
      <trkpt lat="45.21235" lon="0.77074">
        <ele>170.354</ele>
        <time>2019-08-04T07:00:22Z</time>
      </trkpt>
      <trkpt lat="45.21237" lon="0.77077">
        <ele>171.688</ele>
        <time>2019-08-04T07:00:23Z</time>
      </trkpt>
      <trkpt lat="45.21238" lon="0.7708">
        <ele>172.239</ele>
        <time>2019-08-04T07:00:24Z</time>
      </trkpt>
      <trkpt lat="45.2124" lon="0.77082">
        <ele>172.223</ele>
        <time>2019-08-04T07:00:25Z</time>
      </trkpt>
      <trkpt lat="45.21243" lon="0.77087">
        <ele>173.19</ele>
        <time>2019-08-04T07:00:27Z</time>
      </trkpt>
      <trkpt lat="45.21245" lon="0.77094">
        <ele>173.142</ele>
        <time>2019-08-04T07:00:29Z</time>
      </trkpt>
      <trkpt lat="45.21247" lon="0.77101">
        <ele>172.345</ele>
        <time>2019-08-04T07:00:31Z</time>
      </trkpt>
      <trkpt lat="45.2125" lon="0.77107">
        <ele>171.744</ele>
        <time>2019-08-04T07:00:33Z</time>
      </trkpt>
      <trkpt lat="45.21253" lon="0.77115">
        <ele>173.886</ele>
        <time>2019-08-04T07:00:36Z</time>
      </trkpt>
      <trkpt lat="45.21255" lon="0.77119">
        <ele>175.824</ele>
        <time>2019-08-04T07:00:38Z</time>
      </trkpt>
      <trkpt lat="45.21259" lon="0.77129">
        <ele>174.663</ele>
        <time>2019-08-04T07:00:42Z</time>
      </trkpt>
      <trkpt lat="45.21268" lon="0.7714">
        <ele>174.312</ele>
        <time>2019-08-04T07:00:46Z</time>
      </trkpt>
      <trkpt lat="45.21273" lon="0.77143">
        <ele>175.181</ele>
        <time>2019-08-04T07:00:48Z</time>
      </trkpt>
      <trkpt lat="45.21278" lon="0.77146">
        <ele>177.297</ele>
        <time>2019-08-04T07:00:51Z</time>
      </trkpt>
      <trkpt lat="45.21283" lon="0.77149">
        <ele>177.907</ele>
        <time>2019-08-04T07:00:53Z</time>
      </trkpt>
      <trkpt lat="45.21288" lon="0.77152">
        <ele>177.332</ele>
        <time>2019-08-04T07:00:55Z</time>
      </trkpt>
      <trkpt lat="45.2129" lon="0.77153">
        <ele>178.227</ele>
        <time>2019-08-04T07:00:56Z</time>
      </trkpt>
      <trkpt lat="45.21295" lon="0.77155">
        <ele>179.646</ele>
        <time>2019-08-04T07:00:58Z</time>
      </trkpt>
      <trkpt lat="45.213" lon="0.77159">
        <ele>177.684</ele>
        <time>2019-08-04T07:01:00Z</time>
      </trkpt>
      <trkpt lat="45.21303" lon="0.77161">
        <ele>178.314</ele>
        <time>2019-08-04T07:01:01Z</time>
      </trkpt>
      <trkpt lat="45.21305" lon="0.77163">
        <ele>178.117</ele>
        <time>2019-08-04T07:01:02Z</time>
      </trkpt>
      <trkpt lat="45.21307" lon="0.77164">
        <ele>177.353</ele>
        <time>2019-08-04T07:01:03Z</time>
      </trkpt>
      <trkpt lat="45.2131" lon="0.77165">
        <ele>177.935</ele>
        <time>2019-08-04T07:01:04Z</time>
      </trkpt>
      <trkpt lat="45.21313" lon="0.77166">
        <ele>176.527</ele>
        <time>2019-08-04T07:01:05Z</time>
      </trkpt>
      <trkpt lat="45.21318" lon="0.77167">
        <ele>177.103</ele>
        <time>2019-08-04T07:01:07Z</time>
      </trkpt>
      <trkpt lat="45.21321" lon="0.77167">
        <ele>176.686</ele>
        <time>2019-08-04T07:01:08Z</time>
      </trkpt>
      <trkpt lat="45.21324" lon="0.77167">
        <ele>175.458</ele>
        <time>2019-08-04T07:01:09Z</time>
      </trkpt>
      <trkpt lat="45.21329" lon="0.77166">
        <ele>176.036</ele>
        <time>2019-08-04T07:01:11Z</time>
      </trkpt>
      <trkpt lat="45.21332" lon="0.77166">
        <ele>177.596</ele>
        <time>2019-08-04T07:01:12Z</time>
      </trkpt>
      <trkpt lat="45.21335" lon="0.77165">
        <ele>177.147</ele>
        <time>2019-08-04T07:01:13Z</time>
      </trkpt>
      <trkpt lat="45.21341" lon="0.77163">
        <ele>177.367</ele>
        <time>2019-08-04T07:01:15Z</time>
      </trkpt>
      <trkpt lat="45.21347" lon="0.77162">
        <ele>179.551</ele>
        <time>2019-08-04T07:01:17Z</time>
      </trkpt>
      <trkpt lat="45.2135" lon="0.77161">
        <ele>179.977</ele>
        <time>2019-08-04T07:01:19Z</time>
      </trkpt>
      <trkpt lat="45.21355" lon="0.7716">
        <ele>181.19</ele>
        <time>2019-08-04T07:01:21Z</time>
      </trkpt>
      <trkpt lat="45.21357" lon="0.7716">
        <ele>181.437</ele>
        <time>2019-08-04T07:01:22Z</time>
      </trkpt>
      <trkpt lat="45.21359" lon="0.7716">
        <ele>182.092</ele>
        <time>2019-08-04T07:01:23Z</time>
      </trkpt>
      <trkpt lat="45.21368" lon="0.7716">
        <ele>181.806</ele>
        <time>2019-08-04T07:01:26Z</time>
      </trkpt>
      <trkpt lat="45.21371" lon="0.7716">
        <ele>182.795</ele>
        <time>2019-08-04T07:01:27Z</time>
      </trkpt>
      <trkpt lat="45.21381" lon="0.77163">
        <ele>182.818</ele>
        <time>2019-08-04T07:01:30Z</time>
      </trkpt>
      <trkpt lat="45.21384" lon="0.77164">
        <ele>183.191</ele>
        <time>2019-08-04T07:01:31Z</time>
      </trkpt>
      <trkpt lat="45.21387" lon="0.77165">
        <ele>183.889</ele>
        <time>2019-08-04T07:01:32Z</time>
      </trkpt>
      <trkpt lat="45.21394" lon="0.77167">
        <ele>182.655</ele>
        <time>2019-08-04T07:01:34Z</time>
      </trkpt>
      <trkpt lat="45.214" lon="0.7717">
        <ele>182.568</ele>
        <time>2019-08-04T07:01:36Z</time>
      </trkpt>
      <trkpt lat="45.21414" lon="0.77179">
        <ele>182.618</ele>
        <time>2019-08-04T07:01:40Z</time>
      </trkpt>
      <trkpt lat="45.21421" lon="0.77183">
        <ele>182.7</ele>
        <time>2019-08-04T07:01:42Z</time>
      </trkpt>
      <trkpt lat="45.21424" lon="0.77184">
        <ele>182.615</ele>
        <time>2019-08-04T07:01:43Z</time>
      </trkpt>
      <trkpt lat="45.21427" lon="0.77185">
        <ele>182.081</ele>
        <time>2019-08-04T07:01:44Z</time>
      </trkpt>
      <trkpt lat="45.21433" lon="0.77186">
        <ele>183.588</ele>
        <time>2019-08-04T07:01:46Z</time>
      </trkpt>
      <trkpt lat="45.21436" lon="0.77186">
        <ele>184.236</ele>
        <time>2019-08-04T07:01:47Z</time>
      </trkpt>
      <trkpt lat="45.21439" lon="0.77187">
        <ele>184.239</ele>
        <time>2019-08-04T07:01:48Z</time>
      </trkpt>
      <trkpt lat="45.21442" lon="0.77188">
        <ele>183.462</ele>
        <time>2019-08-04T07:01:49Z</time>
      </trkpt>
      <trkpt lat="45.21446" lon="0.77189">
        <ele>182.964</ele>
        <time>2019-08-04T07:01:50Z</time>
      </trkpt>
      <trkpt lat="45.21463" lon="0.77195">
        <ele>182.177</ele>
        <time>2019-08-04T07:01:54Z</time>
      </trkpt>
      <trkpt lat="45.21467" lon="0.77197">
        <ele>182.016</ele>
        <time>2019-08-04T07:01:55Z</time>
      </trkpt>
      <trkpt lat="45.21469" lon="0.77199">
        <ele>181.819</ele>
        <time>2019-08-04T07:01:56Z</time>
      </trkpt>
      <trkpt lat="45.21473" lon="0.77201">
        <ele>181.269</ele>
        <time>2019-08-04T07:01:58Z</time>
      </trkpt>
      <trkpt lat="45.21478" lon="0.77205">
        <ele>179.888</ele>
        <time>2019-08-04T07:02:01Z</time>
      </trkpt>
      <trkpt lat="45.21482" lon="0.77208">
        <ele>180.523</ele>
        <time>2019-08-04T07:02:03Z</time>
      </trkpt>
      <trkpt lat="45.21487" lon="0.77211">
        <ele>180.464</ele>
        <time>2019-08-04T07:02:05Z</time>
      </trkpt>
      <trkpt lat="45.21499" lon="0.77213">
        <ele>177.833</ele>
        <time>2019-08-04T07:02:08Z</time>
      </trkpt>
      <trkpt lat="45.21508" lon="0.77217">
        <ele>179.817</ele>
        <time>2019-08-04T07:02:11Z</time>
      </trkpt>
      <trkpt lat="45.21512" lon="0.77216">
        <ele>178.592</ele>
        <time>2019-08-04T07:02:13Z</time>
      </trkpt>
      <trkpt lat="45.21522" lon="0.77215">
        <ele>179.681</ele>
        <time>2019-08-04T07:02:17Z</time>
      </trkpt>
      <trkpt lat="45.21527" lon="0.77217">
        <ele>179.7</ele>
        <time>2019-08-04T07:02:19Z</time>
      </trkpt>
      <trkpt lat="45.21533" lon="0.77217">
        <ele>178.929</ele>
        <time>2019-08-04T07:02:21Z</time>
      </trkpt>
      <trkpt lat="45.21547" lon="0.77215">
        <ele>180.858</ele>
        <time>2019-08-04T07:02:25Z</time>
      </trkpt>
      <trkpt lat="45.21554" lon="0.77213">
        <ele>180.699</ele>
        <time>2019-08-04T07:02:27Z</time>
      </trkpt>
      <trkpt lat="45.21563" lon="0.77215">
        <ele>178.949</ele>
        <time>2019-08-04T07:02:29Z</time>
      </trkpt>
      <trkpt lat="45.21575" lon="0.77217">
        <ele>178.731</ele>
        <time>2019-08-04T07:02:32Z</time>
      </trkpt>
      <trkpt lat="45.21576" lon="0.77225">
        <ele>179.506</ele>
        <time>2019-08-04T07:02:35Z</time>
      </trkpt>
      <trkpt lat="45.21579" lon="0.77231">
        <ele>178.489</ele>
        <time>2019-08-04T07:02:37Z</time>
      </trkpt>
      <trkpt lat="45.21583" lon="0.77234">
        <ele>176.083</ele>
        <time>2019-08-04T07:02:39Z</time>
      </trkpt>
      <trkpt lat="45.21589" lon="0.77238">
        <ele>176.543</ele>
        <time>2019-08-04T07:02:41Z</time>
      </trkpt>
      <trkpt lat="45.21591" lon="0.7724">
        <ele>175.488</ele>
        <time>2019-08-04T07:02:42Z</time>
      </trkpt>
      <trkpt lat="45.21594" lon="0.77242">
        <ele>175.201</ele>
        <time>2019-08-04T07:02:43Z</time>
      </trkpt>
      <trkpt lat="45.21599" lon="0.77247">
        <ele>175.641</ele>
        <time>2019-08-04T07:02:45Z</time>
      </trkpt>
      <trkpt lat="45.21607" lon="0.77255">
        <ele>178.547</ele>
        <time>2019-08-04T07:02:48Z</time>
      </trkpt>
      <trkpt lat="45.21615" lon="0.77266">
        <ele>176.117</ele>
        <time>2019-08-04T07:02:52Z</time>
      </trkpt>
      <trkpt lat="45.21622" lon="0.77275">
        <ele>177.726</ele>
        <time>2019-08-04T07:02:55Z</time>
      </trkpt>
      <trkpt lat="45.21624" lon="0.77278">
        <ele>178.481</ele>
        <time>2019-08-04T07:02:56Z</time>
      </trkpt>
      <trkpt lat="45.21626" lon="0.77281">
        <ele>178.067</ele>
        <time>2019-08-04T07:02:57Z</time>
      </trkpt>
      <trkpt lat="45.2163" lon="0.77287">
        <ele>178.136</ele>
        <time>2019-08-04T07:02:59Z</time>
      </trkpt>
      <trkpt lat="45.21632" lon="0.7729">
        <ele>179.087</ele>
        <time>2019-08-04T07:03:00Z</time>
      </trkpt>
      <trkpt lat="45.21634" lon="0.77293">
        <ele>179.365</ele>
        <time>2019-08-04T07:03:01Z</time>
      </trkpt>
      <trkpt lat="45.21637" lon="0.77301">
        <ele>178.052</ele>
        <time>2019-08-04T07:03:03Z</time>
      </trkpt>
      <trkpt lat="45.21639" lon="0.77308">
        <ele>172.803</ele>
        <time>2019-08-04T07:03:05Z</time>
      </trkpt>
      <trkpt lat="45.21643" lon="0.77315">
        <ele>173.787</ele>
        <time>2019-08-04T07:03:08Z</time>
      </trkpt>
      <trkpt lat="45.21646" lon="0.77321">
        <ele>174.678</ele>
        <time>2019-08-04T07:03:10Z</time>
      </trkpt>
      <trkpt lat="45.21652" lon="0.77326">
        <ele>174.997</ele>
        <time>2019-08-04T07:03:12Z</time>
      </trkpt>
      <trkpt lat="45.21654" lon="0.77329">
        <ele>175.818</ele>
        <time>2019-08-04T07:03:13Z</time>
      </trkpt>
      <trkpt lat="45.21662" lon="0.77336">
        <ele>176.932</ele>
        <time>2019-08-04T07:03:16Z</time>
      </trkpt>
      <trkpt lat="45.21665" lon="0.77338">
        <ele>178.089</ele>
        <time>2019-08-04T07:03:17Z</time>
      </trkpt>
      <trkpt lat="45.21668" lon="0.77341">
        <ele>179.802</ele>
        <time>2019-08-04T07:03:19Z</time>
      </trkpt>
      <trkpt lat="45.2167" lon="0.77343">
        <ele>181.401</ele>
        <time>2019-08-04T07:03:20Z</time>
      </trkpt>
      <trkpt lat="45.21673" lon="0.77345">
        <ele>182.697</ele>
        <time>2019-08-04T07:03:21Z</time>
      </trkpt>
      <trkpt lat="45.21675" lon="0.77347">
        <ele>182.048</ele>
        <time>2019-08-04T07:03:22Z</time>
      </trkpt>
      <trkpt lat="45.21678" lon="0.77349">
        <ele>181.891</ele>
        <time>2019-08-04T07:03:23Z</time>
      </trkpt>
      <trkpt lat="45.21681" lon="0.77351">
        <ele>182.129</ele>
        <time>2019-08-04T07:03:24Z</time>
      </trkpt>
      <trkpt lat="45.21688" lon="0.77354">
        <ele>181.591</ele>
        <time>2019-08-04T07:03:26Z</time>
      </trkpt>
      <trkpt lat="45.21691" lon="0.77355">
        <ele>181.96</ele>
        <time>2019-08-04T07:03:27Z</time>
      </trkpt>
      <trkpt lat="45.21694" lon="0.77357">
        <ele>181.392</ele>
        <time>2019-08-04T07:03:28Z</time>
      </trkpt>
      <trkpt lat="45.21698" lon="0.77358">
        <ele>180.867</ele>
        <time>2019-08-04T07:03:29Z</time>
      </trkpt>
      <trkpt lat="45.21701" lon="0.77362">
        <ele>179.81</ele>
        <time>2019-08-04T07:03:31Z</time>
      </trkpt>
      <trkpt lat="45.21706" lon="0.77367">
        <ele>177.781</ele>
        <time>2019-08-04T07:03:33Z</time>
      </trkpt>
      <trkpt lat="45.2171" lon="0.77373">
        <ele>178.752</ele>
        <time>2019-08-04T07:03:36Z</time>
      </trkpt>
      <trkpt lat="45.21709" lon="0.77384">
        <ele>179.407</ele>
        <time>2019-08-04T07:03:39Z</time>
      </trkpt>
      <trkpt lat="45.21712" lon="0.77389">
        <ele>180.22</ele>
        <time>2019-08-04T07:03:41Z</time>
      </trkpt>
      <trkpt lat="45.21719" lon="0.77394">
        <ele>180.12</ele>
        <time>2019-08-04T07:03:43Z</time>
      </trkpt>
      <trkpt lat="45.21736" lon="0.77385">
        <ele>179.925</ele>
        <time>2019-08-04T07:03:46Z</time>
      </trkpt>
      <trkpt lat="45.21741" lon="0.7739">
        <ele>179.061</ele>
        <time>2019-08-04T07:03:49Z</time>
      </trkpt>
      <trkpt lat="45.21745" lon="0.77394">
        <ele>179.934</ele>
        <time>2019-08-04T07:03:50Z</time>
      </trkpt>
      <trkpt lat="45.21751" lon="0.77397">
        <ele>181.031</ele>
        <time>2019-08-04T07:03:52Z</time>
      </trkpt>
      <trkpt lat="45.21758" lon="0.774">
        <ele>182.74</ele>
        <time>2019-08-04T07:03:54Z</time>
      </trkpt>
      <trkpt lat="45.21765" lon="0.77399">
        <ele>184.2</ele>
        <time>2019-08-04T07:03:57Z</time>
      </trkpt>
      <trkpt lat="45.21773" lon="0.77395">
        <ele>185.268</ele>
        <time>2019-08-04T07:04:00Z</time>
      </trkpt>
      <trkpt lat="45.2178" lon="0.77397">
        <ele>187.746</ele>
        <time>2019-08-04T07:04:03Z</time>
      </trkpt>
      <trkpt lat="45.21787" lon="0.77397">
        <ele>187.778</ele>
        <time>2019-08-04T07:04:04Z</time>
      </trkpt>
      <trkpt lat="45.21807" lon="0.77392">
        <ele>186.502</ele>
        <time>2019-08-04T07:04:06Z</time>
      </trkpt>
      <trkpt lat="45.21808" lon="0.77407">
        <ele>186.815</ele>
        <time>2019-08-04T07:04:10Z</time>
      </trkpt>
      <trkpt lat="45.21817" lon="0.77409">
        <ele>188.456</ele>
        <time>2019-08-04T07:04:14Z</time>
      </trkpt>
      <trkpt lat="45.21822" lon="0.77413">
        <ele>187.234</ele>
        <time>2019-08-04T07:04:17Z</time>
      </trkpt>
      <trkpt lat="45.21826" lon="0.77418">
        <ele>186.847</ele>
        <time>2019-08-04T07:04:19Z</time>
      </trkpt>
      <trkpt lat="45.21829" lon="0.77421">
        <ele>185.353</ele>
        <time>2019-08-04T07:04:20Z</time>
      </trkpt>
      <trkpt lat="45.2183" lon="0.77428">
        <ele>185.575</ele>
        <time>2019-08-04T07:04:22Z</time>
      </trkpt>
      <trkpt lat="45.2183" lon="0.77441">
        <ele>184.142</ele>
        <time>2019-08-04T07:04:26Z</time>
      </trkpt>
      <trkpt lat="45.21828" lon="0.7745">
        <ele>181.917</ele>
        <time>2019-08-04T07:04:29Z</time>
      </trkpt>
      <trkpt lat="45.21827" lon="0.77464">
        <ele>180.802</ele>
        <time>2019-08-04T07:04:33Z</time>
      </trkpt>
      <trkpt lat="45.21825" lon="0.77471">
        <ele>185.749</ele>
        <time>2019-08-04T07:04:37Z</time>
      </trkpt>
      <trkpt lat="45.21823" lon="0.77477">
        <ele>185.532</ele>
        <time>2019-08-04T07:04:39Z</time>
      </trkpt>
      <trkpt lat="45.21821" lon="0.77482">
        <ele>187.037</ele>
        <time>2019-08-04T07:04:43Z</time>
      </trkpt>
      <trkpt lat="45.21819" lon="0.77487">
        <ele>185.252</ele>
        <time>2019-08-04T07:04:47Z</time>
      </trkpt>
      <trkpt lat="45.21817" lon="0.77492">
        <ele>184.791</ele>
        <time>2019-08-04T07:04:50Z</time>
      </trkpt>
      <trkpt lat="45.21818" lon="0.77499">
        <ele>184.908</ele>
        <time>2019-08-04T07:04:54Z</time>
      </trkpt>
      <trkpt lat="45.21817" lon="0.77507">
        <ele>187.704</ele>
        <time>2019-08-04T07:04:58Z</time>
      </trkpt>
      <trkpt lat="45.21816" lon="0.7751">
        <ele>190.837</ele>
        <time>2019-08-04T07:05:01Z</time>
      </trkpt>
      <trkpt lat="45.21817" lon="0.77517">
        <ele>191.022</ele>
        <time>2019-08-04T07:05:07Z</time>
      </trkpt>
      <trkpt lat="45.21817" lon="0.77524">
        <ele>191.618</ele>
        <time>2019-08-04T07:05:10Z</time>
      </trkpt>
      <trkpt lat="45.21817" lon="0.77533">
        <ele>189.984</ele>
        <time>2019-08-04T07:05:16Z</time>
      </trkpt>
      <trkpt lat="45.21818" lon="0.7754">
        <ele>188.27</ele>
        <time>2019-08-04T07:05:19Z</time>
      </trkpt>
      <trkpt lat="45.21816" lon="0.77548">
        <ele>187.793</ele>
        <time>2019-08-04T07:05:24Z</time>
      </trkpt>
      <trkpt lat="45.21808" lon="0.77557">
        <ele>187.846</ele>
        <time>2019-08-04T07:05:28Z</time>
      </trkpt>
      <trkpt lat="45.21806" lon="0.7756">
        <ele>189.213</ele>
        <time>2019-08-04T07:05:30Z</time>
      </trkpt>
      <trkpt lat="45.21808" lon="0.77568">
        <ele>191.854</ele>
        <time>2019-08-04T07:05:37Z</time>
      </trkpt>
      <trkpt lat="45.21806" lon="0.77574">
        <ele>193.245</ele>
        <time>2019-08-04T07:05:42Z</time>
      </trkpt>
      <trkpt lat="45.21801" lon="0.77577">
        <ele>195.137</ele>
        <time>2019-08-04T07:05:45Z</time>
      </trkpt>
      <trkpt lat="45.21799" lon="0.77584">
        <ele>197.525</ele>
        <time>2019-08-04T07:05:51Z</time>
      </trkpt>
      <trkpt lat="45.21799" lon="0.77589">
        <ele>198.076</ele>
        <time>2019-08-04T07:06:00Z</time>
      </trkpt>
      <trkpt lat="45.2179" lon="0.77604">
        <ele>198.781</ele>
        <time>2019-08-04T07:06:13Z</time>
      </trkpt>
      <trkpt lat="45.21787" lon="0.77614">
        <ele>199.75</ele>
        <time>2019-08-04T07:06:16Z</time>
      </trkpt>
      <trkpt lat="45.21786" lon="0.77618">
        <ele>198.885</ele>
        <time>2019-08-04T07:06:18Z</time>
      </trkpt>
      <trkpt lat="45.21784" lon="0.77624">
        <ele>198.712</ele>
        <time>2019-08-04T07:06:24Z</time>
      </trkpt>
      <trkpt lat="45.21785" lon="0.77632">
        <ele>200.637</ele>
        <time>2019-08-04T07:06:30Z</time>
      </trkpt>
      <trkpt lat="45.21789" lon="0.7764">
        <ele>203.738</ele>
        <time>2019-08-04T07:06:32Z</time>
      </trkpt>
      <trkpt lat="45.21791" lon="0.77643">
        <ele>204.842</ele>
        <time>2019-08-04T07:06:33Z</time>
      </trkpt>
      <trkpt lat="45.21792" lon="0.77646">
        <ele>205.282</ele>
        <time>2019-08-04T07:06:34Z</time>
      </trkpt>
      <trkpt lat="45.21792" lon="0.77653">
        <ele>207.188</ele>
        <time>2019-08-04T07:06:37Z</time>
      </trkpt>
      <trkpt lat="45.21788" lon="0.77657">
        <ele>208.012</ele>
        <time>2019-08-04T07:06:41Z</time>
      </trkpt>
      <trkpt lat="45.21784" lon="0.77661">
        <ele>211.173</ele>
        <time>2019-08-04T07:06:44Z</time>
      </trkpt>
      <trkpt lat="45.21779" lon="0.77665">
        <ele>209.48</ele>
        <time>2019-08-04T07:06:49Z</time>
      </trkpt>
      <trkpt lat="45.21775" lon="0.77669">
        <ele>209.32</ele>
        <time>2019-08-04T07:06:51Z</time>
      </trkpt>
      <trkpt lat="45.21772" lon="0.77671">
        <ele>208.587</ele>
        <time>2019-08-04T07:06:53Z</time>
      </trkpt>
      <trkpt lat="45.21768" lon="0.77676">
        <ele>204.567</ele>
        <time>2019-08-04T07:06:57Z</time>
      </trkpt>
      <trkpt lat="45.21765" lon="0.77683">
        <ele>205.231</ele>
        <time>2019-08-04T07:07:01Z</time>
      </trkpt>
      <trkpt lat="45.21763" lon="0.77688">
        <ele>205</ele>
        <time>2019-08-04T07:07:03Z</time>
      </trkpt>
      <trkpt lat="45.21762" lon="0.77692">
        <ele>204.258</ele>
        <time>2019-08-04T07:07:07Z</time>
      </trkpt>
      <trkpt lat="45.21761" lon="0.77695">
        <ele>206.132</ele>
        <time>2019-08-04T07:07:09Z</time>
      </trkpt>
      <trkpt lat="45.21758" lon="0.77702">
        <ele>210.618</ele>
        <time>2019-08-04T07:07:17Z</time>
      </trkpt>
      <trkpt lat="45.21758" lon="0.77709">
        <ele>209.842</ele>
        <time>2019-08-04T07:07:20Z</time>
      </trkpt>
      <trkpt lat="45.21753" lon="0.77717">
        <ele>211.335</ele>
        <time>2019-08-04T07:07:22Z</time>
      </trkpt>
      <trkpt lat="45.21748" lon="0.7772">
        <ele>210.87</ele>
        <time>2019-08-04T07:07:25Z</time>
      </trkpt>
      <trkpt lat="45.21748" lon="0.7772">
        <ele>210.87</ele>
        <time>2019-08-04T07:07:30Z</time>
      </trkpt>
      <trkpt lat="45.21744" lon="0.77725">
        <ele>211.586</ele>
        <time>2019-08-04T07:07:31Z</time>
      </trkpt>
      <trkpt lat="45.21745" lon="0.77732">
        <ele>212.31</ele>
        <time>2019-08-04T07:07:38Z</time>
      </trkpt>
      <trkpt lat="45.2174" lon="0.77736">
        <ele>207.741</ele>
        <time>2019-08-04T07:07:43Z</time>
      </trkpt>
      <trkpt lat="45.21738" lon="0.77742">
        <ele>206.157</ele>
        <time>2019-08-04T07:07:49Z</time>
      </trkpt>
      <trkpt lat="45.21737" lon="0.77745">
        <ele>204.993</ele>
        <time>2019-08-04T07:07:52Z</time>
      </trkpt>
      <trkpt lat="45.21736" lon="0.77753">
        <ele>207.658</ele>
        <time>2019-08-04T07:07:57Z</time>
      </trkpt>
      <trkpt lat="45.21732" lon="0.77758">
        <ele>209.083</ele>
        <time>2019-08-04T07:08:02Z</time>
      </trkpt>
      <trkpt lat="45.21727" lon="0.77758">
        <ele>208.393</ele>
        <time>2019-08-04T07:08:06Z</time>
      </trkpt>
      <trkpt lat="45.21721" lon="0.77757">
        <ele>211.508</ele>
        <time>2019-08-04T07:08:10Z</time>
      </trkpt>
      <trkpt lat="45.21716" lon="0.77757">
        <ele>212.077</ele>
        <time>2019-08-04T07:08:13Z</time>
      </trkpt>
      <trkpt lat="45.21713" lon="0.77758">
        <ele>212.545</ele>
        <time>2019-08-04T07:08:15Z</time>
      </trkpt>
      <trkpt lat="45.2171" lon="0.77758">
        <ele>214.22</ele>
        <time>2019-08-04T07:08:17Z</time>
      </trkpt>
      <trkpt lat="45.21704" lon="0.77757">
        <ele>207.219</ele>
        <time>2019-08-04T07:08:21Z</time>
      </trkpt>
      <trkpt lat="45.21698" lon="0.77757">
        <ele>210.369</ele>
        <time>2019-08-04T07:08:24Z</time>
      </trkpt>
      <trkpt lat="45.21693" lon="0.7776">
        <ele>213.899</ele>
        <time>2019-08-04T07:08:29Z</time>
      </trkpt>
      <trkpt lat="45.21689" lon="0.77762">
        <ele>215.479</ele>
        <time>2019-08-04T07:08:32Z</time>
      </trkpt>
      <trkpt lat="45.21683" lon="0.77765">
        <ele>216.319</ele>
        <time>2019-08-04T07:08:36Z</time>
      </trkpt>
      <trkpt lat="45.21681" lon="0.77772">
        <ele>214.23</ele>
        <time>2019-08-04T07:08:42Z</time>
      </trkpt>
      <trkpt lat="45.21678" lon="0.7778">
        <ele>214.814</ele>
        <time>2019-08-04T07:08:45Z</time>
      </trkpt>
      <trkpt lat="45.21677" lon="0.77783">
        <ele>211.643</ele>
        <time>2019-08-04T07:08:47Z</time>
      </trkpt>
      <trkpt lat="45.21672" lon="0.77785">
        <ele>213.494</ele>
        <time>2019-08-04T07:08:52Z</time>
      </trkpt>
      <trkpt lat="45.2167" lon="0.77787">
        <ele>215.237</ele>
        <time>2019-08-04T07:08:54Z</time>
      </trkpt>
      <trkpt lat="45.21664" lon="0.77789">
        <ele>215.842</ele>
        <time>2019-08-04T07:08:57Z</time>
      </trkpt>
      <trkpt lat="45.21661" lon="0.7779">
        <ele>215.501</ele>
        <time>2019-08-04T07:08:59Z</time>
      </trkpt>
      <trkpt lat="45.21656" lon="0.77794">
        <ele>214.118</ele>
        <time>2019-08-04T07:09:04Z</time>
      </trkpt>
      <trkpt lat="45.21653" lon="0.77796">
        <ele>215.309</ele>
        <time>2019-08-04T07:09:06Z</time>
      </trkpt>
      <trkpt lat="45.21649" lon="0.77798">
        <ele>216.431</ele>
        <time>2019-08-04T07:09:09Z</time>
      </trkpt>
      <trkpt lat="45.21643" lon="0.778">
        <ele>217.613</ele>
        <time>2019-08-04T07:09:13Z</time>
      </trkpt>
      <trkpt lat="45.21639" lon="0.778">
        <ele>218.708</ele>
        <time>2019-08-04T07:09:17Z</time>
      </trkpt>
      <trkpt lat="45.21633" lon="0.77803">
        <ele>217.406</ele>
        <time>2019-08-04T07:09:20Z</time>
      </trkpt>
      <trkpt lat="45.21629" lon="0.77805">
        <ele>217.565</ele>
        <time>2019-08-04T07:09:22Z</time>
      </trkpt>
      <trkpt lat="45.21626" lon="0.77807">
        <ele>217.322</ele>
        <time>2019-08-04T07:09:23Z</time>
      </trkpt>
      <trkpt lat="45.21624" lon="0.77808">
        <ele>216.543</ele>
        <time>2019-08-04T07:09:24Z</time>
      </trkpt>
      <trkpt lat="45.2162" lon="0.77812">
        <ele>212.902</ele>
        <time>2019-08-04T07:09:26Z</time>
      </trkpt>
      <trkpt lat="45.21616" lon="0.77815">
        <ele>214.196</ele>
        <time>2019-08-04T07:09:28Z</time>
      </trkpt>
      <trkpt lat="45.21611" lon="0.77818">
        <ele>213.076</ele>
        <time>2019-08-04T07:09:30Z</time>
      </trkpt>
      <trkpt lat="45.21607" lon="0.7782">
        <ele>214.177</ele>
        <time>2019-08-04T07:09:32Z</time>
      </trkpt>
      <trkpt lat="45.21604" lon="0.77821">
        <ele>214.72</ele>
        <time>2019-08-04T07:09:33Z</time>
      </trkpt>
      <trkpt lat="45.21602" lon="0.77822">
        <ele>215.85</ele>
        <time>2019-08-04T07:09:34Z</time>
      </trkpt>
      <trkpt lat="45.21597" lon="0.77825">
        <ele>217.449</ele>
        <time>2019-08-04T07:09:36Z</time>
      </trkpt>
      <trkpt lat="45.21594" lon="0.77826">
        <ele>218.064</ele>
        <time>2019-08-04T07:09:37Z</time>
      </trkpt>
      <trkpt lat="45.21591" lon="0.77827">
        <ele>218.646</ele>
        <time>2019-08-04T07:09:38Z</time>
      </trkpt>
      <trkpt lat="45.21583" lon="0.7783">
        <ele>220.644</ele>
        <time>2019-08-04T07:09:41Z</time>
      </trkpt>
      <trkpt lat="45.2158" lon="0.77832">
        <ele>220.41</ele>
        <time>2019-08-04T07:09:42Z</time>
      </trkpt>
      <trkpt lat="45.21575" lon="0.77835">
        <ele>219.527</ele>
        <time>2019-08-04T07:09:44Z</time>
      </trkpt>
      <trkpt lat="45.21573" lon="0.77837">
        <ele>219.441</ele>
        <time>2019-08-04T07:09:45Z</time>
      </trkpt>
      <trkpt lat="45.2157" lon="0.77839">
        <ele>219.506</ele>
        <time>2019-08-04T07:09:46Z</time>
      </trkpt>
      <trkpt lat="45.21563" lon="0.77845">
        <ele>220.256</ele>
        <time>2019-08-04T07:09:49Z</time>
      </trkpt>
      <trkpt lat="45.2156" lon="0.77847">
        <ele>221.026</ele>
        <time>2019-08-04T07:09:50Z</time>
      </trkpt>
      <trkpt lat="45.21557" lon="0.77849">
        <ele>220.695</ele>
        <time>2019-08-04T07:09:51Z</time>
      </trkpt>
      <trkpt lat="45.21555" lon="0.77851">
        <ele>220.815</ele>
        <time>2019-08-04T07:09:52Z</time>
      </trkpt>
      <trkpt lat="45.21552" lon="0.77853">
        <ele>221.126</ele>
        <time>2019-08-04T07:09:53Z</time>
      </trkpt>
      <trkpt lat="45.21549" lon="0.77855">
        <ele>221.255</ele>
        <time>2019-08-04T07:09:54Z</time>
      </trkpt>
      <trkpt lat="45.21547" lon="0.77857">
        <ele>221.985</ele>
        <time>2019-08-04T07:09:55Z</time>
      </trkpt>
      <trkpt lat="45.21544" lon="0.77858">
        <ele>222.377</ele>
        <time>2019-08-04T07:09:56Z</time>
      </trkpt>
      <trkpt lat="45.21542" lon="0.7786">
        <ele>222.612</ele>
        <time>2019-08-04T07:09:57Z</time>
      </trkpt>
      <trkpt lat="45.21539" lon="0.77862">
        <ele>223.19</ele>
        <time>2019-08-04T07:09:58Z</time>
      </trkpt>
      <trkpt lat="45.21533" lon="0.77865">
        <ele>223.04</ele>
        <time>2019-08-04T07:10:00Z</time>
      </trkpt>
      <trkpt lat="45.2153" lon="0.77866">
        <ele>223.134</ele>
        <time>2019-08-04T07:10:01Z</time>
      </trkpt>
      <trkpt lat="45.21528" lon="0.77868">
        <ele>222.96</ele>
        <time>2019-08-04T07:10:02Z</time>
      </trkpt>
      <trkpt lat="45.2152" lon="0.77872">
        <ele>222.917</ele>
        <time>2019-08-04T07:10:05Z</time>
      </trkpt>
      <trkpt lat="45.21513" lon="0.77869">
        <ele>223.45</ele>
        <time>2019-08-04T07:10:08Z</time>
      </trkpt>
      <trkpt lat="45.21507" lon="0.77861">
        <ele>223.93</ele>
        <time>2019-08-04T07:10:12Z</time>
      </trkpt>
      <trkpt lat="45.21505" lon="0.77858">
        <ele>223.767</ele>
        <time>2019-08-04T07:10:14Z</time>
      </trkpt>
      <trkpt lat="45.21501" lon="0.77854">
        <ele>224.795</ele>
        <time>2019-08-04T07:10:17Z</time>
      </trkpt>
      <trkpt lat="45.21496" lon="0.7785">
        <ele>223.898</ele>
        <time>2019-08-04T07:10:21Z</time>
      </trkpt>
      <trkpt lat="45.21491" lon="0.77845">
        <ele>223.809</ele>
        <time>2019-08-04T07:10:25Z</time>
      </trkpt>
      <trkpt lat="45.21487" lon="0.77841">
        <ele>224.179</ele>
        <time>2019-08-04T07:10:29Z</time>
      </trkpt>
      <trkpt lat="45.21483" lon="0.77838">
        <ele>224.657</ele>
        <time>2019-08-04T07:10:32Z</time>
      </trkpt>
      <trkpt lat="45.21482" lon="0.77836">
        <ele>224.603</ele>
        <time>2019-08-04T07:10:34Z</time>
      </trkpt>
      <trkpt lat="45.21478" lon="0.77832">
        <ele>225.796</ele>
        <time>2019-08-04T07:10:38Z</time>
      </trkpt>
      <trkpt lat="45.21476" lon="0.77829">
        <ele>226.538</ele>
        <time>2019-08-04T07:10:40Z</time>
      </trkpt>
      <trkpt lat="45.21472" lon="0.77825">
        <ele>227.044</ele>
        <time>2019-08-04T07:10:44Z</time>
      </trkpt>
      <trkpt lat="45.2147" lon="0.77823">
        <ele>228.295</ele>
        <time>2019-08-04T07:10:46Z</time>
      </trkpt>
      <trkpt lat="45.21466" lon="0.77819">
        <ele>228.196</ele>
        <time>2019-08-04T07:10:50Z</time>
      </trkpt>
      <trkpt lat="45.21464" lon="0.77816">
        <ele>228.267</ele>
        <time>2019-08-04T07:10:52Z</time>
      </trkpt>
      <trkpt lat="45.21462" lon="0.77815">
        <ele>227.982</ele>
        <time>2019-08-04T07:10:54Z</time>
      </trkpt>
      <trkpt lat="45.2146" lon="0.77812">
        <ele>227.521</ele>
        <time>2019-08-04T07:10:57Z</time>
      </trkpt>
      <trkpt lat="45.21458" lon="0.77809">
        <ele>228.014</ele>
        <time>2019-08-04T07:11:00Z</time>
      </trkpt>
      <trkpt lat="45.21453" lon="0.77805">
        <ele>229.599</ele>
        <time>2019-08-04T07:11:04Z</time>
      </trkpt>
      <trkpt lat="45.21451" lon="0.77803">
        <ele>229.58</ele>
        <time>2019-08-04T07:11:07Z</time>
      </trkpt>
      <trkpt lat="45.21448" lon="0.778">
        <ele>229.397</ele>
        <time>2019-08-04T07:11:10Z</time>
      </trkpt>
      <trkpt lat="45.21444" lon="0.77797">
        <ele>229.933</ele>
        <time>2019-08-04T07:11:14Z</time>
      </trkpt>
      <trkpt lat="45.2144" lon="0.77794">
        <ele>229.709</ele>
        <time>2019-08-04T07:11:18Z</time>
      </trkpt>
      <trkpt lat="45.21438" lon="0.77792">
        <ele>228.915</ele>
        <time>2019-08-04T07:11:20Z</time>
      </trkpt>
      <trkpt lat="45.21435" lon="0.7779">
        <ele>229.023</ele>
        <time>2019-08-04T07:11:22Z</time>
      </trkpt>
      <trkpt lat="45.21433" lon="0.77788">
        <ele>229.698</ele>
        <time>2019-08-04T07:11:24Z</time>
      </trkpt>
      <trkpt lat="45.21431" lon="0.77786">
        <ele>230.054</ele>
        <time>2019-08-04T07:11:26Z</time>
      </trkpt>
      <trkpt lat="45.21429" lon="0.77784">
        <ele>230.282</ele>
        <time>2019-08-04T07:11:28Z</time>
      </trkpt>
      <trkpt lat="45.21426" lon="0.77783">
        <ele>230.109</ele>
        <time>2019-08-04T07:11:30Z</time>
      </trkpt>
      <trkpt lat="45.21423" lon="0.7778">
        <ele>231.573</ele>
        <time>2019-08-04T07:11:33Z</time>
      </trkpt>
      <trkpt lat="45.2142" lon="0.77778">
        <ele>233.476</ele>
        <time>2019-08-04T07:11:36Z</time>
      </trkpt>
      <trkpt lat="45.21415" lon="0.77775">
        <ele>233.743</ele>
        <time>2019-08-04T07:11:40Z</time>
      </trkpt>
      <trkpt lat="45.21413" lon="0.77774">
        <ele>233.626</ele>
        <time>2019-08-04T07:11:42Z</time>
      </trkpt>
      <trkpt lat="45.21411" lon="0.77773">
        <ele>235.208</ele>
        <time>2019-08-04T07:11:44Z</time>
      </trkpt>
      <trkpt lat="45.21408" lon="0.77771">
        <ele>234.523</ele>
        <time>2019-08-04T07:11:46Z</time>
      </trkpt>
      <trkpt lat="45.21403" lon="0.7777">
        <ele>232.102</ele>
        <time>2019-08-04T07:11:49Z</time>
      </trkpt>
      <trkpt lat="45.21398" lon="0.77769">
        <ele>233.555</ele>
        <time>2019-08-04T07:11:52Z</time>
      </trkpt>
      <trkpt lat="45.21394" lon="0.77765">
        <ele>234.89</ele>
        <time>2019-08-04T07:11:55Z</time>
      </trkpt>
      <trkpt lat="45.2139" lon="0.77763">
        <ele>235.091</ele>
        <time>2019-08-04T07:11:57Z</time>
      </trkpt>
      <trkpt lat="45.21387" lon="0.77762">
        <ele>235.252</ele>
        <time>2019-08-04T07:11:59Z</time>
      </trkpt>
      <trkpt lat="45.21382" lon="0.77759">
        <ele>235.923</ele>
        <time>2019-08-04T07:12:02Z</time>
      </trkpt>
      <trkpt lat="45.21378" lon="0.77758">
        <ele>235.698</ele>
        <time>2019-08-04T07:12:04Z</time>
      </trkpt>
      <trkpt lat="45.21372" lon="0.77755">
        <ele>235.256</ele>
        <time>2019-08-04T07:12:07Z</time>
      </trkpt>
      <trkpt lat="45.21366" lon="0.77753">
        <ele>236.117</ele>
        <time>2019-08-04T07:12:10Z</time>
      </trkpt>
      <trkpt lat="45.21361" lon="0.77753">
        <ele>236.073</ele>
        <time>2019-08-04T07:12:13Z</time>
      </trkpt>
      <trkpt lat="45.21355" lon="0.77756">
        <ele>235.643</ele>
        <time>2019-08-04T07:12:16Z</time>
      </trkpt>
      <trkpt lat="45.2135" lon="0.77763">
        <ele>235.818</ele>
        <time>2019-08-04T07:12:19Z</time>
      </trkpt>
      <trkpt lat="45.21348" lon="0.77774">
        <ele>234.531</ele>
        <time>2019-08-04T07:12:23Z</time>
      </trkpt>
      <trkpt lat="45.2135" lon="0.7778">
        <ele>234.849</ele>
        <time>2019-08-04T07:12:26Z</time>
      </trkpt>
      <trkpt lat="45.21351" lon="0.77787">
        <ele>232.07</ele>
        <time>2019-08-04T07:12:29Z</time>
      </trkpt>
      <trkpt lat="45.2135" lon="0.77794">
        <ele>236.079</ele>
        <time>2019-08-04T07:12:35Z</time>
      </trkpt>
      <trkpt lat="45.21349" lon="0.77801">
        <ele>235.152</ele>
        <time>2019-08-04T07:12:39Z</time>
      </trkpt>
      <trkpt lat="45.21349" lon="0.7781">
        <ele>236.217</ele>
        <time>2019-08-04T07:12:45Z</time>
      </trkpt>
      <trkpt lat="45.21346" lon="0.77817">
        <ele>234.714</ele>
        <time>2019-08-04T07:12:49Z</time>
      </trkpt>
      <trkpt lat="45.21343" lon="0.77822">
        <ele>233.373</ele>
        <time>2019-08-04T07:12:53Z</time>
      </trkpt>
      <trkpt lat="45.2134" lon="0.77826">
        <ele>232.383</ele>
        <time>2019-08-04T07:12:55Z</time>
      </trkpt>
      <trkpt lat="45.21337" lon="0.77832">
        <ele>231.45</ele>
        <time>2019-08-04T07:12:58Z</time>
      </trkpt>
      <trkpt lat="45.21335" lon="0.77839">
        <ele>231.801</ele>
        <time>2019-08-04T07:13:01Z</time>
      </trkpt>
      <trkpt lat="45.21334" lon="0.77847">
        <ele>232.439</ele>
        <time>2019-08-04T07:13:04Z</time>
      </trkpt>
      <trkpt lat="45.21333" lon="0.77855">
        <ele>234.013</ele>
        <time>2019-08-04T07:13:07Z</time>
      </trkpt>
      <trkpt lat="45.21331" lon="0.77862">
        <ele>237.105</ele>
        <time>2019-08-04T07:13:10Z</time>
      </trkpt>
      <trkpt lat="45.2133" lon="0.77868">
        <ele>238.281</ele>
        <time>2019-08-04T07:13:13Z</time>
      </trkpt>
      <trkpt lat="45.21328" lon="0.77878">
        <ele>239.559</ele>
        <time>2019-08-04T07:13:17Z</time>
      </trkpt>
      <trkpt lat="45.21328" lon="0.77883">
        <ele>241.682</ele>
        <time>2019-08-04T07:13:19Z</time>
      </trkpt>
      <trkpt lat="45.21327" lon="0.77888">
        <ele>241.197</ele>
        <time>2019-08-04T07:13:21Z</time>
      </trkpt>
      <trkpt lat="45.21325" lon="0.77899">
        <ele>241.508</ele>
        <time>2019-08-04T07:13:25Z</time>
      </trkpt>
      <trkpt lat="45.21323" lon="0.77905">
        <ele>242.359</ele>
        <time>2019-08-04T07:13:27Z</time>
      </trkpt>
      <trkpt lat="45.21323" lon="0.77911">
        <ele>243.62</ele>
        <time>2019-08-04T07:13:29Z</time>
      </trkpt>
      <trkpt lat="45.21322" lon="0.77917">
        <ele>243.543</ele>
        <time>2019-08-04T07:13:31Z</time>
      </trkpt>
      <trkpt lat="45.21321" lon="0.77923">
        <ele>243.312</ele>
        <time>2019-08-04T07:13:33Z</time>
      </trkpt>
      <trkpt lat="45.21321" lon="0.77926">
        <ele>243.3</ele>
        <time>2019-08-04T07:13:34Z</time>
      </trkpt>
      <trkpt lat="45.21319" lon="0.77935">
        <ele>243.436</ele>
        <time>2019-08-04T07:13:37Z</time>
      </trkpt>
      <trkpt lat="45.21318" lon="0.77944">
        <ele>245.173</ele>
        <time>2019-08-04T07:13:40Z</time>
      </trkpt>
      <trkpt lat="45.21317" lon="0.7795">
        <ele>244.633</ele>
        <time>2019-08-04T07:13:42Z</time>
      </trkpt>
      <trkpt lat="45.21316" lon="0.77959">
        <ele>244.728</ele>
        <time>2019-08-04T07:13:45Z</time>
      </trkpt>
      <trkpt lat="45.21314" lon="0.77969">
        <ele>244.529</ele>
        <time>2019-08-04T07:13:49Z</time>
      </trkpt>
      <trkpt lat="45.21314" lon="0.77975">
        <ele>244.918</ele>
        <time>2019-08-04T07:13:51Z</time>
      </trkpt>
      <trkpt lat="45.21313" lon="0.77982">
        <ele>245.189</ele>
        <time>2019-08-04T07:13:54Z</time>
      </trkpt>
      <trkpt lat="45.21313" lon="0.77989">
        <ele>241.638</ele>
        <time>2019-08-04T07:13:57Z</time>
      </trkpt>
      <trkpt lat="45.21312" lon="0.77994">
        <ele>244.935</ele>
        <time>2019-08-04T07:13:59Z</time>
      </trkpt>
      <trkpt lat="45.21311" lon="0.78">
        <ele>246.579</ele>
        <time>2019-08-04T07:14:02Z</time>
      </trkpt>
      <trkpt lat="45.2131" lon="0.78008">
        <ele>247.61</ele>
        <time>2019-08-04T07:14:05Z</time>
      </trkpt>
      <trkpt lat="45.21309" lon="0.78012">
        <ele>248.871</ele>
        <time>2019-08-04T07:14:07Z</time>
      </trkpt>
      <trkpt lat="45.21309" lon="0.78016">
        <ele>249.132</ele>
        <time>2019-08-04T07:14:09Z</time>
      </trkpt>
      <trkpt lat="45.21308" lon="0.78023">
        <ele>249.037</ele>
        <time>2019-08-04T07:14:13Z</time>
      </trkpt>
      <trkpt lat="45.21308" lon="0.78028">
        <ele>248.007</ele>
        <time>2019-08-04T07:14:15Z</time>
      </trkpt>
      <trkpt lat="45.21308" lon="0.78033">
        <ele>247.601</ele>
        <time>2019-08-04T07:14:17Z</time>
      </trkpt>
      <trkpt lat="45.21308" lon="0.78037">
        <ele>247.644</ele>
        <time>2019-08-04T07:14:19Z</time>
      </trkpt>
      <trkpt lat="45.21308" lon="0.7804">
        <ele>250.553</ele>
        <time>2019-08-04T07:14:21Z</time>
      </trkpt>
      <trkpt lat="45.21307" lon="0.78046">
        <ele>250.889</ele>
        <time>2019-08-04T07:14:24Z</time>
      </trkpt>
      <trkpt lat="45.21309" lon="0.78053">
        <ele>252.087</ele>
        <time>2019-08-04T07:14:27Z</time>
      </trkpt>
      <trkpt lat="45.21309" lon="0.78057">
        <ele>252.033</ele>
        <time>2019-08-04T07:14:29Z</time>
      </trkpt>
      <trkpt lat="45.21311" lon="0.78064">
        <ele>254.297</ele>
        <time>2019-08-04T07:14:33Z</time>
      </trkpt>
      <trkpt lat="45.21311" lon="0.78069">
        <ele>254.441</ele>
        <time>2019-08-04T07:14:36Z</time>
      </trkpt>
      <trkpt lat="45.21314" lon="0.78075">
        <ele>255.805</ele>
        <time>2019-08-04T07:14:40Z</time>
      </trkpt>
      <trkpt lat="45.21318" lon="0.78079">
        <ele>255.998</ele>
        <time>2019-08-04T07:14:44Z</time>
      </trkpt>
      <trkpt lat="45.21322" lon="0.78085">
        <ele>255.129</ele>
        <time>2019-08-04T07:14:48Z</time>
      </trkpt>
      <trkpt lat="45.21324" lon="0.78094">
        <ele>254.109</ele>
        <time>2019-08-04T07:14:53Z</time>
      </trkpt>
      <trkpt lat="45.21327" lon="0.781">
        <ele>256.037</ele>
        <time>2019-08-04T07:14:57Z</time>
      </trkpt>
      <trkpt lat="45.21328" lon="0.78103">
        <ele>255.167</ele>
        <time>2019-08-04T07:14:59Z</time>
      </trkpt>
      <trkpt lat="45.2133" lon="0.78107">
        <ele>256.225</ele>
        <time>2019-08-04T07:15:01Z</time>
      </trkpt>
      <trkpt lat="45.21333" lon="0.78113">
        <ele>255.088</ele>
        <time>2019-08-04T07:15:04Z</time>
      </trkpt>
      <trkpt lat="45.21336" lon="0.78119">
        <ele>254.351</ele>
        <time>2019-08-04T07:15:07Z</time>
      </trkpt>
      <trkpt lat="45.21339" lon="0.78125">
        <ele>253.79</ele>
        <time>2019-08-04T07:15:10Z</time>
      </trkpt>
      <trkpt lat="45.21341" lon="0.78129">
        <ele>253.571</ele>
        <time>2019-08-04T07:15:12Z</time>
      </trkpt>
      <trkpt lat="45.21346" lon="0.78134">
        <ele>257.163</ele>
        <time>2019-08-04T07:15:15Z</time>
      </trkpt>
      <trkpt lat="45.21348" lon="0.78139">
        <ele>256.67</ele>
        <time>2019-08-04T07:15:18Z</time>
      </trkpt>
      <trkpt lat="45.21351" lon="0.78148">
        <ele>256.783</ele>
        <time>2019-08-04T07:15:21Z</time>
      </trkpt>
      <trkpt lat="45.21354" lon="0.78156">
        <ele>258.253</ele>
        <time>2019-08-04T07:15:24Z</time>
      </trkpt>
      <trkpt lat="45.21357" lon="0.78161">
        <ele>259.092</ele>
        <time>2019-08-04T07:15:26Z</time>
      </trkpt>
      <trkpt lat="45.21359" lon="0.78166">
        <ele>258.65</ele>
        <time>2019-08-04T07:15:28Z</time>
      </trkpt>
      <trkpt lat="45.21361" lon="0.7817">
        <ele>259.275</ele>
        <time>2019-08-04T07:15:30Z</time>
      </trkpt>
      <trkpt lat="45.21362" lon="0.78175">
        <ele>259.01</ele>
        <time>2019-08-04T07:15:32Z</time>
      </trkpt>
      <trkpt lat="45.21363" lon="0.7818">
        <ele>258.379</ele>
        <time>2019-08-04T07:15:34Z</time>
      </trkpt>
      <trkpt lat="45.21365" lon="0.78185">
        <ele>258.795</ele>
        <time>2019-08-04T07:15:36Z</time>
      </trkpt>
      <trkpt lat="45.21366" lon="0.78189">
        <ele>257.841</ele>
        <time>2019-08-04T07:15:38Z</time>
      </trkpt>
      <trkpt lat="45.21367" lon="0.78194">
        <ele>258.141</ele>
        <time>2019-08-04T07:15:40Z</time>
      </trkpt>
      <trkpt lat="45.21368" lon="0.78198">
        <ele>258.323</ele>
        <time>2019-08-04T07:15:42Z</time>
      </trkpt>
      <trkpt lat="45.21369" lon="0.78204">
        <ele>258.607</ele>
        <time>2019-08-04T07:15:45Z</time>
      </trkpt>
      <trkpt lat="45.2137" lon="0.78208">
        <ele>258.591</ele>
        <time>2019-08-04T07:15:47Z</time>
      </trkpt>
      <trkpt lat="45.21372" lon="0.78216">
        <ele>258.494</ele>
        <time>2019-08-04T07:15:50Z</time>
      </trkpt>
      <trkpt lat="45.21375" lon="0.78228">
        <ele>258.594</ele>
        <time>2019-08-04T07:15:54Z</time>
      </trkpt>
      <trkpt lat="45.21378" lon="0.78234">
        <ele>258.727</ele>
        <time>2019-08-04T07:15:56Z</time>
      </trkpt>
      <trkpt lat="45.21379" lon="0.78238">
        <ele>259.592</ele>
        <time>2019-08-04T07:15:57Z</time>
      </trkpt>
      <trkpt lat="45.21381" lon="0.78242">
        <ele>258.657</ele>
        <time>2019-08-04T07:15:58Z</time>
      </trkpt>
      <trkpt lat="45.21382" lon="0.78246">
        <ele>258.381</ele>
        <time>2019-08-04T07:15:59Z</time>
      </trkpt>
      <trkpt lat="45.21386" lon="0.78254">
        <ele>258.205</ele>
        <time>2019-08-04T07:16:01Z</time>
      </trkpt>
      <trkpt lat="45.21392" lon="0.78264">
        <ele>257.833</ele>
        <time>2019-08-04T07:16:03Z</time>
      </trkpt>
      <trkpt lat="45.21395" lon="0.78269">
        <ele>257.809</ele>
        <time>2019-08-04T07:16:04Z</time>
      </trkpt>
      <trkpt lat="45.214" lon="0.78275">
        <ele>257.587</ele>
        <time>2019-08-04T07:16:05Z</time>
      </trkpt>
      <trkpt lat="45.21403" lon="0.78282">
        <ele>256.246</ele>
        <time>2019-08-04T07:16:06Z</time>
      </trkpt>
      <trkpt lat="45.21402" lon="0.78293">
        <ele>256.306</ele>
        <time>2019-08-04T07:16:08Z</time>
      </trkpt>
      <trkpt lat="45.214" lon="0.78305">
        <ele>255.892</ele>
        <time>2019-08-04T07:16:10Z</time>
      </trkpt>
      <trkpt lat="45.21399" lon="0.78308">
        <ele>256.171</ele>
        <time>2019-08-04T07:16:11Z</time>
      </trkpt>
      <trkpt lat="45.21396" lon="0.78314">
        <ele>257.031</ele>
        <time>2019-08-04T07:16:13Z</time>
      </trkpt>
      <trkpt lat="45.21392" lon="0.78318">
        <ele>256.299</ele>
        <time>2019-08-04T07:16:15Z</time>
      </trkpt>
      <trkpt lat="45.21389" lon="0.78325">
        <ele>256.406</ele>
        <time>2019-08-04T07:16:18Z</time>
      </trkpt>
      <trkpt lat="45.21383" lon="0.78335">
        <ele>256.989</ele>
        <time>2019-08-04T07:16:22Z</time>
      </trkpt>
      <trkpt lat="45.21378" lon="0.7834">
        <ele>257.51</ele>
        <time>2019-08-04T07:16:25Z</time>
      </trkpt>
      <trkpt lat="45.21374" lon="0.78346">
        <ele>258.269</ele>
        <time>2019-08-04T07:16:28Z</time>
      </trkpt>
      <trkpt lat="45.21371" lon="0.78353">
        <ele>259.079</ele>
        <time>2019-08-04T07:16:31Z</time>
      </trkpt>
      <trkpt lat="45.21368" lon="0.78358">
        <ele>254.753</ele>
        <time>2019-08-04T07:16:35Z</time>
      </trkpt>
      <trkpt lat="45.21368" lon="0.78368">
        <ele>257.4</ele>
        <time>2019-08-04T07:16:39Z</time>
      </trkpt>
      <trkpt lat="45.21364" lon="0.78373">
        <ele>259.955</ele>
        <time>2019-08-04T07:16:42Z</time>
      </trkpt>
      <trkpt lat="45.21363" lon="0.78376">
        <ele>260.43</ele>
        <time>2019-08-04T07:16:44Z</time>
      </trkpt>
      <trkpt lat="45.2136" lon="0.78382">
        <ele>259.904</ele>
        <time>2019-08-04T07:16:47Z</time>
      </trkpt>
      <trkpt lat="45.21354" lon="0.78395">
        <ele>261.012</ele>
        <time>2019-08-04T07:16:51Z</time>
      </trkpt>
      <trkpt lat="45.21351" lon="0.78402">
        <ele>259.167</ele>
        <time>2019-08-04T07:16:53Z</time>
      </trkpt>
      <trkpt lat="45.21349" lon="0.78405">
        <ele>258.548</ele>
        <time>2019-08-04T07:16:55Z</time>
      </trkpt>
      <trkpt lat="45.21344" lon="0.78409">
        <ele>259.844</ele>
        <time>2019-08-04T07:16:58Z</time>
      </trkpt>
      <trkpt lat="45.21341" lon="0.78415">
        <ele>258.569</ele>
        <time>2019-08-04T07:17:01Z</time>
      </trkpt>
      <trkpt lat="45.21341" lon="0.78422">
        <ele>261.168</ele>
        <time>2019-08-04T07:17:05Z</time>
      </trkpt>
      <trkpt lat="45.21338" lon="0.78428">
        <ele>258.99</ele>
        <time>2019-08-04T07:17:08Z</time>
      </trkpt>
      <trkpt lat="45.21338" lon="0.78436">
        <ele>261.518</ele>
        <time>2019-08-04T07:17:11Z</time>
      </trkpt>
      <trkpt lat="45.2134" lon="0.78444">
        <ele>261.047</ele>
        <time>2019-08-04T07:17:14Z</time>
      </trkpt>
      <trkpt lat="45.21341" lon="0.78453">
        <ele>261.392</ele>
        <time>2019-08-04T07:17:17Z</time>
      </trkpt>
      <trkpt lat="45.21342" lon="0.78462">
        <ele>261.744</ele>
        <time>2019-08-04T07:17:19Z</time>
      </trkpt>
      <trkpt lat="45.21343" lon="0.78466">
        <ele>262.311</ele>
        <time>2019-08-04T07:17:20Z</time>
      </trkpt>
      <trkpt lat="45.21344" lon="0.78471">
        <ele>260.423</ele>
        <time>2019-08-04T07:17:21Z</time>
      </trkpt>
      <trkpt lat="45.21345" lon="0.78475">
        <ele>260.605</ele>
        <time>2019-08-04T07:17:22Z</time>
      </trkpt>
      <trkpt lat="45.21346" lon="0.78479">
        <ele>260.305</ele>
        <time>2019-08-04T07:17:23Z</time>
      </trkpt>
      <trkpt lat="45.21347" lon="0.78486">
        <ele>258.773</ele>
        <time>2019-08-04T07:17:25Z</time>
      </trkpt>
      <trkpt lat="45.21347" lon="0.7849">
        <ele>258.436</ele>
        <time>2019-08-04T07:17:26Z</time>
      </trkpt>
      <trkpt lat="45.21349" lon="0.78497">
        <ele>258.747</ele>
        <time>2019-08-04T07:17:29Z</time>
      </trkpt>
      <trkpt lat="45.21351" lon="0.78503">
        <ele>261.197</ele>
        <time>2019-08-04T07:17:32Z</time>
      </trkpt>
      <trkpt lat="45.21353" lon="0.78509">
        <ele>259.279</ele>
        <time>2019-08-04T07:17:34Z</time>
      </trkpt>
      <trkpt lat="45.21356" lon="0.78518">
        <ele>258.466</ele>
        <time>2019-08-04T07:17:37Z</time>
      </trkpt>
      <trkpt lat="45.21359" lon="0.78525">
        <ele>259.32</ele>
        <time>2019-08-04T07:17:39Z</time>
      </trkpt>
      <trkpt lat="45.2136" lon="0.78528">
        <ele>259.719</ele>
        <time>2019-08-04T07:17:40Z</time>
      </trkpt>
      <trkpt lat="45.21363" lon="0.78534">
        <ele>257.882</ele>
        <time>2019-08-04T07:17:42Z</time>
      </trkpt>
      <trkpt lat="45.21364" lon="0.78537">
        <ele>258.977</ele>
        <time>2019-08-04T07:17:43Z</time>
      </trkpt>
      <trkpt lat="45.21365" lon="0.7854">
        <ele>259.367</ele>
        <time>2019-08-04T07:17:44Z</time>
      </trkpt>
      <trkpt lat="45.21368" lon="0.78545">
        <ele>258.966</ele>
        <time>2019-08-04T07:17:46Z</time>
      </trkpt>
      <trkpt lat="45.2137" lon="0.7855">
        <ele>259.043</ele>
        <time>2019-08-04T07:17:48Z</time>
      </trkpt>
      <trkpt lat="45.21371" lon="0.78552">
        <ele>259.184</ele>
        <time>2019-08-04T07:17:55Z</time>
      </trkpt>
      <trkpt lat="45.21375" lon="0.78558">
        <ele>259.804</ele>
        <time>2019-08-04T07:18:58Z</time>
      </trkpt>
      <trkpt lat="45.21381" lon="0.78558">
        <ele>260.249</ele>
        <time>2019-08-04T07:19:01Z</time>
      </trkpt>
      <trkpt lat="45.21386" lon="0.78556">
        <ele>260.964</ele>
        <time>2019-08-04T07:19:03Z</time>
      </trkpt>
      <trkpt lat="45.21388" lon="0.78555">
        <ele>260.402</ele>
        <time>2019-08-04T07:19:04Z</time>
      </trkpt>
      <trkpt lat="45.21391" lon="0.78553">
        <ele>259.457</ele>
        <time>2019-08-04T07:19:05Z</time>
      </trkpt>
      <trkpt lat="45.21396" lon="0.78552">
        <ele>258.793</ele>
        <time>2019-08-04T07:19:06Z</time>
      </trkpt>
      <trkpt lat="45.214" lon="0.78551">
        <ele>259.799</ele>
        <time>2019-08-04T07:19:07Z</time>
      </trkpt>
      <trkpt lat="45.21407" lon="0.78552">
        <ele>259.055</ele>
        <time>2019-08-04T07:19:08Z</time>
      </trkpt>
      <trkpt lat="45.21417" lon="0.7855">
        <ele>257.241</ele>
        <time>2019-08-04T07:19:10Z</time>
      </trkpt>
      <trkpt lat="45.21428" lon="0.78553">
        <ele>256.926</ele>
        <time>2019-08-04T07:19:12Z</time>
      </trkpt>
      <trkpt lat="45.21435" lon="0.78556">
        <ele>257.379</ele>
        <time>2019-08-04T07:19:13Z</time>
      </trkpt>
      <trkpt lat="45.2144" lon="0.78558">
        <ele>257.333</ele>
        <time>2019-08-04T07:19:14Z</time>
      </trkpt>
      <trkpt lat="45.21446" lon="0.78559">
        <ele>257.452</ele>
        <time>2019-08-04T07:19:15Z</time>
      </trkpt>
      <trkpt lat="45.21456" lon="0.78569">
        <ele>256.389</ele>
        <time>2019-08-04T07:19:17Z</time>
      </trkpt>
      <trkpt lat="45.21465" lon="0.78573">
        <ele>256.633</ele>
        <time>2019-08-04T07:19:18Z</time>
      </trkpt>
      <trkpt lat="45.2147" lon="0.78578">
        <ele>255.027</ele>
        <time>2019-08-04T07:19:19Z</time>
      </trkpt>
      <trkpt lat="45.21476" lon="0.78583">
        <ele>253.863</ele>
        <time>2019-08-04T07:19:20Z</time>
      </trkpt>
      <trkpt lat="45.21482" lon="0.78586">
        <ele>252.412</ele>
        <time>2019-08-04T07:19:21Z</time>
      </trkpt>
      <trkpt lat="45.21489" lon="0.78588">
        <ele>252.927</ele>
        <time>2019-08-04T07:19:22Z</time>
      </trkpt>
      <trkpt lat="45.21495" lon="0.78591">
        <ele>253.652</ele>
        <time>2019-08-04T07:19:23Z</time>
      </trkpt>
      <trkpt lat="45.21509" lon="0.78599">
        <ele>254.411</ele>
        <time>2019-08-04T07:19:26Z</time>
      </trkpt>
      <trkpt lat="45.21517" lon="0.7861">
        <ele>253.421</ele>
        <time>2019-08-04T07:19:29Z</time>
      </trkpt>
      <trkpt lat="45.21514" lon="0.78621">
        <ele>252.77</ele>
        <time>2019-08-04T07:19:31Z</time>
      </trkpt>
      <trkpt lat="45.21508" lon="0.7863">
        <ele>252.299</ele>
        <time>2019-08-04T07:19:33Z</time>
      </trkpt>
      <trkpt lat="45.21502" lon="0.78636">
        <ele>252.042</ele>
        <time>2019-08-04T07:19:35Z</time>
      </trkpt>
      <trkpt lat="45.21495" lon="0.78643">
        <ele>252.609</ele>
        <time>2019-08-04T07:19:38Z</time>
      </trkpt>
      <trkpt lat="45.21489" lon="0.7865">
        <ele>253.484</ele>
        <time>2019-08-04T07:19:41Z</time>
      </trkpt>
      <trkpt lat="45.21487" lon="0.78653">
        <ele>253.799</ele>
        <time>2019-08-04T07:19:42Z</time>
      </trkpt>
      <trkpt lat="45.21485" lon="0.78656">
        <ele>252.886</ele>
        <time>2019-08-04T07:19:43Z</time>
      </trkpt>
      <trkpt lat="45.21478" lon="0.78664">
        <ele>253.555</ele>
        <time>2019-08-04T07:19:46Z</time>
      </trkpt>
      <trkpt lat="45.21476" lon="0.78667">
        <ele>253.838</ele>
        <time>2019-08-04T07:19:47Z</time>
      </trkpt>
      <trkpt lat="45.21474" lon="0.7867">
        <ele>254.39</ele>
        <time>2019-08-04T07:19:48Z</time>
      </trkpt>
      <trkpt lat="45.2147" lon="0.78677">
        <ele>254.165</ele>
        <time>2019-08-04T07:19:50Z</time>
      </trkpt>
      <trkpt lat="45.21465" lon="0.78685">
        <ele>251.569</ele>
        <time>2019-08-04T07:19:53Z</time>
      </trkpt>
      <trkpt lat="45.21462" lon="0.78689">
        <ele>251.527</ele>
        <time>2019-08-04T07:19:55Z</time>
      </trkpt>
      <trkpt lat="45.21455" lon="0.78696">
        <ele>252</ele>
        <time>2019-08-04T07:19:58Z</time>
      </trkpt>
      <trkpt lat="45.21453" lon="0.78697">
        <ele>251.749</ele>
        <time>2019-08-04T07:19:59Z</time>
      </trkpt>
      <trkpt lat="45.21449" lon="0.78706">
        <ele>254.578</ele>
        <time>2019-08-04T07:20:02Z</time>
      </trkpt>
      <trkpt lat="45.21447" lon="0.78709">
        <ele>253.801</ele>
        <time>2019-08-04T07:20:03Z</time>
      </trkpt>
      <trkpt lat="45.21446" lon="0.78713">
        <ele>256.116</ele>
        <time>2019-08-04T07:20:04Z</time>
      </trkpt>
      <trkpt lat="45.21444" lon="0.78716">
        <ele>256.42</ele>
        <time>2019-08-04T07:20:05Z</time>
      </trkpt>
      <trkpt lat="45.21443" lon="0.7872">
        <ele>257.172</ele>
        <time>2019-08-04T07:20:06Z</time>
      </trkpt>
      <trkpt lat="45.21441" lon="0.78727">
        <ele>257.661</ele>
        <time>2019-08-04T07:20:08Z</time>
      </trkpt>
      <trkpt lat="45.2144" lon="0.78731">
        <ele>258.56</ele>
        <time>2019-08-04T07:20:09Z</time>
      </trkpt>
      <trkpt lat="45.21439" lon="0.78735">
        <ele>259.152</ele>
        <time>2019-08-04T07:20:10Z</time>
      </trkpt>
      <trkpt lat="45.21438" lon="0.78739">
        <ele>258.952</ele>
        <time>2019-08-04T07:20:11Z</time>
      </trkpt>
      <trkpt lat="45.21436" lon="0.78748">
        <ele>258.542</ele>
        <time>2019-08-04T07:20:13Z</time>
      </trkpt>
      <trkpt lat="45.21435" lon="0.78753">
        <ele>258.624</ele>
        <time>2019-08-04T07:20:14Z</time>
      </trkpt>
      <trkpt lat="45.21434" lon="0.78757">
        <ele>258.865</ele>
        <time>2019-08-04T07:20:15Z</time>
      </trkpt>
      <trkpt lat="45.2143" lon="0.78768">
        <ele>258.792</ele>
        <time>2019-08-04T07:20:17Z</time>
      </trkpt>
      <trkpt lat="45.21428" lon="0.78773">
        <ele>258.541</ele>
        <time>2019-08-04T07:20:18Z</time>
      </trkpt>
      <trkpt lat="45.21426" lon="0.78778">
        <ele>258.659</ele>
        <time>2019-08-04T07:20:19Z</time>
      </trkpt>
      <trkpt lat="45.21418" lon="0.78798">
        <ele>258.853</ele>
        <time>2019-08-04T07:20:22Z</time>
      </trkpt>
      <trkpt lat="45.21415" lon="0.78805">
        <ele>258.911</ele>
        <time>2019-08-04T07:20:23Z</time>
      </trkpt>
      <trkpt lat="45.21405" lon="0.78822">
        <ele>257.827</ele>
        <time>2019-08-04T07:20:26Z</time>
      </trkpt>
      <trkpt lat="45.21402" lon="0.7883">
        <ele>257.817</ele>
        <time>2019-08-04T07:20:27Z</time>
      </trkpt>
      <trkpt lat="45.21398" lon="0.78838">
        <ele>257.344</ele>
        <time>2019-08-04T07:20:28Z</time>
      </trkpt>
      <trkpt lat="45.21394" lon="0.78845">
        <ele>256.76</ele>
        <time>2019-08-04T07:20:29Z</time>
      </trkpt>
      <trkpt lat="45.21391" lon="0.78854">
        <ele>256.885</ele>
        <time>2019-08-04T07:20:30Z</time>
      </trkpt>
      <trkpt lat="45.21386" lon="0.78864">
        <ele>256.102</ele>
        <time>2019-08-04T07:20:31Z</time>
      </trkpt>
      <trkpt lat="45.21371" lon="0.78894">
        <ele>253.653</ele>
        <time>2019-08-04T07:20:34Z</time>
      </trkpt>
      <trkpt lat="45.21366" lon="0.78906">
        <ele>253.258</ele>
        <time>2019-08-04T07:20:35Z</time>
      </trkpt>
      <trkpt lat="45.21337" lon="0.78966">
        <ele>250.385</ele>
        <time>2019-08-04T07:20:40Z</time>
      </trkpt>
      <trkpt lat="45.21331" lon="0.78978">
        <ele>250.121</ele>
        <time>2019-08-04T07:20:41Z</time>
      </trkpt>
      <trkpt lat="45.21325" lon="0.78989">
        <ele>249.556</ele>
        <time>2019-08-04T07:20:42Z</time>
      </trkpt>
      <trkpt lat="45.21322" lon="0.79003">
        <ele>241.803</ele>
        <time>2019-08-04T07:20:43Z</time>
      </trkpt>
      <trkpt lat="45.21315" lon="0.79029">
        <ele>245.91</ele>
        <time>2019-08-04T07:20:45Z</time>
      </trkpt>
      <trkpt lat="45.21309" lon="0.7904">
        <ele>246.22</ele>
        <time>2019-08-04T07:20:46Z</time>
      </trkpt>
      <trkpt lat="45.21305" lon="0.79053">
        <ele>246.026</ele>
        <time>2019-08-04T07:20:47Z</time>
      </trkpt>
      <trkpt lat="45.21302" lon="0.79066">
        <ele>246.184</ele>
        <time>2019-08-04T07:20:48Z</time>
      </trkpt>
      <trkpt lat="45.21298" lon="0.79079">
        <ele>245.945</ele>
        <time>2019-08-04T07:20:49Z</time>
      </trkpt>
      <trkpt lat="45.21295" lon="0.79092">
        <ele>245.732</ele>
        <time>2019-08-04T07:20:50Z</time>
      </trkpt>
      <trkpt lat="45.21292" lon="0.79104">
        <ele>246.296</ele>
        <time>2019-08-04T07:20:51Z</time>
      </trkpt>
      <trkpt lat="45.21288" lon="0.79116">
        <ele>246.244</ele>
        <time>2019-08-04T07:20:52Z</time>
      </trkpt>
      <trkpt lat="45.21284" lon="0.79128">
        <ele>246.197</ele>
        <time>2019-08-04T07:20:53Z</time>
      </trkpt>
      <trkpt lat="45.2128" lon="0.7914">
        <ele>245.9</ele>
        <time>2019-08-04T07:20:54Z</time>
      </trkpt>
      <trkpt lat="45.21275" lon="0.79151">
        <ele>245.434</ele>
        <time>2019-08-04T07:20:55Z</time>
      </trkpt>
      <trkpt lat="45.2127" lon="0.7916">
        <ele>244.688</ele>
        <time>2019-08-04T07:20:56Z</time>
      </trkpt>
      <trkpt lat="45.21266" lon="0.79171">
        <ele>244.111</ele>
        <time>2019-08-04T07:20:57Z</time>
      </trkpt>
      <trkpt lat="45.21263" lon="0.79182">
        <ele>243.802</ele>
        <time>2019-08-04T07:20:58Z</time>
      </trkpt>
      <trkpt lat="45.21259" lon="0.79192">
        <ele>243.431</ele>
        <time>2019-08-04T07:20:59Z</time>
      </trkpt>
      <trkpt lat="45.21246" lon="0.79231">
        <ele>244.007</ele>
        <time>2019-08-04T07:21:03Z</time>
      </trkpt>
      <trkpt lat="45.21243" lon="0.79241">
        <ele>244.586</ele>
        <time>2019-08-04T07:21:04Z</time>
      </trkpt>
      <trkpt lat="45.2124" lon="0.79251">
        <ele>243.144</ele>
        <time>2019-08-04T07:21:05Z</time>
      </trkpt>
      <trkpt lat="45.21237" lon="0.79262">
        <ele>243.25</ele>
        <time>2019-08-04T07:21:06Z</time>
      </trkpt>
      <trkpt lat="45.21233" lon="0.79271">
        <ele>242.779</ele>
        <time>2019-08-04T07:21:07Z</time>
      </trkpt>
      <trkpt lat="45.2122" lon="0.79299">
        <ele>243.176</ele>
        <time>2019-08-04T07:21:10Z</time>
      </trkpt>
      <trkpt lat="45.21216" lon="0.79309">
        <ele>242.453</ele>
        <time>2019-08-04T07:21:11Z</time>
      </trkpt>
      <trkpt lat="45.21211" lon="0.79319">
        <ele>242.252</ele>
        <time>2019-08-04T07:21:12Z</time>
      </trkpt>
      <trkpt lat="45.21202" lon="0.79348">
        <ele>242.287</ele>
        <time>2019-08-04T07:21:15Z</time>
      </trkpt>
      <trkpt lat="45.21199" lon="0.79358">
        <ele>241.669</ele>
        <time>2019-08-04T07:21:16Z</time>
      </trkpt>
      <trkpt lat="45.21194" lon="0.79363">
        <ele>241.293</ele>
        <time>2019-08-04T07:21:17Z</time>
      </trkpt>
      <trkpt lat="45.21189" lon="0.79368">
        <ele>240.738</ele>
        <time>2019-08-04T07:21:18Z</time>
      </trkpt>
      <trkpt lat="45.21185" lon="0.79372">
        <ele>241.026</ele>
        <time>2019-08-04T07:21:19Z</time>
      </trkpt>
      <trkpt lat="45.21177" lon="0.79382">
        <ele>241.94</ele>
        <time>2019-08-04T07:21:21Z</time>
      </trkpt>
      <trkpt lat="45.21174" lon="0.79387">
        <ele>241.743</ele>
        <time>2019-08-04T07:21:22Z</time>
      </trkpt>
      <trkpt lat="45.2117" lon="0.79392">
        <ele>242.11</ele>
        <time>2019-08-04T07:21:23Z</time>
      </trkpt>
      <trkpt lat="45.21158" lon="0.79408">
        <ele>237.147</ele>
        <time>2019-08-04T07:21:26Z</time>
      </trkpt>
      <trkpt lat="45.21153" lon="0.79413">
        <ele>237.72</ele>
        <time>2019-08-04T07:21:27Z</time>
      </trkpt>
      <trkpt lat="45.2115" lon="0.79419">
        <ele>237.63</ele>
        <time>2019-08-04T07:21:28Z</time>
      </trkpt>
      <trkpt lat="45.21146" lon="0.7943">
        <ele>237.313</ele>
        <time>2019-08-04T07:21:30Z</time>
      </trkpt>
      <trkpt lat="45.21136" lon="0.79448">
        <ele>236.775</ele>
        <time>2019-08-04T07:21:33Z</time>
      </trkpt>
      <trkpt lat="45.21127" lon="0.79475">
        <ele>231.348</ele>
        <time>2019-08-04T07:21:36Z</time>
      </trkpt>
      <trkpt lat="45.21122" lon="0.79482">
        <ele>233.463</ele>
        <time>2019-08-04T07:21:37Z</time>
      </trkpt>
      <trkpt lat="45.21117" lon="0.79493">
        <ele>234.991</ele>
        <time>2019-08-04T07:21:39Z</time>
      </trkpt>
      <trkpt lat="45.21118" lon="0.79536">
        <ele>229.285</ele>
        <time>2019-08-04T07:21:45Z</time>
      </trkpt>
      <trkpt lat="45.21129" lon="0.79537">
        <ele>224.337</ele>
        <time>2019-08-04T07:21:50Z</time>
      </trkpt>
      <trkpt lat="45.21139" lon="0.79541">
        <ele>223.465</ele>
        <time>2019-08-04T07:21:53Z</time>
      </trkpt>
      <trkpt lat="45.21144" lon="0.79546">
        <ele>222.778</ele>
        <time>2019-08-04T07:21:55Z</time>
      </trkpt>
      <trkpt lat="45.21149" lon="0.79549">
        <ele>220.141</ele>
        <time>2019-08-04T07:21:57Z</time>
      </trkpt>
      <trkpt lat="45.21154" lon="0.79555">
        <ele>217.334</ele>
        <time>2019-08-04T07:21:59Z</time>
      </trkpt>
      <trkpt lat="45.21175" lon="0.79574">
        <ele>214.588</ele>
        <time>2019-08-04T07:22:03Z</time>
      </trkpt>
      <trkpt lat="45.2118" lon="0.79581">
        <ele>213.545</ele>
        <time>2019-08-04T07:22:04Z</time>
      </trkpt>
      <trkpt lat="45.21188" lon="0.79591">
        <ele>214.674</ele>
        <time>2019-08-04T07:22:06Z</time>
      </trkpt>
      <trkpt lat="45.21192" lon="0.79596">
        <ele>216.095</ele>
        <time>2019-08-04T07:22:07Z</time>
      </trkpt>
      <trkpt lat="45.21198" lon="0.796">
        <ele>216.459</ele>
        <time>2019-08-04T07:22:08Z</time>
      </trkpt>
      <trkpt lat="45.21202" lon="0.79605">
        <ele>216.831</ele>
        <time>2019-08-04T07:22:09Z</time>
      </trkpt>
      <trkpt lat="45.21204" lon="0.79611">
        <ele>217.549</ele>
        <time>2019-08-04T07:22:10Z</time>
      </trkpt>
      <trkpt lat="45.21206" lon="0.79616">
        <ele>216.165</ele>
        <time>2019-08-04T07:22:11Z</time>
      </trkpt>
      <trkpt lat="45.21208" lon="0.79622">
        <ele>216.94</ele>
        <time>2019-08-04T07:22:12Z</time>
      </trkpt>
      <trkpt lat="45.21209" lon="0.79629">
        <ele>217.518</ele>
        <time>2019-08-04T07:22:13Z</time>
      </trkpt>
      <trkpt lat="45.21211" lon="0.79636">
        <ele>218.02</ele>
        <time>2019-08-04T07:22:14Z</time>
      </trkpt>
      <trkpt lat="45.21213" lon="0.79644">
        <ele>218.525</ele>
        <time>2019-08-04T07:22:15Z</time>
      </trkpt>
      <trkpt lat="45.21215" lon="0.7966">
        <ele>219.57</ele>
        <time>2019-08-04T07:22:17Z</time>
      </trkpt>
      <trkpt lat="45.21217" lon="0.79666">
        <ele>219.619</ele>
        <time>2019-08-04T07:22:18Z</time>
      </trkpt>
      <trkpt lat="45.2122" lon="0.79675">
        <ele>221.013</ele>
        <time>2019-08-04T07:22:19Z</time>
      </trkpt>
      <trkpt lat="45.21229" lon="0.79699">
        <ele>218.732</ele>
        <time>2019-08-04T07:22:22Z</time>
      </trkpt>
      <trkpt lat="45.21232" lon="0.79705">
        <ele>218.425</ele>
        <time>2019-08-04T07:22:23Z</time>
      </trkpt>
      <trkpt lat="45.21242" lon="0.79721">
        <ele>213.635</ele>
        <time>2019-08-04T07:22:26Z</time>
      </trkpt>
      <trkpt lat="45.21244" lon="0.79725">
        <ele>213.034</ele>
        <time>2019-08-04T07:22:27Z</time>
      </trkpt>
      <trkpt lat="45.21253" lon="0.79727">
        <ele>212.241</ele>
        <time>2019-08-04T07:22:30Z</time>
      </trkpt>
      <trkpt lat="45.21257" lon="0.79725">
        <ele>211.071</ele>
        <time>2019-08-04T07:22:32Z</time>
      </trkpt>
      <trkpt lat="45.21265" lon="0.79725">
        <ele>208.827</ele>
        <time>2019-08-04T07:22:35Z</time>
      </trkpt>
      <trkpt lat="45.21271" lon="0.79726">
        <ele>210.732</ele>
        <time>2019-08-04T07:22:38Z</time>
      </trkpt>
      <trkpt lat="45.21277" lon="0.79724">
        <ele>211.941</ele>
        <time>2019-08-04T07:22:42Z</time>
      </trkpt>
      <trkpt lat="45.21282" lon="0.79724">
        <ele>212.905</ele>
        <time>2019-08-04T07:22:47Z</time>
      </trkpt>
      <trkpt lat="45.21287" lon="0.79723">
        <ele>213.856</ele>
        <time>2019-08-04T07:22:50Z</time>
      </trkpt>
      <trkpt lat="45.21292" lon="0.79722">
        <ele>226.106</ele>
        <time>2019-08-04T07:22:53Z</time>
      </trkpt>
      <trkpt lat="45.21299" lon="0.79717">
        <ele>219.736</ele>
        <time>2019-08-04T07:22:58Z</time>
      </trkpt>
      <trkpt lat="45.21305" lon="0.79715">
        <ele>216.187</ele>
        <time>2019-08-04T07:23:03Z</time>
      </trkpt>
      <trkpt lat="45.21312" lon="0.79716">
        <ele>217.522</ele>
        <time>2019-08-04T07:23:06Z</time>
      </trkpt>
      <trkpt lat="45.21319" lon="0.79715">
        <ele>217.898</ele>
        <time>2019-08-04T07:23:09Z</time>
      </trkpt>
      <trkpt lat="45.21323" lon="0.79715">
        <ele>221.117</ele>
        <time>2019-08-04T07:23:11Z</time>
      </trkpt>
      <trkpt lat="45.21327" lon="0.79715">
        <ele>221.992</ele>
        <time>2019-08-04T07:23:13Z</time>
      </trkpt>
      <trkpt lat="45.21334" lon="0.79716">
        <ele>222.434</ele>
        <time>2019-08-04T07:23:17Z</time>
      </trkpt>
      <trkpt lat="45.21337" lon="0.79717">
        <ele>223.713</ele>
        <time>2019-08-04T07:23:19Z</time>
      </trkpt>
      <trkpt lat="45.21343" lon="0.79717">
        <ele>224.313</ele>
        <time>2019-08-04T07:23:22Z</time>
      </trkpt>
      <trkpt lat="45.21348" lon="0.79717">
        <ele>224.16</ele>
        <time>2019-08-04T07:23:25Z</time>
      </trkpt>
      <trkpt lat="45.21352" lon="0.79716">
        <ele>223.911</ele>
        <time>2019-08-04T07:23:27Z</time>
      </trkpt>
      <trkpt lat="45.21356" lon="0.79716">
        <ele>223.253</ele>
        <time>2019-08-04T07:23:29Z</time>
      </trkpt>
      <trkpt lat="45.21363" lon="0.79716">
        <ele>223.93</ele>
        <time>2019-08-04T07:23:33Z</time>
      </trkpt>
      <trkpt lat="45.21367" lon="0.79716">
        <ele>223.449</ele>
        <time>2019-08-04T07:23:35Z</time>
      </trkpt>
      <trkpt lat="45.21371" lon="0.79716">
        <ele>223.76</ele>
        <time>2019-08-04T07:23:37Z</time>
      </trkpt>
      <trkpt lat="45.21376" lon="0.79715">
        <ele>223.565</ele>
        <time>2019-08-04T07:23:40Z</time>
      </trkpt>
      <trkpt lat="45.21383" lon="0.79712">
        <ele>223.937</ele>
        <time>2019-08-04T07:23:45Z</time>
      </trkpt>
      <trkpt lat="45.21387" lon="0.79721">
        <ele>224.475</ele>
        <time>2019-08-04T07:23:53Z</time>
      </trkpt>
      <trkpt lat="45.21389" lon="0.79728">
        <ele>225.829</ele>
        <time>2019-08-04T07:23:55Z</time>
      </trkpt>
      <trkpt lat="45.21396" lon="0.79746">
        <ele>225.122</ele>
        <time>2019-08-04T07:23:59Z</time>
      </trkpt>
      <trkpt lat="45.214" lon="0.79754">
        <ele>224.186</ele>
        <time>2019-08-04T07:24:01Z</time>
      </trkpt>
      <trkpt lat="45.21402" lon="0.79764">
        <ele>224.529</ele>
        <time>2019-08-04T07:24:03Z</time>
      </trkpt>
      <trkpt lat="45.21407" lon="0.79779">
        <ele>223.562</ele>
        <time>2019-08-04T07:24:06Z</time>
      </trkpt>
      <trkpt lat="45.21411" lon="0.79788">
        <ele>222.754</ele>
        <time>2019-08-04T07:24:08Z</time>
      </trkpt>
      <trkpt lat="45.21415" lon="0.79794">
        <ele>223.368</ele>
        <time>2019-08-04T07:24:10Z</time>
      </trkpt>
      <trkpt lat="45.21421" lon="0.79797">
        <ele>223.91</ele>
        <time>2019-08-04T07:24:12Z</time>
      </trkpt>
      <trkpt lat="45.21428" lon="0.79795">
        <ele>224.117</ele>
        <time>2019-08-04T07:24:14Z</time>
      </trkpt>
      <trkpt lat="45.21433" lon="0.79793">
        <ele>225.42</ele>
        <time>2019-08-04T07:24:15Z</time>
      </trkpt>
      <trkpt lat="45.21437" lon="0.79791">
        <ele>224.404</ele>
        <time>2019-08-04T07:24:16Z</time>
      </trkpt>
      <trkpt lat="45.21441" lon="0.7979">
        <ele>223.625</ele>
        <time>2019-08-04T07:24:17Z</time>
      </trkpt>
      <trkpt lat="45.21444" lon="0.79788">
        <ele>222.62</ele>
        <time>2019-08-04T07:24:18Z</time>
      </trkpt>
      <trkpt lat="45.21451" lon="0.79784">
        <ele>221.477</ele>
        <time>2019-08-04T07:24:20Z</time>
      </trkpt>
      <trkpt lat="45.21461" lon="0.79781">
        <ele>218.725</ele>
        <time>2019-08-04T07:24:23Z</time>
      </trkpt>
      <trkpt lat="45.21465" lon="0.7978">
        <ele>217.92</ele>
        <time>2019-08-04T07:24:24Z</time>
      </trkpt>
      <trkpt lat="45.21468" lon="0.79779">
        <ele>217.286</ele>
        <time>2019-08-04T07:24:25Z</time>
      </trkpt>
      <trkpt lat="45.21472" lon="0.79778">
        <ele>216.384</ele>
        <time>2019-08-04T07:24:26Z</time>
      </trkpt>
      <trkpt lat="45.21479" lon="0.79776">
        <ele>217.983</ele>
        <time>2019-08-04T07:24:28Z</time>
      </trkpt>
      <trkpt lat="45.21483" lon="0.79775">
        <ele>218.131</ele>
        <time>2019-08-04T07:24:29Z</time>
      </trkpt>
      <trkpt lat="45.21491" lon="0.79774">
        <ele>216.116</ele>
        <time>2019-08-04T07:24:31Z</time>
      </trkpt>
      <trkpt lat="45.21495" lon="0.79774">
        <ele>216.957</ele>
        <time>2019-08-04T07:24:32Z</time>
      </trkpt>
      <trkpt lat="45.21499" lon="0.79775">
        <ele>216.476</ele>
        <time>2019-08-04T07:24:33Z</time>
      </trkpt>
      <trkpt lat="45.21503" lon="0.79777">
        <ele>217.843</ele>
        <time>2019-08-04T07:24:35Z</time>
      </trkpt>
      <trkpt lat="45.21507" lon="0.79777">
        <ele>215.842</ele>
        <time>2019-08-04T07:24:42Z</time>
      </trkpt>
      <trkpt lat="45.21504" lon="0.79772">
        <ele>223.409</ele>
        <time>2019-08-04T07:30:46Z</time>
      </trkpt>
      <trkpt lat="45.21502" lon="0.79769">
        <ele>222.565</ele>
        <time>2019-08-04T07:30:55Z</time>
      </trkpt>
      <trkpt lat="45.215" lon="0.79765">
        <ele>221.766</ele>
        <time>2019-08-04T07:30:56Z</time>
      </trkpt>
      <trkpt lat="45.21498" lon="0.79756">
        <ele>213.548</ele>
        <time>2019-08-04T07:30:58Z</time>
      </trkpt>
      <trkpt lat="45.21496" lon="0.79733">
        <ele>208.794</ele>
        <time>2019-08-04T07:31:01Z</time>
      </trkpt>
      <trkpt lat="45.21498" lon="0.7972">
        <ele>209.074</ele>
        <time>2019-08-04T07:31:03Z</time>
      </trkpt>
      <trkpt lat="45.21501" lon="0.79708">
        <ele>208.236</ele>
        <time>2019-08-04T07:31:05Z</time>
      </trkpt>
      <trkpt lat="45.21502" lon="0.79703">
        <ele>207.395</ele>
        <time>2019-08-04T07:31:06Z</time>
      </trkpt>
      <trkpt lat="45.21504" lon="0.79697">
        <ele>206.519</ele>
        <time>2019-08-04T07:31:07Z</time>
      </trkpt>
      <trkpt lat="45.21508" lon="0.79687">
        <ele>203.843</ele>
        <time>2019-08-04T07:31:09Z</time>
      </trkpt>
      <trkpt lat="45.2151" lon="0.79682">
        <ele>204.576</ele>
        <time>2019-08-04T07:31:10Z</time>
      </trkpt>
      <trkpt lat="45.21513" lon="0.79678">
        <ele>204.705</ele>
        <time>2019-08-04T07:31:11Z</time>
      </trkpt>
      <trkpt lat="45.21518" lon="0.79672">
        <ele>203.581</ele>
        <time>2019-08-04T07:31:13Z</time>
      </trkpt>
      <trkpt lat="45.21523" lon="0.79668">
        <ele>206.138</ele>
        <time>2019-08-04T07:31:15Z</time>
      </trkpt>
      <trkpt lat="45.21525" lon="0.79667">
        <ele>207.765</ele>
        <time>2019-08-04T07:31:16Z</time>
      </trkpt>
      <trkpt lat="45.2153" lon="0.79666">
        <ele>207.746</ele>
        <time>2019-08-04T07:31:18Z</time>
      </trkpt>
      <trkpt lat="45.21535" lon="0.79668">
        <ele>207.988</ele>
        <time>2019-08-04T07:31:20Z</time>
      </trkpt>
      <trkpt lat="45.21543" lon="0.79678">
        <ele>206.476</ele>
        <time>2019-08-04T07:31:23Z</time>
      </trkpt>
      <trkpt lat="45.2155" lon="0.7969">
        <ele>203.854</ele>
        <time>2019-08-04T07:31:26Z</time>
      </trkpt>
      <trkpt lat="45.21552" lon="0.79694">
        <ele>203.145</ele>
        <time>2019-08-04T07:31:27Z</time>
      </trkpt>
      <trkpt lat="45.21559" lon="0.79701">
        <ele>201.542</ele>
        <time>2019-08-04T07:31:29Z</time>
      </trkpt>
      <trkpt lat="45.21571" lon="0.79711">
        <ele>201.674</ele>
        <time>2019-08-04T07:31:32Z</time>
      </trkpt>
      <trkpt lat="45.21589" lon="0.79729">
        <ele>198.864</ele>
        <time>2019-08-04T07:31:35Z</time>
      </trkpt>
      <trkpt lat="45.21594" lon="0.79732">
        <ele>199.118</ele>
        <time>2019-08-04T07:31:36Z</time>
      </trkpt>
      <trkpt lat="45.21602" lon="0.7974">
        <ele>200.347</ele>
        <time>2019-08-04T07:31:38Z</time>
      </trkpt>
      <trkpt lat="45.21605" lon="0.79746">
        <ele>200.639</ele>
        <time>2019-08-04T07:31:39Z</time>
      </trkpt>
      <trkpt lat="45.21608" lon="0.79751">
        <ele>200.521</ele>
        <time>2019-08-04T07:31:40Z</time>
      </trkpt>
      <trkpt lat="45.21614" lon="0.79763">
        <ele>199.519</ele>
        <time>2019-08-04T07:31:43Z</time>
      </trkpt>
      <trkpt lat="45.21622" lon="0.79776">
        <ele>198.522</ele>
        <time>2019-08-04T07:31:47Z</time>
      </trkpt>
      <trkpt lat="45.21627" lon="0.7979">
        <ele>206.739</ele>
        <time>2019-08-04T07:31:51Z</time>
      </trkpt>
      <trkpt lat="45.21636" lon="0.79807">
        <ele>203.877</ele>
        <time>2019-08-04T07:31:55Z</time>
      </trkpt>
      <trkpt lat="45.21642" lon="0.79815">
        <ele>203.525</ele>
        <time>2019-08-04T07:31:57Z</time>
      </trkpt>
      <trkpt lat="45.21645" lon="0.79819">
        <ele>202.766</ele>
        <time>2019-08-04T07:31:58Z</time>
      </trkpt>
      <trkpt lat="45.21653" lon="0.7983">
        <ele>201.245</ele>
        <time>2019-08-04T07:32:00Z</time>
      </trkpt>
      <trkpt lat="45.21656" lon="0.79834">
        <ele>201.096</ele>
        <time>2019-08-04T07:32:01Z</time>
      </trkpt>
      <trkpt lat="45.21659" lon="0.79838">
        <ele>201.016</ele>
        <time>2019-08-04T07:32:02Z</time>
      </trkpt>
      <trkpt lat="45.21665" lon="0.79843">
        <ele>200.51</ele>
        <time>2019-08-04T07:32:04Z</time>
      </trkpt>
      <trkpt lat="45.21667" lon="0.79845">
        <ele>200.081</ele>
        <time>2019-08-04T07:32:05Z</time>
      </trkpt>
      <trkpt lat="45.21672" lon="0.79851">
        <ele>198.66</ele>
        <time>2019-08-04T07:32:07Z</time>
      </trkpt>
      <trkpt lat="45.21678" lon="0.79858">
        <ele>198.284</ele>
        <time>2019-08-04T07:32:09Z</time>
      </trkpt>
      <trkpt lat="45.21685" lon="0.79864">
        <ele>197.05</ele>
        <time>2019-08-04T07:32:11Z</time>
      </trkpt>
      <trkpt lat="45.21689" lon="0.79869">
        <ele>195.992</ele>
        <time>2019-08-04T07:32:12Z</time>
      </trkpt>
      <trkpt lat="45.21693" lon="0.79873">
        <ele>196.864</ele>
        <time>2019-08-04T07:32:13Z</time>
      </trkpt>
      <trkpt lat="45.21697" lon="0.79877">
        <ele>197.016</ele>
        <time>2019-08-04T07:32:14Z</time>
      </trkpt>
      <trkpt lat="45.21701" lon="0.79881">
        <ele>196.294</ele>
        <time>2019-08-04T07:32:15Z</time>
      </trkpt>
      <trkpt lat="45.21705" lon="0.79885">
        <ele>196.089</ele>
        <time>2019-08-04T07:32:16Z</time>
      </trkpt>
      <trkpt lat="45.21708" lon="0.79887">
        <ele>196.236</ele>
        <time>2019-08-04T07:32:17Z</time>
      </trkpt>
      <trkpt lat="45.21712" lon="0.7989">
        <ele>196.632</ele>
        <time>2019-08-04T07:32:18Z</time>
      </trkpt>
      <trkpt lat="45.21716" lon="0.79893">
        <ele>196.089</ele>
        <time>2019-08-04T07:32:19Z</time>
      </trkpt>
      <trkpt lat="45.21719" lon="0.79895">
        <ele>196.511</ele>
        <time>2019-08-04T07:32:20Z</time>
      </trkpt>
      <trkpt lat="45.21729" lon="0.79903">
        <ele>188.62</ele>
        <time>2019-08-04T07:32:23Z</time>
      </trkpt>
      <trkpt lat="45.21733" lon="0.79905">
        <ele>189.288</ele>
        <time>2019-08-04T07:32:24Z</time>
      </trkpt>
      <trkpt lat="45.2174" lon="0.7991">
        <ele>190.442</ele>
        <time>2019-08-04T07:32:26Z</time>
      </trkpt>
      <trkpt lat="45.21744" lon="0.79912">
        <ele>189.181</ele>
        <time>2019-08-04T07:32:27Z</time>
      </trkpt>
      <trkpt lat="45.21746" lon="0.79915">
        <ele>188.917</ele>
        <time>2019-08-04T07:32:28Z</time>
      </trkpt>
      <trkpt lat="45.21752" lon="0.79919">
        <ele>188.89</ele>
        <time>2019-08-04T07:32:30Z</time>
      </trkpt>
      <trkpt lat="45.21754" lon="0.79922">
        <ele>188.211</ele>
        <time>2019-08-04T07:32:31Z</time>
      </trkpt>
      <trkpt lat="45.21757" lon="0.79926">
        <ele>189.233</ele>
        <time>2019-08-04T07:32:32Z</time>
      </trkpt>
      <trkpt lat="45.21764" lon="0.79937">
        <ele>190.978</ele>
        <time>2019-08-04T07:32:35Z</time>
      </trkpt>
      <trkpt lat="45.21767" lon="0.79941">
        <ele>190.919</ele>
        <time>2019-08-04T07:32:36Z</time>
      </trkpt>
      <trkpt lat="45.21771" lon="0.79947">
        <ele>190.027</ele>
        <time>2019-08-04T07:32:37Z</time>
      </trkpt>
      <trkpt lat="45.21774" lon="0.79951">
        <ele>191.308</ele>
        <time>2019-08-04T07:32:38Z</time>
      </trkpt>
      <trkpt lat="45.21777" lon="0.79955">
        <ele>190.897</ele>
        <time>2019-08-04T07:32:39Z</time>
      </trkpt>
      <trkpt lat="45.2178" lon="0.79962">
        <ele>192.032</ele>
        <time>2019-08-04T07:32:41Z</time>
      </trkpt>
      <trkpt lat="45.21782" lon="0.79968">
        <ele>191.921</ele>
        <time>2019-08-04T07:32:43Z</time>
      </trkpt>
      <trkpt lat="45.21783" lon="0.79972">
        <ele>190.368</ele>
        <time>2019-08-04T07:32:44Z</time>
      </trkpt>
      <trkpt lat="45.21784" lon="0.7998">
        <ele>189.032</ele>
        <time>2019-08-04T07:32:46Z</time>
      </trkpt>
      <trkpt lat="45.21785" lon="0.79985">
        <ele>189.561</ele>
        <time>2019-08-04T07:32:47Z</time>
      </trkpt>
      <trkpt lat="45.21789" lon="0.79997">
        <ele>189.248</ele>
        <time>2019-08-04T07:32:50Z</time>
      </trkpt>
      <trkpt lat="45.21791" lon="0.80004">
        <ele>189.776</ele>
        <time>2019-08-04T07:32:52Z</time>
      </trkpt>
      <trkpt lat="45.21795" lon="0.80013">
        <ele>189.145</ele>
        <time>2019-08-04T07:32:54Z</time>
      </trkpt>
      <trkpt lat="45.21796" lon="0.80017">
        <ele>187.562</ele>
        <time>2019-08-04T07:32:55Z</time>
      </trkpt>
      <trkpt lat="45.21799" lon="0.80028">
        <ele>188.429</ele>
        <time>2019-08-04T07:32:58Z</time>
      </trkpt>
      <trkpt lat="45.21803" lon="0.80037">
        <ele>186.394</ele>
        <time>2019-08-04T07:33:00Z</time>
      </trkpt>
      <trkpt lat="45.21812" lon="0.80051">
        <ele>187.126</ele>
        <time>2019-08-04T07:33:03Z</time>
      </trkpt>
      <trkpt lat="45.21816" lon="0.80061">
        <ele>186.558</ele>
        <time>2019-08-04T07:33:06Z</time>
      </trkpt>
      <trkpt lat="45.21817" lon="0.80065">
        <ele>187.392</ele>
        <time>2019-08-04T07:33:07Z</time>
      </trkpt>
      <trkpt lat="45.21819" lon="0.80069">
        <ele>186.727</ele>
        <time>2019-08-04T07:33:08Z</time>
      </trkpt>
      <trkpt lat="45.21821" lon="0.80075">
        <ele>186.535</ele>
        <time>2019-08-04T07:33:10Z</time>
      </trkpt>
      <trkpt lat="45.21823" lon="0.80079">
        <ele>185.917</ele>
        <time>2019-08-04T07:33:11Z</time>
      </trkpt>
      <trkpt lat="45.21824" lon="0.80084">
        <ele>187.377</ele>
        <time>2019-08-04T07:33:12Z</time>
      </trkpt>
      <trkpt lat="45.21828" lon="0.8009">
        <ele>188.005</ele>
        <time>2019-08-04T07:33:14Z</time>
      </trkpt>
      <trkpt lat="45.2183" lon="0.80093">
        <ele>188.585</ele>
        <time>2019-08-04T07:33:15Z</time>
      </trkpt>
      <trkpt lat="45.21832" lon="0.80096">
        <ele>189.678</ele>
        <time>2019-08-04T07:33:16Z</time>
      </trkpt>
      <trkpt lat="45.21836" lon="0.80105">
        <ele>191.084</ele>
        <time>2019-08-04T07:33:18Z</time>
      </trkpt>
      <trkpt lat="45.21837" lon="0.80109">
        <ele>189.085</ele>
        <time>2019-08-04T07:33:19Z</time>
      </trkpt>
      <trkpt lat="45.21839" lon="0.80113">
        <ele>189.704</ele>
        <time>2019-08-04T07:33:20Z</time>
      </trkpt>
      <trkpt lat="45.2184" lon="0.80117">
        <ele>189.852</ele>
        <time>2019-08-04T07:33:21Z</time>
      </trkpt>
      <trkpt lat="45.21843" lon="0.80128">
        <ele>190.053</ele>
        <time>2019-08-04T07:33:23Z</time>
      </trkpt>
      <trkpt lat="45.21844" lon="0.80134">
        <ele>189.137</ele>
        <time>2019-08-04T07:33:24Z</time>
      </trkpt>
      <trkpt lat="45.21847" lon="0.80149">
        <ele>190.35</ele>
        <time>2019-08-04T07:33:27Z</time>
      </trkpt>
      <trkpt lat="45.21843" lon="0.80156">
        <ele>190.142</ele>
        <time>2019-08-04T07:33:30Z</time>
      </trkpt>
      <trkpt lat="45.2184" lon="0.80163">
        <ele>189.935</ele>
        <time>2019-08-04T07:33:33Z</time>
      </trkpt>
      <trkpt lat="45.2184" lon="0.80173">
        <ele>188.277</ele>
        <time>2019-08-04T07:33:36Z</time>
      </trkpt>
      <trkpt lat="45.21843" lon="0.80181">
        <ele>184.111</ele>
        <time>2019-08-04T07:33:39Z</time>
      </trkpt>
      <trkpt lat="45.21843" lon="0.80181">
        <ele>184.111</ele>
        <time>2019-08-04T07:33:47Z</time>
      </trkpt>
      <trkpt lat="45.21843" lon="0.80181">
        <ele>184.111</ele>
        <time>2019-08-04T07:33:48Z</time>
      </trkpt>
      <trkpt lat="45.21841" lon="0.80188">
        <ele>184.249</ele>
        <time>2019-08-04T07:36:36Z</time>
      </trkpt>
      <trkpt lat="45.21843" lon="0.80195">
        <ele>185.625</ele>
        <time>2019-08-04T07:36:38Z</time>
      </trkpt>
      <trkpt lat="45.21845" lon="0.80198">
        <ele>184.466</ele>
        <time>2019-08-04T07:36:39Z</time>
      </trkpt>
      <trkpt lat="45.21846" lon="0.80202">
        <ele>183.676</ele>
        <time>2019-08-04T07:36:40Z</time>
      </trkpt>
      <trkpt lat="45.21851" lon="0.8021">
        <ele>183.949</ele>
        <time>2019-08-04T07:36:42Z</time>
      </trkpt>
      <trkpt lat="45.21853" lon="0.80214">
        <ele>184.665</ele>
        <time>2019-08-04T07:36:43Z</time>
      </trkpt>
      <trkpt lat="45.21855" lon="0.80218">
        <ele>184.426</ele>
        <time>2019-08-04T07:36:44Z</time>
      </trkpt>
      <trkpt lat="45.21858" lon="0.80231">
        <ele>182.999</ele>
        <time>2019-08-04T07:36:47Z</time>
      </trkpt>
      <trkpt lat="45.21859" lon="0.80241">
        <ele>181.091</ele>
        <time>2019-08-04T07:36:49Z</time>
      </trkpt>
      <trkpt lat="45.21861" lon="0.80258">
        <ele>180.473</ele>
        <time>2019-08-04T07:36:52Z</time>
      </trkpt>
      <trkpt lat="45.21862" lon="0.80265">
        <ele>181.398</ele>
        <time>2019-08-04T07:36:53Z</time>
      </trkpt>
      <trkpt lat="45.21863" lon="0.80271">
        <ele>181.001</ele>
        <time>2019-08-04T07:36:54Z</time>
      </trkpt>
      <trkpt lat="45.21864" lon="0.80276">
        <ele>180.83</ele>
        <time>2019-08-04T07:36:55Z</time>
      </trkpt>
      <trkpt lat="45.21865" lon="0.80281">
        <ele>179.861</ele>
        <time>2019-08-04T07:36:56Z</time>
      </trkpt>
      <trkpt lat="45.21867" lon="0.80291">
        <ele>179.271</ele>
        <time>2019-08-04T07:36:58Z</time>
      </trkpt>
      <trkpt lat="45.21867" lon="0.80306">
        <ele>178.392</ele>
        <time>2019-08-04T07:37:01Z</time>
      </trkpt>
      <trkpt lat="45.21867" lon="0.80311">
        <ele>179.402</ele>
        <time>2019-08-04T07:37:02Z</time>
      </trkpt>
      <trkpt lat="45.21867" lon="0.80315">
        <ele>179.244</ele>
        <time>2019-08-04T07:37:03Z</time>
      </trkpt>
      <trkpt lat="45.21867" lon="0.80324">
        <ele>176.284</ele>
        <time>2019-08-04T07:37:05Z</time>
      </trkpt>
      <trkpt lat="45.21867" lon="0.80334">
        <ele>174.958</ele>
        <time>2019-08-04T07:37:07Z</time>
      </trkpt>
      <trkpt lat="45.21867" lon="0.8034">
        <ele>174.53</ele>
        <time>2019-08-04T07:37:08Z</time>
      </trkpt>
      <trkpt lat="45.21866" lon="0.80345">
        <ele>174.878</ele>
        <time>2019-08-04T07:37:09Z</time>
      </trkpt>
      <trkpt lat="45.21865" lon="0.80354">
        <ele>175.628</ele>
        <time>2019-08-04T07:37:11Z</time>
      </trkpt>
      <trkpt lat="45.21864" lon="0.80359">
        <ele>175.232</ele>
        <time>2019-08-04T07:37:12Z</time>
      </trkpt>
      <trkpt lat="45.21864" lon="0.80363">
        <ele>173.466</ele>
        <time>2019-08-04T07:37:13Z</time>
      </trkpt>
      <trkpt lat="45.21863" lon="0.80368">
        <ele>173.913</ele>
        <time>2019-08-04T07:37:14Z</time>
      </trkpt>
      <trkpt lat="45.21862" lon="0.80377">
        <ele>176.124</ele>
        <time>2019-08-04T07:37:16Z</time>
      </trkpt>
      <trkpt lat="45.21862" lon="0.80383">
        <ele>176.587</ele>
        <time>2019-08-04T07:37:17Z</time>
      </trkpt>
      <trkpt lat="45.21861" lon="0.80389">
        <ele>175.615</ele>
        <time>2019-08-04T07:37:18Z</time>
      </trkpt>
      <trkpt lat="45.21859" lon="0.80404">
        <ele>175.503</ele>
        <time>2019-08-04T07:37:20Z</time>
      </trkpt>
      <trkpt lat="45.21857" lon="0.80411">
        <ele>176.364</ele>
        <time>2019-08-04T07:37:21Z</time>
      </trkpt>
      <trkpt lat="45.21856" lon="0.8043">
        <ele>174.928</ele>
        <time>2019-08-04T07:37:23Z</time>
      </trkpt>
      <trkpt lat="45.21855" lon="0.80436">
        <ele>173.928</ele>
        <time>2019-08-04T07:37:25Z</time>
      </trkpt>
      <trkpt lat="45.21854" lon="0.80445">
        <ele>173.133</ele>
        <time>2019-08-04T07:37:27Z</time>
      </trkpt>
      <trkpt lat="45.21854" lon="0.80454">
        <ele>173.585</ele>
        <time>2019-08-04T07:37:29Z</time>
      </trkpt>
      <trkpt lat="45.21853" lon="0.80462">
        <ele>172.409</ele>
        <time>2019-08-04T07:37:31Z</time>
      </trkpt>
      <trkpt lat="45.21852" lon="0.8047">
        <ele>170.812</ele>
        <time>2019-08-04T07:37:33Z</time>
      </trkpt>
      <trkpt lat="45.21852" lon="0.80478">
        <ele>171.733</ele>
        <time>2019-08-04T07:37:35Z</time>
      </trkpt>
      <trkpt lat="45.21852" lon="0.80485">
        <ele>170.874</ele>
        <time>2019-08-04T07:37:37Z</time>
      </trkpt>
      <trkpt lat="45.21849" lon="0.80495">
        <ele>169.919</ele>
        <time>2019-08-04T07:37:39Z</time>
      </trkpt>
      <trkpt lat="45.21848" lon="0.80501">
        <ele>168.127</ele>
        <time>2019-08-04T07:37:40Z</time>
      </trkpt>
      <trkpt lat="45.21847" lon="0.80508">
        <ele>165.589</ele>
        <time>2019-08-04T07:37:41Z</time>
      </trkpt>
      <trkpt lat="45.21845" lon="0.80521">
        <ele>164.927</ele>
        <time>2019-08-04T07:37:43Z</time>
      </trkpt>
      <trkpt lat="45.21845" lon="0.80527">
        <ele>164.685</ele>
        <time>2019-08-04T07:37:44Z</time>
      </trkpt>
      <trkpt lat="45.21844" lon="0.80538">
        <ele>165.359</ele>
        <time>2019-08-04T07:37:46Z</time>
      </trkpt>
      <trkpt lat="45.21844" lon="0.80545">
        <ele>166.552</ele>
        <time>2019-08-04T07:37:47Z</time>
      </trkpt>
      <trkpt lat="45.21843" lon="0.80552">
        <ele>166.053</ele>
        <time>2019-08-04T07:37:48Z</time>
      </trkpt>
      <trkpt lat="45.21843" lon="0.80566">
        <ele>166.607</ele>
        <time>2019-08-04T07:37:50Z</time>
      </trkpt>
      <trkpt lat="45.21842" lon="0.80581">
        <ele>169.615</ele>
        <time>2019-08-04T07:37:52Z</time>
      </trkpt>
      <trkpt lat="45.21842" lon="0.80589">
        <ele>170.252</ele>
        <time>2019-08-04T07:37:53Z</time>
      </trkpt>
      <trkpt lat="45.21841" lon="0.80614">
        <ele>169.384</ele>
        <time>2019-08-04T07:37:55Z</time>
      </trkpt>
      <trkpt lat="45.21839" lon="0.80626">
        <ele>168.982</ele>
        <time>2019-08-04T07:37:57Z</time>
      </trkpt>
      <trkpt lat="45.21838" lon="0.80631">
        <ele>169.349</ele>
        <time>2019-08-04T07:37:58Z</time>
      </trkpt>
      <trkpt lat="45.21836" lon="0.80636">
        <ele>169.398</ele>
        <time>2019-08-04T07:37:59Z</time>
      </trkpt>
      <trkpt lat="45.21833" lon="0.80649">
        <ele>168.283</ele>
        <time>2019-08-04T07:38:01Z</time>
      </trkpt>
      <trkpt lat="45.2183" lon="0.80656">
        <ele>168.912</ele>
        <time>2019-08-04T07:38:02Z</time>
      </trkpt>
      <trkpt lat="45.21829" lon="0.80662">
        <ele>168.891</ele>
        <time>2019-08-04T07:38:03Z</time>
      </trkpt>
      <trkpt lat="45.21827" lon="0.80668">
        <ele>170.16</ele>
        <time>2019-08-04T07:38:04Z</time>
      </trkpt>
      <trkpt lat="45.21828" lon="0.80676">
        <ele>172.043</ele>
        <time>2019-08-04T07:38:05Z</time>
      </trkpt>
      <trkpt lat="45.21825" lon="0.80685">
        <ele>171.525</ele>
        <time>2019-08-04T07:38:07Z</time>
      </trkpt>
      <trkpt lat="45.21822" lon="0.80694">
        <ele>171.729</ele>
        <time>2019-08-04T07:38:09Z</time>
      </trkpt>
      <trkpt lat="45.21819" lon="0.80705">
        <ele>169.702</ele>
        <time>2019-08-04T07:38:11Z</time>
      </trkpt>
      <trkpt lat="45.21818" lon="0.80715">
        <ele>167.866</ele>
        <time>2019-08-04T07:38:13Z</time>
      </trkpt>
      <trkpt lat="45.21817" lon="0.80721">
        <ele>167.933</ele>
        <time>2019-08-04T07:38:14Z</time>
      </trkpt>
      <trkpt lat="45.21817" lon="0.80727">
        <ele>168.435</ele>
        <time>2019-08-04T07:38:15Z</time>
      </trkpt>
      <trkpt lat="45.21816" lon="0.80734">
        <ele>168.072</ele>
        <time>2019-08-04T07:38:16Z</time>
      </trkpt>
      <trkpt lat="45.21815" lon="0.80741">
        <ele>166.966</ele>
        <time>2019-08-04T07:38:17Z</time>
      </trkpt>
      <trkpt lat="45.21814" lon="0.80752">
        <ele>167.121</ele>
        <time>2019-08-04T07:38:18Z</time>
      </trkpt>
      <trkpt lat="45.21812" lon="0.80767">
        <ele>165.128</ele>
        <time>2019-08-04T07:38:20Z</time>
      </trkpt>
      <trkpt lat="45.2181" lon="0.80776">
        <ele>164.631</ele>
        <time>2019-08-04T07:38:21Z</time>
      </trkpt>
      <trkpt lat="45.21807" lon="0.80784">
        <ele>165.453</ele>
        <time>2019-08-04T07:38:22Z</time>
      </trkpt>
      <trkpt lat="45.21805" lon="0.80792">
        <ele>166.301</ele>
        <time>2019-08-04T07:38:23Z</time>
      </trkpt>
      <trkpt lat="45.21804" lon="0.80798">
        <ele>165.334</ele>
        <time>2019-08-04T07:38:24Z</time>
      </trkpt>
      <trkpt lat="45.218" lon="0.80818">
        <ele>163.73</ele>
        <time>2019-08-04T07:38:27Z</time>
      </trkpt>
      <trkpt lat="45.21797" lon="0.80826">
        <ele>163.658</ele>
        <time>2019-08-04T07:38:28Z</time>
      </trkpt>
      <trkpt lat="45.2179" lon="0.80836">
        <ele>162.184</ele>
        <time>2019-08-04T07:38:30Z</time>
      </trkpt>
      <trkpt lat="45.21785" lon="0.8084">
        <ele>161.699</ele>
        <time>2019-08-04T07:38:31Z</time>
      </trkpt>
      <trkpt lat="45.21782" lon="0.80847">
        <ele>162.155</ele>
        <time>2019-08-04T07:38:32Z</time>
      </trkpt>
      <trkpt lat="45.21779" lon="0.80853">
        <ele>163.074</ele>
        <time>2019-08-04T07:38:33Z</time>
      </trkpt>
      <trkpt lat="45.21776" lon="0.80858">
        <ele>164.012</ele>
        <time>2019-08-04T07:38:34Z</time>
      </trkpt>
      <trkpt lat="45.21776" lon="0.80864">
        <ele>162.304</ele>
        <time>2019-08-04T07:38:35Z</time>
      </trkpt>
      <trkpt lat="45.21774" lon="0.8087">
        <ele>161.185</ele>
        <time>2019-08-04T07:38:36Z</time>
      </trkpt>
      <trkpt lat="45.21773" lon="0.80877">
        <ele>160.63</ele>
        <time>2019-08-04T07:38:37Z</time>
      </trkpt>
      <trkpt lat="45.2177" lon="0.8089">
        <ele>161.29</ele>
        <time>2019-08-04T07:38:39Z</time>
      </trkpt>
      <trkpt lat="45.21768" lon="0.80895">
        <ele>160.63</ele>
        <time>2019-08-04T07:38:41Z</time>
      </trkpt>
      <trkpt lat="45.21767" lon="0.80899">
        <ele>159.552</ele>
        <time>2019-08-04T07:38:43Z</time>
      </trkpt>
      <trkpt lat="45.21763" lon="0.80903">
        <ele>158.634</ele>
        <time>2019-08-04T07:38:45Z</time>
      </trkpt>
      <trkpt lat="45.21761" lon="0.80905">
        <ele>158.603</ele>
        <time>2019-08-04T07:38:46Z</time>
      </trkpt>
      <trkpt lat="45.21759" lon="0.80907">
        <ele>158.31</ele>
        <time>2019-08-04T07:38:47Z</time>
      </trkpt>
      <trkpt lat="45.21753" lon="0.80915">
        <ele>157.12</ele>
        <time>2019-08-04T07:38:50Z</time>
      </trkpt>
      <trkpt lat="45.21751" lon="0.80918">
        <ele>157.226</ele>
        <time>2019-08-04T07:38:51Z</time>
      </trkpt>
      <trkpt lat="45.2174" lon="0.80932">
        <ele>156.411</ele>
        <time>2019-08-04T07:38:55Z</time>
      </trkpt>
      <trkpt lat="45.21735" lon="0.80943">
        <ele>156.403</ele>
        <time>2019-08-04T07:38:58Z</time>
      </trkpt>
      <trkpt lat="45.21733" lon="0.8095">
        <ele>155.632</ele>
        <time>2019-08-04T07:39:00Z</time>
      </trkpt>
      <trkpt lat="45.21731" lon="0.80959">
        <ele>155.053</ele>
        <time>2019-08-04T07:39:02Z</time>
      </trkpt>
      <trkpt lat="45.2173" lon="0.80963">
        <ele>155.334</ele>
        <time>2019-08-04T07:39:03Z</time>
      </trkpt>
      <trkpt lat="45.21729" lon="0.80967">
        <ele>156.283</ele>
        <time>2019-08-04T07:39:04Z</time>
      </trkpt>
      <trkpt lat="45.21728" lon="0.80976">
        <ele>155.407</ele>
        <time>2019-08-04T07:39:07Z</time>
      </trkpt>
      <trkpt lat="45.21725" lon="0.80976">
        <ele>155.923</ele>
        <time>2019-08-04T07:39:14Z</time>
      </trkpt>
      <trkpt lat="45.21721" lon="0.80976">
        <ele>159.009</ele>
        <time>2019-08-04T07:42:08Z</time>
      </trkpt>
      <trkpt lat="45.2171" lon="0.80979">
        <ele>160.284</ele>
        <time>2019-08-04T07:42:11Z</time>
      </trkpt>
      <trkpt lat="45.21706" lon="0.8098">
        <ele>161.935</ele>
        <time>2019-08-04T07:42:12Z</time>
      </trkpt>
      <trkpt lat="45.21696" lon="0.80984">
        <ele>160.428</ele>
        <time>2019-08-04T07:42:15Z</time>
      </trkpt>
      <trkpt lat="45.21693" lon="0.80985">
        <ele>160.527</ele>
        <time>2019-08-04T07:42:16Z</time>
      </trkpt>
      <trkpt lat="45.21689" lon="0.80986">
        <ele>160.082</ele>
        <time>2019-08-04T07:42:17Z</time>
      </trkpt>
      <trkpt lat="45.21686" lon="0.80987">
        <ele>161.73</ele>
        <time>2019-08-04T07:42:18Z</time>
      </trkpt>
      <trkpt lat="45.21683" lon="0.80988">
        <ele>163.184</ele>
        <time>2019-08-04T07:42:19Z</time>
      </trkpt>
      <trkpt lat="45.21679" lon="0.80989">
        <ele>163.906</ele>
        <time>2019-08-04T07:42:20Z</time>
      </trkpt>
      <trkpt lat="45.21675" lon="0.8099">
        <ele>163.82</ele>
        <time>2019-08-04T07:42:21Z</time>
      </trkpt>
      <trkpt lat="45.21672" lon="0.8099">
        <ele>162.844</ele>
        <time>2019-08-04T07:42:22Z</time>
      </trkpt>
      <trkpt lat="45.21668" lon="0.80991">
        <ele>161.332</ele>
        <time>2019-08-04T07:42:23Z</time>
      </trkpt>
      <trkpt lat="45.21665" lon="0.80991">
        <ele>160.282</ele>
        <time>2019-08-04T07:42:24Z</time>
      </trkpt>
      <trkpt lat="45.21661" lon="0.80991">
        <ele>160.758</ele>
        <time>2019-08-04T07:42:25Z</time>
      </trkpt>
      <trkpt lat="45.21658" lon="0.80992">
        <ele>162</ele>
        <time>2019-08-04T07:42:26Z</time>
      </trkpt>
      <trkpt lat="45.21651" lon="0.80993">
        <ele>161.434</ele>
        <time>2019-08-04T07:42:28Z</time>
      </trkpt>
      <trkpt lat="45.21647" lon="0.80994">
        <ele>161.339</ele>
        <time>2019-08-04T07:42:29Z</time>
      </trkpt>
      <trkpt lat="45.21644" lon="0.80995">
        <ele>160.316</ele>
        <time>2019-08-04T07:42:30Z</time>
      </trkpt>
      <trkpt lat="45.2164" lon="0.80996">
        <ele>162.043</ele>
        <time>2019-08-04T07:42:31Z</time>
      </trkpt>
      <trkpt lat="45.21636" lon="0.80997">
        <ele>162.192</ele>
        <time>2019-08-04T07:42:32Z</time>
      </trkpt>
      <trkpt lat="45.21632" lon="0.80998">
        <ele>160.12</ele>
        <time>2019-08-04T07:42:33Z</time>
      </trkpt>
      <trkpt lat="45.21628" lon="0.80999">
        <ele>160.516</ele>
        <time>2019-08-04T07:42:34Z</time>
      </trkpt>
      <trkpt lat="45.21625" lon="0.81001">
        <ele>159.26</ele>
        <time>2019-08-04T07:42:35Z</time>
      </trkpt>
      <trkpt lat="45.21621" lon="0.81003">
        <ele>159.602</ele>
        <time>2019-08-04T07:42:36Z</time>
      </trkpt>
      <trkpt lat="45.21617" lon="0.81005">
        <ele>158.994</ele>
        <time>2019-08-04T07:42:37Z</time>
      </trkpt>
      <trkpt lat="45.21609" lon="0.81009">
        <ele>158.184</ele>
        <time>2019-08-04T07:42:39Z</time>
      </trkpt>
      <trkpt lat="45.21606" lon="0.81011">
        <ele>158.436</ele>
        <time>2019-08-04T07:42:40Z</time>
      </trkpt>
      <trkpt lat="45.21602" lon="0.81012">
        <ele>158.293</ele>
        <time>2019-08-04T07:42:41Z</time>
      </trkpt>
      <trkpt lat="45.21591" lon="0.81017">
        <ele>158.189</ele>
        <time>2019-08-04T07:42:44Z</time>
      </trkpt>
      <trkpt lat="45.21588" lon="0.81019">
        <ele>158.398</ele>
        <time>2019-08-04T07:42:45Z</time>
      </trkpt>
      <trkpt lat="45.21584" lon="0.8102">
        <ele>156.707</ele>
        <time>2019-08-04T07:42:46Z</time>
      </trkpt>
      <trkpt lat="45.21577" lon="0.81023">
        <ele>155.46</ele>
        <time>2019-08-04T07:42:48Z</time>
      </trkpt>
      <trkpt lat="45.21572" lon="0.81025">
        <ele>154.948</ele>
        <time>2019-08-04T07:42:49Z</time>
      </trkpt>
      <trkpt lat="45.21555" lon="0.81031">
        <ele>156.194</ele>
        <time>2019-08-04T07:42:52Z</time>
      </trkpt>
      <trkpt lat="45.21549" lon="0.81032">
        <ele>154.408</ele>
        <time>2019-08-04T07:42:53Z</time>
      </trkpt>
      <trkpt lat="45.21528" lon="0.81039">
        <ele>154.396</ele>
        <time>2019-08-04T07:42:56Z</time>
      </trkpt>
      <trkpt lat="45.21518" lon="0.81042">
        <ele>155.141</ele>
        <time>2019-08-04T07:42:58Z</time>
      </trkpt>
      <trkpt lat="45.21513" lon="0.81051">
        <ele>156.41</ele>
        <time>2019-08-04T07:42:59Z</time>
      </trkpt>
      <trkpt lat="45.21506" lon="0.81055">
        <ele>156.116</ele>
        <time>2019-08-04T07:43:00Z</time>
      </trkpt>
      <trkpt lat="45.21494" lon="0.81054">
        <ele>155.33</ele>
        <time>2019-08-04T07:43:02Z</time>
      </trkpt>
      <trkpt lat="45.21487" lon="0.81054">
        <ele>156.543</ele>
        <time>2019-08-04T07:43:03Z</time>
      </trkpt>
      <trkpt lat="45.21482" lon="0.81058">
        <ele>157.252</ele>
        <time>2019-08-04T07:43:04Z</time>
      </trkpt>
      <trkpt lat="45.21471" lon="0.81061">
        <ele>158.142</ele>
        <time>2019-08-04T07:43:06Z</time>
      </trkpt>
      <trkpt lat="45.21465" lon="0.81063">
        <ele>157.477</ele>
        <time>2019-08-04T07:43:07Z</time>
      </trkpt>
      <trkpt lat="45.2146" lon="0.81065">
        <ele>157.224</ele>
        <time>2019-08-04T07:43:08Z</time>
      </trkpt>
      <trkpt lat="45.21439" lon="0.81067">
        <ele>156.551</ele>
        <time>2019-08-04T07:43:12Z</time>
      </trkpt>
      <trkpt lat="45.21436" lon="0.81072">
        <ele>156.827</ele>
        <time>2019-08-04T07:43:13Z</time>
      </trkpt>
      <trkpt lat="45.21432" lon="0.81078">
        <ele>156.522</ele>
        <time>2019-08-04T07:43:14Z</time>
      </trkpt>
      <trkpt lat="45.21427" lon="0.81079">
        <ele>156.389</ele>
        <time>2019-08-04T07:43:15Z</time>
      </trkpt>
      <trkpt lat="45.21423" lon="0.81081">
        <ele>155.809</ele>
        <time>2019-08-04T07:43:16Z</time>
      </trkpt>
      <trkpt lat="45.21416" lon="0.81082">
        <ele>154.97</ele>
        <time>2019-08-04T07:43:18Z</time>
      </trkpt>
      <trkpt lat="45.21409" lon="0.81083">
        <ele>154.418</ele>
        <time>2019-08-04T07:43:20Z</time>
      </trkpt>
      <trkpt lat="45.21405" lon="0.81087">
        <ele>154.405</ele>
        <time>2019-08-04T07:43:21Z</time>
      </trkpt>
      <trkpt lat="45.21397" lon="0.81089">
        <ele>153.783</ele>
        <time>2019-08-04T07:43:23Z</time>
      </trkpt>
      <trkpt lat="45.21391" lon="0.8109">
        <ele>151.98</ele>
        <time>2019-08-04T07:43:25Z</time>
      </trkpt>
      <trkpt lat="45.2138" lon="0.81092">
        <ele>151.498</ele>
        <time>2019-08-04T07:43:28Z</time>
      </trkpt>
      <trkpt lat="45.21373" lon="0.81091">
        <ele>151.437</ele>
        <time>2019-08-04T07:43:30Z</time>
      </trkpt>
      <trkpt lat="45.21362" lon="0.81091">
        <ele>150.904</ele>
        <time>2019-08-04T07:43:33Z</time>
      </trkpt>
      <trkpt lat="45.21357" lon="0.81092">
        <ele>150.694</ele>
        <time>2019-08-04T07:43:34Z</time>
      </trkpt>
      <trkpt lat="45.21352" lon="0.81093">
        <ele>151.13</ele>
        <time>2019-08-04T07:43:35Z</time>
      </trkpt>
      <trkpt lat="45.21346" lon="0.81092">
        <ele>149.578</ele>
        <time>2019-08-04T07:43:36Z</time>
      </trkpt>
      <trkpt lat="45.21337" lon="0.81094">
        <ele>147.895</ele>
        <time>2019-08-04T07:43:38Z</time>
      </trkpt>
      <trkpt lat="45.21331" lon="0.81092">
        <ele>147.914</ele>
        <time>2019-08-04T07:43:39Z</time>
      </trkpt>
      <trkpt lat="45.21325" lon="0.81092">
        <ele>148.689</ele>
        <time>2019-08-04T07:43:40Z</time>
      </trkpt>
      <trkpt lat="45.21319" lon="0.81095">
        <ele>147.491</ele>
        <time>2019-08-04T07:43:42Z</time>
      </trkpt>
      <trkpt lat="45.21314" lon="0.81099">
        <ele>148.014</ele>
        <time>2019-08-04T07:43:43Z</time>
      </trkpt>
      <trkpt lat="45.21309" lon="0.81099">
        <ele>148.05</ele>
        <time>2019-08-04T07:43:44Z</time>
      </trkpt>
      <trkpt lat="45.21303" lon="0.81101">
        <ele>147.569</ele>
        <time>2019-08-04T07:43:45Z</time>
      </trkpt>
      <trkpt lat="45.21295" lon="0.81098">
        <ele>146.832</ele>
        <time>2019-08-04T07:43:47Z</time>
      </trkpt>
      <trkpt lat="45.21283" lon="0.811">
        <ele>148.619</ele>
        <time>2019-08-04T07:43:50Z</time>
      </trkpt>
      <trkpt lat="45.21274" lon="0.81104">
        <ele>148.933</ele>
        <time>2019-08-04T07:43:53Z</time>
      </trkpt>
      <trkpt lat="45.21271" lon="0.81105">
        <ele>149.442</ele>
        <time>2019-08-04T07:43:54Z</time>
      </trkpt>
      <trkpt lat="45.2126" lon="0.81107">
        <ele>149.927</ele>
        <time>2019-08-04T07:43:57Z</time>
      </trkpt>
      <trkpt lat="45.21249" lon="0.81104">
        <ele>148.468</ele>
        <time>2019-08-04T07:44:00Z</time>
      </trkpt>
      <trkpt lat="45.21245" lon="0.81103">
        <ele>148.426</ele>
        <time>2019-08-04T07:44:01Z</time>
      </trkpt>
      <trkpt lat="45.21239" lon="0.81103">
        <ele>148.409</ele>
        <time>2019-08-04T07:44:03Z</time>
      </trkpt>
      <trkpt lat="45.21232" lon="0.811">
        <ele>146.31</ele>
        <time>2019-08-04T07:44:05Z</time>
      </trkpt>
      <trkpt lat="45.21228" lon="0.81098">
        <ele>146.493</ele>
        <time>2019-08-04T07:44:06Z</time>
      </trkpt>
      <trkpt lat="45.21224" lon="0.81096">
        <ele>145.529</ele>
        <time>2019-08-04T07:44:07Z</time>
      </trkpt>
      <trkpt lat="45.21214" lon="0.81094">
        <ele>145.494</ele>
        <time>2019-08-04T07:44:09Z</time>
      </trkpt>
      <trkpt lat="45.21206" lon="0.81092">
        <ele>146.35</ele>
        <time>2019-08-04T07:44:10Z</time>
      </trkpt>
      <trkpt lat="45.21201" lon="0.8109">
        <ele>146.165</ele>
        <time>2019-08-04T07:44:11Z</time>
      </trkpt>
      <trkpt lat="45.21194" lon="0.81088">
        <ele>147.009</ele>
        <time>2019-08-04T07:44:12Z</time>
      </trkpt>
      <trkpt lat="45.21174" lon="0.8108">
        <ele>145.448</ele>
        <time>2019-08-04T07:44:15Z</time>
      </trkpt>
      <trkpt lat="45.21169" lon="0.8108">
        <ele>144.907</ele>
        <time>2019-08-04T07:44:16Z</time>
      </trkpt>
      <trkpt lat="45.21164" lon="0.81077">
        <ele>145.429</ele>
        <time>2019-08-04T07:44:17Z</time>
      </trkpt>
      <trkpt lat="45.21158" lon="0.81075">
        <ele>144.403</ele>
        <time>2019-08-04T07:44:18Z</time>
      </trkpt>
      <trkpt lat="45.21138" lon="0.81071">
        <ele>144.89</ele>
        <time>2019-08-04T07:44:21Z</time>
      </trkpt>
      <trkpt lat="45.21133" lon="0.81068">
        <ele>144.534</ele>
        <time>2019-08-04T07:44:22Z</time>
      </trkpt>
      <trkpt lat="45.21125" lon="0.81067">
        <ele>145.421</ele>
        <time>2019-08-04T07:44:23Z</time>
      </trkpt>
      <trkpt lat="45.21119" lon="0.81066">
        <ele>145.222</ele>
        <time>2019-08-04T07:44:24Z</time>
      </trkpt>
      <trkpt lat="45.21113" lon="0.81066">
        <ele>146.434</ele>
        <time>2019-08-04T07:44:25Z</time>
      </trkpt>
      <trkpt lat="45.21107" lon="0.81067">
        <ele>146.849</ele>
        <time>2019-08-04T07:44:26Z</time>
      </trkpt>
      <trkpt lat="45.21094" lon="0.81059">
        <ele>149.065</ele>
        <time>2019-08-04T07:44:28Z</time>
      </trkpt>
      <trkpt lat="45.21084" lon="0.81062">
        <ele>151.214</ele>
        <time>2019-08-04T07:44:30Z</time>
      </trkpt>
      <trkpt lat="45.21079" lon="0.81063">
        <ele>150.419</ele>
        <time>2019-08-04T07:44:31Z</time>
      </trkpt>
      <trkpt lat="45.21069" lon="0.81062">
        <ele>149.473</ele>
        <time>2019-08-04T07:44:33Z</time>
      </trkpt>
      <trkpt lat="45.21066" lon="0.81066">
        <ele>150.012</ele>
        <time>2019-08-04T07:44:34Z</time>
      </trkpt>
      <trkpt lat="45.21055" lon="0.81065">
        <ele>147.085</ele>
        <time>2019-08-04T07:44:37Z</time>
      </trkpt>
      <trkpt lat="45.21052" lon="0.81059">
        <ele>145.224</ele>
        <time>2019-08-04T07:44:39Z</time>
      </trkpt>
      <trkpt lat="45.21048" lon="0.81059">
        <ele>147.816</ele>
        <time>2019-08-04T07:44:42Z</time>
      </trkpt>
      <trkpt lat="45.21043" lon="0.81058">
        <ele>149.169</ele>
        <time>2019-08-04T07:44:43Z</time>
      </trkpt>
      <trkpt lat="45.21036" lon="0.81058">
        <ele>148.76</ele>
        <time>2019-08-04T07:44:45Z</time>
      </trkpt>
      <trkpt lat="45.21033" lon="0.81057">
        <ele>148.415</ele>
        <time>2019-08-04T07:44:46Z</time>
      </trkpt>
      <trkpt lat="45.21028" lon="0.81057">
        <ele>147.942</ele>
        <time>2019-08-04T07:44:48Z</time>
      </trkpt>
      <trkpt lat="45.21023" lon="0.81056">
        <ele>147.431</ele>
        <time>2019-08-04T07:44:50Z</time>
      </trkpt>
      <trkpt lat="45.21021" lon="0.81056">
        <ele>146.451</ele>
        <time>2019-08-04T07:44:51Z</time>
      </trkpt>
      <trkpt lat="45.21019" lon="0.81055">
        <ele>145.088</ele>
        <time>2019-08-04T07:44:52Z</time>
      </trkpt>
      <trkpt lat="45.21012" lon="0.81055">
        <ele>143.948</ele>
        <time>2019-08-04T07:44:56Z</time>
      </trkpt>
      <trkpt lat="45.21008" lon="0.81054">
        <ele>144.101</ele>
        <time>2019-08-04T07:44:58Z</time>
      </trkpt>
      <trkpt lat="45.21001" lon="0.81053">
        <ele>144.951</ele>
        <time>2019-08-04T07:45:00Z</time>
      </trkpt>
      <trkpt lat="45.20992" lon="0.81054">
        <ele>146.333</ele>
        <time>2019-08-04T07:45:02Z</time>
      </trkpt>
      <trkpt lat="45.20989" lon="0.81055">
        <ele>147.502</ele>
        <time>2019-08-04T07:45:03Z</time>
      </trkpt>
      <trkpt lat="45.20982" lon="0.81058">
        <ele>149.537</ele>
        <time>2019-08-04T07:45:05Z</time>
      </trkpt>
      <trkpt lat="45.20976" lon="0.81059">
        <ele>150.735</ele>
        <time>2019-08-04T07:45:07Z</time>
      </trkpt>
      <trkpt lat="45.20969" lon="0.81059">
        <ele>151.499</ele>
        <time>2019-08-04T07:45:09Z</time>
      </trkpt>
      <trkpt lat="45.20964" lon="0.81061">
        <ele>150.199</ele>
        <time>2019-08-04T07:45:12Z</time>
      </trkpt>
      <trkpt lat="45.20955" lon="0.81063">
        <ele>150.815</ele>
        <time>2019-08-04T07:45:16Z</time>
      </trkpt>
      <trkpt lat="45.20948" lon="0.81065">
        <ele>149.772</ele>
        <time>2019-08-04T07:45:19Z</time>
      </trkpt>
      <trkpt lat="45.20943" lon="0.81065">
        <ele>152.131</ele>
        <time>2019-08-04T07:45:21Z</time>
      </trkpt>
      <trkpt lat="45.20939" lon="0.81065">
        <ele>151.192</ele>
        <time>2019-08-04T07:45:23Z</time>
      </trkpt>
      <trkpt lat="45.20932" lon="0.81065">
        <ele>152.263</ele>
        <time>2019-08-04T07:45:27Z</time>
      </trkpt>
      <trkpt lat="45.20925" lon="0.81066">
        <ele>149.409</ele>
        <time>2019-08-04T07:45:31Z</time>
      </trkpt>
      <trkpt lat="45.20919" lon="0.81062">
        <ele>144.937</ele>
        <time>2019-08-04T07:45:35Z</time>
      </trkpt>
      <trkpt lat="45.20915" lon="0.81059">
        <ele>144.601</ele>
        <time>2019-08-04T07:45:38Z</time>
      </trkpt>
      <trkpt lat="45.2091" lon="0.81057">
        <ele>143.423</ele>
        <time>2019-08-04T07:45:42Z</time>
      </trkpt>
      <trkpt lat="45.20899" lon="0.81062">
        <ele>145.786</ele>
        <time>2019-08-04T07:45:46Z</time>
      </trkpt>
      <trkpt lat="45.20895" lon="0.81066">
        <ele>147.975</ele>
        <time>2019-08-04T07:45:48Z</time>
      </trkpt>
      <trkpt lat="45.2089" lon="0.8107">
        <ele>151.393</ele>
        <time>2019-08-04T07:45:51Z</time>
      </trkpt>
      <trkpt lat="45.20884" lon="0.81069">
        <ele>148.037</ele>
        <time>2019-08-04T07:45:56Z</time>
      </trkpt>
      <trkpt lat="45.20879" lon="0.81068">
        <ele>161.684</ele>
        <time>2019-08-04T07:46:00Z</time>
      </trkpt>
      <trkpt lat="45.20874" lon="0.81067">
        <ele>159.902</ele>
        <time>2019-08-04T07:46:02Z</time>
      </trkpt>
      <trkpt lat="45.20872" lon="0.81066">
        <ele>159.049</ele>
        <time>2019-08-04T07:46:03Z</time>
      </trkpt>
      <trkpt lat="45.20869" lon="0.81065">
        <ele>156.304</ele>
        <time>2019-08-04T07:46:04Z</time>
      </trkpt>
      <trkpt lat="45.20864" lon="0.81065">
        <ele>154.329</ele>
        <time>2019-08-04T07:46:06Z</time>
      </trkpt>
      <trkpt lat="45.20861" lon="0.81065">
        <ele>152.482</ele>
        <time>2019-08-04T07:46:07Z</time>
      </trkpt>
      <trkpt lat="45.20859" lon="0.81065">
        <ele>152.852</ele>
        <time>2019-08-04T07:46:08Z</time>
      </trkpt>
      <trkpt lat="45.20853" lon="0.81063">
        <ele>151.964</ele>
        <time>2019-08-04T07:46:11Z</time>
      </trkpt>
      <trkpt lat="45.2085" lon="0.81063">
        <ele>152.429</ele>
        <time>2019-08-04T07:46:12Z</time>
      </trkpt>
      <trkpt lat="45.20848" lon="0.81062">
        <ele>153.777</ele>
        <time>2019-08-04T07:46:13Z</time>
      </trkpt>
      <trkpt lat="45.2084" lon="0.81064">
        <ele>155.101</ele>
        <time>2019-08-04T07:46:16Z</time>
      </trkpt>
      <trkpt lat="45.20835" lon="0.81066">
        <ele>159.089</ele>
        <time>2019-08-04T07:46:18Z</time>
      </trkpt>
      <trkpt lat="45.20833" lon="0.81067">
        <ele>158.667</ele>
        <time>2019-08-04T07:46:19Z</time>
      </trkpt>
      <trkpt lat="45.20826" lon="0.81068">
        <ele>159.996</ele>
        <time>2019-08-04T07:46:22Z</time>
      </trkpt>
      <trkpt lat="45.20821" lon="0.81068">
        <ele>158.69</ele>
        <time>2019-08-04T07:46:25Z</time>
      </trkpt>
      <trkpt lat="45.20817" lon="0.81061">
        <ele>160.861</ele>
        <time>2019-08-04T07:46:28Z</time>
      </trkpt>
      <trkpt lat="45.20812" lon="0.81058">
        <ele>164.245</ele>
        <time>2019-08-04T07:46:30Z</time>
      </trkpt>
      <trkpt lat="45.20807" lon="0.81057">
        <ele>165.012</ele>
        <time>2019-08-04T07:46:32Z</time>
      </trkpt>
      <trkpt lat="45.20802" lon="0.81053">
        <ele>167.367</ele>
        <time>2019-08-04T07:46:35Z</time>
      </trkpt>
      <trkpt lat="45.20797" lon="0.81048">
        <ele>168.988</ele>
        <time>2019-08-04T07:46:38Z</time>
      </trkpt>
      <trkpt lat="45.20795" lon="0.81045">
        <ele>169.915</ele>
        <time>2019-08-04T07:46:40Z</time>
      </trkpt>
      <trkpt lat="45.20793" lon="0.81043">
        <ele>168.889</ele>
        <time>2019-08-04T07:46:42Z</time>
      </trkpt>
      <trkpt lat="45.2079" lon="0.81038">
        <ele>168.499</ele>
        <time>2019-08-04T07:46:45Z</time>
      </trkpt>
      <trkpt lat="45.20786" lon="0.81029">
        <ele>169.048</ele>
        <time>2019-08-04T07:46:48Z</time>
      </trkpt>
      <trkpt lat="45.20785" lon="0.81026">
        <ele>168.896</ele>
        <time>2019-08-04T07:46:49Z</time>
      </trkpt>
      <trkpt lat="45.20784" lon="0.81022">
        <ele>168.352</ele>
        <time>2019-08-04T07:46:50Z</time>
      </trkpt>
      <trkpt lat="45.20783" lon="0.81018">
        <ele>167.539</ele>
        <time>2019-08-04T07:46:51Z</time>
      </trkpt>
      <trkpt lat="45.20782" lon="0.81013">
        <ele>167.502</ele>
        <time>2019-08-04T07:46:52Z</time>
      </trkpt>
      <trkpt lat="45.20781" lon="0.81007">
        <ele>168.142</ele>
        <time>2019-08-04T07:46:53Z</time>
      </trkpt>
      <trkpt lat="45.20779" lon="0.81001">
        <ele>168.293</ele>
        <time>2019-08-04T07:46:54Z</time>
      </trkpt>
      <trkpt lat="45.20777" lon="0.80993">
        <ele>168.038</ele>
        <time>2019-08-04T07:46:55Z</time>
      </trkpt>
      <trkpt lat="45.20776" lon="0.80986">
        <ele>167.254</ele>
        <time>2019-08-04T07:46:56Z</time>
      </trkpt>
      <trkpt lat="45.20776" lon="0.80977">
        <ele>167.113</ele>
        <time>2019-08-04T07:46:57Z</time>
      </trkpt>
      <trkpt lat="45.20774" lon="0.8097">
        <ele>167.701</ele>
        <time>2019-08-04T07:46:58Z</time>
      </trkpt>
      <trkpt lat="45.20773" lon="0.80962">
        <ele>166.38</ele>
        <time>2019-08-04T07:46:59Z</time>
      </trkpt>
      <trkpt lat="45.20772" lon="0.80953">
        <ele>165.585</ele>
        <time>2019-08-04T07:47:00Z</time>
      </trkpt>
      <trkpt lat="45.20771" lon="0.80944">
        <ele>164.613</ele>
        <time>2019-08-04T07:47:01Z</time>
      </trkpt>
      <trkpt lat="45.20768" lon="0.80928">
        <ele>164.405</ele>
        <time>2019-08-04T07:47:03Z</time>
      </trkpt>
      <trkpt lat="45.20764" lon="0.80919">
        <ele>164.556</ele>
        <time>2019-08-04T07:47:04Z</time>
      </trkpt>
      <trkpt lat="45.20762" lon="0.80911">
        <ele>165.525</ele>
        <time>2019-08-04T07:47:05Z</time>
      </trkpt>
      <trkpt lat="45.2075" lon="0.80895">
        <ele>163.339</ele>
        <time>2019-08-04T07:47:07Z</time>
      </trkpt>
      <trkpt lat="45.20745" lon="0.80889">
        <ele>164.879</ele>
        <time>2019-08-04T07:47:08Z</time>
      </trkpt>
      <trkpt lat="45.2074" lon="0.80883">
        <ele>163.97</ele>
        <time>2019-08-04T07:47:09Z</time>
      </trkpt>
      <trkpt lat="45.20735" lon="0.80872">
        <ele>164.231</ele>
        <time>2019-08-04T07:47:10Z</time>
      </trkpt>
      <trkpt lat="45.2073" lon="0.80865">
        <ele>164.075</ele>
        <time>2019-08-04T07:47:11Z</time>
      </trkpt>
      <trkpt lat="45.20726" lon="0.80857">
        <ele>161.985</ele>
        <time>2019-08-04T07:47:12Z</time>
      </trkpt>
      <trkpt lat="45.20722" lon="0.80851">
        <ele>161.391</ele>
        <time>2019-08-04T07:47:13Z</time>
      </trkpt>
      <trkpt lat="45.20724" lon="0.80838">
        <ele>161.753</ele>
        <time>2019-08-04T07:47:14Z</time>
      </trkpt>
      <trkpt lat="45.2072" lon="0.80829">
        <ele>158.907</ele>
        <time>2019-08-04T07:47:15Z</time>
      </trkpt>
      <trkpt lat="45.20718" lon="0.80822">
        <ele>160.564</ele>
        <time>2019-08-04T07:47:16Z</time>
      </trkpt>
      <trkpt lat="45.20715" lon="0.80814">
        <ele>160.449</ele>
        <time>2019-08-04T07:47:17Z</time>
      </trkpt>
      <trkpt lat="45.20714" lon="0.80806">
        <ele>159.979</ele>
        <time>2019-08-04T07:47:18Z</time>
      </trkpt>
      <trkpt lat="45.20711" lon="0.80797">
        <ele>159.569</ele>
        <time>2019-08-04T07:47:19Z</time>
      </trkpt>
      <trkpt lat="45.20708" lon="0.80791">
        <ele>159.355</ele>
        <time>2019-08-04T07:47:20Z</time>
      </trkpt>
      <trkpt lat="45.20702" lon="0.80784">
        <ele>157.454</ele>
        <time>2019-08-04T07:47:21Z</time>
      </trkpt>
      <trkpt lat="45.20695" lon="0.80777">
        <ele>154.352</ele>
        <time>2019-08-04T07:47:22Z</time>
      </trkpt>
      <trkpt lat="45.20688" lon="0.80775">
        <ele>155.408</ele>
        <time>2019-08-04T07:47:23Z</time>
      </trkpt>
      <trkpt lat="45.20682" lon="0.80768">
        <ele>154.849</ele>
        <time>2019-08-04T07:47:24Z</time>
      </trkpt>
      <trkpt lat="45.20673" lon="0.80771">
        <ele>153.98</ele>
        <time>2019-08-04T07:47:25Z</time>
      </trkpt>
      <trkpt lat="45.20664" lon="0.80771">
        <ele>153.295</ele>
        <time>2019-08-04T07:47:26Z</time>
      </trkpt>
      <trkpt lat="45.20655" lon="0.80772">
        <ele>152.207</ele>
        <time>2019-08-04T07:47:27Z</time>
      </trkpt>
      <trkpt lat="45.20646" lon="0.80774">
        <ele>152.458</ele>
        <time>2019-08-04T07:47:28Z</time>
      </trkpt>
      <trkpt lat="45.20637" lon="0.80775">
        <ele>153.101</ele>
        <time>2019-08-04T07:47:29Z</time>
      </trkpt>
      <trkpt lat="45.20629" lon="0.80777">
        <ele>152.173</ele>
        <time>2019-08-04T07:47:30Z</time>
      </trkpt>
      <trkpt lat="45.2062" lon="0.80779">
        <ele>151.774</ele>
        <time>2019-08-04T07:47:31Z</time>
      </trkpt>
      <trkpt lat="45.20612" lon="0.80782">
        <ele>150.575</ele>
        <time>2019-08-04T07:47:32Z</time>
      </trkpt>
      <trkpt lat="45.20603" lon="0.80785">
        <ele>150.509</ele>
        <time>2019-08-04T07:47:33Z</time>
      </trkpt>
      <trkpt lat="45.20595" lon="0.80787">
        <ele>150.281</ele>
        <time>2019-08-04T07:47:34Z</time>
      </trkpt>
      <trkpt lat="45.20587" lon="0.80788">
        <ele>151.041</ele>
        <time>2019-08-04T07:47:35Z</time>
      </trkpt>
      <trkpt lat="45.20582" lon="0.8079">
        <ele>150.95</ele>
        <time>2019-08-04T07:47:36Z</time>
      </trkpt>
      <trkpt lat="45.20577" lon="0.80791">
        <ele>151.245</ele>
        <time>2019-08-04T07:47:37Z</time>
      </trkpt>
      <trkpt lat="45.20572" lon="0.80792">
        <ele>150.187</ele>
        <time>2019-08-04T07:47:39Z</time>
      </trkpt>
      <trkpt lat="45.20568" lon="0.80792">
        <ele>151.085</ele>
        <time>2019-08-04T07:47:43Z</time>
      </trkpt>
      <trkpt lat="45.20563" lon="0.80785">
        <ele>180.737</ele>
        <time>2019-08-04T07:47:49Z</time>
      </trkpt>
      <trkpt lat="45.2056" lon="0.80777">
        <ele>170.577</ele>
        <time>2019-08-04T07:47:51Z</time>
      </trkpt>
      <trkpt lat="45.20558" lon="0.80772">
        <ele>167.016</ele>
        <time>2019-08-04T07:47:52Z</time>
      </trkpt>
      <trkpt lat="45.20556" lon="0.80766">
        <ele>164.266</ele>
        <time>2019-08-04T07:47:53Z</time>
      </trkpt>
      <trkpt lat="45.20552" lon="0.80755">
        <ele>160.632</ele>
        <time>2019-08-04T07:47:55Z</time>
      </trkpt>
      <trkpt lat="45.20546" lon="0.80739">
        <ele>158.292</ele>
        <time>2019-08-04T07:47:58Z</time>
      </trkpt>
      <trkpt lat="45.20545" lon="0.80734">
        <ele>158.124</ele>
        <time>2019-08-04T07:47:59Z</time>
      </trkpt>
      <trkpt lat="45.20543" lon="0.80729">
        <ele>157.139</ele>
        <time>2019-08-04T07:48:00Z</time>
      </trkpt>
      <trkpt lat="45.20541" lon="0.80724">
        <ele>155.918</ele>
        <time>2019-08-04T07:48:01Z</time>
      </trkpt>
      <trkpt lat="45.20538" lon="0.80719">
        <ele>153.376</ele>
        <time>2019-08-04T07:48:02Z</time>
      </trkpt>
      <trkpt lat="45.20532" lon="0.80705">
        <ele>152.192</ele>
        <time>2019-08-04T07:48:04Z</time>
      </trkpt>
      <trkpt lat="45.20529" lon="0.80697">
        <ele>153.355</ele>
        <time>2019-08-04T07:48:05Z</time>
      </trkpt>
      <trkpt lat="45.20526" lon="0.80691">
        <ele>153.351</ele>
        <time>2019-08-04T07:48:06Z</time>
      </trkpt>
      <trkpt lat="45.20523" lon="0.80683">
        <ele>155.219</ele>
        <time>2019-08-04T07:48:07Z</time>
      </trkpt>
      <trkpt lat="45.20521" lon="0.80674">
        <ele>154.299</ele>
        <time>2019-08-04T07:48:08Z</time>
      </trkpt>
      <trkpt lat="45.20517" lon="0.80668">
        <ele>153.964</ele>
        <time>2019-08-04T07:48:09Z</time>
      </trkpt>
      <trkpt lat="45.20513" lon="0.80661">
        <ele>154.038</ele>
        <time>2019-08-04T07:48:10Z</time>
      </trkpt>
      <trkpt lat="45.20499" lon="0.80631">
        <ele>154.28</ele>
        <time>2019-08-04T07:48:14Z</time>
      </trkpt>
      <trkpt lat="45.20494" lon="0.80623">
        <ele>153.415</ele>
        <time>2019-08-04T07:48:15Z</time>
      </trkpt>
      <trkpt lat="45.20491" lon="0.80616">
        <ele>151.919</ele>
        <time>2019-08-04T07:48:16Z</time>
      </trkpt>
      <trkpt lat="45.20487" lon="0.80607">
        <ele>150.734</ele>
        <time>2019-08-04T07:48:17Z</time>
      </trkpt>
      <trkpt lat="45.20484" lon="0.80599">
        <ele>150.446</ele>
        <time>2019-08-04T07:48:18Z</time>
      </trkpt>
      <trkpt lat="45.2048" lon="0.80592">
        <ele>150.848</ele>
        <time>2019-08-04T07:48:19Z</time>
      </trkpt>
      <trkpt lat="45.20477" lon="0.80584">
        <ele>151.941</ele>
        <time>2019-08-04T07:48:20Z</time>
      </trkpt>
      <trkpt lat="45.20473" lon="0.80577">
        <ele>191.688</ele>
        <time>2019-08-04T07:48:21Z</time>
      </trkpt>
      <trkpt lat="45.20469" lon="0.8057">
        <ele>182.129</ele>
        <time>2019-08-04T07:48:22Z</time>
      </trkpt>
      <trkpt lat="45.20466" lon="0.80563">
        <ele>172.946</ele>
        <time>2019-08-04T07:48:23Z</time>
      </trkpt>
      <trkpt lat="45.20461" lon="0.80555">
        <ele>168.496</ele>
        <time>2019-08-04T07:48:24Z</time>
      </trkpt>
      <trkpt lat="45.20457" lon="0.80547">
        <ele>167.189</ele>
        <time>2019-08-04T07:48:25Z</time>
      </trkpt>
      <trkpt lat="45.20456" lon="0.80539">
        <ele>168.749</ele>
        <time>2019-08-04T07:48:26Z</time>
      </trkpt>
      <trkpt lat="45.20452" lon="0.80532">
        <ele>165.18</ele>
        <time>2019-08-04T07:48:27Z</time>
      </trkpt>
      <trkpt lat="45.20449" lon="0.80524">
        <ele>163.661</ele>
        <time>2019-08-04T07:48:28Z</time>
      </trkpt>
      <trkpt lat="45.20447" lon="0.80516">
        <ele>162.118</ele>
        <time>2019-08-04T07:48:29Z</time>
      </trkpt>
      <trkpt lat="45.20443" lon="0.80509">
        <ele>160.858</ele>
        <time>2019-08-04T07:48:30Z</time>
      </trkpt>
      <trkpt lat="45.2044" lon="0.80501">
        <ele>158.321</ele>
        <time>2019-08-04T07:48:31Z</time>
      </trkpt>
      <trkpt lat="45.20437" lon="0.80494">
        <ele>157.312</ele>
        <time>2019-08-04T07:48:32Z</time>
      </trkpt>
      <trkpt lat="45.20434" lon="0.80486">
        <ele>156.885</ele>
        <time>2019-08-04T07:48:33Z</time>
      </trkpt>
      <trkpt lat="45.2043" lon="0.80478">
        <ele>155.785</ele>
        <time>2019-08-04T07:48:34Z</time>
      </trkpt>
      <trkpt lat="45.20427" lon="0.80471">
        <ele>154.359</ele>
        <time>2019-08-04T07:48:35Z</time>
      </trkpt>
      <trkpt lat="45.20425" lon="0.80463">
        <ele>153.503</ele>
        <time>2019-08-04T07:48:36Z</time>
      </trkpt>
      <trkpt lat="45.2042" lon="0.80453">
        <ele>151.014</ele>
        <time>2019-08-04T07:48:37Z</time>
      </trkpt>
      <trkpt lat="45.20418" lon="0.80445">
        <ele>150.473</ele>
        <time>2019-08-04T07:48:38Z</time>
      </trkpt>
      <trkpt lat="45.20415" lon="0.80437">
        <ele>149.665</ele>
        <time>2019-08-04T07:48:39Z</time>
      </trkpt>
      <trkpt lat="45.20412" lon="0.80429">
        <ele>147.767</ele>
        <time>2019-08-04T07:48:40Z</time>
      </trkpt>
      <trkpt lat="45.20408" lon="0.80422">
        <ele>146.316</ele>
        <time>2019-08-04T07:48:41Z</time>
      </trkpt>
      <trkpt lat="45.20407" lon="0.80415">
        <ele>147.401</ele>
        <time>2019-08-04T07:48:42Z</time>
      </trkpt>
      <trkpt lat="45.20405" lon="0.80408">
        <ele>147.479</ele>
        <time>2019-08-04T07:48:43Z</time>
      </trkpt>
      <trkpt lat="45.20404" lon="0.80402">
        <ele>149.008</ele>
        <time>2019-08-04T07:48:44Z</time>
      </trkpt>
      <trkpt lat="45.20402" lon="0.80396">
        <ele>150.156</ele>
        <time>2019-08-04T07:48:45Z</time>
      </trkpt>
      <trkpt lat="45.204" lon="0.80389">
        <ele>149.474</ele>
        <time>2019-08-04T07:48:46Z</time>
      </trkpt>
      <trkpt lat="45.20398" lon="0.80384">
        <ele>149.084</ele>
        <time>2019-08-04T07:48:47Z</time>
      </trkpt>
      <trkpt lat="45.20396" lon="0.80377">
        <ele>149.073</ele>
        <time>2019-08-04T07:48:48Z</time>
      </trkpt>
      <trkpt lat="45.20394" lon="0.8037">
        <ele>147.976</ele>
        <time>2019-08-04T07:48:49Z</time>
      </trkpt>
      <trkpt lat="45.20392" lon="0.80364">
        <ele>147.706</ele>
        <time>2019-08-04T07:48:50Z</time>
      </trkpt>
      <trkpt lat="45.20391" lon="0.80358">
        <ele>148.977</ele>
        <time>2019-08-04T07:48:51Z</time>
      </trkpt>
      <trkpt lat="45.20389" lon="0.80352">
        <ele>149.718</ele>
        <time>2019-08-04T07:48:52Z</time>
      </trkpt>
      <trkpt lat="45.20387" lon="0.80345">
        <ele>149.502</ele>
        <time>2019-08-04T07:48:53Z</time>
      </trkpt>
      <trkpt lat="45.20385" lon="0.80339">
        <ele>148.592</ele>
        <time>2019-08-04T07:48:54Z</time>
      </trkpt>
      <trkpt lat="45.20384" lon="0.80332">
        <ele>148.846</ele>
        <time>2019-08-04T07:48:55Z</time>
      </trkpt>
      <trkpt lat="45.20382" lon="0.80326">
        <ele>147.294</ele>
        <time>2019-08-04T07:48:56Z</time>
      </trkpt>
      <trkpt lat="45.20387" lon="0.80307">
        <ele>149.251</ele>
        <time>2019-08-04T07:49:00Z</time>
      </trkpt>
      <trkpt lat="45.20387" lon="0.80307">
        <ele>149.251</ele>
        <time>2019-08-04T07:49:05Z</time>
      </trkpt>
      <trkpt lat="45.20387" lon="0.80307">
        <ele>149.251</ele>
        <time>2019-08-04T07:49:08Z</time>
      </trkpt>
      <trkpt lat="45.20384" lon="0.80299">
        <ele>148.076</ele>
        <time>2019-08-04T07:49:29Z</time>
      </trkpt>
      <trkpt lat="45.20384" lon="0.8029">
        <ele>161.29</ele>
        <time>2019-08-04T07:49:32Z</time>
      </trkpt>
      <trkpt lat="45.20388" lon="0.80276">
        <ele>153.588</ele>
        <time>2019-08-04T07:49:35Z</time>
      </trkpt>
      <trkpt lat="45.20395" lon="0.80263">
        <ele>150.626</ele>
        <time>2019-08-04T07:49:38Z</time>
      </trkpt>
      <trkpt lat="45.20403" lon="0.80257">
        <ele>152.411</ele>
        <time>2019-08-04T07:49:40Z</time>
      </trkpt>
      <trkpt lat="45.20407" lon="0.80255">
        <ele>151.789</ele>
        <time>2019-08-04T07:49:41Z</time>
      </trkpt>
      <trkpt lat="45.20411" lon="0.80252">
        <ele>152.75</ele>
        <time>2019-08-04T07:49:42Z</time>
      </trkpt>
      <trkpt lat="45.20418" lon="0.80247">
        <ele>151.796</ele>
        <time>2019-08-04T07:49:44Z</time>
      </trkpt>
      <trkpt lat="45.20422" lon="0.80245">
        <ele>152.575</ele>
        <time>2019-08-04T07:49:45Z</time>
      </trkpt>
      <trkpt lat="45.20426" lon="0.80242">
        <ele>150.475</ele>
        <time>2019-08-04T07:49:46Z</time>
      </trkpt>
      <trkpt lat="45.20433" lon="0.80237">
        <ele>148.468</ele>
        <time>2019-08-04T07:49:48Z</time>
      </trkpt>
      <trkpt lat="45.20436" lon="0.80235">
        <ele>147.511</ele>
        <time>2019-08-04T07:49:49Z</time>
      </trkpt>
      <trkpt lat="45.20439" lon="0.80233">
        <ele>147.597</ele>
        <time>2019-08-04T07:49:50Z</time>
      </trkpt>
      <trkpt lat="45.20444" lon="0.80231">
        <ele>147.875</ele>
        <time>2019-08-04T07:49:52Z</time>
      </trkpt>
      <trkpt lat="45.20444" lon="0.80231">
        <ele>147.875</ele>
        <time>2019-08-04T07:49:58Z</time>
      </trkpt>
      <trkpt lat="45.20444" lon="0.80231">
        <ele>147.875</ele>
        <time>2019-08-04T07:49:59Z</time>
      </trkpt>
      <trkpt lat="45.20443" lon="0.8022">
        <ele>145.662</ele>
        <time>2019-08-04T07:50:17Z</time>
      </trkpt>
      <trkpt lat="45.20445" lon="0.80212">
        <ele>145.939</ele>
        <time>2019-08-04T07:50:23Z</time>
      </trkpt>
      <trkpt lat="45.20447" lon="0.80205">
        <ele>144.811</ele>
        <time>2019-08-04T07:50:25Z</time>
      </trkpt>
      <trkpt lat="45.20447" lon="0.80201">
        <ele>145.675</ele>
        <time>2019-08-04T07:50:26Z</time>
      </trkpt>
      <trkpt lat="45.20448" lon="0.80193">
        <ele>144.927</ele>
        <time>2019-08-04T07:50:28Z</time>
      </trkpt>
      <trkpt lat="45.20448" lon="0.80188">
        <ele>146.479</ele>
        <time>2019-08-04T07:50:29Z</time>
      </trkpt>
      <trkpt lat="45.20449" lon="0.80183">
        <ele>145.016</ele>
        <time>2019-08-04T07:50:30Z</time>
      </trkpt>
      <trkpt lat="45.20449" lon="0.80179">
        <ele>144.785</ele>
        <time>2019-08-04T07:50:31Z</time>
      </trkpt>
      <trkpt lat="45.20449" lon="0.80174">
        <ele>145.166</ele>
        <time>2019-08-04T07:50:32Z</time>
      </trkpt>
      <trkpt lat="45.20449" lon="0.80169">
        <ele>144.523</ele>
        <time>2019-08-04T07:50:33Z</time>
      </trkpt>
      <trkpt lat="45.20449" lon="0.80164">
        <ele>144.538</ele>
        <time>2019-08-04T07:50:34Z</time>
      </trkpt>
      <trkpt lat="45.20449" lon="0.80158">
        <ele>144.844</ele>
        <time>2019-08-04T07:50:35Z</time>
      </trkpt>
      <trkpt lat="45.20449" lon="0.80152">
        <ele>144.973</ele>
        <time>2019-08-04T07:50:36Z</time>
      </trkpt>
      <trkpt lat="45.20449" lon="0.80147">
        <ele>145.22</ele>
        <time>2019-08-04T07:50:37Z</time>
      </trkpt>
      <trkpt lat="45.20449" lon="0.80141">
        <ele>144.095</ele>
        <time>2019-08-04T07:50:38Z</time>
      </trkpt>
      <trkpt lat="45.20449" lon="0.80125">
        <ele>146.5</ele>
        <time>2019-08-04T07:50:41Z</time>
      </trkpt>
      <trkpt lat="45.20447" lon="0.8011">
        <ele>147.321</ele>
        <time>2019-08-04T07:50:44Z</time>
      </trkpt>
      <trkpt lat="45.20447" lon="0.80106">
        <ele>146.041</ele>
        <time>2019-08-04T07:50:45Z</time>
      </trkpt>
      <trkpt lat="45.20447" lon="0.80101">
        <ele>147.37</ele>
        <time>2019-08-04T07:50:46Z</time>
      </trkpt>
      <trkpt lat="45.20446" lon="0.80096">
        <ele>147.83</ele>
        <time>2019-08-04T07:50:47Z</time>
      </trkpt>
      <trkpt lat="45.20446" lon="0.8009">
        <ele>149.123</ele>
        <time>2019-08-04T07:50:48Z</time>
      </trkpt>
      <trkpt lat="45.20445" lon="0.80081">
        <ele>182.076</ele>
        <time>2019-08-04T07:50:50Z</time>
      </trkpt>
      <trkpt lat="45.20445" lon="0.80068">
        <ele>161.923</ele>
        <time>2019-08-04T07:50:53Z</time>
      </trkpt>
      <trkpt lat="45.20445" lon="0.80063">
        <ele>156.975</ele>
        <time>2019-08-04T07:50:54Z</time>
      </trkpt>
      <trkpt lat="45.20445" lon="0.80057">
        <ele>155.222</ele>
        <time>2019-08-04T07:50:55Z</time>
      </trkpt>
      <trkpt lat="45.20445" lon="0.80052">
        <ele>152.171</ele>
        <time>2019-08-04T07:50:56Z</time>
      </trkpt>
      <trkpt lat="45.20445" lon="0.80047">
        <ele>150.394</ele>
        <time>2019-08-04T07:50:57Z</time>
      </trkpt>
      <trkpt lat="45.20445" lon="0.80042">
        <ele>150.195</ele>
        <time>2019-08-04T07:50:58Z</time>
      </trkpt>
      <trkpt lat="45.20445" lon="0.80037">
        <ele>150.088</ele>
        <time>2019-08-04T07:50:59Z</time>
      </trkpt>
      <trkpt lat="45.20445" lon="0.80032">
        <ele>150.012</ele>
        <time>2019-08-04T07:51:00Z</time>
      </trkpt>
      <trkpt lat="45.20446" lon="0.80026">
        <ele>148.415</ele>
        <time>2019-08-04T07:51:01Z</time>
      </trkpt>
      <trkpt lat="45.20447" lon="0.80015">
        <ele>149.215</ele>
        <time>2019-08-04T07:51:03Z</time>
      </trkpt>
      <trkpt lat="45.2045" lon="0.8">
        <ele>147.305</ele>
        <time>2019-08-04T07:51:06Z</time>
      </trkpt>
      <trkpt lat="45.20451" lon="0.79995">
        <ele>146.344</ele>
        <time>2019-08-04T07:51:07Z</time>
      </trkpt>
      <trkpt lat="45.20453" lon="0.7999">
        <ele>145.861</ele>
        <time>2019-08-04T07:51:08Z</time>
      </trkpt>
      <trkpt lat="45.20454" lon="0.79985">
        <ele>144.733</ele>
        <time>2019-08-04T07:51:09Z</time>
      </trkpt>
      <trkpt lat="45.20455" lon="0.79979">
        <ele>144.791</ele>
        <time>2019-08-04T07:51:10Z</time>
      </trkpt>
      <trkpt lat="45.20458" lon="0.79968">
        <ele>146.022</ele>
        <time>2019-08-04T07:51:12Z</time>
      </trkpt>
      <trkpt lat="45.2046" lon="0.79963">
        <ele>145.914</ele>
        <time>2019-08-04T07:51:13Z</time>
      </trkpt>
      <trkpt lat="45.20461" lon="0.79958">
        <ele>146.168</ele>
        <time>2019-08-04T07:51:14Z</time>
      </trkpt>
      <trkpt lat="45.20462" lon="0.79953">
        <ele>146.531</ele>
        <time>2019-08-04T07:51:15Z</time>
      </trkpt>
      <trkpt lat="45.20464" lon="0.79949">
        <ele>146.548</ele>
        <time>2019-08-04T07:51:16Z</time>
      </trkpt>
      <trkpt lat="45.20465" lon="0.79944">
        <ele>146.401</ele>
        <time>2019-08-04T07:51:17Z</time>
      </trkpt>
      <trkpt lat="45.20468" lon="0.79928">
        <ele>144.596</ele>
        <time>2019-08-04T07:51:20Z</time>
      </trkpt>
      <trkpt lat="45.20468" lon="0.79916">
        <ele>144.376</ele>
        <time>2019-08-04T07:51:22Z</time>
      </trkpt>
      <trkpt lat="45.20468" lon="0.79911">
        <ele>145.028</ele>
        <time>2019-08-04T07:51:23Z</time>
      </trkpt>
      <trkpt lat="45.20468" lon="0.79906">
        <ele>145.02</ele>
        <time>2019-08-04T07:51:24Z</time>
      </trkpt>
      <trkpt lat="45.20468" lon="0.799">
        <ele>144.533</ele>
        <time>2019-08-04T07:51:25Z</time>
      </trkpt>
      <trkpt lat="45.20468" lon="0.79894">
        <ele>144.749</ele>
        <time>2019-08-04T07:51:26Z</time>
      </trkpt>
      <trkpt lat="45.20468" lon="0.79874">
        <ele>144.776</ele>
        <time>2019-08-04T07:51:29Z</time>
      </trkpt>
      <trkpt lat="45.20468" lon="0.79868">
        <ele>144.301</ele>
        <time>2019-08-04T07:51:30Z</time>
      </trkpt>
      <trkpt lat="45.20467" lon="0.79861">
        <ele>144.531</ele>
        <time>2019-08-04T07:51:31Z</time>
      </trkpt>
      <trkpt lat="45.20465" lon="0.79854">
        <ele>143.715</ele>
        <time>2019-08-04T07:51:32Z</time>
      </trkpt>
      <trkpt lat="45.20463" lon="0.79848">
        <ele>144.123</ele>
        <time>2019-08-04T07:51:33Z</time>
      </trkpt>
      <trkpt lat="45.20462" lon="0.79841">
        <ele>144.46</ele>
        <time>2019-08-04T07:51:34Z</time>
      </trkpt>
      <trkpt lat="45.2046" lon="0.79835">
        <ele>144.601</ele>
        <time>2019-08-04T07:51:35Z</time>
      </trkpt>
      <trkpt lat="45.20457" lon="0.79819">
        <ele>144.804</ele>
        <time>2019-08-04T07:51:37Z</time>
      </trkpt>
      <trkpt lat="45.20456" lon="0.79812">
        <ele>144.876</ele>
        <time>2019-08-04T07:51:38Z</time>
      </trkpt>
      <trkpt lat="45.20457" lon="0.79805">
        <ele>144.308</ele>
        <time>2019-08-04T07:51:39Z</time>
      </trkpt>
      <trkpt lat="45.20456" lon="0.79798">
        <ele>145.383</ele>
        <time>2019-08-04T07:51:40Z</time>
      </trkpt>
      <trkpt lat="45.20455" lon="0.79791">
        <ele>144.311</ele>
        <time>2019-08-04T07:51:41Z</time>
      </trkpt>
      <trkpt lat="45.20456" lon="0.7978">
        <ele>146.272</ele>
        <time>2019-08-04T07:51:43Z</time>
      </trkpt>
      <trkpt lat="45.20455" lon="0.79768">
        <ele>145.525</ele>
        <time>2019-08-04T07:51:45Z</time>
      </trkpt>
      <trkpt lat="45.20454" lon="0.79746">
        <ele>148.482</ele>
        <time>2019-08-04T07:51:48Z</time>
      </trkpt>
      <trkpt lat="45.20454" lon="0.7974">
        <ele>148.789</ele>
        <time>2019-08-04T07:51:49Z</time>
      </trkpt>
      <trkpt lat="45.20451" lon="0.79722">
        <ele>149.173</ele>
        <time>2019-08-04T07:51:52Z</time>
      </trkpt>
      <trkpt lat="45.2045" lon="0.79716">
        <ele>149.606</ele>
        <time>2019-08-04T07:51:53Z</time>
      </trkpt>
      <trkpt lat="45.20449" lon="0.7971">
        <ele>150.143</ele>
        <time>2019-08-04T07:51:54Z</time>
      </trkpt>
      <trkpt lat="45.20446" lon="0.7969">
        <ele>150.891</ele>
        <time>2019-08-04T07:51:57Z</time>
      </trkpt>
      <trkpt lat="45.20444" lon="0.79682">
        <ele>151.294</ele>
        <time>2019-08-04T07:51:58Z</time>
      </trkpt>
      <trkpt lat="45.20441" lon="0.79677">
        <ele>149.962</ele>
        <time>2019-08-04T07:51:59Z</time>
      </trkpt>
      <trkpt lat="45.20438" lon="0.79668">
        <ele>150.48</ele>
        <time>2019-08-04T07:52:01Z</time>
      </trkpt>
      <trkpt lat="45.20437" lon="0.79661">
        <ele>149.263</ele>
        <time>2019-08-04T07:52:02Z</time>
      </trkpt>
      <trkpt lat="45.2044" lon="0.7965">
        <ele>150.666</ele>
        <time>2019-08-04T07:52:04Z</time>
      </trkpt>
      <trkpt lat="45.20446" lon="0.79643">
        <ele>149.594</ele>
        <time>2019-08-04T07:52:06Z</time>
      </trkpt>
      <trkpt lat="45.20453" lon="0.79639">
        <ele>150.347</ele>
        <time>2019-08-04T07:52:08Z</time>
      </trkpt>
      <trkpt lat="45.20459" lon="0.79636">
        <ele>150.797</ele>
        <time>2019-08-04T07:52:10Z</time>
      </trkpt>
      <trkpt lat="45.20466" lon="0.79633">
        <ele>152.582</ele>
        <time>2019-08-04T07:52:12Z</time>
      </trkpt>
      <trkpt lat="45.2047" lon="0.79632">
        <ele>151.366</ele>
        <time>2019-08-04T07:52:13Z</time>
      </trkpt>
      <trkpt lat="45.20473" lon="0.79631">
        <ele>151.057</ele>
        <time>2019-08-04T07:52:14Z</time>
      </trkpt>
      <trkpt lat="45.20476" lon="0.7963">
        <ele>151.092</ele>
        <time>2019-08-04T07:52:15Z</time>
      </trkpt>
      <trkpt lat="45.20479" lon="0.7963">
        <ele>151.1</ele>
        <time>2019-08-04T07:52:16Z</time>
      </trkpt>
      <trkpt lat="45.20482" lon="0.79629">
        <ele>151.209</ele>
        <time>2019-08-04T07:52:17Z</time>
      </trkpt>
      <trkpt lat="45.20488" lon="0.79627">
        <ele>152.515</ele>
        <time>2019-08-04T07:52:19Z</time>
      </trkpt>
      <trkpt lat="45.2049" lon="0.79626">
        <ele>152.736</ele>
        <time>2019-08-04T07:52:20Z</time>
      </trkpt>
      <trkpt lat="45.20493" lon="0.79624">
        <ele>151.969</ele>
        <time>2019-08-04T07:52:21Z</time>
      </trkpt>
      <trkpt lat="45.20496" lon="0.79623">
        <ele>151.019</ele>
        <time>2019-08-04T07:52:22Z</time>
      </trkpt>
      <trkpt lat="45.20501" lon="0.79621">
        <ele>150.798</ele>
        <time>2019-08-04T07:52:24Z</time>
      </trkpt>
      <trkpt lat="45.20504" lon="0.79619">
        <ele>151.003</ele>
        <time>2019-08-04T07:52:25Z</time>
      </trkpt>
      <trkpt lat="45.20507" lon="0.79618">
        <ele>151.119</ele>
        <time>2019-08-04T07:52:26Z</time>
      </trkpt>
      <trkpt lat="45.20512" lon="0.79616">
        <ele>152.688</ele>
        <time>2019-08-04T07:52:28Z</time>
      </trkpt>
      <trkpt lat="45.20514" lon="0.79614">
        <ele>152.981</ele>
        <time>2019-08-04T07:52:29Z</time>
      </trkpt>
      <trkpt lat="45.20517" lon="0.79613">
        <ele>153.453</ele>
        <time>2019-08-04T07:52:30Z</time>
      </trkpt>
      <trkpt lat="45.20523" lon="0.79607">
        <ele>153.489</ele>
        <time>2019-08-04T07:52:33Z</time>
      </trkpt>
      <trkpt lat="45.20522" lon="0.79591">
        <ele>152.639</ele>
        <time>2019-08-04T07:52:36Z</time>
      </trkpt>
      <trkpt lat="45.20521" lon="0.79585">
        <ele>153.297</ele>
        <time>2019-08-04T07:52:37Z</time>
      </trkpt>
      <trkpt lat="45.20519" lon="0.79579">
        <ele>153.225</ele>
        <time>2019-08-04T07:52:38Z</time>
      </trkpt>
      <trkpt lat="45.20515" lon="0.79561">
        <ele>152.915</ele>
        <time>2019-08-04T07:52:41Z</time>
      </trkpt>
      <trkpt lat="45.20513" lon="0.79555">
        <ele>152.587</ele>
        <time>2019-08-04T07:52:42Z</time>
      </trkpt>
      <trkpt lat="45.20512" lon="0.7955">
        <ele>152.225</ele>
        <time>2019-08-04T07:52:43Z</time>
      </trkpt>
      <trkpt lat="45.2051" lon="0.79544">
        <ele>153.474</ele>
        <time>2019-08-04T07:52:44Z</time>
      </trkpt>
      <trkpt lat="45.20507" lon="0.79537">
        <ele>153.549</ele>
        <time>2019-08-04T07:52:45Z</time>
      </trkpt>
      <trkpt lat="45.20506" lon="0.7953">
        <ele>153.87</ele>
        <time>2019-08-04T07:52:46Z</time>
      </trkpt>
      <trkpt lat="45.20502" lon="0.79511">
        <ele>152.648</ele>
        <time>2019-08-04T07:52:49Z</time>
      </trkpt>
      <trkpt lat="45.20498" lon="0.79492">
        <ele>152.866</ele>
        <time>2019-08-04T07:52:52Z</time>
      </trkpt>
      <trkpt lat="45.20497" lon="0.79483">
        <ele>151.679</ele>
        <time>2019-08-04T07:52:54Z</time>
      </trkpt>
      <trkpt lat="45.20504" lon="0.79473">
        <ele>150.423</ele>
        <time>2019-08-04T07:52:57Z</time>
      </trkpt>
      <trkpt lat="45.20513" lon="0.79468">
        <ele>150.399</ele>
        <time>2019-08-04T07:53:00Z</time>
      </trkpt>
      <trkpt lat="45.20522" lon="0.79464">
        <ele>148.777</ele>
        <time>2019-08-04T07:53:03Z</time>
      </trkpt>
      <trkpt lat="45.20528" lon="0.79461">
        <ele>150.624</ele>
        <time>2019-08-04T07:53:05Z</time>
      </trkpt>
      <trkpt lat="45.20531" lon="0.79459">
        <ele>152.081</ele>
        <time>2019-08-04T07:53:06Z</time>
      </trkpt>
      <trkpt lat="45.20534" lon="0.79457">
        <ele>152.586</ele>
        <time>2019-08-04T07:53:07Z</time>
      </trkpt>
      <trkpt lat="45.20537" lon="0.79456">
        <ele>152.506</ele>
        <time>2019-08-04T07:53:08Z</time>
      </trkpt>
      <trkpt lat="45.2054" lon="0.79454">
        <ele>153.411</ele>
        <time>2019-08-04T07:53:09Z</time>
      </trkpt>
      <trkpt lat="45.20542" lon="0.79453">
        <ele>154.713</ele>
        <time>2019-08-04T07:53:10Z</time>
      </trkpt>
      <trkpt lat="45.20548" lon="0.79451">
        <ele>154.478</ele>
        <time>2019-08-04T07:53:12Z</time>
      </trkpt>
      <trkpt lat="45.20551" lon="0.7945">
        <ele>154.956</ele>
        <time>2019-08-04T07:53:13Z</time>
      </trkpt>
      <trkpt lat="45.20554" lon="0.79449">
        <ele>155.433</ele>
        <time>2019-08-04T07:53:14Z</time>
      </trkpt>
      <trkpt lat="45.20557" lon="0.79448">
        <ele>154.367</ele>
        <time>2019-08-04T07:53:15Z</time>
      </trkpt>
      <trkpt lat="45.2056" lon="0.79448">
        <ele>153.823</ele>
        <time>2019-08-04T07:53:16Z</time>
      </trkpt>
      <trkpt lat="45.20562" lon="0.79447">
        <ele>154.224</ele>
        <time>2019-08-04T07:53:17Z</time>
      </trkpt>
      <trkpt lat="45.20565" lon="0.79446">
        <ele>154.258</ele>
        <time>2019-08-04T07:53:18Z</time>
      </trkpt>
      <trkpt lat="45.20568" lon="0.79445">
        <ele>154.502</ele>
        <time>2019-08-04T07:53:19Z</time>
      </trkpt>
      <trkpt lat="45.20571" lon="0.79444">
        <ele>154.318</ele>
        <time>2019-08-04T07:53:20Z</time>
      </trkpt>
      <trkpt lat="45.20573" lon="0.79444">
        <ele>153.776</ele>
        <time>2019-08-04T07:53:21Z</time>
      </trkpt>
      <trkpt lat="45.20576" lon="0.79443">
        <ele>153.531</ele>
        <time>2019-08-04T07:53:22Z</time>
      </trkpt>
      <trkpt lat="45.20582" lon="0.7944">
        <ele>152.265</ele>
        <time>2019-08-04T07:53:24Z</time>
      </trkpt>
      <trkpt lat="45.20584" lon="0.79439">
        <ele>152.319</ele>
        <time>2019-08-04T07:53:25Z</time>
      </trkpt>
      <trkpt lat="45.20587" lon="0.79438">
        <ele>151.105</ele>
        <time>2019-08-04T07:53:26Z</time>
      </trkpt>
      <trkpt lat="45.20592" lon="0.79437">
        <ele>150.61</ele>
        <time>2019-08-04T07:53:28Z</time>
      </trkpt>
      <trkpt lat="45.20594" lon="0.79436">
        <ele>151.031</ele>
        <time>2019-08-04T07:53:29Z</time>
      </trkpt>
      <trkpt lat="45.20597" lon="0.79435">
        <ele>150.504</ele>
        <time>2019-08-04T07:53:30Z</time>
      </trkpt>
      <trkpt lat="45.206" lon="0.79434">
        <ele>149.863</ele>
        <time>2019-08-04T07:53:31Z</time>
      </trkpt>
      <trkpt lat="45.20602" lon="0.79433">
        <ele>149.651</ele>
        <time>2019-08-04T07:53:32Z</time>
      </trkpt>
      <trkpt lat="45.20605" lon="0.79432">
        <ele>149.851</ele>
        <time>2019-08-04T07:53:33Z</time>
      </trkpt>
      <trkpt lat="45.20607" lon="0.79432">
        <ele>150.378</ele>
        <time>2019-08-04T07:53:34Z</time>
      </trkpt>
      <trkpt lat="45.20612" lon="0.79431">
        <ele>150.508</ele>
        <time>2019-08-04T07:53:36Z</time>
      </trkpt>
      <trkpt lat="45.20616" lon="0.79428">
        <ele>150.438</ele>
        <time>2019-08-04T07:53:38Z</time>
      </trkpt>
      <trkpt lat="45.20619" lon="0.79419">
        <ele>150.319</ele>
        <time>2019-08-04T07:53:41Z</time>
      </trkpt>
      <trkpt lat="45.20618" lon="0.7941">
        <ele>149.516</ele>
        <time>2019-08-04T07:53:44Z</time>
      </trkpt>
      <trkpt lat="45.20618" lon="0.79406">
        <ele>150.033</ele>
        <time>2019-08-04T07:53:45Z</time>
      </trkpt>
      <trkpt lat="45.20617" lon="0.79403">
        <ele>150.243</ele>
        <time>2019-08-04T07:53:46Z</time>
      </trkpt>
      <trkpt lat="45.20617" lon="0.7939">
        <ele>150.145</ele>
        <time>2019-08-04T07:53:49Z</time>
      </trkpt>
      <trkpt lat="45.20617" lon="0.79382">
        <ele>150.304</ele>
        <time>2019-08-04T07:53:51Z</time>
      </trkpt>
      <trkpt lat="45.20617" lon="0.79378">
        <ele>151.79</ele>
        <time>2019-08-04T07:53:52Z</time>
      </trkpt>
      <trkpt lat="45.20616" lon="0.79369">
        <ele>150.485</ele>
        <time>2019-08-04T07:53:54Z</time>
      </trkpt>
      <trkpt lat="45.20615" lon="0.79365">
        <ele>151.269</ele>
        <time>2019-08-04T07:53:55Z</time>
      </trkpt>
      <trkpt lat="45.20615" lon="0.7936">
        <ele>151.871</ele>
        <time>2019-08-04T07:53:56Z</time>
      </trkpt>
      <trkpt lat="45.20615" lon="0.79354">
        <ele>151.462</ele>
        <time>2019-08-04T07:53:58Z</time>
      </trkpt>
      <trkpt lat="45.20616" lon="0.79345">
        <ele>150.782</ele>
        <time>2019-08-04T07:54:01Z</time>
      </trkpt>
      <trkpt lat="45.20615" lon="0.79336">
        <ele>150.394</ele>
        <time>2019-08-04T07:54:04Z</time>
      </trkpt>
      <trkpt lat="45.20615" lon="0.79332">
        <ele>150.965</ele>
        <time>2019-08-04T07:54:05Z</time>
      </trkpt>
      <trkpt lat="45.20614" lon="0.79322">
        <ele>153.058</ele>
        <time>2019-08-04T07:54:08Z</time>
      </trkpt>
      <trkpt lat="45.20614" lon="0.79305">
        <ele>152.949</ele>
        <time>2019-08-04T07:54:13Z</time>
      </trkpt>
      <trkpt lat="45.20612" lon="0.79297">
        <ele>151.668</ele>
        <time>2019-08-04T07:54:15Z</time>
      </trkpt>
      <trkpt lat="45.2061" lon="0.79289">
        <ele>151.968</ele>
        <time>2019-08-04T07:54:17Z</time>
      </trkpt>
      <trkpt lat="45.20609" lon="0.79281">
        <ele>152.478</ele>
        <time>2019-08-04T07:54:20Z</time>
      </trkpt>
      <trkpt lat="45.20608" lon="0.79276">
        <ele>154.329</ele>
        <time>2019-08-04T07:54:22Z</time>
      </trkpt>
      <trkpt lat="45.20608" lon="0.79268">
        <ele>154.889</ele>
        <time>2019-08-04T07:54:24Z</time>
      </trkpt>
      <trkpt lat="45.20609" lon="0.7926">
        <ele>154.189</ele>
        <time>2019-08-04T07:54:26Z</time>
      </trkpt>
      <trkpt lat="45.20609" lon="0.79253">
        <ele>153.639</ele>
        <time>2019-08-04T07:54:28Z</time>
      </trkpt>
      <trkpt lat="45.20608" lon="0.79247">
        <ele>153.975</ele>
        <time>2019-08-04T07:54:30Z</time>
      </trkpt>
      <trkpt lat="45.20606" lon="0.79237">
        <ele>152.363</ele>
        <time>2019-08-04T07:54:33Z</time>
      </trkpt>
      <trkpt lat="45.20606" lon="0.79234">
        <ele>155.501</ele>
        <time>2019-08-04T07:54:34Z</time>
      </trkpt>
      <trkpt lat="45.20605" lon="0.79229">
        <ele>156.527</ele>
        <time>2019-08-04T07:54:35Z</time>
      </trkpt>
      <trkpt lat="45.20604" lon="0.79225">
        <ele>156.241</ele>
        <time>2019-08-04T07:54:36Z</time>
      </trkpt>
      <trkpt lat="45.20604" lon="0.79221">
        <ele>156.621</ele>
        <time>2019-08-04T07:54:37Z</time>
      </trkpt>
      <trkpt lat="45.20602" lon="0.79212">
        <ele>155.948</ele>
        <time>2019-08-04T07:54:39Z</time>
      </trkpt>
      <trkpt lat="45.20601" lon="0.79207">
        <ele>154.557</ele>
        <time>2019-08-04T07:54:40Z</time>
      </trkpt>
      <trkpt lat="45.20601" lon="0.79195">
        <ele>155.501</ele>
        <time>2019-08-04T07:54:42Z</time>
      </trkpt>
      <trkpt lat="45.20602" lon="0.79185">
        <ele>156.904</ele>
        <time>2019-08-04T07:54:44Z</time>
      </trkpt>
      <trkpt lat="45.20602" lon="0.79179">
        <ele>158.002</ele>
        <time>2019-08-04T07:54:45Z</time>
      </trkpt>
      <trkpt lat="45.20599" lon="0.79165">
        <ele>157.554</ele>
        <time>2019-08-04T07:54:48Z</time>
      </trkpt>
      <trkpt lat="45.20594" lon="0.79158">
        <ele>156.738</ele>
        <time>2019-08-04T07:54:50Z</time>
      </trkpt>
      <trkpt lat="45.20584" lon="0.7915">
        <ele>153.995</ele>
        <time>2019-08-04T07:54:53Z</time>
      </trkpt>
      <trkpt lat="45.20581" lon="0.79148">
        <ele>153.321</ele>
        <time>2019-08-04T07:54:54Z</time>
      </trkpt>
      <trkpt lat="45.20572" lon="0.79142">
        <ele>151.171</ele>
        <time>2019-08-04T07:54:56Z</time>
      </trkpt>
      <trkpt lat="45.20564" lon="0.79134">
        <ele>145.816</ele>
        <time>2019-08-04T07:54:58Z</time>
      </trkpt>
      <trkpt lat="45.2056" lon="0.79128">
        <ele>142.849</ele>
        <time>2019-08-04T07:55:00Z</time>
      </trkpt>
      <trkpt lat="45.20558" lon="0.79125">
        <ele>142.873</ele>
        <time>2019-08-04T07:55:01Z</time>
      </trkpt>
      <trkpt lat="45.20556" lon="0.79121">
        <ele>142.299</ele>
        <time>2019-08-04T07:55:02Z</time>
      </trkpt>
      <trkpt lat="45.2055" lon="0.79109">
        <ele>143.463</ele>
        <time>2019-08-04T07:55:05Z</time>
      </trkpt>
      <trkpt lat="45.2055" lon="0.79095">
        <ele>145.041</ele>
        <time>2019-08-04T07:55:08Z</time>
      </trkpt>
      <trkpt lat="45.20551" lon="0.79089">
        <ele>144.827</ele>
        <time>2019-08-04T07:55:10Z</time>
      </trkpt>
      <trkpt lat="45.20552" lon="0.79078">
        <ele>146.071</ele>
        <time>2019-08-04T07:55:13Z</time>
      </trkpt>
      <trkpt lat="45.20551" lon="0.79068">
        <ele>148.971</ele>
        <time>2019-08-04T07:55:16Z</time>
      </trkpt>
      <trkpt lat="45.20551" lon="0.79064">
        <ele>148.12</ele>
        <time>2019-08-04T07:55:17Z</time>
      </trkpt>
      <trkpt lat="45.2055" lon="0.79048">
        <ele>147.705</ele>
        <time>2019-08-04T07:55:21Z</time>
      </trkpt>
      <trkpt lat="45.2055" lon="0.79043">
        <ele>146.721</ele>
        <time>2019-08-04T07:55:22Z</time>
      </trkpt>
      <trkpt lat="45.20552" lon="0.79036">
        <ele>145.278</ele>
        <time>2019-08-04T07:55:24Z</time>
      </trkpt>
      <trkpt lat="45.20554" lon="0.7903">
        <ele>145.182</ele>
        <time>2019-08-04T07:55:26Z</time>
      </trkpt>
      <trkpt lat="45.20556" lon="0.79023">
        <ele>145.738</ele>
        <time>2019-08-04T07:55:28Z</time>
      </trkpt>
      <trkpt lat="45.20557" lon="0.7902">
        <ele>144.454</ele>
        <time>2019-08-04T07:55:29Z</time>
      </trkpt>
      <trkpt lat="45.20557" lon="0.79016">
        <ele>144.982</ele>
        <time>2019-08-04T07:55:30Z</time>
      </trkpt>
      <trkpt lat="45.20558" lon="0.79012">
        <ele>147.381</ele>
        <time>2019-08-04T07:55:32Z</time>
      </trkpt>
      <trkpt lat="45.20558" lon="0.79006">
        <ele>147.327</ele>
        <time>2019-08-04T07:55:34Z</time>
      </trkpt>
      <trkpt lat="45.2056" lon="0.78998">
        <ele>147.616</ele>
        <time>2019-08-04T07:55:37Z</time>
      </trkpt>
      <trkpt lat="45.20561" lon="0.78994">
        <ele>148.557</ele>
        <time>2019-08-04T07:55:38Z</time>
      </trkpt>
      <trkpt lat="45.20562" lon="0.7899">
        <ele>149.162</ele>
        <time>2019-08-04T07:55:39Z</time>
      </trkpt>
      <trkpt lat="45.20565" lon="0.78984">
        <ele>150.265</ele>
        <time>2019-08-04T07:55:41Z</time>
      </trkpt>
      <trkpt lat="45.20567" lon="0.78974">
        <ele>149.738</ele>
        <time>2019-08-04T07:55:44Z</time>
      </trkpt>
      <trkpt lat="45.20568" lon="0.78966">
        <ele>148.768</ele>
        <time>2019-08-04T07:55:46Z</time>
      </trkpt>
      <trkpt lat="45.2057" lon="0.78954">
        <ele>148.759</ele>
        <time>2019-08-04T07:55:49Z</time>
      </trkpt>
      <trkpt lat="45.20572" lon="0.78945">
        <ele>148.513</ele>
        <time>2019-08-04T07:55:52Z</time>
      </trkpt>
      <trkpt lat="45.20576" lon="0.78931">
        <ele>152.03</ele>
        <time>2019-08-04T07:55:57Z</time>
      </trkpt>
      <trkpt lat="45.20578" lon="0.7892">
        <ele>153.639</ele>
        <time>2019-08-04T07:56:00Z</time>
      </trkpt>
      <trkpt lat="45.20579" lon="0.78912">
        <ele>153.157</ele>
        <time>2019-08-04T07:56:02Z</time>
      </trkpt>
      <trkpt lat="45.2058" lon="0.78908">
        <ele>153.676</ele>
        <time>2019-08-04T07:56:03Z</time>
      </trkpt>
      <trkpt lat="45.20581" lon="0.78905">
        <ele>153.901</ele>
        <time>2019-08-04T07:56:04Z</time>
      </trkpt>
      <trkpt lat="45.20582" lon="0.78902">
        <ele>153.527</ele>
        <time>2019-08-04T07:56:05Z</time>
      </trkpt>
      <trkpt lat="45.20583" lon="0.78898">
        <ele>152.856</ele>
        <time>2019-08-04T07:56:06Z</time>
      </trkpt>
      <trkpt lat="45.20584" lon="0.78895">
        <ele>152.061</ele>
        <time>2019-08-04T07:56:07Z</time>
      </trkpt>
      <trkpt lat="45.20584" lon="0.78892">
        <ele>151.589</ele>
        <time>2019-08-04T07:56:08Z</time>
      </trkpt>
      <trkpt lat="45.20585" lon="0.78888">
        <ele>151.454</ele>
        <time>2019-08-04T07:56:09Z</time>
      </trkpt>
      <trkpt lat="45.20586" lon="0.78885">
        <ele>151.887</ele>
        <time>2019-08-04T07:56:10Z</time>
      </trkpt>
      <trkpt lat="45.20586" lon="0.78876">
        <ele>152.328</ele>
        <time>2019-08-04T07:56:12Z</time>
      </trkpt>
      <trkpt lat="45.20586" lon="0.78868">
        <ele>153.075</ele>
        <time>2019-08-04T07:56:14Z</time>
      </trkpt>
      <trkpt lat="45.20587" lon="0.78859">
        <ele>153.105</ele>
        <time>2019-08-04T07:56:17Z</time>
      </trkpt>
      <trkpt lat="45.2059" lon="0.78847">
        <ele>151.652</ele>
        <time>2019-08-04T07:56:21Z</time>
      </trkpt>
      <trkpt lat="45.2059" lon="0.78838">
        <ele>153.907</ele>
        <time>2019-08-04T07:56:24Z</time>
      </trkpt>
      <trkpt lat="45.2059" lon="0.78832">
        <ele>153.828</ele>
        <time>2019-08-04T07:56:26Z</time>
      </trkpt>
      <trkpt lat="45.2059" lon="0.78826">
        <ele>155.282</ele>
        <time>2019-08-04T07:56:28Z</time>
      </trkpt>
      <trkpt lat="45.2059" lon="0.78822">
        <ele>153.439</ele>
        <time>2019-08-04T07:56:29Z</time>
      </trkpt>
      <trkpt lat="45.2059" lon="0.78819">
        <ele>152.28</ele>
        <time>2019-08-04T07:56:30Z</time>
      </trkpt>
      <trkpt lat="45.2059" lon="0.78815">
        <ele>153.043</ele>
        <time>2019-08-04T07:56:31Z</time>
      </trkpt>
      <trkpt lat="45.20591" lon="0.78811">
        <ele>153.62</ele>
        <time>2019-08-04T07:56:32Z</time>
      </trkpt>
      <trkpt lat="45.2059" lon="0.78801">
        <ele>153.697</ele>
        <time>2019-08-04T07:56:35Z</time>
      </trkpt>
      <trkpt lat="45.20591" lon="0.78792">
        <ele>155.367</ele>
        <time>2019-08-04T07:56:38Z</time>
      </trkpt>
      <trkpt lat="45.20591" lon="0.78789">
        <ele>155.988</ele>
        <time>2019-08-04T07:56:39Z</time>
      </trkpt>
      <trkpt lat="45.20591" lon="0.78782">
        <ele>156.932</ele>
        <time>2019-08-04T07:56:41Z</time>
      </trkpt>
      <trkpt lat="45.20591" lon="0.78779">
        <ele>157.114</ele>
        <time>2019-08-04T07:56:42Z</time>
      </trkpt>
      <trkpt lat="45.20592" lon="0.78769">
        <ele>155.959</ele>
        <time>2019-08-04T07:56:45Z</time>
      </trkpt>
      <trkpt lat="45.20592" lon="0.78766">
        <ele>156.951</ele>
        <time>2019-08-04T07:56:46Z</time>
      </trkpt>
      <trkpt lat="45.20593" lon="0.7876">
        <ele>156.521</ele>
        <time>2019-08-04T07:56:48Z</time>
      </trkpt>
      <trkpt lat="45.20593" lon="0.78748">
        <ele>157.21</ele>
        <time>2019-08-04T07:56:52Z</time>
      </trkpt>
      <trkpt lat="45.20593" lon="0.78741">
        <ele>157.874</ele>
        <time>2019-08-04T07:56:54Z</time>
      </trkpt>
      <trkpt lat="45.20593" lon="0.78731">
        <ele>160.178</ele>
        <time>2019-08-04T07:56:57Z</time>
      </trkpt>
      <trkpt lat="45.20594" lon="0.78727">
        <ele>159.579</ele>
        <time>2019-08-04T07:56:58Z</time>
      </trkpt>
      <trkpt lat="45.20594" lon="0.78719">
        <ele>160.003</ele>
        <time>2019-08-04T07:57:00Z</time>
      </trkpt>
      <trkpt lat="45.20595" lon="0.78716">
        <ele>159.591</ele>
        <time>2019-08-04T07:57:01Z</time>
      </trkpt>
      <trkpt lat="45.20596" lon="0.78709">
        <ele>161.563</ele>
        <time>2019-08-04T07:57:04Z</time>
      </trkpt>
      <trkpt lat="45.20595" lon="0.78699">
        <ele>159.363</ele>
        <time>2019-08-04T07:57:07Z</time>
      </trkpt>
      <trkpt lat="45.20593" lon="0.78692">
        <ele>161.635</ele>
        <time>2019-08-04T07:57:10Z</time>
      </trkpt>
      <trkpt lat="45.20591" lon="0.78687">
        <ele>163.459</ele>
        <time>2019-08-04T07:57:12Z</time>
      </trkpt>
      <trkpt lat="45.2059" lon="0.78681">
        <ele>163.352</ele>
        <time>2019-08-04T07:57:14Z</time>
      </trkpt>
      <trkpt lat="45.2059" lon="0.78674">
        <ele>165.008</ele>
        <time>2019-08-04T07:57:17Z</time>
      </trkpt>
      <trkpt lat="45.2059" lon="0.78669">
        <ele>162.335</ele>
        <time>2019-08-04T07:57:19Z</time>
      </trkpt>
      <trkpt lat="45.20589" lon="0.78662">
        <ele>162.597</ele>
        <time>2019-08-04T07:57:21Z</time>
      </trkpt>
      <trkpt lat="45.20589" lon="0.78658">
        <ele>162.725</ele>
        <time>2019-08-04T07:57:22Z</time>
      </trkpt>
      <trkpt lat="45.20587" lon="0.7865">
        <ele>161.729</ele>
        <time>2019-08-04T07:57:25Z</time>
      </trkpt>
      <trkpt lat="45.20586" lon="0.78646">
        <ele>162.172</ele>
        <time>2019-08-04T07:57:26Z</time>
      </trkpt>
      <trkpt lat="45.20586" lon="0.78642">
        <ele>162.944</ele>
        <time>2019-08-04T07:57:27Z</time>
      </trkpt>
      <trkpt lat="45.20585" lon="0.78639">
        <ele>162.814</ele>
        <time>2019-08-04T07:57:28Z</time>
      </trkpt>
      <trkpt lat="45.20585" lon="0.78629">
        <ele>162.416</ele>
        <time>2019-08-04T07:57:31Z</time>
      </trkpt>
      <trkpt lat="45.20586" lon="0.78618">
        <ele>161.923</ele>
        <time>2019-08-04T07:57:34Z</time>
      </trkpt>
      <trkpt lat="45.20585" lon="0.78607">
        <ele>160.398</ele>
        <time>2019-08-04T07:57:37Z</time>
      </trkpt>
      <trkpt lat="45.20585" lon="0.78603">
        <ele>160.854</ele>
        <time>2019-08-04T07:57:38Z</time>
      </trkpt>
      <trkpt lat="45.20585" lon="0.78599">
        <ele>161.13</ele>
        <time>2019-08-04T07:57:39Z</time>
      </trkpt>
      <trkpt lat="45.20584" lon="0.78588">
        <ele>161.41</ele>
        <time>2019-08-04T07:57:42Z</time>
      </trkpt>
      <trkpt lat="45.20582" lon="0.78578">
        <ele>164.229</ele>
        <time>2019-08-04T07:57:45Z</time>
      </trkpt>
      <trkpt lat="45.20582" lon="0.78571">
        <ele>164.439</ele>
        <time>2019-08-04T07:57:47Z</time>
      </trkpt>
      <trkpt lat="45.2058" lon="0.78562">
        <ele>167.335</ele>
        <time>2019-08-04T07:57:50Z</time>
      </trkpt>
      <trkpt lat="45.20579" lon="0.78558">
        <ele>165.903</ele>
        <time>2019-08-04T07:57:51Z</time>
      </trkpt>
      <trkpt lat="45.20578" lon="0.78551">
        <ele>167.624</ele>
        <time>2019-08-04T07:57:53Z</time>
      </trkpt>
      <trkpt lat="45.20577" lon="0.78545">
        <ele>166.826</ele>
        <time>2019-08-04T07:57:55Z</time>
      </trkpt>
      <trkpt lat="45.20577" lon="0.78539">
        <ele>166.498</ele>
        <time>2019-08-04T07:57:57Z</time>
      </trkpt>
      <trkpt lat="45.20577" lon="0.78529">
        <ele>166.926</ele>
        <time>2019-08-04T07:58:00Z</time>
      </trkpt>
      <trkpt lat="45.20577" lon="0.78525">
        <ele>166.93</ele>
        <time>2019-08-04T07:58:01Z</time>
      </trkpt>
      <trkpt lat="45.20573" lon="0.78514">
        <ele>167.267</ele>
        <time>2019-08-04T07:58:05Z</time>
      </trkpt>
      <trkpt lat="45.20572" lon="0.78511">
        <ele>167.842</ele>
        <time>2019-08-04T07:58:06Z</time>
      </trkpt>
      <trkpt lat="45.20569" lon="0.78502">
        <ele>168.27</ele>
        <time>2019-08-04T07:58:09Z</time>
      </trkpt>
      <trkpt lat="45.20568" lon="0.78499">
        <ele>168.256</ele>
        <time>2019-08-04T07:58:10Z</time>
      </trkpt>
      <trkpt lat="45.20566" lon="0.78492">
        <ele>170.55</ele>
        <time>2019-08-04T07:58:13Z</time>
      </trkpt>
      <trkpt lat="45.20564" lon="0.78488">
        <ele>170.297</ele>
        <time>2019-08-04T07:58:15Z</time>
      </trkpt>
      <trkpt lat="45.20563" lon="0.78485">
        <ele>170.855</ele>
        <time>2019-08-04T07:58:17Z</time>
      </trkpt>
      <trkpt lat="45.20561" lon="0.78481">
        <ele>169.846</ele>
        <time>2019-08-04T07:58:19Z</time>
      </trkpt>
      <trkpt lat="45.20559" lon="0.78472">
        <ele>166.622</ele>
        <time>2019-08-04T07:58:22Z</time>
      </trkpt>
      <trkpt lat="45.20557" lon="0.78462">
        <ele>165.977</ele>
        <time>2019-08-04T07:58:24Z</time>
      </trkpt>
      <trkpt lat="45.20556" lon="0.78457">
        <ele>164.469</ele>
        <time>2019-08-04T07:58:25Z</time>
      </trkpt>
      <trkpt lat="45.20555" lon="0.78452">
        <ele>165.084</ele>
        <time>2019-08-04T07:58:26Z</time>
      </trkpt>
      <trkpt lat="45.20555" lon="0.78439">
        <ele>162.683</ele>
        <time>2019-08-04T07:58:29Z</time>
      </trkpt>
      <trkpt lat="45.20555" lon="0.7842">
        <ele>159.868</ele>
        <time>2019-08-04T07:58:33Z</time>
      </trkpt>
      <trkpt lat="45.20553" lon="0.78409">
        <ele>159.805</ele>
        <time>2019-08-04T07:58:35Z</time>
      </trkpt>
      <trkpt lat="45.20551" lon="0.78391">
        <ele>159.065</ele>
        <time>2019-08-04T07:58:38Z</time>
      </trkpt>
      <trkpt lat="45.2055" lon="0.78385">
        <ele>158.476</ele>
        <time>2019-08-04T07:58:39Z</time>
      </trkpt>
      <trkpt lat="45.20547" lon="0.78375">
        <ele>159.078</ele>
        <time>2019-08-04T07:58:41Z</time>
      </trkpt>
      <trkpt lat="45.20544" lon="0.78368">
        <ele>159.64</ele>
        <time>2019-08-04T07:58:43Z</time>
      </trkpt>
      <trkpt lat="45.20539" lon="0.78357">
        <ele>162.427</ele>
        <time>2019-08-04T07:58:46Z</time>
      </trkpt>
      <trkpt lat="45.20538" lon="0.78354">
        <ele>163.58</ele>
        <time>2019-08-04T07:58:47Z</time>
      </trkpt>
      <trkpt lat="45.20534" lon="0.78347">
        <ele>165.037</ele>
        <time>2019-08-04T07:58:50Z</time>
      </trkpt>
      <trkpt lat="45.20529" lon="0.7834">
        <ele>165.065</ele>
        <time>2019-08-04T07:58:53Z</time>
      </trkpt>
      <trkpt lat="45.20522" lon="0.78334">
        <ele>168.178</ele>
        <time>2019-08-04T07:58:57Z</time>
      </trkpt>
      <trkpt lat="45.20515" lon="0.78325">
        <ele>170.605</ele>
        <time>2019-08-04T07:59:02Z</time>
      </trkpt>
      <trkpt lat="45.20513" lon="0.78317">
        <ele>169.437</ele>
        <time>2019-08-04T07:59:05Z</time>
      </trkpt>
      <trkpt lat="45.20511" lon="0.78308">
        <ele>169.44</ele>
        <time>2019-08-04T07:59:08Z</time>
      </trkpt>
      <trkpt lat="45.20507" lon="0.78302">
        <ele>170.014</ele>
        <time>2019-08-04T07:59:11Z</time>
      </trkpt>
      <trkpt lat="45.20501" lon="0.78298">
        <ele>175.077</ele>
        <time>2019-08-04T07:59:15Z</time>
      </trkpt>
      <trkpt lat="45.20495" lon="0.7829">
        <ele>173.435</ele>
        <time>2019-08-04T07:59:19Z</time>
      </trkpt>
      <trkpt lat="45.20484" lon="0.78283">
        <ele>169.662</ele>
        <time>2019-08-04T07:59:22Z</time>
      </trkpt>
      <trkpt lat="45.2048" lon="0.78281">
        <ele>169.272</ele>
        <time>2019-08-04T07:59:23Z</time>
      </trkpt>
      <trkpt lat="45.20473" lon="0.78278">
        <ele>169.94</ele>
        <time>2019-08-04T07:59:25Z</time>
      </trkpt>
      <trkpt lat="45.2047" lon="0.78276">
        <ele>169.734</ele>
        <time>2019-08-04T07:59:26Z</time>
      </trkpt>
      <trkpt lat="45.20467" lon="0.78275">
        <ele>171.221</ele>
        <time>2019-08-04T07:59:27Z</time>
      </trkpt>
      <trkpt lat="45.20458" lon="0.78269">
        <ele>171.85</ele>
        <time>2019-08-04T07:59:30Z</time>
      </trkpt>
      <trkpt lat="45.20455" lon="0.78267">
        <ele>172.046</ele>
        <time>2019-08-04T07:59:31Z</time>
      </trkpt>
      <trkpt lat="45.20447" lon="0.78257">
        <ele>170.832</ele>
        <time>2019-08-04T07:59:34Z</time>
      </trkpt>
      <trkpt lat="45.20444" lon="0.78245">
        <ele>169.049</ele>
        <time>2019-08-04T07:59:37Z</time>
      </trkpt>
      <trkpt lat="45.20443" lon="0.7824">
        <ele>169.914</ele>
        <time>2019-08-04T07:59:39Z</time>
      </trkpt>
      <trkpt lat="45.20443" lon="0.7824">
        <ele>169.914</ele>
        <time>2019-08-04T07:59:47Z</time>
      </trkpt>
      <trkpt lat="45.20443" lon="0.7824">
        <ele>169.914</ele>
        <time>2019-08-04T07:59:48Z</time>
      </trkpt>
      <trkpt lat="45.20453" lon="0.78258">
        <ele>173.681</ele>
        <time>2019-08-04T07:59:49Z</time>
      </trkpt>
      <trkpt lat="45.20458" lon="0.78263">
        <ele>174.23</ele>
        <time>2019-08-04T07:59:51Z</time>
      </trkpt>
      <trkpt lat="45.20462" lon="0.78267">
        <ele>174.056</ele>
        <time>2019-08-04T07:59:53Z</time>
      </trkpt>
      <trkpt lat="45.20467" lon="0.78277">
        <ele>176.211</ele>
        <time>2019-08-04T07:59:57Z</time>
      </trkpt>
      <trkpt lat="45.20463" lon="0.78285">
        <ele>175.539</ele>
        <time>2019-08-04T07:59:59Z</time>
      </trkpt>
      <trkpt lat="45.2043" lon="0.78287">
        <ele>171.681</ele>
        <time>2019-08-04T08:00:04Z</time>
      </trkpt>
      <trkpt lat="45.20425" lon="0.78286">
        <ele>172.701</ele>
        <time>2019-08-04T08:00:05Z</time>
      </trkpt>
      <trkpt lat="45.20419" lon="0.78282">
        <ele>173.39</ele>
        <time>2019-08-04T08:00:06Z</time>
      </trkpt>
      <trkpt lat="45.20412" lon="0.7828">
        <ele>173.163</ele>
        <time>2019-08-04T08:00:07Z</time>
      </trkpt>
      <trkpt lat="45.2039" lon="0.78271">
        <ele>171.749</ele>
        <time>2019-08-04T08:00:10Z</time>
      </trkpt>
      <trkpt lat="45.20385" lon="0.78265">
        <ele>171.549</ele>
        <time>2019-08-04T08:00:11Z</time>
      </trkpt>
      <trkpt lat="45.20378" lon="0.7826">
        <ele>170.422</ele>
        <time>2019-08-04T08:00:12Z</time>
      </trkpt>
      <trkpt lat="45.20364" lon="0.78248">
        <ele>167.22</ele>
        <time>2019-08-04T08:00:14Z</time>
      </trkpt>
      <trkpt lat="45.20358" lon="0.78243">
        <ele>166.244</ele>
        <time>2019-08-04T08:00:15Z</time>
      </trkpt>
      <trkpt lat="45.20335" lon="0.78228">
        <ele>165.536</ele>
        <time>2019-08-04T08:00:18Z</time>
      </trkpt>
      <trkpt lat="45.20327" lon="0.78225">
        <ele>165.561</ele>
        <time>2019-08-04T08:00:19Z</time>
      </trkpt>
      <trkpt lat="45.20316" lon="0.78215">
        <ele>164.508</ele>
        <time>2019-08-04T08:00:21Z</time>
      </trkpt>
      <trkpt lat="45.2031" lon="0.78212">
        <ele>164.91</ele>
        <time>2019-08-04T08:00:22Z</time>
      </trkpt>
      <trkpt lat="45.20304" lon="0.7821">
        <ele>164.644</ele>
        <time>2019-08-04T08:00:23Z</time>
      </trkpt>
      <trkpt lat="45.20291" lon="0.7821">
        <ele>161.882</ele>
        <time>2019-08-04T08:00:26Z</time>
      </trkpt>
      <trkpt lat="45.20285" lon="0.78212">
        <ele>162.514</ele>
        <time>2019-08-04T08:00:27Z</time>
      </trkpt>
      <trkpt lat="45.20281" lon="0.78215">
        <ele>162.233</ele>
        <time>2019-08-04T08:00:28Z</time>
      </trkpt>
      <trkpt lat="45.20274" lon="0.78214">
        <ele>162.175</ele>
        <time>2019-08-04T08:00:30Z</time>
      </trkpt>
      <trkpt lat="45.20266" lon="0.78208">
        <ele>161.888</ele>
        <time>2019-08-04T08:00:32Z</time>
      </trkpt>
      <trkpt lat="45.20263" lon="0.78204">
        <ele>159.706</ele>
        <time>2019-08-04T08:00:33Z</time>
      </trkpt>
      <trkpt lat="45.20249" lon="0.78186">
        <ele>156.877</ele>
        <time>2019-08-04T08:00:37Z</time>
      </trkpt>
      <trkpt lat="45.20245" lon="0.78182">
        <ele>157.568</ele>
        <time>2019-08-04T08:00:38Z</time>
      </trkpt>
      <trkpt lat="45.20233" lon="0.78169">
        <ele>155.907</ele>
        <time>2019-08-04T08:00:41Z</time>
      </trkpt>
      <trkpt lat="45.20227" lon="0.78165">
        <ele>156.215</ele>
        <time>2019-08-04T08:00:42Z</time>
      </trkpt>
      <trkpt lat="45.20217" lon="0.78153">
        <ele>155.345</ele>
        <time>2019-08-04T08:00:45Z</time>
      </trkpt>
      <trkpt lat="45.20213" lon="0.78147">
        <ele>154.921</ele>
        <time>2019-08-04T08:00:46Z</time>
      </trkpt>
      <trkpt lat="45.202" lon="0.78134">
        <ele>153.259</ele>
        <time>2019-08-04T08:00:50Z</time>
      </trkpt>
      <trkpt lat="45.20194" lon="0.7813">
        <ele>152.852</ele>
        <time>2019-08-04T08:00:52Z</time>
      </trkpt>
      <trkpt lat="45.2019" lon="0.78127">
        <ele>151.412</ele>
        <time>2019-08-04T08:00:53Z</time>
      </trkpt>
      <trkpt lat="45.20184" lon="0.78119">
        <ele>151.938</ele>
        <time>2019-08-04T08:00:55Z</time>
      </trkpt>
      <trkpt lat="45.20173" lon="0.78111">
        <ele>151.644</ele>
        <time>2019-08-04T08:00:58Z</time>
      </trkpt>
      <trkpt lat="45.2017" lon="0.78108">
        <ele>151.525</ele>
        <time>2019-08-04T08:00:59Z</time>
      </trkpt>
      <trkpt lat="45.20166" lon="0.78104">
        <ele>151.625</ele>
        <time>2019-08-04T08:01:00Z</time>
      </trkpt>
      <trkpt lat="45.20163" lon="0.78101">
        <ele>152.463</ele>
        <time>2019-08-04T08:01:01Z</time>
      </trkpt>
      <trkpt lat="45.20159" lon="0.78099">
        <ele>153.092</ele>
        <time>2019-08-04T08:01:02Z</time>
      </trkpt>
      <trkpt lat="45.20156" lon="0.78096">
        <ele>153.409</ele>
        <time>2019-08-04T08:01:03Z</time>
      </trkpt>
      <trkpt lat="45.2015" lon="0.78091">
        <ele>152.082</ele>
        <time>2019-08-04T08:01:05Z</time>
      </trkpt>
      <trkpt lat="45.20147" lon="0.78088">
        <ele>152.517</ele>
        <time>2019-08-04T08:01:06Z</time>
      </trkpt>
      <trkpt lat="45.20141" lon="0.78083">
        <ele>152.394</ele>
        <time>2019-08-04T08:01:08Z</time>
      </trkpt>
      <trkpt lat="45.20138" lon="0.78079">
        <ele>152.479</ele>
        <time>2019-08-04T08:01:09Z</time>
      </trkpt>
      <trkpt lat="45.20132" lon="0.78072">
        <ele>152.015</ele>
        <time>2019-08-04T08:01:11Z</time>
      </trkpt>
      <trkpt lat="45.20124" lon="0.78063">
        <ele>184.124</ele>
        <time>2019-08-04T08:01:14Z</time>
      </trkpt>
      <trkpt lat="45.20119" lon="0.78059">
        <ele>167.438</ele>
        <time>2019-08-04T08:01:17Z</time>
      </trkpt>
      <trkpt lat="45.20114" lon="0.7805">
        <ele>158.845</ele>
        <time>2019-08-04T08:01:21Z</time>
      </trkpt>
      <trkpt lat="45.20107" lon="0.78039">
        <ele>156.041</ele>
        <time>2019-08-04T08:01:25Z</time>
      </trkpt>
      <trkpt lat="45.20105" lon="0.78035">
        <ele>155.435</ele>
        <time>2019-08-04T08:01:26Z</time>
      </trkpt>
      <trkpt lat="45.20101" lon="0.7803">
        <ele>188.86</ele>
        <time>2019-08-04T08:01:29Z</time>
      </trkpt>
      <trkpt lat="45.20098" lon="0.78028">
        <ele>177.289</ele>
        <time>2019-08-04T08:01:31Z</time>
      </trkpt>
      <trkpt lat="45.20095" lon="0.78021">
        <ele>167.535</ele>
        <time>2019-08-04T08:01:34Z</time>
      </trkpt>
      <trkpt lat="45.20089" lon="0.78015">
        <ele>163.452</ele>
        <time>2019-08-04T08:01:37Z</time>
      </trkpt>
      <trkpt lat="45.20087" lon="0.78012">
        <ele>160.247</ele>
        <time>2019-08-04T08:01:38Z</time>
      </trkpt>
      <trkpt lat="45.20086" lon="0.7801">
        <ele>158.721</ele>
        <time>2019-08-04T08:01:39Z</time>
      </trkpt>
      <trkpt lat="45.20082" lon="0.78004">
        <ele>157.176</ele>
        <time>2019-08-04T08:01:41Z</time>
      </trkpt>
      <trkpt lat="45.20079" lon="0.78001">
        <ele>155.204</ele>
        <time>2019-08-04T08:01:42Z</time>
      </trkpt>
      <trkpt lat="45.20075" lon="0.77995">
        <ele>153.713</ele>
        <time>2019-08-04T08:01:44Z</time>
      </trkpt>
      <trkpt lat="45.20072" lon="0.77989">
        <ele>150.15</ele>
        <time>2019-08-04T08:01:46Z</time>
      </trkpt>
      <trkpt lat="45.2007" lon="0.77985">
        <ele>150.041</ele>
        <time>2019-08-04T08:01:47Z</time>
      </trkpt>
      <trkpt lat="45.20069" lon="0.77982">
        <ele>150.462</ele>
        <time>2019-08-04T08:01:48Z</time>
      </trkpt>
      <trkpt lat="45.20065" lon="0.77977">
        <ele>148.998</ele>
        <time>2019-08-04T08:01:50Z</time>
      </trkpt>
      <trkpt lat="45.20058" lon="0.7797">
        <ele>146.001</ele>
        <time>2019-08-04T08:01:53Z</time>
      </trkpt>
      <trkpt lat="45.20053" lon="0.77964">
        <ele>145.841</ele>
        <time>2019-08-04T08:01:55Z</time>
      </trkpt>
      <trkpt lat="45.20048" lon="0.77957">
        <ele>147.24</ele>
        <time>2019-08-04T08:01:57Z</time>
      </trkpt>
      <trkpt lat="45.20046" lon="0.77951">
        <ele>146.802</ele>
        <time>2019-08-04T08:02:00Z</time>
      </trkpt>
      <trkpt lat="45.20044" lon="0.77946">
        <ele>146.667</ele>
        <time>2019-08-04T08:02:02Z</time>
      </trkpt>
      <trkpt lat="45.2004" lon="0.7794">
        <ele>148.527</ele>
        <time>2019-08-04T08:02:05Z</time>
      </trkpt>
      <trkpt lat="45.20038" lon="0.77937">
        <ele>148.92</ele>
        <time>2019-08-04T08:02:07Z</time>
      </trkpt>
      <trkpt lat="45.20035" lon="0.77935">
        <ele>149.791</ele>
        <time>2019-08-04T08:02:09Z</time>
      </trkpt>
      <trkpt lat="45.2003" lon="0.77927">
        <ele>151.559</ele>
        <time>2019-08-04T08:02:13Z</time>
      </trkpt>
      <trkpt lat="45.20026" lon="0.77921">
        <ele>151.632</ele>
        <time>2019-08-04T08:02:16Z</time>
      </trkpt>
      <trkpt lat="45.20023" lon="0.77914">
        <ele>152.368</ele>
        <time>2019-08-04T08:02:20Z</time>
      </trkpt>
      <trkpt lat="45.2002" lon="0.77907">
        <ele>154.303</ele>
        <time>2019-08-04T08:02:24Z</time>
      </trkpt>
      <trkpt lat="45.20016" lon="0.77901">
        <ele>154.151</ele>
        <time>2019-08-04T08:02:28Z</time>
      </trkpt>
      <trkpt lat="45.20013" lon="0.77894">
        <ele>156.77</ele>
        <time>2019-08-04T08:02:32Z</time>
      </trkpt>
      <trkpt lat="45.20011" lon="0.7789">
        <ele>157.557</ele>
        <time>2019-08-04T08:02:34Z</time>
      </trkpt>
      <trkpt lat="45.20009" lon="0.77887">
        <ele>157.75</ele>
        <time>2019-08-04T08:02:36Z</time>
      </trkpt>
      <trkpt lat="45.20005" lon="0.77881">
        <ele>159.737</ele>
        <time>2019-08-04T08:02:40Z</time>
      </trkpt>
      <trkpt lat="45.20001" lon="0.77878">
        <ele>160.209</ele>
        <time>2019-08-04T08:02:42Z</time>
      </trkpt>
      <trkpt lat="45.19997" lon="0.77876">
        <ele>160.734</ele>
        <time>2019-08-04T08:02:44Z</time>
      </trkpt>
      <trkpt lat="45.19994" lon="0.77872">
        <ele>160.093</ele>
        <time>2019-08-04T08:02:46Z</time>
      </trkpt>
      <trkpt lat="45.19989" lon="0.77864">
        <ele>160.728</ele>
        <time>2019-08-04T08:02:49Z</time>
      </trkpt>
      <trkpt lat="45.19982" lon="0.77855">
        <ele>160.656</ele>
        <time>2019-08-04T08:02:54Z</time>
      </trkpt>
      <trkpt lat="45.19975" lon="0.77848">
        <ele>159.459</ele>
        <time>2019-08-04T08:02:58Z</time>
      </trkpt>
      <trkpt lat="45.19969" lon="0.77845">
        <ele>161.117</ele>
        <time>2019-08-04T08:03:01Z</time>
      </trkpt>
      <trkpt lat="45.19965" lon="0.77843">
        <ele>161.136</ele>
        <time>2019-08-04T08:03:03Z</time>
      </trkpt>
      <trkpt lat="45.1996" lon="0.77838">
        <ele>161.9</ele>
        <time>2019-08-04T08:03:06Z</time>
      </trkpt>
      <trkpt lat="45.19956" lon="0.7783">
        <ele>162.662</ele>
        <time>2019-08-04T08:03:09Z</time>
      </trkpt>
      <trkpt lat="45.19952" lon="0.7782">
        <ele>162.201</ele>
        <time>2019-08-04T08:03:12Z</time>
      </trkpt>
      <trkpt lat="45.19948" lon="0.77813">
        <ele>161.932</ele>
        <time>2019-08-04T08:03:14Z</time>
      </trkpt>
      <trkpt lat="45.19947" lon="0.77809">
        <ele>162.091</ele>
        <time>2019-08-04T08:03:15Z</time>
      </trkpt>
      <trkpt lat="45.19945" lon="0.77806">
        <ele>161.438</ele>
        <time>2019-08-04T08:03:16Z</time>
      </trkpt>
      <trkpt lat="45.19943" lon="0.77802">
        <ele>160.211</ele>
        <time>2019-08-04T08:03:17Z</time>
      </trkpt>
      <trkpt lat="45.19941" lon="0.77799">
        <ele>159.322</ele>
        <time>2019-08-04T08:03:18Z</time>
      </trkpt>
      <trkpt lat="45.19939" lon="0.77795">
        <ele>157.571</ele>
        <time>2019-08-04T08:03:19Z</time>
      </trkpt>
      <trkpt lat="45.19938" lon="0.77793">
        <ele>157.577</ele>
        <time>2019-08-04T08:03:20Z</time>
      </trkpt>
      <trkpt lat="45.19933" lon="0.77787">
        <ele>156.807</ele>
        <time>2019-08-04T08:03:22Z</time>
      </trkpt>
      <trkpt lat="45.19931" lon="0.77784">
        <ele>155.996</ele>
        <time>2019-08-04T08:03:23Z</time>
      </trkpt>
      <trkpt lat="45.19928" lon="0.77781">
        <ele>155.793</ele>
        <time>2019-08-04T08:03:24Z</time>
      </trkpt>
      <trkpt lat="45.19918" lon="0.77769">
        <ele>156.595</ele>
        <time>2019-08-04T08:03:27Z</time>
      </trkpt>
      <trkpt lat="45.19915" lon="0.77764">
        <ele>157.827</ele>
        <time>2019-08-04T08:03:28Z</time>
      </trkpt>
      <trkpt lat="45.19912" lon="0.7776">
        <ele>157.226</ele>
        <time>2019-08-04T08:03:29Z</time>
      </trkpt>
      <trkpt lat="45.19906" lon="0.77752">
        <ele>156.149</ele>
        <time>2019-08-04T08:03:31Z</time>
      </trkpt>
      <trkpt lat="45.19901" lon="0.77742">
        <ele>155.681</ele>
        <time>2019-08-04T08:03:34Z</time>
      </trkpt>
      <trkpt lat="45.19898" lon="0.77738">
        <ele>155.261</ele>
        <time>2019-08-04T08:03:36Z</time>
      </trkpt>
      <trkpt lat="45.19894" lon="0.77735">
        <ele>155.411</ele>
        <time>2019-08-04T08:03:40Z</time>
      </trkpt>
      <trkpt lat="45.1989" lon="0.77735">
        <ele>155.243</ele>
        <time>2019-08-04T08:03:47Z</time>
      </trkpt>
      <trkpt lat="45.19884" lon="0.77735">
        <ele>155.221</ele>
        <time>2019-08-04T08:04:05Z</time>
      </trkpt>
      <trkpt lat="45.19878" lon="0.77733">
        <ele>156.412</ele>
        <time>2019-08-04T08:04:07Z</time>
      </trkpt>
      <trkpt lat="45.19868" lon="0.77732">
        <ele>157.133</ele>
        <time>2019-08-04T08:04:10Z</time>
      </trkpt>
      <trkpt lat="45.19864" lon="0.77732">
        <ele>157.072</ele>
        <time>2019-08-04T08:04:11Z</time>
      </trkpt>
      <trkpt lat="45.1986" lon="0.77732">
        <ele>155.228</ele>
        <time>2019-08-04T08:04:12Z</time>
      </trkpt>
      <trkpt lat="45.19856" lon="0.77731">
        <ele>154.237</ele>
        <time>2019-08-04T08:04:13Z</time>
      </trkpt>
      <trkpt lat="45.19849" lon="0.7773">
        <ele>153.701</ele>
        <time>2019-08-04T08:04:14Z</time>
      </trkpt>
      <trkpt lat="45.19843" lon="0.7773">
        <ele>153.675</ele>
        <time>2019-08-04T08:04:15Z</time>
      </trkpt>
      <trkpt lat="45.19838" lon="0.77729">
        <ele>152.154</ele>
        <time>2019-08-04T08:04:16Z</time>
      </trkpt>
      <trkpt lat="45.19833" lon="0.77729">
        <ele>150.677</ele>
        <time>2019-08-04T08:04:17Z</time>
      </trkpt>
      <trkpt lat="45.19828" lon="0.77728">
        <ele>149.65</ele>
        <time>2019-08-04T08:04:18Z</time>
      </trkpt>
      <trkpt lat="45.19823" lon="0.77727">
        <ele>150.041</ele>
        <time>2019-08-04T08:04:19Z</time>
      </trkpt>
      <trkpt lat="45.19818" lon="0.77729">
        <ele>149.95</ele>
        <time>2019-08-04T08:04:20Z</time>
      </trkpt>
      <trkpt lat="45.19812" lon="0.77729">
        <ele>149.904</ele>
        <time>2019-08-04T08:04:21Z</time>
      </trkpt>
      <trkpt lat="45.19808" lon="0.7773">
        <ele>151.147</ele>
        <time>2019-08-04T08:04:22Z</time>
      </trkpt>
      <trkpt lat="45.198" lon="0.7773">
        <ele>151.088</ele>
        <time>2019-08-04T08:04:24Z</time>
      </trkpt>
      <trkpt lat="45.19792" lon="0.77739">
        <ele>150.348</ele>
        <time>2019-08-04T08:04:27Z</time>
      </trkpt>
      <trkpt lat="45.19782" lon="0.77745">
        <ele>149.692</ele>
        <time>2019-08-04T08:04:30Z</time>
      </trkpt>
      <trkpt lat="45.19776" lon="0.7774">
        <ele>147.225</ele>
        <time>2019-08-04T08:04:32Z</time>
      </trkpt>
      <trkpt lat="45.19767" lon="0.77738">
        <ele>146.084</ele>
        <time>2019-08-04T08:04:34Z</time>
      </trkpt>
      <trkpt lat="45.19761" lon="0.77739">
        <ele>147.198</ele>
        <time>2019-08-04T08:04:35Z</time>
      </trkpt>
      <trkpt lat="45.19756" lon="0.7774">
        <ele>147.215</ele>
        <time>2019-08-04T08:04:36Z</time>
      </trkpt>
      <trkpt lat="45.19751" lon="0.77739">
        <ele>147.951</ele>
        <time>2019-08-04T08:04:37Z</time>
      </trkpt>
      <trkpt lat="45.19733" lon="0.77737">
        <ele>147.807</ele>
        <time>2019-08-04T08:04:40Z</time>
      </trkpt>
      <trkpt lat="45.19728" lon="0.77736">
        <ele>144.771</ele>
        <time>2019-08-04T08:04:41Z</time>
      </trkpt>
      <trkpt lat="45.19722" lon="0.77736">
        <ele>145.838</ele>
        <time>2019-08-04T08:04:42Z</time>
      </trkpt>
      <trkpt lat="45.19716" lon="0.77733">
        <ele>145.215</ele>
        <time>2019-08-04T08:04:43Z</time>
      </trkpt>
      <trkpt lat="45.1971" lon="0.77731">
        <ele>145.89</ele>
        <time>2019-08-04T08:04:44Z</time>
      </trkpt>
      <trkpt lat="45.19699" lon="0.77729">
        <ele>145.586</ele>
        <time>2019-08-04T08:04:46Z</time>
      </trkpt>
      <trkpt lat="45.19693" lon="0.77728">
        <ele>145.229</ele>
        <time>2019-08-04T08:04:47Z</time>
      </trkpt>
      <trkpt lat="45.19688" lon="0.77725">
        <ele>144.286</ele>
        <time>2019-08-04T08:04:48Z</time>
      </trkpt>
      <trkpt lat="45.1968" lon="0.7772">
        <ele>143.3</ele>
        <time>2019-08-04T08:04:50Z</time>
      </trkpt>
      <trkpt lat="45.19675" lon="0.77712">
        <ele>142.265</ele>
        <time>2019-08-04T08:04:52Z</time>
      </trkpt>
      <trkpt lat="45.19673" lon="0.77706">
        <ele>141.938</ele>
        <time>2019-08-04T08:04:54Z</time>
      </trkpt>
      <trkpt lat="45.19673" lon="0.77696">
        <ele>143.426</ele>
        <time>2019-08-04T08:04:58Z</time>
      </trkpt>
      <trkpt lat="45.19673" lon="0.77692">
        <ele>144.28</ele>
        <time>2019-08-04T08:05:00Z</time>
      </trkpt>
      <trkpt lat="45.19671" lon="0.77684">
        <ele>143.839</ele>
        <time>2019-08-04T08:05:03Z</time>
      </trkpt>
      <trkpt lat="45.19667" lon="0.77672">
        <ele>143.819</ele>
        <time>2019-08-04T08:05:07Z</time>
      </trkpt>
      <trkpt lat="45.19663" lon="0.77663">
        <ele>144.071</ele>
        <time>2019-08-04T08:05:10Z</time>
      </trkpt>
      <trkpt lat="45.19661" lon="0.7766">
        <ele>142.702</ele>
        <time>2019-08-04T08:05:11Z</time>
      </trkpt>
      <trkpt lat="45.19659" lon="0.77654">
        <ele>139.525</ele>
        <time>2019-08-04T08:05:13Z</time>
      </trkpt>
      <trkpt lat="45.19658" lon="0.77651">
        <ele>140.459</ele>
        <time>2019-08-04T08:05:14Z</time>
      </trkpt>
      <trkpt lat="45.19657" lon="0.77648">
        <ele>139.578</ele>
        <time>2019-08-04T08:05:15Z</time>
      </trkpt>
      <trkpt lat="45.19656" lon="0.77644">
        <ele>138.145</ele>
        <time>2019-08-04T08:05:16Z</time>
      </trkpt>
      <trkpt lat="45.19655" lon="0.77641">
        <ele>138.646</ele>
        <time>2019-08-04T08:05:17Z</time>
      </trkpt>
      <trkpt lat="45.19654" lon="0.77638">
        <ele>138.872</ele>
        <time>2019-08-04T08:05:18Z</time>
      </trkpt>
      <trkpt lat="45.19653" lon="0.77635">
        <ele>137.61</ele>
        <time>2019-08-04T08:05:19Z</time>
      </trkpt>
      <trkpt lat="45.19652" lon="0.77632">
        <ele>138.827</ele>
        <time>2019-08-04T08:05:20Z</time>
      </trkpt>
      <trkpt lat="45.1965" lon="0.77626">
        <ele>139.558</ele>
        <time>2019-08-04T08:05:22Z</time>
      </trkpt>
      <trkpt lat="45.19648" lon="0.7762">
        <ele>139.454</ele>
        <time>2019-08-04T08:05:24Z</time>
      </trkpt>
      <trkpt lat="45.19648" lon="0.77611">
        <ele>143.485</ele>
        <time>2019-08-04T08:05:27Z</time>
      </trkpt>
      <trkpt lat="45.19648" lon="0.77607">
        <ele>144.169</ele>
        <time>2019-08-04T08:05:28Z</time>
      </trkpt>
      <trkpt lat="45.19647" lon="0.77601">
        <ele>143.594</ele>
        <time>2019-08-04T08:05:30Z</time>
      </trkpt>
      <trkpt lat="45.19647" lon="0.77597">
        <ele>144.072</ele>
        <time>2019-08-04T08:05:31Z</time>
      </trkpt>
      <trkpt lat="45.19647" lon="0.77594">
        <ele>144.495</ele>
        <time>2019-08-04T08:05:32Z</time>
      </trkpt>
      <trkpt lat="45.19649" lon="0.77586">
        <ele>146.053</ele>
        <time>2019-08-04T08:05:35Z</time>
      </trkpt>
      <trkpt lat="45.19653" lon="0.7758">
        <ele>146.945</ele>
        <time>2019-08-04T08:05:38Z</time>
      </trkpt>
      <trkpt lat="45.19657" lon="0.77573">
        <ele>144.568</ele>
        <time>2019-08-04T08:05:42Z</time>
      </trkpt>
      <trkpt lat="45.19658" lon="0.77569">
        <ele>145.191</ele>
        <time>2019-08-04T08:05:44Z</time>
      </trkpt>
      <trkpt lat="45.1966" lon="0.77561">
        <ele>144.013</ele>
        <time>2019-08-04T08:05:47Z</time>
      </trkpt>
      <trkpt lat="45.1966" lon="0.77554">
        <ele>142.441</ele>
        <time>2019-08-04T08:05:51Z</time>
      </trkpt>
      <trkpt lat="45.1966" lon="0.77548">
        <ele>141.789</ele>
        <time>2019-08-04T08:05:55Z</time>
      </trkpt>
      <trkpt lat="45.19663" lon="0.7754">
        <ele>142.418</ele>
        <time>2019-08-04T08:06:00Z</time>
      </trkpt>
      <trkpt lat="45.19664" lon="0.77537">
        <ele>140.578</ele>
        <time>2019-08-04T08:06:02Z</time>
      </trkpt>
      <trkpt lat="45.19666" lon="0.77531">
        <ele>144.522</ele>
        <time>2019-08-04T08:06:06Z</time>
      </trkpt>
      <trkpt lat="45.19668" lon="0.77527">
        <ele>144.92</ele>
        <time>2019-08-04T08:06:08Z</time>
      </trkpt>
      <trkpt lat="45.19669" lon="0.77521">
        <ele>144.812</ele>
        <time>2019-08-04T08:06:11Z</time>
      </trkpt>
      <trkpt lat="45.1967" lon="0.77514">
        <ele>143.294</ele>
        <time>2019-08-04T08:06:14Z</time>
      </trkpt>
      <trkpt lat="45.1967" lon="0.77509">
        <ele>142.872</ele>
        <time>2019-08-04T08:06:16Z</time>
      </trkpt>
      <trkpt lat="45.19674" lon="0.77502">
        <ele>145.027</ele>
        <time>2019-08-04T08:06:22Z</time>
      </trkpt>
      <trkpt lat="45.19676" lon="0.77496">
        <ele>144.025</ele>
        <time>2019-08-04T08:06:26Z</time>
      </trkpt>
      <trkpt lat="45.19677" lon="0.77489">
        <ele>143.912</ele>
        <time>2019-08-04T08:06:30Z</time>
      </trkpt>
      <trkpt lat="45.19678" lon="0.77482">
        <ele>143.532</ele>
        <time>2019-08-04T08:06:34Z</time>
      </trkpt>
      <trkpt lat="45.19682" lon="0.77477">
        <ele>147.304</ele>
        <time>2019-08-04T08:06:42Z</time>
      </trkpt>
      <trkpt lat="45.19685" lon="0.77473">
        <ele>148.964</ele>
        <time>2019-08-04T08:06:49Z</time>
      </trkpt>
      <trkpt lat="45.19683" lon="0.77465">
        <ele>149.256</ele>
        <time>2019-08-04T08:06:55Z</time>
      </trkpt>
      <trkpt lat="45.19681" lon="0.77458">
        <ele>152.138</ele>
        <time>2019-08-04T08:07:00Z</time>
      </trkpt>
      <trkpt lat="45.19678" lon="0.77451">
        <ele>153.792</ele>
        <time>2019-08-04T08:07:06Z</time>
      </trkpt>
      <trkpt lat="45.19676" lon="0.77444">
        <ele>188.509</ele>
        <time>2019-08-04T08:07:12Z</time>
      </trkpt>
      <trkpt lat="45.19671" lon="0.77443">
        <ele>155.916</ele>
        <time>2019-08-04T08:07:23Z</time>
      </trkpt>
      <trkpt lat="45.19668" lon="0.77437">
        <ele>155.611</ele>
        <time>2019-08-04T08:07:27Z</time>
      </trkpt>
      <trkpt lat="45.19665" lon="0.77431">
        <ele>154.973</ele>
        <time>2019-08-04T08:07:32Z</time>
      </trkpt>
      <trkpt lat="45.19662" lon="0.77427">
        <ele>156.553</ele>
        <time>2019-08-04T08:07:36Z</time>
      </trkpt>
      <trkpt lat="45.19662" lon="0.77427">
        <ele>156.553</ele>
        <time>2019-08-04T08:07:44Z</time>
      </trkpt>
      <trkpt lat="45.19662" lon="0.77427">
        <ele>156.553</ele>
        <time>2019-08-04T08:07:46Z</time>
      </trkpt>
      <trkpt lat="45.19651" lon="0.7742">
        <ele>154.086</ele>
        <time>2019-08-04T08:07:59Z</time>
      </trkpt>
      <trkpt lat="45.1965" lon="0.77416">
        <ele>152.988</ele>
        <time>2019-08-04T08:08:00Z</time>
      </trkpt>
      <trkpt lat="45.19648" lon="0.77413">
        <ele>152.489</ele>
        <time>2019-08-04T08:08:01Z</time>
      </trkpt>
      <trkpt lat="45.19644" lon="0.77406">
        <ele>150.66</ele>
        <time>2019-08-04T08:08:04Z</time>
      </trkpt>
      <trkpt lat="45.19638" lon="0.77402">
        <ele>151.034</ele>
        <time>2019-08-04T08:08:08Z</time>
      </trkpt>
      <trkpt lat="45.19633" lon="0.774">
        <ele>151.214</ele>
        <time>2019-08-04T08:08:11Z</time>
      </trkpt>
      <trkpt lat="45.19628" lon="0.77398">
        <ele>152.281</ele>
        <time>2019-08-04T08:08:14Z</time>
      </trkpt>
      <trkpt lat="45.19623" lon="0.77395">
        <ele>151.752</ele>
        <time>2019-08-04T08:08:17Z</time>
      </trkpt>
      <trkpt lat="45.19619" lon="0.77393">
        <ele>152.845</ele>
        <time>2019-08-04T08:08:20Z</time>
      </trkpt>
      <trkpt lat="45.19614" lon="0.7739">
        <ele>153.793</ele>
        <time>2019-08-04T08:08:23Z</time>
      </trkpt>
      <trkpt lat="45.1961" lon="0.77388">
        <ele>153.505</ele>
        <time>2019-08-04T08:08:26Z</time>
      </trkpt>
      <trkpt lat="45.19605" lon="0.77378">
        <ele>154.46</ele>
        <time>2019-08-04T08:08:30Z</time>
      </trkpt>
      <trkpt lat="45.196" lon="0.77375">
        <ele>157.728</ele>
        <time>2019-08-04T08:08:34Z</time>
      </trkpt>
      <trkpt lat="45.19593" lon="0.77372">
        <ele>172.95</ele>
        <time>2019-08-04T08:08:38Z</time>
      </trkpt>
      <trkpt lat="45.19587" lon="0.77372">
        <ele>165.752</ele>
        <time>2019-08-04T08:08:42Z</time>
      </trkpt>
      <trkpt lat="45.19582" lon="0.77369">
        <ele>162.72</ele>
        <time>2019-08-04T08:08:45Z</time>
      </trkpt>
      <trkpt lat="45.19577" lon="0.77365">
        <ele>162.134</ele>
        <time>2019-08-04T08:08:48Z</time>
      </trkpt>
      <trkpt lat="45.19571" lon="0.77364">
        <ele>162.228</ele>
        <time>2019-08-04T08:08:51Z</time>
      </trkpt>
      <trkpt lat="45.19568" lon="0.77363">
        <ele>162.441</ele>
        <time>2019-08-04T08:08:53Z</time>
      </trkpt>
      <trkpt lat="45.19564" lon="0.77361">
        <ele>162.106</ele>
        <time>2019-08-04T08:08:55Z</time>
      </trkpt>
      <trkpt lat="45.1956" lon="0.77359">
        <ele>160.167</ele>
        <time>2019-08-04T08:08:57Z</time>
      </trkpt>
      <trkpt lat="45.19555" lon="0.77357">
        <ele>161.28</ele>
        <time>2019-08-04T08:09:00Z</time>
      </trkpt>
      <trkpt lat="45.19548" lon="0.77358">
        <ele>178.122</ele>
        <time>2019-08-04T08:09:04Z</time>
      </trkpt>
      <trkpt lat="45.19543" lon="0.77355">
        <ele>170.43</ele>
        <time>2019-08-04T08:09:07Z</time>
      </trkpt>
      <trkpt lat="45.19539" lon="0.77353">
        <ele>168.716</ele>
        <time>2019-08-04T08:09:09Z</time>
      </trkpt>
      <trkpt lat="45.19536" lon="0.77352">
        <ele>167.552</ele>
        <time>2019-08-04T08:09:11Z</time>
      </trkpt>
      <trkpt lat="45.19534" lon="0.77343">
        <ele>163.885</ele>
        <time>2019-08-04T08:09:14Z</time>
      </trkpt>
      <trkpt lat="45.19528" lon="0.77341">
        <ele>163.642</ele>
        <time>2019-08-04T08:09:18Z</time>
      </trkpt>
      <trkpt lat="45.19522" lon="0.77341">
        <ele>163.638</ele>
        <time>2019-08-04T08:09:21Z</time>
      </trkpt>
      <trkpt lat="45.19517" lon="0.7734">
        <ele>165.767</ele>
        <time>2019-08-04T08:09:25Z</time>
      </trkpt>
      <trkpt lat="45.19512" lon="0.7734">
        <ele>166.012</ele>
        <time>2019-08-04T08:09:29Z</time>
      </trkpt>
      <trkpt lat="45.1951" lon="0.7734">
        <ele>164.819</ele>
        <time>2019-08-04T08:09:31Z</time>
      </trkpt>
      <trkpt lat="45.19506" lon="0.77337">
        <ele>163.948</ele>
        <time>2019-08-04T08:09:34Z</time>
      </trkpt>
      <trkpt lat="45.19504" lon="0.77335">
        <ele>163.775</ele>
        <time>2019-08-04T08:09:35Z</time>
      </trkpt>
      <trkpt lat="45.19499" lon="0.77332">
        <ele>162.056</ele>
        <time>2019-08-04T08:09:37Z</time>
      </trkpt>
      <trkpt lat="45.19497" lon="0.77331">
        <ele>162.03</ele>
        <time>2019-08-04T08:09:38Z</time>
      </trkpt>
      <trkpt lat="45.19494" lon="0.77328">
        <ele>160.845</ele>
        <time>2019-08-04T08:09:40Z</time>
      </trkpt>
      <trkpt lat="45.1949" lon="0.77324">
        <ele>160.286</ele>
        <time>2019-08-04T08:09:43Z</time>
      </trkpt>
      <trkpt lat="45.19485" lon="0.77321">
        <ele>161.245</ele>
        <time>2019-08-04T08:09:46Z</time>
      </trkpt>
      <trkpt lat="45.19481" lon="0.77319">
        <ele>161.732</ele>
        <time>2019-08-04T08:09:48Z</time>
      </trkpt>
      <trkpt lat="45.19477" lon="0.77318">
        <ele>163.442</ele>
        <time>2019-08-04T08:09:51Z</time>
      </trkpt>
      <trkpt lat="45.19473" lon="0.77317">
        <ele>162.53</ele>
        <time>2019-08-04T08:09:54Z</time>
      </trkpt>
      <trkpt lat="45.19471" lon="0.77316">
        <ele>162.848</ele>
        <time>2019-08-04T08:09:56Z</time>
      </trkpt>
      <trkpt lat="45.19468" lon="0.77315">
        <ele>163.217</ele>
        <time>2019-08-04T08:09:58Z</time>
      </trkpt>
      <trkpt lat="45.19465" lon="0.77314">
        <ele>165.104</ele>
        <time>2019-08-04T08:10:01Z</time>
      </trkpt>
      <trkpt lat="45.19462" lon="0.77309">
        <ele>164.79</ele>
        <time>2019-08-04T08:10:10Z</time>
      </trkpt>
      <trkpt lat="45.1946" lon="0.77307">
        <ele>164.932</ele>
        <time>2019-08-04T08:10:18Z</time>
      </trkpt>
      <trkpt lat="45.19454" lon="0.77312">
        <ele>163.476</ele>
        <time>2019-08-04T08:11:54Z</time>
      </trkpt>
      <trkpt lat="45.19445" lon="0.77314">
        <ele>163.419</ele>
        <time>2019-08-04T08:11:56Z</time>
      </trkpt>
      <trkpt lat="45.19434" lon="0.77316">
        <ele>162.226</ele>
        <time>2019-08-04T08:11:58Z</time>
      </trkpt>
      <trkpt lat="45.19428" lon="0.77316">
        <ele>160.695</ele>
        <time>2019-08-04T08:11:59Z</time>
      </trkpt>
      <trkpt lat="45.19423" lon="0.77317">
        <ele>160.05</ele>
        <time>2019-08-04T08:12:00Z</time>
      </trkpt>
      <trkpt lat="45.19418" lon="0.77318">
        <ele>158.87</ele>
        <time>2019-08-04T08:12:01Z</time>
      </trkpt>
      <trkpt lat="45.19413" lon="0.77318">
        <ele>158.065</ele>
        <time>2019-08-04T08:12:02Z</time>
      </trkpt>
      <trkpt lat="45.19408" lon="0.77317">
        <ele>156.908</ele>
        <time>2019-08-04T08:12:03Z</time>
      </trkpt>
      <trkpt lat="45.19398" lon="0.77313">
        <ele>158.62</ele>
        <time>2019-08-04T08:12:06Z</time>
      </trkpt>
      <trkpt lat="45.19394" lon="0.77309">
        <ele>157.75</ele>
        <time>2019-08-04T08:12:09Z</time>
      </trkpt>
      <trkpt lat="45.1939" lon="0.77305">
        <ele>156.079</ele>
        <time>2019-08-04T08:12:12Z</time>
      </trkpt>
      <trkpt lat="45.19385" lon="0.77302">
        <ele>154.904</ele>
        <time>2019-08-04T08:12:15Z</time>
      </trkpt>
      <trkpt lat="45.19381" lon="0.773">
        <ele>154.62</ele>
        <time>2019-08-04T08:12:17Z</time>
      </trkpt>
      <trkpt lat="45.19377" lon="0.77297">
        <ele>158.677</ele>
        <time>2019-08-04T08:12:21Z</time>
      </trkpt>
      <trkpt lat="45.19378" lon="0.77306">
        <ele>159.232</ele>
        <time>2019-08-04T08:12:31Z</time>
      </trkpt>
      <trkpt lat="45.19392" lon="0.77328">
        <ele>150.001</ele>
        <time>2019-08-04T08:15:24Z</time>
      </trkpt>
      <trkpt lat="45.19399" lon="0.77336">
        <ele>152.963</ele>
        <time>2019-08-04T08:15:25Z</time>
      </trkpt>
      <trkpt lat="45.19401" lon="0.77342">
        <ele>149.857</ele>
        <time>2019-08-04T08:15:26Z</time>
      </trkpt>
      <trkpt lat="45.19407" lon="0.77343">
        <ele>149.388</ele>
        <time>2019-08-04T08:15:27Z</time>
      </trkpt>
      <trkpt lat="45.19413" lon="0.77344">
        <ele>149.066</ele>
        <time>2019-08-04T08:15:28Z</time>
      </trkpt>
      <trkpt lat="45.19416" lon="0.77351">
        <ele>148.693</ele>
        <time>2019-08-04T08:15:29Z</time>
      </trkpt>
      <trkpt lat="45.19419" lon="0.77355">
        <ele>147.839</ele>
        <time>2019-08-04T08:15:30Z</time>
      </trkpt>
      <trkpt lat="45.19422" lon="0.77361">
        <ele>147.921</ele>
        <time>2019-08-04T08:15:31Z</time>
      </trkpt>
      <trkpt lat="45.19425" lon="0.77367">
        <ele>148.197</ele>
        <time>2019-08-04T08:15:32Z</time>
      </trkpt>
      <trkpt lat="45.19427" lon="0.77375">
        <ele>148.014</ele>
        <time>2019-08-04T08:15:33Z</time>
      </trkpt>
      <trkpt lat="45.19428" lon="0.77385">
        <ele>147.352</ele>
        <time>2019-08-04T08:15:35Z</time>
      </trkpt>
      <trkpt lat="45.19426" lon="0.774">
        <ele>148.617</ele>
        <time>2019-08-04T08:15:37Z</time>
      </trkpt>
      <trkpt lat="45.19423" lon="0.77413">
        <ele>146.002</ele>
        <time>2019-08-04T08:15:39Z</time>
      </trkpt>
      <trkpt lat="45.19421" lon="0.77425">
        <ele>145.39</ele>
        <time>2019-08-04T08:15:40Z</time>
      </trkpt>
      <trkpt lat="45.19418" lon="0.77433">
        <ele>144.199</ele>
        <time>2019-08-04T08:15:41Z</time>
      </trkpt>
      <trkpt lat="45.19414" lon="0.77442">
        <ele>144.002</ele>
        <time>2019-08-04T08:15:42Z</time>
      </trkpt>
      <trkpt lat="45.19411" lon="0.77453">
        <ele>144.775</ele>
        <time>2019-08-04T08:15:43Z</time>
      </trkpt>
      <trkpt lat="45.19408" lon="0.77462">
        <ele>145.692</ele>
        <time>2019-08-04T08:15:44Z</time>
      </trkpt>
      <trkpt lat="45.19406" lon="0.77472">
        <ele>146.382</ele>
        <time>2019-08-04T08:15:45Z</time>
      </trkpt>
      <trkpt lat="45.19402" lon="0.77479">
        <ele>145.135</ele>
        <time>2019-08-04T08:15:46Z</time>
      </trkpt>
      <trkpt lat="45.194" lon="0.77489">
        <ele>143.352</ele>
        <time>2019-08-04T08:15:47Z</time>
      </trkpt>
      <trkpt lat="45.19397" lon="0.77499">
        <ele>141.214</ele>
        <time>2019-08-04T08:15:49Z</time>
      </trkpt>
      <trkpt lat="45.19396" lon="0.77507">
        <ele>142.07</ele>
        <time>2019-08-04T08:15:51Z</time>
      </trkpt>
      <trkpt lat="45.1939" lon="0.77512">
        <ele>176.468</ele>
        <time>2019-08-04T08:15:53Z</time>
      </trkpt>
      <trkpt lat="45.19378" lon="0.7751">
        <ele>154.326</ele>
        <time>2019-08-04T08:15:56Z</time>
      </trkpt>
      <trkpt lat="45.19369" lon="0.775">
        <ele>148.664</ele>
        <time>2019-08-04T08:15:58Z</time>
      </trkpt>
      <trkpt lat="45.19367" lon="0.77495">
        <ele>147.655</ele>
        <time>2019-08-04T08:15:59Z</time>
      </trkpt>
      <trkpt lat="45.19365" lon="0.77487">
        <ele>146.163</ele>
        <time>2019-08-04T08:16:00Z</time>
      </trkpt>
      <trkpt lat="45.1936" lon="0.77483">
        <ele>143.699</ele>
        <time>2019-08-04T08:16:01Z</time>
      </trkpt>
      <trkpt lat="45.19355" lon="0.77477">
        <ele>142.259</ele>
        <time>2019-08-04T08:16:02Z</time>
      </trkpt>
      <trkpt lat="45.19345" lon="0.77474">
        <ele>142.363</ele>
        <time>2019-08-04T08:16:04Z</time>
      </trkpt>
      <trkpt lat="45.1934" lon="0.77472">
        <ele>142.289</ele>
        <time>2019-08-04T08:16:05Z</time>
      </trkpt>
      <trkpt lat="45.19336" lon="0.77467">
        <ele>140.908</ele>
        <time>2019-08-04T08:16:06Z</time>
      </trkpt>
      <trkpt lat="45.19334" lon="0.77461">
        <ele>139.757</ele>
        <time>2019-08-04T08:16:07Z</time>
      </trkpt>
      <trkpt lat="45.19331" lon="0.77453">
        <ele>139.068</ele>
        <time>2019-08-04T08:16:08Z</time>
      </trkpt>
      <trkpt lat="45.19328" lon="0.77447">
        <ele>138.363</ele>
        <time>2019-08-04T08:16:09Z</time>
      </trkpt>
      <trkpt lat="45.19323" lon="0.77445">
        <ele>138.491</ele>
        <time>2019-08-04T08:16:10Z</time>
      </trkpt>
      <trkpt lat="45.19322" lon="0.77436">
        <ele>139.373</ele>
        <time>2019-08-04T08:16:11Z</time>
      </trkpt>
      <trkpt lat="45.19311" lon="0.77428">
        <ele>138.951</ele>
        <time>2019-08-04T08:16:14Z</time>
      </trkpt>
      <trkpt lat="45.19308" lon="0.77423">
        <ele>139.967</ele>
        <time>2019-08-04T08:16:15Z</time>
      </trkpt>
      <trkpt lat="45.19308" lon="0.77413">
        <ele>139.228</ele>
        <time>2019-08-04T08:16:16Z</time>
      </trkpt>
      <trkpt lat="45.19295" lon="0.77397">
        <ele>138.821</ele>
        <time>2019-08-04T08:16:19Z</time>
      </trkpt>
      <trkpt lat="45.19293" lon="0.77389">
        <ele>138.837</ele>
        <time>2019-08-04T08:16:20Z</time>
      </trkpt>
      <trkpt lat="45.19282" lon="0.77386">
        <ele>138.243</ele>
        <time>2019-08-04T08:16:22Z</time>
      </trkpt>
      <trkpt lat="45.19274" lon="0.77376">
        <ele>137.534</ele>
        <time>2019-08-04T08:16:24Z</time>
      </trkpt>
      <trkpt lat="45.19271" lon="0.77372">
        <ele>137.602</ele>
        <time>2019-08-04T08:16:25Z</time>
      </trkpt>
      <trkpt lat="45.19265" lon="0.7737">
        <ele>136.08</ele>
        <time>2019-08-04T08:16:26Z</time>
      </trkpt>
      <trkpt lat="45.19258" lon="0.77371">
        <ele>136.17</ele>
        <time>2019-08-04T08:16:27Z</time>
      </trkpt>
      <trkpt lat="45.1926" lon="0.77358">
        <ele>137.186</ele>
        <time>2019-08-04T08:16:28Z</time>
      </trkpt>
      <trkpt lat="45.19258" lon="0.77343">
        <ele>135.805</ele>
        <time>2019-08-04T08:16:30Z</time>
      </trkpt>
      <trkpt lat="45.19254" lon="0.7734">
        <ele>135.548</ele>
        <time>2019-08-04T08:16:31Z</time>
      </trkpt>
      <trkpt lat="45.1925" lon="0.77336">
        <ele>135.906</ele>
        <time>2019-08-04T08:16:32Z</time>
      </trkpt>
      <trkpt lat="45.19244" lon="0.77326">
        <ele>134.279</ele>
        <time>2019-08-04T08:16:34Z</time>
      </trkpt>
      <trkpt lat="45.19236" lon="0.7732">
        <ele>134.639</ele>
        <time>2019-08-04T08:16:36Z</time>
      </trkpt>
      <trkpt lat="45.19225" lon="0.77307">
        <ele>134.54</ele>
        <time>2019-08-04T08:16:39Z</time>
      </trkpt>
      <trkpt lat="45.19221" lon="0.77301">
        <ele>137.334</ele>
        <time>2019-08-04T08:16:40Z</time>
      </trkpt>
      <trkpt lat="45.19218" lon="0.77296">
        <ele>135.732</ele>
        <time>2019-08-04T08:16:41Z</time>
      </trkpt>
      <trkpt lat="45.19213" lon="0.77291">
        <ele>134.648</ele>
        <time>2019-08-04T08:16:42Z</time>
      </trkpt>
      <trkpt lat="45.19209" lon="0.77286">
        <ele>134.476</ele>
        <time>2019-08-04T08:16:43Z</time>
      </trkpt>
      <trkpt lat="45.19205" lon="0.77281">
        <ele>134.995</ele>
        <time>2019-08-04T08:16:44Z</time>
      </trkpt>
      <trkpt lat="45.19202" lon="0.77274">
        <ele>133.713</ele>
        <time>2019-08-04T08:16:45Z</time>
      </trkpt>
      <trkpt lat="45.19198" lon="0.7727">
        <ele>133.224</ele>
        <time>2019-08-04T08:16:46Z</time>
      </trkpt>
      <trkpt lat="45.19194" lon="0.77266">
        <ele>132.78</ele>
        <time>2019-08-04T08:16:47Z</time>
      </trkpt>
      <trkpt lat="45.19186" lon="0.77258">
        <ele>132.385</ele>
        <time>2019-08-04T08:16:49Z</time>
      </trkpt>
      <trkpt lat="45.19177" lon="0.77248">
        <ele>132.64</ele>
        <time>2019-08-04T08:16:51Z</time>
      </trkpt>
      <trkpt lat="45.1917" lon="0.77238">
        <ele>133.412</ele>
        <time>2019-08-04T08:16:53Z</time>
      </trkpt>
      <trkpt lat="45.19166" lon="0.77234">
        <ele>133.045</ele>
        <time>2019-08-04T08:16:54Z</time>
      </trkpt>
      <trkpt lat="45.19161" lon="0.77228">
        <ele>132.42</ele>
        <time>2019-08-04T08:16:55Z</time>
      </trkpt>
      <trkpt lat="45.19158" lon="0.77221">
        <ele>131.628</ele>
        <time>2019-08-04T08:16:56Z</time>
      </trkpt>
      <trkpt lat="45.19148" lon="0.77214">
        <ele>131.984</ele>
        <time>2019-08-04T08:16:58Z</time>
      </trkpt>
      <trkpt lat="45.19144" lon="0.77209">
        <ele>131.957</ele>
        <time>2019-08-04T08:16:59Z</time>
      </trkpt>
      <trkpt lat="45.19139" lon="0.77206">
        <ele>131.642</ele>
        <time>2019-08-04T08:17:00Z</time>
      </trkpt>
      <trkpt lat="45.19136" lon="0.77197">
        <ele>132.792</ele>
        <time>2019-08-04T08:17:01Z</time>
      </trkpt>
      <trkpt lat="45.19133" lon="0.7719">
        <ele>132.627</ele>
        <time>2019-08-04T08:17:02Z</time>
      </trkpt>
      <trkpt lat="45.1913" lon="0.77183">
        <ele>133.724</ele>
        <time>2019-08-04T08:17:03Z</time>
      </trkpt>
      <trkpt lat="45.19125" lon="0.7718">
        <ele>134.402</ele>
        <time>2019-08-04T08:17:04Z</time>
      </trkpt>
      <trkpt lat="45.19121" lon="0.77175">
        <ele>134.305</ele>
        <time>2019-08-04T08:17:05Z</time>
      </trkpt>
      <trkpt lat="45.19118" lon="0.77166">
        <ele>133.983</ele>
        <time>2019-08-04T08:17:06Z</time>
      </trkpt>
      <trkpt lat="45.19114" lon="0.7716">
        <ele>133.516</ele>
        <time>2019-08-04T08:17:07Z</time>
      </trkpt>
      <trkpt lat="45.1911" lon="0.77156">
        <ele>133.557</ele>
        <time>2019-08-04T08:17:08Z</time>
      </trkpt>
      <trkpt lat="45.19106" lon="0.7715">
        <ele>132.98</ele>
        <time>2019-08-04T08:17:09Z</time>
      </trkpt>
      <trkpt lat="45.19102" lon="0.77144">
        <ele>132.917</ele>
        <time>2019-08-04T08:17:10Z</time>
      </trkpt>
      <trkpt lat="45.19096" lon="0.7713">
        <ele>133.237</ele>
        <time>2019-08-04T08:17:12Z</time>
      </trkpt>
      <trkpt lat="45.19091" lon="0.77126">
        <ele>133.45</ele>
        <time>2019-08-04T08:17:13Z</time>
      </trkpt>
      <trkpt lat="45.19089" lon="0.77116">
        <ele>134.071</ele>
        <time>2019-08-04T08:17:14Z</time>
      </trkpt>
      <trkpt lat="45.19084" lon="0.77111">
        <ele>132.85</ele>
        <time>2019-08-04T08:17:15Z</time>
      </trkpt>
      <trkpt lat="45.1908" lon="0.77107">
        <ele>133.504</ele>
        <time>2019-08-04T08:17:16Z</time>
      </trkpt>
      <trkpt lat="45.19077" lon="0.771">
        <ele>134.161</ele>
        <time>2019-08-04T08:17:17Z</time>
      </trkpt>
      <trkpt lat="45.19073" lon="0.77094">
        <ele>133.354</ele>
        <time>2019-08-04T08:17:18Z</time>
      </trkpt>
      <trkpt lat="45.19069" lon="0.77088">
        <ele>133.723</ele>
        <time>2019-08-04T08:17:19Z</time>
      </trkpt>
      <trkpt lat="45.19058" lon="0.77065">
        <ele>132.28</ele>
        <time>2019-08-04T08:17:22Z</time>
      </trkpt>
      <trkpt lat="45.19055" lon="0.77058">
        <ele>131.749</ele>
        <time>2019-08-04T08:17:23Z</time>
      </trkpt>
      <trkpt lat="45.19047" lon="0.77055">
        <ele>130.334</ele>
        <time>2019-08-04T08:17:24Z</time>
      </trkpt>
      <trkpt lat="45.19044" lon="0.77046">
        <ele>130.149</ele>
        <time>2019-08-04T08:17:25Z</time>
      </trkpt>
      <trkpt lat="45.1904" lon="0.77038">
        <ele>130.327</ele>
        <time>2019-08-04T08:17:26Z</time>
      </trkpt>
      <trkpt lat="45.19035" lon="0.77015">
        <ele>131.189</ele>
        <time>2019-08-04T08:17:28Z</time>
      </trkpt>
      <trkpt lat="45.1903" lon="0.77012">
        <ele>130.496</ele>
        <time>2019-08-04T08:17:29Z</time>
      </trkpt>
      <trkpt lat="45.1903" lon="0.77004">
        <ele>130.499</ele>
        <time>2019-08-04T08:17:30Z</time>
      </trkpt>
      <trkpt lat="45.1903" lon="0.76996">
        <ele>130.52</ele>
        <time>2019-08-04T08:17:31Z</time>
      </trkpt>
      <trkpt lat="45.1903" lon="0.76988">
        <ele>131.705</ele>
        <time>2019-08-04T08:17:32Z</time>
      </trkpt>
      <trkpt lat="45.19027" lon="0.76978">
        <ele>131.373</ele>
        <time>2019-08-04T08:17:33Z</time>
      </trkpt>
      <trkpt lat="45.19026" lon="0.76971">
        <ele>131.798</ele>
        <time>2019-08-04T08:17:34Z</time>
      </trkpt>
      <trkpt lat="45.19025" lon="0.76962">
        <ele>131.998</ele>
        <time>2019-08-04T08:17:35Z</time>
      </trkpt>
      <trkpt lat="45.19021" lon="0.76955">
        <ele>133.305</ele>
        <time>2019-08-04T08:17:36Z</time>
      </trkpt>
      <trkpt lat="45.19016" lon="0.76949">
        <ele>134.155</ele>
        <time>2019-08-04T08:17:37Z</time>
      </trkpt>
      <trkpt lat="45.19009" lon="0.76932">
        <ele>133.588</ele>
        <time>2019-08-04T08:17:39Z</time>
      </trkpt>
      <trkpt lat="45.19007" lon="0.76924">
        <ele>132.114</ele>
        <time>2019-08-04T08:17:40Z</time>
      </trkpt>
      <trkpt lat="45.19003" lon="0.76916">
        <ele>132.288</ele>
        <time>2019-08-04T08:17:41Z</time>
      </trkpt>
      <trkpt lat="45.18999" lon="0.76909">
        <ele>132.231</ele>
        <time>2019-08-04T08:17:42Z</time>
      </trkpt>
      <trkpt lat="45.18999" lon="0.769">
        <ele>133.44</ele>
        <time>2019-08-04T08:17:43Z</time>
      </trkpt>
      <trkpt lat="45.18998" lon="0.76892">
        <ele>133.939</ele>
        <time>2019-08-04T08:17:44Z</time>
      </trkpt>
      <trkpt lat="45.18995" lon="0.76883">
        <ele>135.107</ele>
        <time>2019-08-04T08:17:45Z</time>
      </trkpt>
      <trkpt lat="45.18995" lon="0.76875">
        <ele>135.734</ele>
        <time>2019-08-04T08:17:46Z</time>
      </trkpt>
      <trkpt lat="45.18994" lon="0.76861">
        <ele>135.196</ele>
        <time>2019-08-04T08:17:48Z</time>
      </trkpt>
      <trkpt lat="45.1899" lon="0.76853">
        <ele>135.674</ele>
        <time>2019-08-04T08:17:49Z</time>
      </trkpt>
      <trkpt lat="45.18988" lon="0.76845">
        <ele>135.792</ele>
        <time>2019-08-04T08:17:50Z</time>
      </trkpt>
      <trkpt lat="45.18982" lon="0.7682">
        <ele>136.552</ele>
        <time>2019-08-04T08:17:53Z</time>
      </trkpt>
      <trkpt lat="45.18984" lon="0.76811">
        <ele>137.269</ele>
        <time>2019-08-04T08:17:54Z</time>
      </trkpt>
      <trkpt lat="45.18989" lon="0.76796">
        <ele>136.492</ele>
        <time>2019-08-04T08:17:56Z</time>
      </trkpt>
      <trkpt lat="45.18978" lon="0.76784">
        <ele>202.656</ele>
        <time>2019-08-04T08:17:58Z</time>
      </trkpt>
      <trkpt lat="45.18976" lon="0.76778">
        <ele>177.56</ele>
        <time>2019-08-04T08:17:59Z</time>
      </trkpt>
      <trkpt lat="45.18977" lon="0.76768">
        <ele>165.985</ele>
        <time>2019-08-04T08:18:00Z</time>
      </trkpt>
      <trkpt lat="45.18973" lon="0.76759">
        <ele>159.287</ele>
        <time>2019-08-04T08:18:01Z</time>
      </trkpt>
      <trkpt lat="45.1897" lon="0.76752">
        <ele>152.501</ele>
        <time>2019-08-04T08:18:02Z</time>
      </trkpt>
      <trkpt lat="45.18971" lon="0.76745">
        <ele>146.695</ele>
        <time>2019-08-04T08:18:03Z</time>
      </trkpt>
      <trkpt lat="45.1897" lon="0.76737">
        <ele>143.915</ele>
        <time>2019-08-04T08:18:04Z</time>
      </trkpt>
      <trkpt lat="45.18969" lon="0.76728">
        <ele>142.204</ele>
        <time>2019-08-04T08:18:05Z</time>
      </trkpt>
      <trkpt lat="45.18967" lon="0.76719">
        <ele>140.916</ele>
        <time>2019-08-04T08:18:06Z</time>
      </trkpt>
      <trkpt lat="45.18964" lon="0.76713">
        <ele>140.442</ele>
        <time>2019-08-04T08:18:07Z</time>
      </trkpt>
      <trkpt lat="45.18961" lon="0.76704">
        <ele>139.618</ele>
        <time>2019-08-04T08:18:08Z</time>
      </trkpt>
      <trkpt lat="45.18957" lon="0.76688">
        <ele>137.839</ele>
        <time>2019-08-04T08:18:10Z</time>
      </trkpt>
      <trkpt lat="45.18955" lon="0.76681">
        <ele>136.657</ele>
        <time>2019-08-04T08:18:11Z</time>
      </trkpt>
      <trkpt lat="45.18952" lon="0.76674">
        <ele>136.324</ele>
        <time>2019-08-04T08:18:12Z</time>
      </trkpt>
      <trkpt lat="45.1895" lon="0.76666">
        <ele>136.98</ele>
        <time>2019-08-04T08:18:13Z</time>
      </trkpt>
      <trkpt lat="45.1895" lon="0.76657">
        <ele>137.506</ele>
        <time>2019-08-04T08:18:14Z</time>
      </trkpt>
      <trkpt lat="45.18948" lon="0.7665">
        <ele>138.172</ele>
        <time>2019-08-04T08:18:15Z</time>
      </trkpt>
      <trkpt lat="45.18942" lon="0.76636">
        <ele>137.898</ele>
        <time>2019-08-04T08:18:17Z</time>
      </trkpt>
      <trkpt lat="45.1894" lon="0.76627">
        <ele>137.638</ele>
        <time>2019-08-04T08:18:18Z</time>
      </trkpt>
      <trkpt lat="45.18934" lon="0.76618">
        <ele>136.806</ele>
        <time>2019-08-04T08:18:19Z</time>
      </trkpt>
      <trkpt lat="45.18931" lon="0.76609">
        <ele>137.439</ele>
        <time>2019-08-04T08:18:20Z</time>
      </trkpt>
      <trkpt lat="45.1893" lon="0.76602">
        <ele>137.138</ele>
        <time>2019-08-04T08:18:21Z</time>
      </trkpt>
      <trkpt lat="45.18926" lon="0.76589">
        <ele>135.641</ele>
        <time>2019-08-04T08:18:23Z</time>
      </trkpt>
      <trkpt lat="45.18926" lon="0.76582">
        <ele>136.248</ele>
        <time>2019-08-04T08:18:24Z</time>
      </trkpt>
      <trkpt lat="45.18926" lon="0.76576">
        <ele>136.551</ele>
        <time>2019-08-04T08:18:25Z</time>
      </trkpt>
      <trkpt lat="45.18924" lon="0.76568">
        <ele>136.905</ele>
        <time>2019-08-04T08:18:26Z</time>
      </trkpt>
      <trkpt lat="45.18922" lon="0.76558">
        <ele>134.438</ele>
        <time>2019-08-04T08:18:28Z</time>
      </trkpt>
      <trkpt lat="45.18914" lon="0.7653">
        <ele>137.775</ele>
        <time>2019-08-04T08:18:32Z</time>
      </trkpt>
      <trkpt lat="45.1891" lon="0.76518">
        <ele>139.261</ele>
        <time>2019-08-04T08:18:34Z</time>
      </trkpt>
      <trkpt lat="45.18908" lon="0.76511">
        <ele>139.282</ele>
        <time>2019-08-04T08:18:35Z</time>
      </trkpt>
      <trkpt lat="45.18907" lon="0.76495">
        <ele>138.724</ele>
        <time>2019-08-04T08:18:38Z</time>
      </trkpt>
      <trkpt lat="45.1891" lon="0.76484">
        <ele>139.282</ele>
        <time>2019-08-04T08:18:40Z</time>
      </trkpt>
      <trkpt lat="45.18912" lon="0.76474">
        <ele>138.601</ele>
        <time>2019-08-04T08:18:42Z</time>
      </trkpt>
      <trkpt lat="45.18914" lon="0.7647">
        <ele>138.643</ele>
        <time>2019-08-04T08:18:43Z</time>
      </trkpt>
      <trkpt lat="45.18915" lon="0.76465">
        <ele>137.948</ele>
        <time>2019-08-04T08:18:44Z</time>
      </trkpt>
      <trkpt lat="45.18919" lon="0.76456">
        <ele>138.431</ele>
        <time>2019-08-04T08:18:46Z</time>
      </trkpt>
      <trkpt lat="45.18922" lon="0.76446">
        <ele>137.77</ele>
        <time>2019-08-04T08:18:48Z</time>
      </trkpt>
      <trkpt lat="45.18923" lon="0.76429">
        <ele>138.242</ele>
        <time>2019-08-04T08:18:51Z</time>
      </trkpt>
      <trkpt lat="45.1892" lon="0.76417">
        <ele>138.443</ele>
        <time>2019-08-04T08:18:53Z</time>
      </trkpt>
      <trkpt lat="45.18919" lon="0.76412">
        <ele>137.937</ele>
        <time>2019-08-04T08:18:54Z</time>
      </trkpt>
      <trkpt lat="45.18914" lon="0.76403">
        <ele>138.855</ele>
        <time>2019-08-04T08:18:56Z</time>
      </trkpt>
      <trkpt lat="45.18901" lon="0.76395">
        <ele>138.21</ele>
        <time>2019-08-04T08:18:59Z</time>
      </trkpt>
      <trkpt lat="45.18897" lon="0.76393">
        <ele>137.878</ele>
        <time>2019-08-04T08:19:00Z</time>
      </trkpt>
      <trkpt lat="45.18892" lon="0.76391">
        <ele>137.847</ele>
        <time>2019-08-04T08:19:01Z</time>
      </trkpt>
      <trkpt lat="45.18879" lon="0.76393">
        <ele>137.179</ele>
        <time>2019-08-04T08:19:04Z</time>
      </trkpt>
      <trkpt lat="45.18873" lon="0.76394">
        <ele>137.486</ele>
        <time>2019-08-04T08:19:05Z</time>
      </trkpt>
      <trkpt lat="45.18858" lon="0.764">
        <ele>136.382</ele>
        <time>2019-08-04T08:19:08Z</time>
      </trkpt>
      <trkpt lat="45.18854" lon="0.76394">
        <ele>135.967</ele>
        <time>2019-08-04T08:19:09Z</time>
      </trkpt>
      <trkpt lat="45.18851" lon="0.76387">
        <ele>135.308</ele>
        <time>2019-08-04T08:19:10Z</time>
      </trkpt>
      <trkpt lat="45.18848" lon="0.7638">
        <ele>135.466</ele>
        <time>2019-08-04T08:19:11Z</time>
      </trkpt>
      <trkpt lat="45.18846" lon="0.76371">
        <ele>134.49</ele>
        <time>2019-08-04T08:19:12Z</time>
      </trkpt>
      <trkpt lat="45.18845" lon="0.76365">
        <ele>134.37</ele>
        <time>2019-08-04T08:19:13Z</time>
      </trkpt>
      <trkpt lat="45.18843" lon="0.76357">
        <ele>133.791</ele>
        <time>2019-08-04T08:19:14Z</time>
      </trkpt>
      <trkpt lat="45.18838" lon="0.76347">
        <ele>133.291</ele>
        <time>2019-08-04T08:19:15Z</time>
      </trkpt>
      <trkpt lat="45.18836" lon="0.76339">
        <ele>173.192</ele>
        <time>2019-08-04T08:19:16Z</time>
      </trkpt>
      <trkpt lat="45.18834" lon="0.76332">
        <ele>163.44</ele>
        <time>2019-08-04T08:19:17Z</time>
      </trkpt>
      <trkpt lat="45.18829" lon="0.76309">
        <ele>146.577</ele>
        <time>2019-08-04T08:19:20Z</time>
      </trkpt>
      <trkpt lat="45.18823" lon="0.76293">
        <ele>142.684</ele>
        <time>2019-08-04T08:19:22Z</time>
      </trkpt>
      <trkpt lat="45.18824" lon="0.76283">
        <ele>140.967</ele>
        <time>2019-08-04T08:19:23Z</time>
      </trkpt>
      <trkpt lat="45.18822" lon="0.76275">
        <ele>139.785</ele>
        <time>2019-08-04T08:19:24Z</time>
      </trkpt>
      <trkpt lat="45.18821" lon="0.76262">
        <ele>139.716</ele>
        <time>2019-08-04T08:19:26Z</time>
      </trkpt>
      <trkpt lat="45.1882" lon="0.76255">
        <ele>139.669</ele>
        <time>2019-08-04T08:19:27Z</time>
      </trkpt>
      <trkpt lat="45.18819" lon="0.76249">
        <ele>138.845</ele>
        <time>2019-08-04T08:19:28Z</time>
      </trkpt>
      <trkpt lat="45.18816" lon="0.76241">
        <ele>138.111</ele>
        <time>2019-08-04T08:19:29Z</time>
      </trkpt>
      <trkpt lat="45.18813" lon="0.7623">
        <ele>138.282</ele>
        <time>2019-08-04T08:19:31Z</time>
      </trkpt>
      <trkpt lat="45.18811" lon="0.76223">
        <ele>138.441</ele>
        <time>2019-08-04T08:19:32Z</time>
      </trkpt>
      <trkpt lat="45.18806" lon="0.76205">
        <ele>137.945</ele>
        <time>2019-08-04T08:19:35Z</time>
      </trkpt>
      <trkpt lat="45.18803" lon="0.76198">
        <ele>136.669</ele>
        <time>2019-08-04T08:19:36Z</time>
      </trkpt>
      <trkpt lat="45.18802" lon="0.76194">
        <ele>134.479</ele>
        <time>2019-08-04T08:19:37Z</time>
      </trkpt>
      <trkpt lat="45.188" lon="0.76187">
        <ele>134.057</ele>
        <time>2019-08-04T08:19:38Z</time>
      </trkpt>
      <trkpt lat="45.18797" lon="0.76177">
        <ele>132.138</ele>
        <time>2019-08-04T08:19:40Z</time>
      </trkpt>
      <trkpt lat="45.18793" lon="0.76166">
        <ele>131.693</ele>
        <time>2019-08-04T08:19:42Z</time>
      </trkpt>
      <trkpt lat="45.18791" lon="0.76154">
        <ele>130.455</ele>
        <time>2019-08-04T08:19:44Z</time>
      </trkpt>
      <trkpt lat="45.18788" lon="0.76141">
        <ele>129.219</ele>
        <time>2019-08-04T08:19:47Z</time>
      </trkpt>
      <trkpt lat="45.18784" lon="0.76128">
        <ele>128.569</ele>
        <time>2019-08-04T08:19:50Z</time>
      </trkpt>
      <trkpt lat="45.18776" lon="0.76126">
        <ele>130.316</ele>
        <time>2019-08-04T08:19:52Z</time>
      </trkpt>
      <trkpt lat="45.18772" lon="0.76123">
        <ele>130.716</ele>
        <time>2019-08-04T08:19:54Z</time>
      </trkpt>
      <trkpt lat="45.1876" lon="0.76125">
        <ele>132.38</ele>
        <time>2019-08-04T08:19:58Z</time>
      </trkpt>
      <trkpt lat="45.18752" lon="0.76131">
        <ele>132.36</ele>
        <time>2019-08-04T08:20:00Z</time>
      </trkpt>
      <trkpt lat="45.18748" lon="0.76133">
        <ele>133.835</ele>
        <time>2019-08-04T08:20:01Z</time>
      </trkpt>
      <trkpt lat="45.18743" lon="0.76134">
        <ele>134.313</ele>
        <time>2019-08-04T08:20:02Z</time>
      </trkpt>
      <trkpt lat="45.18738" lon="0.76127">
        <ele>132.788</ele>
        <time>2019-08-04T08:20:03Z</time>
      </trkpt>
      <trkpt lat="45.18734" lon="0.76122">
        <ele>133.191</ele>
        <time>2019-08-04T08:20:04Z</time>
      </trkpt>
      <trkpt lat="45.18728" lon="0.76116">
        <ele>133.299</ele>
        <time>2019-08-04T08:20:05Z</time>
      </trkpt>
      <trkpt lat="45.18724" lon="0.76111">
        <ele>133.095</ele>
        <time>2019-08-04T08:20:06Z</time>
      </trkpt>
      <trkpt lat="45.18722" lon="0.76103">
        <ele>132.329</ele>
        <time>2019-08-04T08:20:07Z</time>
      </trkpt>
      <trkpt lat="45.18723" lon="0.76094">
        <ele>132.421</ele>
        <time>2019-08-04T08:20:08Z</time>
      </trkpt>
      <trkpt lat="45.18718" lon="0.76086">
        <ele>131.464</ele>
        <time>2019-08-04T08:20:09Z</time>
      </trkpt>
      <trkpt lat="45.18718" lon="0.76078">
        <ele>131.628</ele>
        <time>2019-08-04T08:20:10Z</time>
      </trkpt>
      <trkpt lat="45.18718" lon="0.76071">
        <ele>130.865</ele>
        <time>2019-08-04T08:20:11Z</time>
      </trkpt>
      <trkpt lat="45.18718" lon="0.76057">
        <ele>131.998</ele>
        <time>2019-08-04T08:20:13Z</time>
      </trkpt>
      <trkpt lat="45.18709" lon="0.76047">
        <ele>130.975</ele>
        <time>2019-08-04T08:20:16Z</time>
      </trkpt>
      <trkpt lat="45.18705" lon="0.76043">
        <ele>130.435</ele>
        <time>2019-08-04T08:20:18Z</time>
      </trkpt>
      <trkpt lat="45.18699" lon="0.76047">
        <ele>130.928</ele>
        <time>2019-08-04T08:20:20Z</time>
      </trkpt>
      <trkpt lat="45.18693" lon="0.7605">
        <ele>130.207</ele>
        <time>2019-08-04T08:20:22Z</time>
      </trkpt>
      <trkpt lat="45.18683" lon="0.76049">
        <ele>129.738</ele>
        <time>2019-08-04T08:20:25Z</time>
      </trkpt>
      <trkpt lat="45.18676" lon="0.76046">
        <ele>128.635</ele>
        <time>2019-08-04T08:20:27Z</time>
      </trkpt>
      <trkpt lat="45.1867" lon="0.76041">
        <ele>128.977</ele>
        <time>2019-08-04T08:20:29Z</time>
      </trkpt>
      <trkpt lat="45.18665" lon="0.76041">
        <ele>129.648</ele>
        <time>2019-08-04T08:20:31Z</time>
      </trkpt>
      <trkpt lat="45.1866" lon="0.76044">
        <ele>130.049</ele>
        <time>2019-08-04T08:20:33Z</time>
      </trkpt>
      <trkpt lat="45.18655" lon="0.76045">
        <ele>130.059</ele>
        <time>2019-08-04T08:20:35Z</time>
      </trkpt>
      <trkpt lat="45.18648" lon="0.76044">
        <ele>130.366</ele>
        <time>2019-08-04T08:20:37Z</time>
      </trkpt>
      <trkpt lat="45.18643" lon="0.76044">
        <ele>129.712</ele>
        <time>2019-08-04T08:20:38Z</time>
      </trkpt>
      <trkpt lat="45.18639" lon="0.76045">
        <ele>129.548</ele>
        <time>2019-08-04T08:20:39Z</time>
      </trkpt>
      <trkpt lat="45.18631" lon="0.76044">
        <ele>130.599</ele>
        <time>2019-08-04T08:20:42Z</time>
      </trkpt>
      <trkpt lat="45.18624" lon="0.7604">
        <ele>132.667</ele>
        <time>2019-08-04T08:20:44Z</time>
      </trkpt>
      <trkpt lat="45.18614" lon="0.76033">
        <ele>132.043</ele>
        <time>2019-08-04T08:20:47Z</time>
      </trkpt>
      <trkpt lat="45.18608" lon="0.76023">
        <ele>129.727</ele>
        <time>2019-08-04T08:20:50Z</time>
      </trkpt>
      <trkpt lat="45.18607" lon="0.7602">
        <ele>129.256</ele>
        <time>2019-08-04T08:20:51Z</time>
      </trkpt>
      <trkpt lat="45.18605" lon="0.76017">
        <ele>129.294</ele>
        <time>2019-08-04T08:20:52Z</time>
      </trkpt>
      <trkpt lat="45.18599" lon="0.76008">
        <ele>129.65</ele>
        <time>2019-08-04T08:20:55Z</time>
      </trkpt>
      <trkpt lat="45.18597" lon="0.76005">
        <ele>128.965</ele>
        <time>2019-08-04T08:20:56Z</time>
      </trkpt>
      <trkpt lat="45.18595" lon="0.76002">
        <ele>128.993</ele>
        <time>2019-08-04T08:20:57Z</time>
      </trkpt>
      <trkpt lat="45.18591" lon="0.75996">
        <ele>128.077</ele>
        <time>2019-08-04T08:20:59Z</time>
      </trkpt>
      <trkpt lat="45.18584" lon="0.75985">
        <ele>126.145</ele>
        <time>2019-08-04T08:21:02Z</time>
      </trkpt>
      <trkpt lat="45.18583" lon="0.75981">
        <ele>126.332</ele>
        <time>2019-08-04T08:21:03Z</time>
      </trkpt>
      <trkpt lat="45.18581" lon="0.75977">
        <ele>126.127</ele>
        <time>2019-08-04T08:21:04Z</time>
      </trkpt>
      <trkpt lat="45.18578" lon="0.75968">
        <ele>124.858</ele>
        <time>2019-08-04T08:21:06Z</time>
      </trkpt>
      <trkpt lat="45.18577" lon="0.75964">
        <ele>125.016</ele>
        <time>2019-08-04T08:21:07Z</time>
      </trkpt>
      <trkpt lat="45.18573" lon="0.75956">
        <ele>123.386</ele>
        <time>2019-08-04T08:21:09Z</time>
      </trkpt>
      <trkpt lat="45.18572" lon="0.75954">
        <ele>121.217</ele>
        <time>2019-08-04T08:21:10Z</time>
      </trkpt>
      <trkpt lat="45.18571" lon="0.7595">
        <ele>121.344</ele>
        <time>2019-08-04T08:21:11Z</time>
      </trkpt>
      <trkpt lat="45.18567" lon="0.75942">
        <ele>120.714</ele>
        <time>2019-08-04T08:21:13Z</time>
      </trkpt>
      <trkpt lat="45.18565" lon="0.75938">
        <ele>120.765</ele>
        <time>2019-08-04T08:21:14Z</time>
      </trkpt>
      <trkpt lat="45.18563" lon="0.75934">
        <ele>121.415</ele>
        <time>2019-08-04T08:21:15Z</time>
      </trkpt>
      <trkpt lat="45.18558" lon="0.75925">
        <ele>121.175</ele>
        <time>2019-08-04T08:21:18Z</time>
      </trkpt>
      <trkpt lat="45.18556" lon="0.75921">
        <ele>121.148</ele>
        <time>2019-08-04T08:21:19Z</time>
      </trkpt>
      <trkpt lat="45.18554" lon="0.75917">
        <ele>121.123</ele>
        <time>2019-08-04T08:21:20Z</time>
      </trkpt>
      <trkpt lat="45.18551" lon="0.7591">
        <ele>122.871</ele>
        <time>2019-08-04T08:21:22Z</time>
      </trkpt>
      <trkpt lat="45.18549" lon="0.75907">
        <ele>125.86</ele>
        <time>2019-08-04T08:21:23Z</time>
      </trkpt>
      <trkpt lat="45.18547" lon="0.75903">
        <ele>126.282</ele>
        <time>2019-08-04T08:21:24Z</time>
      </trkpt>
      <trkpt lat="45.18543" lon="0.75894">
        <ele>125.779</ele>
        <time>2019-08-04T08:21:26Z</time>
      </trkpt>
      <trkpt lat="45.18538" lon="0.75884">
        <ele>126.747</ele>
        <time>2019-08-04T08:21:28Z</time>
      </trkpt>
      <trkpt lat="45.18534" lon="0.75875">
        <ele>125.744</ele>
        <time>2019-08-04T08:21:30Z</time>
      </trkpt>
      <trkpt lat="45.18534" lon="0.75867">
        <ele>124.107</ele>
        <time>2019-08-04T08:21:32Z</time>
      </trkpt>
      <trkpt lat="45.18534" lon="0.75854">
        <ele>122.985</ele>
        <time>2019-08-04T08:21:35Z</time>
      </trkpt>
      <trkpt lat="45.18532" lon="0.75841">
        <ele>122.98</ele>
        <time>2019-08-04T08:21:38Z</time>
      </trkpt>
      <trkpt lat="45.18528" lon="0.7583">
        <ele>123.109</ele>
        <time>2019-08-04T08:21:40Z</time>
      </trkpt>
      <trkpt lat="45.18527" lon="0.75824">
        <ele>123.933</ele>
        <time>2019-08-04T08:21:41Z</time>
      </trkpt>
      <trkpt lat="45.18525" lon="0.75819">
        <ele>124.843</ele>
        <time>2019-08-04T08:21:42Z</time>
      </trkpt>
      <trkpt lat="45.1852" lon="0.75808">
        <ele>126.066</ele>
        <time>2019-08-04T08:21:44Z</time>
      </trkpt>
      <trkpt lat="45.18516" lon="0.75803">
        <ele>126.481</ele>
        <time>2019-08-04T08:21:45Z</time>
      </trkpt>
      <trkpt lat="45.18513" lon="0.75798">
        <ele>126.833</ele>
        <time>2019-08-04T08:21:46Z</time>
      </trkpt>
      <trkpt lat="45.1851" lon="0.75794">
        <ele>127.415</ele>
        <time>2019-08-04T08:21:47Z</time>
      </trkpt>
      <trkpt lat="45.18507" lon="0.75789">
        <ele>128.832</ele>
        <time>2019-08-04T08:21:48Z</time>
      </trkpt>
      <trkpt lat="45.18504" lon="0.75785">
        <ele>129.507</ele>
        <time>2019-08-04T08:21:49Z</time>
      </trkpt>
      <trkpt lat="45.18501" lon="0.75782">
        <ele>129.447</ele>
        <time>2019-08-04T08:21:50Z</time>
      </trkpt>
      <trkpt lat="45.18496" lon="0.75774">
        <ele>129.929</ele>
        <time>2019-08-04T08:21:52Z</time>
      </trkpt>
      <trkpt lat="45.18494" lon="0.7577">
        <ele>130.833</ele>
        <time>2019-08-04T08:21:53Z</time>
      </trkpt>
      <trkpt lat="45.18488" lon="0.75763">
        <ele>131.23</ele>
        <time>2019-08-04T08:21:55Z</time>
      </trkpt>
      <trkpt lat="45.18482" lon="0.75757">
        <ele>132.157</ele>
        <time>2019-08-04T08:21:57Z</time>
      </trkpt>
      <trkpt lat="45.18477" lon="0.75749">
        <ele>131.554</ele>
        <time>2019-08-04T08:21:59Z</time>
      </trkpt>
      <trkpt lat="45.18475" lon="0.75745">
        <ele>131.846</ele>
        <time>2019-08-04T08:22:00Z</time>
      </trkpt>
      <trkpt lat="45.1847" lon="0.75737">
        <ele>132.722</ele>
        <time>2019-08-04T08:22:02Z</time>
      </trkpt>
      <trkpt lat="45.18466" lon="0.75729">
        <ele>130.966</ele>
        <time>2019-08-04T08:22:04Z</time>
      </trkpt>
      <trkpt lat="45.18462" lon="0.75721">
        <ele>130.393</ele>
        <time>2019-08-04T08:22:06Z</time>
      </trkpt>
      <trkpt lat="45.18459" lon="0.75716">
        <ele>129.982</ele>
        <time>2019-08-04T08:22:07Z</time>
      </trkpt>
      <trkpt lat="45.18457" lon="0.75712">
        <ele>128.859</ele>
        <time>2019-08-04T08:22:08Z</time>
      </trkpt>
      <trkpt lat="45.1845" lon="0.75699">
        <ele>126.95</ele>
        <time>2019-08-04T08:22:11Z</time>
      </trkpt>
      <trkpt lat="45.18443" lon="0.75692">
        <ele>126.549</ele>
        <time>2019-08-04T08:22:13Z</time>
      </trkpt>
      <trkpt lat="45.1844" lon="0.75688">
        <ele>127.256</ele>
        <time>2019-08-04T08:22:14Z</time>
      </trkpt>
      <trkpt lat="45.18437" lon="0.75684">
        <ele>127.155</ele>
        <time>2019-08-04T08:22:15Z</time>
      </trkpt>
      <trkpt lat="45.18434" lon="0.7568">
        <ele>127.154</ele>
        <time>2019-08-04T08:22:16Z</time>
      </trkpt>
      <trkpt lat="45.1843" lon="0.75672">
        <ele>127.105</ele>
        <time>2019-08-04T08:22:18Z</time>
      </trkpt>
      <trkpt lat="45.18425" lon="0.75664">
        <ele>126.997</ele>
        <time>2019-08-04T08:22:20Z</time>
      </trkpt>
      <trkpt lat="45.18418" lon="0.75654">
        <ele>128.111</ele>
        <time>2019-08-04T08:22:23Z</time>
      </trkpt>
      <trkpt lat="45.18415" lon="0.7565">
        <ele>128.878</ele>
        <time>2019-08-04T08:22:24Z</time>
      </trkpt>
      <trkpt lat="45.1841" lon="0.75642">
        <ele>128.964</ele>
        <time>2019-08-04T08:22:26Z</time>
      </trkpt>
      <trkpt lat="45.18404" lon="0.75636">
        <ele>128.506</ele>
        <time>2019-08-04T08:22:28Z</time>
      </trkpt>
      <trkpt lat="45.18395" lon="0.75624">
        <ele>129.026</ele>
        <time>2019-08-04T08:22:31Z</time>
      </trkpt>
      <trkpt lat="45.18392" lon="0.7562">
        <ele>128.576</ele>
        <time>2019-08-04T08:22:32Z</time>
      </trkpt>
      <trkpt lat="45.18389" lon="0.75616">
        <ele>128.875</ele>
        <time>2019-08-04T08:22:33Z</time>
      </trkpt>
      <trkpt lat="45.18386" lon="0.75612">
        <ele>129.304</ele>
        <time>2019-08-04T08:22:34Z</time>
      </trkpt>
      <trkpt lat="45.18383" lon="0.75608">
        <ele>129.822</ele>
        <time>2019-08-04T08:22:35Z</time>
      </trkpt>
      <trkpt lat="45.18381" lon="0.75604">
        <ele>130.972</ele>
        <time>2019-08-04T08:22:36Z</time>
      </trkpt>
      <trkpt lat="45.18371" lon="0.75591">
        <ele>131.682</ele>
        <time>2019-08-04T08:22:39Z</time>
      </trkpt>
      <trkpt lat="45.18366" lon="0.75583">
        <ele>130.747</ele>
        <time>2019-08-04T08:22:41Z</time>
      </trkpt>
      <trkpt lat="45.18364" lon="0.75579">
        <ele>130.307</ele>
        <time>2019-08-04T08:22:42Z</time>
      </trkpt>
      <trkpt lat="45.18361" lon="0.75574">
        <ele>130.258</ele>
        <time>2019-08-04T08:22:43Z</time>
      </trkpt>
      <trkpt lat="45.18359" lon="0.75571">
        <ele>131.651</ele>
        <time>2019-08-04T08:22:44Z</time>
      </trkpt>
      <trkpt lat="45.18352" lon="0.75563">
        <ele>129.968</ele>
        <time>2019-08-04T08:22:46Z</time>
      </trkpt>
      <trkpt lat="45.18349" lon="0.7556">
        <ele>129.455</ele>
        <time>2019-08-04T08:22:47Z</time>
      </trkpt>
      <trkpt lat="45.18345" lon="0.75557">
        <ele>128.811</ele>
        <time>2019-08-04T08:22:48Z</time>
      </trkpt>
      <trkpt lat="45.1834" lon="0.75551">
        <ele>128.304</ele>
        <time>2019-08-04T08:22:50Z</time>
      </trkpt>
      <trkpt lat="45.18338" lon="0.75548">
        <ele>128.134</ele>
        <time>2019-08-04T08:22:51Z</time>
      </trkpt>
      <trkpt lat="45.18333" lon="0.7554">
        <ele>129.102</ele>
        <time>2019-08-04T08:22:53Z</time>
      </trkpt>
      <trkpt lat="45.1833" lon="0.75535">
        <ele>127.975</ele>
        <time>2019-08-04T08:22:54Z</time>
      </trkpt>
      <trkpt lat="45.18328" lon="0.75531">
        <ele>127.597</ele>
        <time>2019-08-04T08:22:55Z</time>
      </trkpt>
      <trkpt lat="45.18326" lon="0.75526">
        <ele>127.124</ele>
        <time>2019-08-04T08:22:56Z</time>
      </trkpt>
      <trkpt lat="45.18323" lon="0.75522">
        <ele>127.904</ele>
        <time>2019-08-04T08:22:57Z</time>
      </trkpt>
      <trkpt lat="45.18321" lon="0.75517">
        <ele>127.466</ele>
        <time>2019-08-04T08:22:58Z</time>
      </trkpt>
      <trkpt lat="45.18317" lon="0.75507">
        <ele>127.762</ele>
        <time>2019-08-04T08:23:00Z</time>
      </trkpt>
      <trkpt lat="45.18311" lon="0.75495">
        <ele>124.084</ele>
        <time>2019-08-04T08:23:03Z</time>
      </trkpt>
      <trkpt lat="45.18307" lon="0.75487">
        <ele>123.971</ele>
        <time>2019-08-04T08:23:05Z</time>
      </trkpt>
      <trkpt lat="45.18304" lon="0.75483">
        <ele>124.339</ele>
        <time>2019-08-04T08:23:06Z</time>
      </trkpt>
      <trkpt lat="45.18299" lon="0.75477">
        <ele>124.373</ele>
        <time>2019-08-04T08:23:08Z</time>
      </trkpt>
      <trkpt lat="45.18296" lon="0.75473">
        <ele>123.899</ele>
        <time>2019-08-04T08:23:09Z</time>
      </trkpt>
      <trkpt lat="45.18291" lon="0.75465">
        <ele>124.835</ele>
        <time>2019-08-04T08:23:11Z</time>
      </trkpt>
      <trkpt lat="45.18288" lon="0.75461">
        <ele>124.968</ele>
        <time>2019-08-04T08:23:12Z</time>
      </trkpt>
      <trkpt lat="45.18286" lon="0.75457">
        <ele>124.9</ele>
        <time>2019-08-04T08:23:13Z</time>
      </trkpt>
      <trkpt lat="45.18283" lon="0.75448">
        <ele>125.321</ele>
        <time>2019-08-04T08:23:15Z</time>
      </trkpt>
      <trkpt lat="45.18281" lon="0.75445">
        <ele>125.848</ele>
        <time>2019-08-04T08:23:16Z</time>
      </trkpt>
      <trkpt lat="45.18274" lon="0.75433">
        <ele>123.759</ele>
        <time>2019-08-04T08:23:19Z</time>
      </trkpt>
      <trkpt lat="45.18272" lon="0.75428">
        <ele>124.314</ele>
        <time>2019-08-04T08:23:20Z</time>
      </trkpt>
      <trkpt lat="45.18268" lon="0.7542">
        <ele>123.648</ele>
        <time>2019-08-04T08:23:22Z</time>
      </trkpt>
      <trkpt lat="45.18265" lon="0.75416">
        <ele>123.948</ele>
        <time>2019-08-04T08:23:23Z</time>
      </trkpt>
      <trkpt lat="45.18263" lon="0.75411">
        <ele>122.721</ele>
        <time>2019-08-04T08:23:24Z</time>
      </trkpt>
      <trkpt lat="45.18258" lon="0.754">
        <ele>123.095</ele>
        <time>2019-08-04T08:23:27Z</time>
      </trkpt>
      <trkpt lat="45.18257" lon="0.75396">
        <ele>123.761</ele>
        <time>2019-08-04T08:23:28Z</time>
      </trkpt>
      <trkpt lat="45.18255" lon="0.75392">
        <ele>124.562</ele>
        <time>2019-08-04T08:23:29Z</time>
      </trkpt>
      <trkpt lat="45.18253" lon="0.75383">
        <ele>125.928</ele>
        <time>2019-08-04T08:23:31Z</time>
      </trkpt>
      <trkpt lat="45.18252" lon="0.75376">
        <ele>126.209</ele>
        <time>2019-08-04T08:23:34Z</time>
      </trkpt>
      <trkpt lat="45.18251" lon="0.75372">
        <ele>125.654</ele>
        <time>2019-08-04T08:23:35Z</time>
      </trkpt>
      <trkpt lat="45.18251" lon="0.75368">
        <ele>125.819</ele>
        <time>2019-08-04T08:23:36Z</time>
      </trkpt>
      <trkpt lat="45.18251" lon="0.75359">
        <ele>125.602</ele>
        <time>2019-08-04T08:23:38Z</time>
      </trkpt>
      <trkpt lat="45.18253" lon="0.75348">
        <ele>127.008</ele>
        <time>2019-08-04T08:23:40Z</time>
      </trkpt>
      <trkpt lat="45.18253" lon="0.75337">
        <ele>125.283</ele>
        <time>2019-08-04T08:23:42Z</time>
      </trkpt>
      <trkpt lat="45.18253" lon="0.75332">
        <ele>124.739</ele>
        <time>2019-08-04T08:23:43Z</time>
      </trkpt>
      <trkpt lat="45.18253" lon="0.75327">
        <ele>125.003</ele>
        <time>2019-08-04T08:23:44Z</time>
      </trkpt>
      <trkpt lat="45.18253" lon="0.75321">
        <ele>125.153</ele>
        <time>2019-08-04T08:23:45Z</time>
      </trkpt>
      <trkpt lat="45.18252" lon="0.75316">
        <ele>124.619</ele>
        <time>2019-08-04T08:23:46Z</time>
      </trkpt>
      <trkpt lat="45.18251" lon="0.75302">
        <ele>125.527</ele>
        <time>2019-08-04T08:23:48Z</time>
      </trkpt>
      <trkpt lat="45.18251" lon="0.75296">
        <ele>126.927</ele>
        <time>2019-08-04T08:23:49Z</time>
      </trkpt>
      <trkpt lat="45.1825" lon="0.75289">
        <ele>127.678</ele>
        <time>2019-08-04T08:23:50Z</time>
      </trkpt>
      <trkpt lat="45.1825" lon="0.75283">
        <ele>127.367</ele>
        <time>2019-08-04T08:23:51Z</time>
      </trkpt>
      <trkpt lat="45.1825" lon="0.75276">
        <ele>126.326</ele>
        <time>2019-08-04T08:23:52Z</time>
      </trkpt>
      <trkpt lat="45.18253" lon="0.75248">
        <ele>126.904</ele>
        <time>2019-08-04T08:23:55Z</time>
      </trkpt>
      <trkpt lat="45.18254" lon="0.75234">
        <ele>126.297</ele>
        <time>2019-08-04T08:23:57Z</time>
      </trkpt>
      <trkpt lat="45.18254" lon="0.75215">
        <ele>127.246</ele>
        <time>2019-08-04T08:24:00Z</time>
      </trkpt>
      <trkpt lat="45.18256" lon="0.75201">
        <ele>126.185</ele>
        <time>2019-08-04T08:24:02Z</time>
      </trkpt>
      <trkpt lat="45.18257" lon="0.7519">
        <ele>125.71</ele>
        <time>2019-08-04T08:24:04Z</time>
      </trkpt>
      <trkpt lat="45.18259" lon="0.75175">
        <ele>124.334</ele>
        <time>2019-08-04T08:24:07Z</time>
      </trkpt>
      <trkpt lat="45.18261" lon="0.75164">
        <ele>122.759</ele>
        <time>2019-08-04T08:24:09Z</time>
      </trkpt>
      <trkpt lat="45.18262" lon="0.75158">
        <ele>122.138</ele>
        <time>2019-08-04T08:24:10Z</time>
      </trkpt>
      <trkpt lat="45.18263" lon="0.75153">
        <ele>122.781</ele>
        <time>2019-08-04T08:24:11Z</time>
      </trkpt>
      <trkpt lat="45.18268" lon="0.75135">
        <ele>119.788</ele>
        <time>2019-08-04T08:24:14Z</time>
      </trkpt>
      <trkpt lat="45.18269" lon="0.7513">
        <ele>119.807</ele>
        <time>2019-08-04T08:24:15Z</time>
      </trkpt>
      <trkpt lat="45.1827" lon="0.75126">
        <ele>120.779</ele>
        <time>2019-08-04T08:24:16Z</time>
      </trkpt>
      <trkpt lat="45.18275" lon="0.75112">
        <ele>119.452</ele>
        <time>2019-08-04T08:24:19Z</time>
      </trkpt>
      <trkpt lat="45.18282" lon="0.75094">
        <ele>117.85</ele>
        <time>2019-08-04T08:24:22Z</time>
      </trkpt>
      <trkpt lat="45.18283" lon="0.75089">
        <ele>117.708</ele>
        <time>2019-08-04T08:24:23Z</time>
      </trkpt>
      <trkpt lat="45.18285" lon="0.75084">
        <ele>118.4</ele>
        <time>2019-08-04T08:24:24Z</time>
      </trkpt>
      <trkpt lat="45.18289" lon="0.75072">
        <ele>117.206</ele>
        <time>2019-08-04T08:24:26Z</time>
      </trkpt>
      <trkpt lat="45.18293" lon="0.75064">
        <ele>116.461</ele>
        <time>2019-08-04T08:24:28Z</time>
      </trkpt>
      <trkpt lat="45.18298" lon="0.75057">
        <ele>126.441</ele>
        <time>2019-08-04T08:24:30Z</time>
      </trkpt>
      <trkpt lat="45.18301" lon="0.75053">
        <ele>124.161</ele>
        <time>2019-08-04T08:24:31Z</time>
      </trkpt>
      <trkpt lat="45.18306" lon="0.75043">
        <ele>121.982</ele>
        <time>2019-08-04T08:24:33Z</time>
      </trkpt>
      <trkpt lat="45.18307" lon="0.75039">
        <ele>121.152</ele>
        <time>2019-08-04T08:24:34Z</time>
      </trkpt>
      <trkpt lat="45.18309" lon="0.75034">
        <ele>120.853</ele>
        <time>2019-08-04T08:24:35Z</time>
      </trkpt>
      <trkpt lat="45.18312" lon="0.7503">
        <ele>119.843</ele>
        <time>2019-08-04T08:24:36Z</time>
      </trkpt>
      <trkpt lat="45.18314" lon="0.75026">
        <ele>119.009</ele>
        <time>2019-08-04T08:24:37Z</time>
      </trkpt>
      <trkpt lat="45.18315" lon="0.75022">
        <ele>118.663</ele>
        <time>2019-08-04T08:24:38Z</time>
      </trkpt>
      <trkpt lat="45.18317" lon="0.75017">
        <ele>118.054</ele>
        <time>2019-08-04T08:24:39Z</time>
      </trkpt>
      <trkpt lat="45.18319" lon="0.75012">
        <ele>117.814</ele>
        <time>2019-08-04T08:24:40Z</time>
      </trkpt>
      <trkpt lat="45.1832" lon="0.75007">
        <ele>116.871</ele>
        <time>2019-08-04T08:24:41Z</time>
      </trkpt>
      <trkpt lat="45.18322" lon="0.75001">
        <ele>117.321</ele>
        <time>2019-08-04T08:24:42Z</time>
      </trkpt>
      <trkpt lat="45.18324" lon="0.74996">
        <ele>115.789</ele>
        <time>2019-08-04T08:24:43Z</time>
      </trkpt>
      <trkpt lat="45.18326" lon="0.74991">
        <ele>117.198</ele>
        <time>2019-08-04T08:24:44Z</time>
      </trkpt>
      <trkpt lat="45.18335" lon="0.74976">
        <ele>113.893</ele>
        <time>2019-08-04T08:24:47Z</time>
      </trkpt>
      <trkpt lat="45.18338" lon="0.74972">
        <ele>114.116</ele>
        <time>2019-08-04T08:24:48Z</time>
      </trkpt>
      <trkpt lat="45.18344" lon="0.7496">
        <ele>113.426</ele>
        <time>2019-08-04T08:24:50Z</time>
      </trkpt>
      <trkpt lat="45.18351" lon="0.74951">
        <ele>116.131</ele>
        <time>2019-08-04T08:24:52Z</time>
      </trkpt>
      <trkpt lat="45.18358" lon="0.74942">
        <ele>116.708</ele>
        <time>2019-08-04T08:24:54Z</time>
      </trkpt>
      <trkpt lat="45.18361" lon="0.74939">
        <ele>117.898</ele>
        <time>2019-08-04T08:24:55Z</time>
      </trkpt>
      <trkpt lat="45.18365" lon="0.74935">
        <ele>119.997</ele>
        <time>2019-08-04T08:24:56Z</time>
      </trkpt>
      <trkpt lat="45.18375" lon="0.74922">
        <ele>119.394</ele>
        <time>2019-08-04T08:24:59Z</time>
      </trkpt>
      <trkpt lat="45.18379" lon="0.74917">
        <ele>118.444</ele>
        <time>2019-08-04T08:25:00Z</time>
      </trkpt>
      <trkpt lat="45.18381" lon="0.74914">
        <ele>119.349</ele>
        <time>2019-08-04T08:25:01Z</time>
      </trkpt>
      <trkpt lat="45.18388" lon="0.74907">
        <ele>120.651</ele>
        <time>2019-08-04T08:25:03Z</time>
      </trkpt>
      <trkpt lat="45.18392" lon="0.74904">
        <ele>120.658</ele>
        <time>2019-08-04T08:25:04Z</time>
      </trkpt>
      <trkpt lat="45.18395" lon="0.749">
        <ele>120.666</ele>
        <time>2019-08-04T08:25:05Z</time>
      </trkpt>
      <trkpt lat="45.18398" lon="0.74896">
        <ele>120.883</ele>
        <time>2019-08-04T08:25:06Z</time>
      </trkpt>
      <trkpt lat="45.184" lon="0.74893">
        <ele>121.03</ele>
        <time>2019-08-04T08:25:07Z</time>
      </trkpt>
      <trkpt lat="45.18403" lon="0.74889">
        <ele>120.376</ele>
        <time>2019-08-04T08:25:08Z</time>
      </trkpt>
      <trkpt lat="45.18409" lon="0.74881">
        <ele>119.991</ele>
        <time>2019-08-04T08:25:10Z</time>
      </trkpt>
      <trkpt lat="45.18416" lon="0.74874">
        <ele>120.476</ele>
        <time>2019-08-04T08:25:12Z</time>
      </trkpt>
      <trkpt lat="45.18427" lon="0.74866">
        <ele>121.207</ele>
        <time>2019-08-04T08:25:15Z</time>
      </trkpt>
      <trkpt lat="45.1843" lon="0.74864">
        <ele>122.343</ele>
        <time>2019-08-04T08:25:16Z</time>
      </trkpt>
      <trkpt lat="45.18436" lon="0.74861">
        <ele>122.506</ele>
        <time>2019-08-04T08:25:18Z</time>
      </trkpt>
      <trkpt lat="45.18443" lon="0.7486">
        <ele>121.825</ele>
        <time>2019-08-04T08:25:20Z</time>
      </trkpt>
      <trkpt lat="45.1845" lon="0.74857">
        <ele>120.178</ele>
        <time>2019-08-04T08:25:22Z</time>
      </trkpt>
      <trkpt lat="45.18454" lon="0.74856">
        <ele>121.651</ele>
        <time>2019-08-04T08:25:23Z</time>
      </trkpt>
      <trkpt lat="45.18465" lon="0.7485">
        <ele>123.142</ele>
        <time>2019-08-04T08:25:26Z</time>
      </trkpt>
      <trkpt lat="45.18472" lon="0.74844">
        <ele>124.475</ele>
        <time>2019-08-04T08:25:28Z</time>
      </trkpt>
      <trkpt lat="45.18476" lon="0.74841">
        <ele>124.157</ele>
        <time>2019-08-04T08:25:29Z</time>
      </trkpt>
      <trkpt lat="45.18479" lon="0.74838">
        <ele>123.594</ele>
        <time>2019-08-04T08:25:30Z</time>
      </trkpt>
      <trkpt lat="45.18482" lon="0.74835">
        <ele>122.156</ele>
        <time>2019-08-04T08:25:31Z</time>
      </trkpt>
      <trkpt lat="45.18486" lon="0.74832">
        <ele>121.879</ele>
        <time>2019-08-04T08:25:32Z</time>
      </trkpt>
      <trkpt lat="45.18493" lon="0.74826">
        <ele>120.693</ele>
        <time>2019-08-04T08:25:34Z</time>
      </trkpt>
      <trkpt lat="45.18497" lon="0.74824">
        <ele>120.437</ele>
        <time>2019-08-04T08:25:35Z</time>
      </trkpt>
      <trkpt lat="45.18509" lon="0.74816">
        <ele>120.378</ele>
        <time>2019-08-04T08:25:38Z</time>
      </trkpt>
      <trkpt lat="45.18517" lon="0.74812">
        <ele>121.987</ele>
        <time>2019-08-04T08:25:40Z</time>
      </trkpt>
      <trkpt lat="45.1853" lon="0.74804">
        <ele>123.358</ele>
        <time>2019-08-04T08:25:43Z</time>
      </trkpt>
      <trkpt lat="45.18534" lon="0.74802">
        <ele>122.738</ele>
        <time>2019-08-04T08:25:44Z</time>
      </trkpt>
      <trkpt lat="45.18542" lon="0.74797">
        <ele>122.915</ele>
        <time>2019-08-04T08:25:46Z</time>
      </trkpt>
      <trkpt lat="45.18545" lon="0.74794">
        <ele>121.88</ele>
        <time>2019-08-04T08:25:47Z</time>
      </trkpt>
      <trkpt lat="45.18549" lon="0.7479">
        <ele>121.777</ele>
        <time>2019-08-04T08:25:48Z</time>
      </trkpt>
      <trkpt lat="45.18552" lon="0.74787">
        <ele>122.205</ele>
        <time>2019-08-04T08:25:49Z</time>
      </trkpt>
      <trkpt lat="45.18556" lon="0.74784">
        <ele>122.515</ele>
        <time>2019-08-04T08:25:50Z</time>
      </trkpt>
      <trkpt lat="45.18559" lon="0.74781">
        <ele>124.132</ele>
        <time>2019-08-04T08:25:51Z</time>
      </trkpt>
      <trkpt lat="45.18562" lon="0.74778">
        <ele>124.568</ele>
        <time>2019-08-04T08:25:52Z</time>
      </trkpt>
      <trkpt lat="45.18568" lon="0.74772">
        <ele>125.47</ele>
        <time>2019-08-04T08:25:54Z</time>
      </trkpt>
      <trkpt lat="45.18571" lon="0.74769">
        <ele>124.428</ele>
        <time>2019-08-04T08:25:55Z</time>
      </trkpt>
      <trkpt lat="45.18574" lon="0.74766">
        <ele>123.716</ele>
        <time>2019-08-04T08:25:56Z</time>
      </trkpt>
      <trkpt lat="45.18578" lon="0.74763">
        <ele>122.789</ele>
        <time>2019-08-04T08:25:57Z</time>
      </trkpt>
      <trkpt lat="45.18581" lon="0.7476">
        <ele>121.731</ele>
        <time>2019-08-04T08:25:58Z</time>
      </trkpt>
      <trkpt lat="45.18584" lon="0.74758">
        <ele>121.399</ele>
        <time>2019-08-04T08:25:59Z</time>
      </trkpt>
      <trkpt lat="45.18588" lon="0.74755">
        <ele>122.049</ele>
        <time>2019-08-04T08:26:00Z</time>
      </trkpt>
      <trkpt lat="45.18592" lon="0.74752">
        <ele>121.217</ele>
        <time>2019-08-04T08:26:01Z</time>
      </trkpt>
      <trkpt lat="45.18595" lon="0.74749">
        <ele>122.31</ele>
        <time>2019-08-04T08:26:02Z</time>
      </trkpt>
      <trkpt lat="45.18598" lon="0.74746">
        <ele>122.02</ele>
        <time>2019-08-04T08:26:03Z</time>
      </trkpt>
      <trkpt lat="45.18603" lon="0.74739">
        <ele>122.565</ele>
        <time>2019-08-04T08:26:05Z</time>
      </trkpt>
      <trkpt lat="45.18606" lon="0.74735">
        <ele>123.231</ele>
        <time>2019-08-04T08:26:06Z</time>
      </trkpt>
      <trkpt lat="45.18609" lon="0.74731">
        <ele>123.812</ele>
        <time>2019-08-04T08:26:07Z</time>
      </trkpt>
      <trkpt lat="45.18612" lon="0.74728">
        <ele>124.255</ele>
        <time>2019-08-04T08:26:08Z</time>
      </trkpt>
      <trkpt lat="45.18615" lon="0.74724">
        <ele>123.347</ele>
        <time>2019-08-04T08:26:09Z</time>
      </trkpt>
      <trkpt lat="45.18618" lon="0.7472">
        <ele>123.373</ele>
        <time>2019-08-04T08:26:10Z</time>
      </trkpt>
      <trkpt lat="45.18621" lon="0.74716">
        <ele>122.162</ele>
        <time>2019-08-04T08:26:11Z</time>
      </trkpt>
      <trkpt lat="45.18623" lon="0.74712">
        <ele>122.889</ele>
        <time>2019-08-04T08:26:12Z</time>
      </trkpt>
      <trkpt lat="45.18632" lon="0.74698">
        <ele>120.767</ele>
        <time>2019-08-04T08:26:15Z</time>
      </trkpt>
      <trkpt lat="45.18635" lon="0.74694">
        <ele>121.165</ele>
        <time>2019-08-04T08:26:16Z</time>
      </trkpt>
      <trkpt lat="45.18642" lon="0.74686">
        <ele>119.703</ele>
        <time>2019-08-04T08:26:18Z</time>
      </trkpt>
      <trkpt lat="45.18645" lon="0.74682">
        <ele>120.349</ele>
        <time>2019-08-04T08:26:19Z</time>
      </trkpt>
      <trkpt lat="45.1865" lon="0.74673">
        <ele>120.143</ele>
        <time>2019-08-04T08:26:21Z</time>
      </trkpt>
      <trkpt lat="45.18653" lon="0.74665">
        <ele>119.615</ele>
        <time>2019-08-04T08:26:23Z</time>
      </trkpt>
      <trkpt lat="45.18659" lon="0.74654">
        <ele>119.272</ele>
        <time>2019-08-04T08:26:26Z</time>
      </trkpt>
      <trkpt lat="45.18668" lon="0.74644">
        <ele>119.502</ele>
        <time>2019-08-04T08:26:29Z</time>
      </trkpt>
      <trkpt lat="45.18671" lon="0.7464">
        <ele>119.161</ele>
        <time>2019-08-04T08:26:30Z</time>
      </trkpt>
      <trkpt lat="45.18674" lon="0.74637">
        <ele>118.645</ele>
        <time>2019-08-04T08:26:31Z</time>
      </trkpt>
      <trkpt lat="45.18676" lon="0.74633">
        <ele>119.312</ele>
        <time>2019-08-04T08:26:32Z</time>
      </trkpt>
      <trkpt lat="45.18685" lon="0.74621">
        <ele>120.012</ele>
        <time>2019-08-04T08:26:35Z</time>
      </trkpt>
      <trkpt lat="45.18687" lon="0.74617">
        <ele>120.028</ele>
        <time>2019-08-04T08:26:36Z</time>
      </trkpt>
      <trkpt lat="45.18692" lon="0.7461">
        <ele>118.518</ele>
        <time>2019-08-04T08:26:38Z</time>
      </trkpt>
      <trkpt lat="45.18704" lon="0.74591">
        <ele>119.204</ele>
        <time>2019-08-04T08:26:42Z</time>
      </trkpt>
      <trkpt lat="45.18707" lon="0.74586">
        <ele>119.113</ele>
        <time>2019-08-04T08:26:43Z</time>
      </trkpt>
      <trkpt lat="45.18712" lon="0.74575">
        <ele>120.477</ele>
        <time>2019-08-04T08:26:45Z</time>
      </trkpt>
      <trkpt lat="45.18717" lon="0.74559">
        <ele>123.947</ele>
        <time>2019-08-04T08:26:48Z</time>
      </trkpt>
      <trkpt lat="45.18719" lon="0.74553">
        <ele>124.801</ele>
        <time>2019-08-04T08:26:49Z</time>
      </trkpt>
      <trkpt lat="45.18721" lon="0.74548">
        <ele>124.865</ele>
        <time>2019-08-04T08:26:50Z</time>
      </trkpt>
      <trkpt lat="45.18723" lon="0.74543">
        <ele>124.672</ele>
        <time>2019-08-04T08:26:51Z</time>
      </trkpt>
      <trkpt lat="45.18725" lon="0.74538">
        <ele>124.013</ele>
        <time>2019-08-04T08:26:52Z</time>
      </trkpt>
      <trkpt lat="45.18729" lon="0.74527">
        <ele>123.763</ele>
        <time>2019-08-04T08:26:54Z</time>
      </trkpt>
      <trkpt lat="45.1873" lon="0.74522">
        <ele>125.502</ele>
        <time>2019-08-04T08:26:55Z</time>
      </trkpt>
      <trkpt lat="45.18732" lon="0.74516">
        <ele>125.866</ele>
        <time>2019-08-04T08:26:56Z</time>
      </trkpt>
      <trkpt lat="45.18733" lon="0.74511">
        <ele>125.671</ele>
        <time>2019-08-04T08:26:57Z</time>
      </trkpt>
      <trkpt lat="45.18735" lon="0.74507">
        <ele>125.558</ele>
        <time>2019-08-04T08:26:58Z</time>
      </trkpt>
      <trkpt lat="45.18738" lon="0.74496">
        <ele>124.646</ele>
        <time>2019-08-04T08:27:00Z</time>
      </trkpt>
      <trkpt lat="45.18744" lon="0.7448">
        <ele>125.306</ele>
        <time>2019-08-04T08:27:03Z</time>
      </trkpt>
      <trkpt lat="45.18745" lon="0.74475">
        <ele>124.88</ele>
        <time>2019-08-04T08:27:04Z</time>
      </trkpt>
      <trkpt lat="45.18749" lon="0.74465">
        <ele>125.408</ele>
        <time>2019-08-04T08:27:06Z</time>
      </trkpt>
      <trkpt lat="45.18751" lon="0.74459">
        <ele>125.075</ele>
        <time>2019-08-04T08:27:07Z</time>
      </trkpt>
      <trkpt lat="45.18757" lon="0.74444">
        <ele>123.423</ele>
        <time>2019-08-04T08:27:10Z</time>
      </trkpt>
      <trkpt lat="45.18759" lon="0.7444">
        <ele>121.679</ele>
        <time>2019-08-04T08:27:11Z</time>
      </trkpt>
      <trkpt lat="45.1876" lon="0.74436">
        <ele>121.722</ele>
        <time>2019-08-04T08:27:12Z</time>
      </trkpt>
      <trkpt lat="45.18765" lon="0.74423">
        <ele>119.418</ele>
        <time>2019-08-04T08:27:15Z</time>
      </trkpt>
      <trkpt lat="45.18767" lon="0.74419">
        <ele>118.759</ele>
        <time>2019-08-04T08:27:16Z</time>
      </trkpt>
      <trkpt lat="45.18771" lon="0.74409">
        <ele>118.353</ele>
        <time>2019-08-04T08:27:18Z</time>
      </trkpt>
      <trkpt lat="45.18776" lon="0.744">
        <ele>118.253</ele>
        <time>2019-08-04T08:27:20Z</time>
      </trkpt>
      <trkpt lat="45.18778" lon="0.74395">
        <ele>118.624</ele>
        <time>2019-08-04T08:27:21Z</time>
      </trkpt>
      <trkpt lat="45.18781" lon="0.74385">
        <ele>118.049</ele>
        <time>2019-08-04T08:27:23Z</time>
      </trkpt>
      <trkpt lat="45.18784" lon="0.74371">
        <ele>120.412</ele>
        <time>2019-08-04T08:27:26Z</time>
      </trkpt>
      <trkpt lat="45.18785" lon="0.74366">
        <ele>120.101</ele>
        <time>2019-08-04T08:27:27Z</time>
      </trkpt>
      <trkpt lat="45.18786" lon="0.74361">
        <ele>120.393</ele>
        <time>2019-08-04T08:27:28Z</time>
      </trkpt>
      <trkpt lat="45.18787" lon="0.74356">
        <ele>120.726</ele>
        <time>2019-08-04T08:27:29Z</time>
      </trkpt>
      <trkpt lat="45.18789" lon="0.74352">
        <ele>121.343</ele>
        <time>2019-08-04T08:27:30Z</time>
      </trkpt>
      <trkpt lat="45.1879" lon="0.74348">
        <ele>122.068</ele>
        <time>2019-08-04T08:27:31Z</time>
      </trkpt>
      <trkpt lat="45.18793" lon="0.74333">
        <ele>124.179</ele>
        <time>2019-08-04T08:27:34Z</time>
      </trkpt>
      <trkpt lat="45.18796" lon="0.74323">
        <ele>124.515</ele>
        <time>2019-08-04T08:27:36Z</time>
      </trkpt>
      <trkpt lat="45.188" lon="0.74315">
        <ele>127.091</ele>
        <time>2019-08-04T08:27:38Z</time>
      </trkpt>
      <trkpt lat="45.18801" lon="0.74311">
        <ele>128.296</ele>
        <time>2019-08-04T08:27:39Z</time>
      </trkpt>
      <trkpt lat="45.18803" lon="0.74307">
        <ele>128.578</ele>
        <time>2019-08-04T08:27:40Z</time>
      </trkpt>
      <trkpt lat="45.18809" lon="0.743">
        <ele>128.84</ele>
        <time>2019-08-04T08:27:42Z</time>
      </trkpt>
      <trkpt lat="45.18815" lon="0.74297">
        <ele>128.392</ele>
        <time>2019-08-04T08:27:44Z</time>
      </trkpt>
      <trkpt lat="45.18824" lon="0.74287">
        <ele>127.101</ele>
        <time>2019-08-04T08:27:47Z</time>
      </trkpt>
      <trkpt lat="45.18831" lon="0.74273">
        <ele>125.862</ele>
        <time>2019-08-04T08:27:50Z</time>
      </trkpt>
      <trkpt lat="45.18836" lon="0.74263">
        <ele>127.619</ele>
        <time>2019-08-04T08:27:52Z</time>
      </trkpt>
      <trkpt lat="45.18842" lon="0.74246">
        <ele>128.914</ele>
        <time>2019-08-04T08:27:55Z</time>
      </trkpt>
      <trkpt lat="45.18844" lon="0.74241">
        <ele>128.945</ele>
        <time>2019-08-04T08:27:56Z</time>
      </trkpt>
      <trkpt lat="45.18849" lon="0.74229">
        <ele>126.958</ele>
        <time>2019-08-04T08:27:58Z</time>
      </trkpt>
      <trkpt lat="45.18851" lon="0.7422">
        <ele>127.304</ele>
        <time>2019-08-04T08:27:59Z</time>
      </trkpt>
      <trkpt lat="45.18853" lon="0.74214">
        <ele>127.123</ele>
        <time>2019-08-04T08:28:00Z</time>
      </trkpt>
      <trkpt lat="45.18855" lon="0.74202">
        <ele>129.076</ele>
        <time>2019-08-04T08:28:02Z</time>
      </trkpt>
      <trkpt lat="45.18854" lon="0.74193">
        <ele>129.455</ele>
        <time>2019-08-04T08:28:03Z</time>
      </trkpt>
      <trkpt lat="45.18855" lon="0.74185">
        <ele>130.178</ele>
        <time>2019-08-04T08:28:04Z</time>
      </trkpt>
      <trkpt lat="45.18857" lon="0.74178">
        <ele>129.328</ele>
        <time>2019-08-04T08:28:05Z</time>
      </trkpt>
      <trkpt lat="45.18859" lon="0.7417">
        <ele>129.356</ele>
        <time>2019-08-04T08:28:06Z</time>
      </trkpt>
      <trkpt lat="45.18865" lon="0.7415">
        <ele>129.135</ele>
        <time>2019-08-04T08:28:09Z</time>
      </trkpt>
      <trkpt lat="45.18866" lon="0.74143">
        <ele>129.974</ele>
        <time>2019-08-04T08:28:10Z</time>
      </trkpt>
      <trkpt lat="45.18867" lon="0.74135">
        <ele>129.983</ele>
        <time>2019-08-04T08:28:11Z</time>
      </trkpt>
      <trkpt lat="45.18867" lon="0.74127">
        <ele>130.522</ele>
        <time>2019-08-04T08:28:12Z</time>
      </trkpt>
      <trkpt lat="45.18868" lon="0.7412">
        <ele>131.466</ele>
        <time>2019-08-04T08:28:13Z</time>
      </trkpt>
      <trkpt lat="45.18866" lon="0.74111">
        <ele>132.565</ele>
        <time>2019-08-04T08:28:14Z</time>
      </trkpt>
      <trkpt lat="45.18869" lon="0.74104">
        <ele>133.521</ele>
        <time>2019-08-04T08:28:15Z</time>
      </trkpt>
      <trkpt lat="45.18872" lon="0.74097">
        <ele>133.511</ele>
        <time>2019-08-04T08:28:16Z</time>
      </trkpt>
      <trkpt lat="45.18875" lon="0.74091">
        <ele>134.504</ele>
        <time>2019-08-04T08:28:17Z</time>
      </trkpt>
      <trkpt lat="45.18878" lon="0.74086">
        <ele>134.31</ele>
        <time>2019-08-04T08:28:18Z</time>
      </trkpt>
      <trkpt lat="45.18879" lon="0.74078">
        <ele>134.252</ele>
        <time>2019-08-04T08:28:19Z</time>
      </trkpt>
      <trkpt lat="45.1888" lon="0.7407">
        <ele>134.546</ele>
        <time>2019-08-04T08:28:20Z</time>
      </trkpt>
      <trkpt lat="45.18881" lon="0.74062">
        <ele>140.683</ele>
        <time>2019-08-04T08:28:21Z</time>
      </trkpt>
      <trkpt lat="45.18883" lon="0.74046">
        <ele>136.797</ele>
        <time>2019-08-04T08:28:23Z</time>
      </trkpt>
      <trkpt lat="45.18885" lon="0.74038">
        <ele>135.178</ele>
        <time>2019-08-04T08:28:24Z</time>
      </trkpt>
      <trkpt lat="45.18888" lon="0.74031">
        <ele>134.439</ele>
        <time>2019-08-04T08:28:25Z</time>
      </trkpt>
      <trkpt lat="45.18873" lon="0.74014">
        <ele>131.304</ele>
        <time>2019-08-04T08:28:28Z</time>
      </trkpt>
      <trkpt lat="45.1887" lon="0.74006">
        <ele>130.622</ele>
        <time>2019-08-04T08:28:29Z</time>
      </trkpt>
      <trkpt lat="45.18865" lon="0.74">
        <ele>130.763</ele>
        <time>2019-08-04T08:28:30Z</time>
      </trkpt>
      <trkpt lat="45.18861" lon="0.73994">
        <ele>129.516</ele>
        <time>2019-08-04T08:28:31Z</time>
      </trkpt>
      <trkpt lat="45.18856" lon="0.73989">
        <ele>130.243</ele>
        <time>2019-08-04T08:28:32Z</time>
      </trkpt>
      <trkpt lat="45.18851" lon="0.73981">
        <ele>130.551</ele>
        <time>2019-08-04T08:28:33Z</time>
      </trkpt>
      <trkpt lat="45.18846" lon="0.73975">
        <ele>130.544</ele>
        <time>2019-08-04T08:28:34Z</time>
      </trkpt>
      <trkpt lat="45.18838" lon="0.73963">
        <ele>128.15</ele>
        <time>2019-08-04T08:28:36Z</time>
      </trkpt>
      <trkpt lat="45.18834" lon="0.73955">
        <ele>128.755</ele>
        <time>2019-08-04T08:28:37Z</time>
      </trkpt>
      <trkpt lat="45.18831" lon="0.7395">
        <ele>128.822</ele>
        <time>2019-08-04T08:28:38Z</time>
      </trkpt>
      <trkpt lat="45.18826" lon="0.73947">
        <ele>128.003</ele>
        <time>2019-08-04T08:28:39Z</time>
      </trkpt>
      <trkpt lat="45.18822" lon="0.73945">
        <ele>128.293</ele>
        <time>2019-08-04T08:28:40Z</time>
      </trkpt>
      <trkpt lat="45.18813" lon="0.73916">
        <ele>128.366</ele>
        <time>2019-08-04T08:28:44Z</time>
      </trkpt>
      <trkpt lat="45.1881" lon="0.73901">
        <ele>127.448</ele>
        <time>2019-08-04T08:28:46Z</time>
      </trkpt>
      <trkpt lat="45.18808" lon="0.73887">
        <ele>126.958</ele>
        <time>2019-08-04T08:28:48Z</time>
      </trkpt>
      <trkpt lat="45.18815" lon="0.73867">
        <ele>126.181</ele>
        <time>2019-08-04T08:28:51Z</time>
      </trkpt>
      <trkpt lat="45.18812" lon="0.7386">
        <ele>126.242</ele>
        <time>2019-08-04T08:28:52Z</time>
      </trkpt>
      <trkpt lat="45.18807" lon="0.73852">
        <ele>125.858</ele>
        <time>2019-08-04T08:28:53Z</time>
      </trkpt>
      <trkpt lat="45.18803" lon="0.73845">
        <ele>125.068</ele>
        <time>2019-08-04T08:28:54Z</time>
      </trkpt>
      <trkpt lat="45.18804" lon="0.73835">
        <ele>126.897</ele>
        <time>2019-08-04T08:28:55Z</time>
      </trkpt>
      <trkpt lat="45.18803" lon="0.73821">
        <ele>126.605</ele>
        <time>2019-08-04T08:28:57Z</time>
      </trkpt>
      <trkpt lat="45.18803" lon="0.73814">
        <ele>125.294</ele>
        <time>2019-08-04T08:28:58Z</time>
      </trkpt>
      <trkpt lat="45.18807" lon="0.73801">
        <ele>124.906</ele>
        <time>2019-08-04T08:29:00Z</time>
      </trkpt>
      <trkpt lat="45.18809" lon="0.73794">
        <ele>126.656</ele>
        <time>2019-08-04T08:29:01Z</time>
      </trkpt>
      <trkpt lat="45.18808" lon="0.73787">
        <ele>126.912</ele>
        <time>2019-08-04T08:29:02Z</time>
      </trkpt>
      <trkpt lat="45.18809" lon="0.73776">
        <ele>125.221</ele>
        <time>2019-08-04T08:29:04Z</time>
      </trkpt>
      <trkpt lat="45.18811" lon="0.73769">
        <ele>126.312</ele>
        <time>2019-08-04T08:29:05Z</time>
      </trkpt>
      <trkpt lat="45.18814" lon="0.73762">
        <ele>126.368</ele>
        <time>2019-08-04T08:29:06Z</time>
      </trkpt>
      <trkpt lat="45.18817" lon="0.73756">
        <ele>125.875</ele>
        <time>2019-08-04T08:29:07Z</time>
      </trkpt>
      <trkpt lat="45.1882" lon="0.73744">
        <ele>126.353</ele>
        <time>2019-08-04T08:29:09Z</time>
      </trkpt>
      <trkpt lat="45.18821" lon="0.73738">
        <ele>127.304</ele>
        <time>2019-08-04T08:29:10Z</time>
      </trkpt>
      <trkpt lat="45.18823" lon="0.7373">
        <ele>128.243</ele>
        <time>2019-08-04T08:29:11Z</time>
      </trkpt>
      <trkpt lat="45.18823" lon="0.73722">
        <ele>128.915</ele>
        <time>2019-08-04T08:29:12Z</time>
      </trkpt>
      <trkpt lat="45.18828" lon="0.73715">
        <ele>127.746</ele>
        <time>2019-08-04T08:29:14Z</time>
      </trkpt>
      <trkpt lat="45.1883" lon="0.73709">
        <ele>127.767</ele>
        <time>2019-08-04T08:29:15Z</time>
      </trkpt>
      <trkpt lat="45.18833" lon="0.737">
        <ele>129.198</ele>
        <time>2019-08-04T08:29:17Z</time>
      </trkpt>
      <trkpt lat="45.18834" lon="0.73696">
        <ele>129.927</ele>
        <time>2019-08-04T08:29:18Z</time>
      </trkpt>
      <trkpt lat="45.18836" lon="0.73687">
        <ele>131.279</ele>
        <time>2019-08-04T08:29:20Z</time>
      </trkpt>
      <trkpt lat="45.18839" lon="0.73674">
        <ele>129.384</ele>
        <time>2019-08-04T08:29:23Z</time>
      </trkpt>
      <trkpt lat="45.1884" lon="0.73665">
        <ele>129.089</ele>
        <time>2019-08-04T08:29:25Z</time>
      </trkpt>
      <trkpt lat="45.18841" lon="0.73658">
        <ele>131.926</ele>
        <time>2019-08-04T08:29:27Z</time>
      </trkpt>
      <trkpt lat="45.18842" lon="0.73655">
        <ele>132.719</ele>
        <time>2019-08-04T08:29:28Z</time>
      </trkpt>
      <trkpt lat="45.18843" lon="0.73652">
        <ele>132.186</ele>
        <time>2019-08-04T08:29:29Z</time>
      </trkpt>
      <trkpt lat="45.18844" lon="0.73644">
        <ele>131.945</ele>
        <time>2019-08-04T08:29:32Z</time>
      </trkpt>
      <trkpt lat="45.18838" lon="0.73637">
        <ele>130.751</ele>
        <time>2019-08-04T08:29:35Z</time>
      </trkpt>
      <trkpt lat="45.18829" lon="0.73634">
        <ele>128.653</ele>
        <time>2019-08-04T08:29:38Z</time>
      </trkpt>
      <trkpt lat="45.18822" lon="0.7363">
        <ele>128.614</ele>
        <time>2019-08-04T08:29:40Z</time>
      </trkpt>
      <trkpt lat="45.18811" lon="0.73624">
        <ele>128.6</ele>
        <time>2019-08-04T08:29:43Z</time>
      </trkpt>
      <trkpt lat="45.18803" lon="0.73621">
        <ele>130.743</ele>
        <time>2019-08-04T08:29:46Z</time>
      </trkpt>
      <trkpt lat="45.18802" lon="0.73613">
        <ele>129.467</ele>
        <time>2019-08-04T08:29:48Z</time>
      </trkpt>
      <trkpt lat="45.18807" lon="0.73595">
        <ele>128.803</ele>
        <time>2019-08-04T08:29:50Z</time>
      </trkpt>
      <trkpt lat="45.18812" lon="0.73591">
        <ele>128.446</ele>
        <time>2019-08-04T08:29:51Z</time>
      </trkpt>
      <trkpt lat="45.18811" lon="0.73582">
        <ele>128.159</ele>
        <time>2019-08-04T08:29:52Z</time>
      </trkpt>
      <trkpt lat="45.18813" lon="0.73575">
        <ele>127.06</ele>
        <time>2019-08-04T08:29:53Z</time>
      </trkpt>
      <trkpt lat="45.18815" lon="0.73569">
        <ele>126.399</ele>
        <time>2019-08-04T08:29:54Z</time>
      </trkpt>
      <trkpt lat="45.18815" lon="0.73561">
        <ele>126.419</ele>
        <time>2019-08-04T08:29:55Z</time>
      </trkpt>
      <trkpt lat="45.18816" lon="0.73554">
        <ele>126.482</ele>
        <time>2019-08-04T08:29:56Z</time>
      </trkpt>
      <trkpt lat="45.18817" lon="0.73549">
        <ele>126.919</ele>
        <time>2019-08-04T08:29:57Z</time>
      </trkpt>
      <trkpt lat="45.18818" lon="0.73542">
        <ele>127.538</ele>
        <time>2019-08-04T08:29:58Z</time>
      </trkpt>
      <trkpt lat="45.18818" lon="0.73529">
        <ele>127.037</ele>
        <time>2019-08-04T08:30:00Z</time>
      </trkpt>
      <trkpt lat="45.18818" lon="0.73517">
        <ele>125.318</ele>
        <time>2019-08-04T08:30:02Z</time>
      </trkpt>
      <trkpt lat="45.1882" lon="0.73507">
        <ele>125.484</ele>
        <time>2019-08-04T08:30:04Z</time>
      </trkpt>
      <trkpt lat="45.18819" lon="0.73495">
        <ele>126.3</ele>
        <time>2019-08-04T08:30:06Z</time>
      </trkpt>
      <trkpt lat="45.18818" lon="0.73489">
        <ele>125.241</ele>
        <time>2019-08-04T08:30:07Z</time>
      </trkpt>
      <trkpt lat="45.18822" lon="0.73485">
        <ele>126.151</ele>
        <time>2019-08-04T08:30:08Z</time>
      </trkpt>
      <trkpt lat="45.18826" lon="0.73469">
        <ele>125.687</ele>
        <time>2019-08-04T08:30:11Z</time>
      </trkpt>
      <trkpt lat="45.18828" lon="0.73452">
        <ele>125.353</ele>
        <time>2019-08-04T08:30:14Z</time>
      </trkpt>
      <trkpt lat="45.18827" lon="0.7344">
        <ele>126.06</ele>
        <time>2019-08-04T08:30:16Z</time>
      </trkpt>
      <trkpt lat="45.1883" lon="0.73429">
        <ele>127.798</ele>
        <time>2019-08-04T08:30:18Z</time>
      </trkpt>
      <trkpt lat="45.18831" lon="0.73423">
        <ele>126.817</ele>
        <time>2019-08-04T08:30:19Z</time>
      </trkpt>
      <trkpt lat="45.18834" lon="0.73405">
        <ele>128.451</ele>
        <time>2019-08-04T08:30:22Z</time>
      </trkpt>
      <trkpt lat="45.18833" lon="0.73398">
        <ele>127.925</ele>
        <time>2019-08-04T08:30:23Z</time>
      </trkpt>
      <trkpt lat="45.18835" lon="0.73378">
        <ele>128.133</ele>
        <time>2019-08-04T08:30:26Z</time>
      </trkpt>
      <trkpt lat="45.18829" lon="0.73358">
        <ele>127.773</ele>
        <time>2019-08-04T08:30:29Z</time>
      </trkpt>
      <trkpt lat="45.18828" lon="0.73345">
        <ele>127.615</ele>
        <time>2019-08-04T08:30:31Z</time>
      </trkpt>
      <trkpt lat="45.1883" lon="0.73339">
        <ele>127.038</ele>
        <time>2019-08-04T08:30:32Z</time>
      </trkpt>
      <trkpt lat="45.18827" lon="0.73332">
        <ele>127.943</ele>
        <time>2019-08-04T08:30:33Z</time>
      </trkpt>
      <trkpt lat="45.1883" lon="0.73321">
        <ele>128.226</ele>
        <time>2019-08-04T08:30:35Z</time>
      </trkpt>
      <trkpt lat="45.1883" lon="0.73315">
        <ele>127.791</ele>
        <time>2019-08-04T08:30:36Z</time>
      </trkpt>
      <trkpt lat="45.18827" lon="0.73296">
        <ele>127.038</ele>
        <time>2019-08-04T08:30:39Z</time>
      </trkpt>
      <trkpt lat="45.18826" lon="0.73289">
        <ele>127.105</ele>
        <time>2019-08-04T08:30:40Z</time>
      </trkpt>
      <trkpt lat="45.18824" lon="0.73275">
        <ele>128.321</ele>
        <time>2019-08-04T08:30:42Z</time>
      </trkpt>
      <trkpt lat="45.18824" lon="0.73268">
        <ele>127.247</ele>
        <time>2019-08-04T08:30:43Z</time>
      </trkpt>
      <trkpt lat="45.18823" lon="0.73263">
        <ele>128.222</ele>
        <time>2019-08-04T08:30:44Z</time>
      </trkpt>
      <trkpt lat="45.18821" lon="0.73251">
        <ele>127.696</ele>
        <time>2019-08-04T08:30:46Z</time>
      </trkpt>
      <trkpt lat="45.18819" lon="0.73239">
        <ele>128.647</ele>
        <time>2019-08-04T08:30:48Z</time>
      </trkpt>
      <trkpt lat="45.18818" lon="0.73231">
        <ele>127.495</ele>
        <time>2019-08-04T08:30:49Z</time>
      </trkpt>
      <trkpt lat="45.18816" lon="0.7322">
        <ele>128.974</ele>
        <time>2019-08-04T08:30:51Z</time>
      </trkpt>
      <trkpt lat="45.18815" lon="0.73213">
        <ele>129.178</ele>
        <time>2019-08-04T08:30:52Z</time>
      </trkpt>
      <trkpt lat="45.18812" lon="0.732">
        <ele>128.211</ele>
        <time>2019-08-04T08:30:54Z</time>
      </trkpt>
      <trkpt lat="45.18811" lon="0.73191">
        <ele>128.725</ele>
        <time>2019-08-04T08:30:55Z</time>
      </trkpt>
      <trkpt lat="45.18811" lon="0.73177">
        <ele>129.576</ele>
        <time>2019-08-04T08:30:57Z</time>
      </trkpt>
      <trkpt lat="45.18809" lon="0.73167">
        <ele>130.643</ele>
        <time>2019-08-04T08:30:59Z</time>
      </trkpt>
      <trkpt lat="45.18809" lon="0.73159">
        <ele>130.14</ele>
        <time>2019-08-04T08:31:00Z</time>
      </trkpt>
      <trkpt lat="45.18807" lon="0.73153">
        <ele>129.217</ele>
        <time>2019-08-04T08:31:01Z</time>
      </trkpt>
      <trkpt lat="45.18806" lon="0.73147">
        <ele>129.781</ele>
        <time>2019-08-04T08:31:02Z</time>
      </trkpt>
      <trkpt lat="45.18804" lon="0.73135">
        <ele>129.156</ele>
        <time>2019-08-04T08:31:04Z</time>
      </trkpt>
      <trkpt lat="45.18803" lon="0.73126">
        <ele>130.195</ele>
        <time>2019-08-04T08:31:05Z</time>
      </trkpt>
      <trkpt lat="45.18803" lon="0.73119">
        <ele>130.608</ele>
        <time>2019-08-04T08:31:06Z</time>
      </trkpt>
      <trkpt lat="45.18799" lon="0.73107">
        <ele>129.803</ele>
        <time>2019-08-04T08:31:08Z</time>
      </trkpt>
      <trkpt lat="45.18797" lon="0.73101">
        <ele>129.683</ele>
        <time>2019-08-04T08:31:09Z</time>
      </trkpt>
      <trkpt lat="45.18795" lon="0.73095">
        <ele>130.526</ele>
        <time>2019-08-04T08:31:10Z</time>
      </trkpt>
      <trkpt lat="45.1879" lon="0.73091">
        <ele>131.445</ele>
        <time>2019-08-04T08:31:11Z</time>
      </trkpt>
      <trkpt lat="45.18784" lon="0.7308">
        <ele>130.553</ele>
        <time>2019-08-04T08:31:13Z</time>
      </trkpt>
      <trkpt lat="45.18777" lon="0.73069">
        <ele>130.789</ele>
        <time>2019-08-04T08:31:15Z</time>
      </trkpt>
      <trkpt lat="45.18774" lon="0.73063">
        <ele>131.711</ele>
        <time>2019-08-04T08:31:16Z</time>
      </trkpt>
      <trkpt lat="45.18771" lon="0.73051">
        <ele>130.055</ele>
        <time>2019-08-04T08:31:18Z</time>
      </trkpt>
      <trkpt lat="45.18768" lon="0.73046">
        <ele>130.393</ele>
        <time>2019-08-04T08:31:19Z</time>
      </trkpt>
      <trkpt lat="45.1876" lon="0.7303">
        <ele>132.357</ele>
        <time>2019-08-04T08:31:22Z</time>
      </trkpt>
      <trkpt lat="45.18757" lon="0.73023">
        <ele>133.92</ele>
        <time>2019-08-04T08:31:23Z</time>
      </trkpt>
      <trkpt lat="45.1875" lon="0.73014">
        <ele>132.288</ele>
        <time>2019-08-04T08:31:25Z</time>
      </trkpt>
      <trkpt lat="45.18746" lon="0.7301">
        <ele>131.823</ele>
        <time>2019-08-04T08:31:26Z</time>
      </trkpt>
      <trkpt lat="45.18741" lon="0.73005">
        <ele>131.189</ele>
        <time>2019-08-04T08:31:27Z</time>
      </trkpt>
      <trkpt lat="45.18738" lon="0.72999">
        <ele>130.891</ele>
        <time>2019-08-04T08:31:28Z</time>
      </trkpt>
      <trkpt lat="45.18734" lon="0.72992">
        <ele>130.981</ele>
        <time>2019-08-04T08:31:29Z</time>
      </trkpt>
      <trkpt lat="45.1873" lon="0.72985">
        <ele>131.737</ele>
        <time>2019-08-04T08:31:30Z</time>
      </trkpt>
      <trkpt lat="45.18727" lon="0.72981">
        <ele>132.084</ele>
        <time>2019-08-04T08:31:31Z</time>
      </trkpt>
      <trkpt lat="45.18724" lon="0.72974">
        <ele>131.688</ele>
        <time>2019-08-04T08:31:32Z</time>
      </trkpt>
      <trkpt lat="45.1872" lon="0.72969">
        <ele>130.634</ele>
        <time>2019-08-04T08:31:33Z</time>
      </trkpt>
      <trkpt lat="45.18717" lon="0.72964">
        <ele>131.707</ele>
        <time>2019-08-04T08:31:34Z</time>
      </trkpt>
      <trkpt lat="45.18715" lon="0.72957">
        <ele>130.218</ele>
        <time>2019-08-04T08:31:35Z</time>
      </trkpt>
      <trkpt lat="45.18712" lon="0.72952">
        <ele>131.166</ele>
        <time>2019-08-04T08:31:36Z</time>
      </trkpt>
      <trkpt lat="45.18705" lon="0.7294">
        <ele>131.918</ele>
        <time>2019-08-04T08:31:38Z</time>
      </trkpt>
      <trkpt lat="45.18702" lon="0.72936">
        <ele>132.06</ele>
        <time>2019-08-04T08:31:39Z</time>
      </trkpt>
      <trkpt lat="45.18697" lon="0.72932">
        <ele>131.086</ele>
        <time>2019-08-04T08:31:40Z</time>
      </trkpt>
      <trkpt lat="45.18691" lon="0.72921">
        <ele>131.141</ele>
        <time>2019-08-04T08:31:42Z</time>
      </trkpt>
      <trkpt lat="45.18683" lon="0.72913">
        <ele>129.115</ele>
        <time>2019-08-04T08:31:44Z</time>
      </trkpt>
      <trkpt lat="45.18678" lon="0.72901">
        <ele>129.141</ele>
        <time>2019-08-04T08:31:46Z</time>
      </trkpt>
      <trkpt lat="45.18673" lon="0.72897">
        <ele>129.165</ele>
        <time>2019-08-04T08:31:47Z</time>
      </trkpt>
      <trkpt lat="45.1867" lon="0.7289">
        <ele>128.873</ele>
        <time>2019-08-04T08:31:48Z</time>
      </trkpt>
      <trkpt lat="45.18664" lon="0.72873">
        <ele>128.4</ele>
        <time>2019-08-04T08:31:51Z</time>
      </trkpt>
      <trkpt lat="45.18661" lon="0.72868">
        <ele>128.258</ele>
        <time>2019-08-04T08:31:52Z</time>
      </trkpt>
      <trkpt lat="45.18657" lon="0.72863">
        <ele>128.207</ele>
        <time>2019-08-04T08:31:53Z</time>
      </trkpt>
      <trkpt lat="45.18652" lon="0.72852">
        <ele>128.562</ele>
        <time>2019-08-04T08:31:55Z</time>
      </trkpt>
      <trkpt lat="45.18649" lon="0.72846">
        <ele>128.242</ele>
        <time>2019-08-04T08:31:56Z</time>
      </trkpt>
      <trkpt lat="45.18637" lon="0.72828">
        <ele>128.481</ele>
        <time>2019-08-04T08:31:59Z</time>
      </trkpt>
      <trkpt lat="45.18632" lon="0.72823">
        <ele>128.215</ele>
        <time>2019-08-04T08:32:00Z</time>
      </trkpt>
      <trkpt lat="45.18628" lon="0.72819">
        <ele>128.411</ele>
        <time>2019-08-04T08:32:01Z</time>
      </trkpt>
      <trkpt lat="45.18622" lon="0.72809">
        <ele>127.756</ele>
        <time>2019-08-04T08:32:03Z</time>
      </trkpt>
      <trkpt lat="45.1862" lon="0.72803">
        <ele>128.076</ele>
        <time>2019-08-04T08:32:04Z</time>
      </trkpt>
      <trkpt lat="45.18607" lon="0.72785">
        <ele>128.644</ele>
        <time>2019-08-04T08:32:07Z</time>
      </trkpt>
      <trkpt lat="45.18603" lon="0.7278">
        <ele>129.684</ele>
        <time>2019-08-04T08:32:08Z</time>
      </trkpt>
      <trkpt lat="45.18591" lon="0.7277">
        <ele>128.433</ele>
        <time>2019-08-04T08:32:10Z</time>
      </trkpt>
      <trkpt lat="45.18587" lon="0.72765">
        <ele>128.157</ele>
        <time>2019-08-04T08:32:11Z</time>
      </trkpt>
      <trkpt lat="45.18582" lon="0.72759">
        <ele>128.12</ele>
        <time>2019-08-04T08:32:12Z</time>
      </trkpt>
      <trkpt lat="45.18577" lon="0.72753">
        <ele>128.635</ele>
        <time>2019-08-04T08:32:13Z</time>
      </trkpt>
      <trkpt lat="45.18573" lon="0.72746">
        <ele>129.72</ele>
        <time>2019-08-04T08:32:14Z</time>
      </trkpt>
      <trkpt lat="45.18568" lon="0.72741">
        <ele>130.761</ele>
        <time>2019-08-04T08:32:15Z</time>
      </trkpt>
      <trkpt lat="45.18562" lon="0.72732">
        <ele>132.203</ele>
        <time>2019-08-04T08:32:17Z</time>
      </trkpt>
      <trkpt lat="45.18554" lon="0.72726">
        <ele>131.947</ele>
        <time>2019-08-04T08:32:19Z</time>
      </trkpt>
      <trkpt lat="45.18548" lon="0.72723">
        <ele>130.931</ele>
        <time>2019-08-04T08:32:20Z</time>
      </trkpt>
      <trkpt lat="45.18542" lon="0.72715">
        <ele>130.889</ele>
        <time>2019-08-04T08:32:22Z</time>
      </trkpt>
      <trkpt lat="45.18536" lon="0.72707">
        <ele>130.388</ele>
        <time>2019-08-04T08:32:24Z</time>
      </trkpt>
      <trkpt lat="45.18523" lon="0.72692">
        <ele>129.493</ele>
        <time>2019-08-04T08:32:28Z</time>
      </trkpt>
      <trkpt lat="45.18519" lon="0.72684">
        <ele>132.42</ele>
        <time>2019-08-04T08:32:31Z</time>
      </trkpt>
      <trkpt lat="45.18515" lon="0.72676">
        <ele>130.121</ele>
        <time>2019-08-04T08:32:33Z</time>
      </trkpt>
      <trkpt lat="45.18511" lon="0.7267">
        <ele>128.864</ele>
        <time>2019-08-04T08:32:35Z</time>
      </trkpt>
      <trkpt lat="45.18508" lon="0.72666">
        <ele>127.751</ele>
        <time>2019-08-04T08:32:36Z</time>
      </trkpt>
      <trkpt lat="45.18505" lon="0.72662">
        <ele>128.305</ele>
        <time>2019-08-04T08:32:37Z</time>
      </trkpt>
      <trkpt lat="45.18497" lon="0.72653">
        <ele>127.16</ele>
        <time>2019-08-04T08:32:39Z</time>
      </trkpt>
      <trkpt lat="45.18494" lon="0.72649">
        <ele>126.852</ele>
        <time>2019-08-04T08:32:40Z</time>
      </trkpt>
      <trkpt lat="45.18488" lon="0.72641">
        <ele>127.556</ele>
        <time>2019-08-04T08:32:42Z</time>
      </trkpt>
      <trkpt lat="45.18484" lon="0.72637">
        <ele>128.088</ele>
        <time>2019-08-04T08:32:43Z</time>
      </trkpt>
      <trkpt lat="45.1848" lon="0.72634">
        <ele>127.329</ele>
        <time>2019-08-04T08:32:44Z</time>
      </trkpt>
      <trkpt lat="45.18475" lon="0.72632">
        <ele>126.193</ele>
        <time>2019-08-04T08:32:45Z</time>
      </trkpt>
      <trkpt lat="45.18471" lon="0.7263">
        <ele>125.469</ele>
        <time>2019-08-04T08:32:46Z</time>
      </trkpt>
      <trkpt lat="45.18466" lon="0.72625">
        <ele>124.999</ele>
        <time>2019-08-04T08:32:47Z</time>
      </trkpt>
      <trkpt lat="45.18458" lon="0.72618">
        <ele>124.387</ele>
        <time>2019-08-04T08:32:49Z</time>
      </trkpt>
      <trkpt lat="45.18446" lon="0.72607">
        <ele>124.245</ele>
        <time>2019-08-04T08:32:52Z</time>
      </trkpt>
      <trkpt lat="45.18439" lon="0.72602">
        <ele>124.421</ele>
        <time>2019-08-04T08:32:54Z</time>
      </trkpt>
      <trkpt lat="45.18434" lon="0.72599">
        <ele>125.111</ele>
        <time>2019-08-04T08:32:55Z</time>
      </trkpt>
      <trkpt lat="45.1843" lon="0.72594">
        <ele>125</ele>
        <time>2019-08-04T08:32:56Z</time>
      </trkpt>
      <trkpt lat="45.18426" lon="0.72589">
        <ele>125.312</ele>
        <time>2019-08-04T08:32:57Z</time>
      </trkpt>
      <trkpt lat="45.18422" lon="0.72585">
        <ele>124.722</ele>
        <time>2019-08-04T08:32:58Z</time>
      </trkpt>
      <trkpt lat="45.18418" lon="0.72579">
        <ele>124.332</ele>
        <time>2019-08-04T08:32:59Z</time>
      </trkpt>
      <trkpt lat="45.18404" lon="0.72568">
        <ele>124.939</ele>
        <time>2019-08-04T08:33:02Z</time>
      </trkpt>
      <trkpt lat="45.18396" lon="0.72564">
        <ele>123.969</ele>
        <time>2019-08-04T08:33:04Z</time>
      </trkpt>
      <trkpt lat="45.18386" lon="0.72557">
        <ele>123.927</ele>
        <time>2019-08-04T08:33:06Z</time>
      </trkpt>
      <trkpt lat="45.18382" lon="0.72555">
        <ele>124.104</ele>
        <time>2019-08-04T08:33:07Z</time>
      </trkpt>
      <trkpt lat="45.18374" lon="0.72544">
        <ele>124.593</ele>
        <time>2019-08-04T08:33:10Z</time>
      </trkpt>
      <trkpt lat="45.18373" lon="0.72537">
        <ele>125.269</ele>
        <time>2019-08-04T08:33:11Z</time>
      </trkpt>
      <trkpt lat="45.18372" lon="0.72532">
        <ele>126.037</ele>
        <time>2019-08-04T08:33:12Z</time>
      </trkpt>
      <trkpt lat="45.18363" lon="0.72521">
        <ele>125.233</ele>
        <time>2019-08-04T08:33:15Z</time>
      </trkpt>
      <trkpt lat="45.18359" lon="0.72517">
        <ele>125.044</ele>
        <time>2019-08-04T08:33:16Z</time>
      </trkpt>
      <trkpt lat="45.18354" lon="0.72517">
        <ele>124.644</ele>
        <time>2019-08-04T08:33:17Z</time>
      </trkpt>
      <trkpt lat="45.18346" lon="0.72511">
        <ele>125.284</ele>
        <time>2019-08-04T08:33:19Z</time>
      </trkpt>
      <trkpt lat="45.18343" lon="0.72508">
        <ele>125.872</ele>
        <time>2019-08-04T08:33:20Z</time>
      </trkpt>
      <trkpt lat="45.1834" lon="0.72506">
        <ele>125.842</ele>
        <time>2019-08-04T08:33:21Z</time>
      </trkpt>
      <trkpt lat="45.18337" lon="0.72503">
        <ele>124.345</ele>
        <time>2019-08-04T08:33:22Z</time>
      </trkpt>
      <trkpt lat="45.1833" lon="0.725">
        <ele>123.198</ele>
        <time>2019-08-04T08:33:24Z</time>
      </trkpt>
      <trkpt lat="45.18318" lon="0.72499">
        <ele>123.158</ele>
        <time>2019-08-04T08:33:27Z</time>
      </trkpt>
      <trkpt lat="45.18314" lon="0.72499">
        <ele>123.469</ele>
        <time>2019-08-04T08:33:28Z</time>
      </trkpt>
      <trkpt lat="45.18302" lon="0.72499">
        <ele>122.711</ele>
        <time>2019-08-04T08:33:30Z</time>
      </trkpt>
      <trkpt lat="45.18288" lon="0.72498">
        <ele>123.023</ele>
        <time>2019-08-04T08:33:32Z</time>
      </trkpt>
      <trkpt lat="45.18282" lon="0.72499">
        <ele>123.353</ele>
        <time>2019-08-04T08:33:33Z</time>
      </trkpt>
      <trkpt lat="45.18274" lon="0.72498">
        <ele>122.46</ele>
        <time>2019-08-04T08:33:34Z</time>
      </trkpt>
      <trkpt lat="45.18267" lon="0.72497">
        <ele>121.928</ele>
        <time>2019-08-04T08:33:35Z</time>
      </trkpt>
      <trkpt lat="45.18262" lon="0.72495">
        <ele>122.744</ele>
        <time>2019-08-04T08:33:36Z</time>
      </trkpt>
      <trkpt lat="45.18257" lon="0.72484">
        <ele>123.089</ele>
        <time>2019-08-04T08:33:38Z</time>
      </trkpt>
      <trkpt lat="45.1825" lon="0.72478">
        <ele>124.954</ele>
        <time>2019-08-04T08:33:40Z</time>
      </trkpt>
      <trkpt lat="45.18246" lon="0.72476">
        <ele>125.645</ele>
        <time>2019-08-04T08:33:41Z</time>
      </trkpt>
      <trkpt lat="45.18239" lon="0.72468">
        <ele>123.292</ele>
        <time>2019-08-04T08:33:43Z</time>
      </trkpt>
      <trkpt lat="45.18235" lon="0.72466">
        <ele>122.511</ele>
        <time>2019-08-04T08:33:44Z</time>
      </trkpt>
      <trkpt lat="45.18221" lon="0.72458">
        <ele>121.172</ele>
        <time>2019-08-04T08:33:47Z</time>
      </trkpt>
      <trkpt lat="45.18217" lon="0.72457">
        <ele>122.768</ele>
        <time>2019-08-04T08:33:48Z</time>
      </trkpt>
      <trkpt lat="45.18209" lon="0.72456">
        <ele>121.011</ele>
        <time>2019-08-04T08:33:49Z</time>
      </trkpt>
      <trkpt lat="45.18206" lon="0.72452">
        <ele>121.08</ele>
        <time>2019-08-04T08:33:50Z</time>
      </trkpt>
      <trkpt lat="45.18193" lon="0.72445">
        <ele>121.228</ele>
        <time>2019-08-04T08:33:53Z</time>
      </trkpt>
      <trkpt lat="45.18189" lon="0.72443">
        <ele>121.9</ele>
        <time>2019-08-04T08:33:54Z</time>
      </trkpt>
      <trkpt lat="45.18184" lon="0.72442">
        <ele>121.367</ele>
        <time>2019-08-04T08:33:55Z</time>
      </trkpt>
      <trkpt lat="45.18178" lon="0.72441">
        <ele>122.861</ele>
        <time>2019-08-04T08:33:56Z</time>
      </trkpt>
      <trkpt lat="45.18158" lon="0.72432">
        <ele>121.873</ele>
        <time>2019-08-04T08:34:00Z</time>
      </trkpt>
      <trkpt lat="45.18153" lon="0.72431">
        <ele>122.258</ele>
        <time>2019-08-04T08:34:01Z</time>
      </trkpt>
      <trkpt lat="45.18148" lon="0.72429">
        <ele>123.464</ele>
        <time>2019-08-04T08:34:02Z</time>
      </trkpt>
      <trkpt lat="45.18142" lon="0.72428">
        <ele>123.534</ele>
        <time>2019-08-04T08:34:03Z</time>
      </trkpt>
      <trkpt lat="45.18137" lon="0.72425">
        <ele>123.639</ele>
        <time>2019-08-04T08:34:04Z</time>
      </trkpt>
      <trkpt lat="45.1812" lon="0.72419">
        <ele>123.831</ele>
        <time>2019-08-04T08:34:07Z</time>
      </trkpt>
      <trkpt lat="45.18117" lon="0.72417">
        <ele>122.993</ele>
        <time>2019-08-04T08:34:08Z</time>
      </trkpt>
      <trkpt lat="45.1811" lon="0.72416">
        <ele>123.101</ele>
        <time>2019-08-04T08:34:09Z</time>
      </trkpt>
      <trkpt lat="45.18103" lon="0.72414">
        <ele>124.131</ele>
        <time>2019-08-04T08:34:11Z</time>
      </trkpt>
      <trkpt lat="45.18086" lon="0.72408">
        <ele>122.66</ele>
        <time>2019-08-04T08:34:15Z</time>
      </trkpt>
      <trkpt lat="45.18076" lon="0.72401">
        <ele>121.691</ele>
        <time>2019-08-04T08:34:18Z</time>
      </trkpt>
      <trkpt lat="45.18072" lon="0.72396">
        <ele>122.272</ele>
        <time>2019-08-04T08:34:19Z</time>
      </trkpt>
      <trkpt lat="45.18068" lon="0.72392">
        <ele>124.235</ele>
        <time>2019-08-04T08:34:20Z</time>
      </trkpt>
      <trkpt lat="45.18047" lon="0.7238">
        <ele>121.547</ele>
        <time>2019-08-04T08:34:24Z</time>
      </trkpt>
      <trkpt lat="45.18043" lon="0.72377">
        <ele>121.302</ele>
        <time>2019-08-04T08:34:25Z</time>
      </trkpt>
      <trkpt lat="45.18039" lon="0.72372">
        <ele>121.206</ele>
        <time>2019-08-04T08:34:26Z</time>
      </trkpt>
      <trkpt lat="45.18033" lon="0.72369">
        <ele>121.254</ele>
        <time>2019-08-04T08:34:27Z</time>
      </trkpt>
      <trkpt lat="45.18027" lon="0.72364">
        <ele>117.892</ele>
        <time>2019-08-04T08:34:29Z</time>
      </trkpt>
      <trkpt lat="45.18023" lon="0.72354">
        <ele>117.006</ele>
        <time>2019-08-04T08:34:31Z</time>
      </trkpt>
      <trkpt lat="45.18018" lon="0.7235">
        <ele>116.884</ele>
        <time>2019-08-04T08:34:32Z</time>
      </trkpt>
      <trkpt lat="45.18013" lon="0.72348">
        <ele>118.577</ele>
        <time>2019-08-04T08:34:33Z</time>
      </trkpt>
      <trkpt lat="45.18007" lon="0.72343">
        <ele>118.44</ele>
        <time>2019-08-04T08:34:34Z</time>
      </trkpt>
      <trkpt lat="45.17999" lon="0.72335">
        <ele>121.621</ele>
        <time>2019-08-04T08:34:36Z</time>
      </trkpt>
      <trkpt lat="45.17989" lon="0.72327">
        <ele>122.329</ele>
        <time>2019-08-04T08:34:39Z</time>
      </trkpt>
      <trkpt lat="45.17985" lon="0.72324">
        <ele>124.727</ele>
        <time>2019-08-04T08:34:41Z</time>
      </trkpt>
      <trkpt lat="45.17978" lon="0.72323">
        <ele>125.871</ele>
        <time>2019-08-04T08:34:46Z</time>
      </trkpt>
      <trkpt lat="45.17971" lon="0.72319">
        <ele>127.007</ele>
        <time>2019-08-04T08:34:48Z</time>
      </trkpt>
      <trkpt lat="45.17964" lon="0.72315">
        <ele>127.49</ele>
        <time>2019-08-04T08:34:50Z</time>
      </trkpt>
      <trkpt lat="45.1796" lon="0.72313">
        <ele>127.566</ele>
        <time>2019-08-04T08:34:51Z</time>
      </trkpt>
      <trkpt lat="45.17956" lon="0.7231">
        <ele>127.095</ele>
        <time>2019-08-04T08:34:52Z</time>
      </trkpt>
      <trkpt lat="45.17946" lon="0.72306">
        <ele>125.63</ele>
        <time>2019-08-04T08:34:54Z</time>
      </trkpt>
      <trkpt lat="45.17942" lon="0.72304">
        <ele>126.918</ele>
        <time>2019-08-04T08:34:55Z</time>
      </trkpt>
      <trkpt lat="45.1793" lon="0.72294">
        <ele>129.507</ele>
        <time>2019-08-04T08:34:58Z</time>
      </trkpt>
      <trkpt lat="45.17926" lon="0.72291">
        <ele>129.328</ele>
        <time>2019-08-04T08:34:59Z</time>
      </trkpt>
      <trkpt lat="45.17921" lon="0.72288">
        <ele>129.208</ele>
        <time>2019-08-04T08:35:00Z</time>
      </trkpt>
      <trkpt lat="45.17914" lon="0.72285">
        <ele>128.83</ele>
        <time>2019-08-04T08:35:02Z</time>
      </trkpt>
      <trkpt lat="45.1791" lon="0.72283">
        <ele>128.082</ele>
        <time>2019-08-04T08:35:03Z</time>
      </trkpt>
      <trkpt lat="45.17906" lon="0.72282">
        <ele>127.178</ele>
        <time>2019-08-04T08:35:04Z</time>
      </trkpt>
      <trkpt lat="45.179" lon="0.72277">
        <ele>128.86</ele>
        <time>2019-08-04T08:35:06Z</time>
      </trkpt>
      <trkpt lat="45.17896" lon="0.72274">
        <ele>129.987</ele>
        <time>2019-08-04T08:35:07Z</time>
      </trkpt>
      <trkpt lat="45.17889" lon="0.7227">
        <ele>126.476</ele>
        <time>2019-08-04T08:35:09Z</time>
      </trkpt>
      <trkpt lat="45.17885" lon="0.72269">
        <ele>125.498</ele>
        <time>2019-08-04T08:35:10Z</time>
      </trkpt>
      <trkpt lat="45.17881" lon="0.72268">
        <ele>126.267</ele>
        <time>2019-08-04T08:35:11Z</time>
      </trkpt>
      <trkpt lat="45.17878" lon="0.72267">
        <ele>126.775</ele>
        <time>2019-08-04T08:35:12Z</time>
      </trkpt>
      <trkpt lat="45.17872" lon="0.72265">
        <ele>127.876</ele>
        <time>2019-08-04T08:35:14Z</time>
      </trkpt>
      <trkpt lat="45.17866" lon="0.72266">
        <ele>127.839</ele>
        <time>2019-08-04T08:35:16Z</time>
      </trkpt>
      <trkpt lat="45.1786" lon="0.72274">
        <ele>127.672</ele>
        <time>2019-08-04T08:35:19Z</time>
      </trkpt>
      <trkpt lat="45.17859" lon="0.7229">
        <ele>126.976</ele>
        <time>2019-08-04T08:35:22Z</time>
      </trkpt>
      <trkpt lat="45.1786" lon="0.72299">
        <ele>128.429</ele>
        <time>2019-08-04T08:35:24Z</time>
      </trkpt>
      <trkpt lat="45.1786" lon="0.72303">
        <ele>127.649</ele>
        <time>2019-08-04T08:35:25Z</time>
      </trkpt>
      <trkpt lat="45.1786" lon="0.72309">
        <ele>127.617</ele>
        <time>2019-08-04T08:35:27Z</time>
      </trkpt>
      <trkpt lat="45.17858" lon="0.72316">
        <ele>128.426</ele>
        <time>2019-08-04T08:35:32Z</time>
      </trkpt>
      <trkpt lat="45.17858" lon="0.72316">
        <ele>128.426</ele>
        <time>2019-08-04T08:35:40Z</time>
      </trkpt>
      <trkpt lat="45.17858" lon="0.72316">
        <ele>128.426</ele>
        <time>2019-08-04T08:35:41Z</time>
      </trkpt>
      <trkpt lat="45.17854" lon="0.72297">
        <ele>132.181</ele>
        <time>2019-08-04T08:35:44Z</time>
      </trkpt>
      <trkpt lat="45.17854" lon="0.72288">
        <ele>131.641</ele>
        <time>2019-08-04T08:35:46Z</time>
      </trkpt>
      <trkpt lat="45.17854" lon="0.72284">
        <ele>131.804</ele>
        <time>2019-08-04T08:35:47Z</time>
      </trkpt>
      <trkpt lat="45.17855" lon="0.7228">
        <ele>131.331</ele>
        <time>2019-08-04T08:35:48Z</time>
      </trkpt>
      <trkpt lat="45.17856" lon="0.72272">
        <ele>131.565</ele>
        <time>2019-08-04T08:35:50Z</time>
      </trkpt>
      <trkpt lat="45.17856" lon="0.72269">
        <ele>131.266</ele>
        <time>2019-08-04T08:35:51Z</time>
      </trkpt>
      <trkpt lat="45.17856" lon="0.72265">
        <ele>130.275</ele>
        <time>2019-08-04T08:35:52Z</time>
      </trkpt>
      <trkpt lat="45.17856" lon="0.72261">
        <ele>130.673</ele>
        <time>2019-08-04T08:35:53Z</time>
      </trkpt>
      <trkpt lat="45.17856" lon="0.72258">
        <ele>130.332</ele>
        <time>2019-08-04T08:35:54Z</time>
      </trkpt>
      <trkpt lat="45.17856" lon="0.72254">
        <ele>129.472</ele>
        <time>2019-08-04T08:35:55Z</time>
      </trkpt>
      <trkpt lat="45.17856" lon="0.7225">
        <ele>130.517</ele>
        <time>2019-08-04T08:35:56Z</time>
      </trkpt>
      <trkpt lat="45.17857" lon="0.72242">
        <ele>129.399</ele>
        <time>2019-08-04T08:35:58Z</time>
      </trkpt>
      <trkpt lat="45.17857" lon="0.72239">
        <ele>128.786</ele>
        <time>2019-08-04T08:35:59Z</time>
      </trkpt>
      <trkpt lat="45.17858" lon="0.72235">
        <ele>128.077</ele>
        <time>2019-08-04T08:36:00Z</time>
      </trkpt>
      <trkpt lat="45.17858" lon="0.72228">
        <ele>128.582</ele>
        <time>2019-08-04T08:36:02Z</time>
      </trkpt>
      <trkpt lat="45.17859" lon="0.72224">
        <ele>129.131</ele>
        <time>2019-08-04T08:36:03Z</time>
      </trkpt>
      <trkpt lat="45.17859" lon="0.7222">
        <ele>129.765</ele>
        <time>2019-08-04T08:36:04Z</time>
      </trkpt>
      <trkpt lat="45.1786" lon="0.72212">
        <ele>129.815</ele>
        <time>2019-08-04T08:36:06Z</time>
      </trkpt>
      <trkpt lat="45.1786" lon="0.72208">
        <ele>129.053</ele>
        <time>2019-08-04T08:36:07Z</time>
      </trkpt>
      <trkpt lat="45.17859" lon="0.72202">
        <ele>129.287</ele>
        <time>2019-08-04T08:36:09Z</time>
      </trkpt>
      <trkpt lat="45.17855" lon="0.72196">
        <ele>129.483</ele>
        <time>2019-08-04T08:36:12Z</time>
      </trkpt>
      <trkpt lat="45.17847" lon="0.72192">
        <ele>131.425</ele>
        <time>2019-08-04T08:36:13Z</time>
      </trkpt>
      <trkpt lat="45.17839" lon="0.72189">
        <ele>132.179</ele>
        <time>2019-08-04T08:36:15Z</time>
      </trkpt>
      <trkpt lat="45.17836" lon="0.72187">
        <ele>130.276</ele>
        <time>2019-08-04T08:36:16Z</time>
      </trkpt>
      <trkpt lat="45.17833" lon="0.72186">
        <ele>129.878</ele>
        <time>2019-08-04T08:36:17Z</time>
      </trkpt>
      <trkpt lat="45.17831" lon="0.72185">
        <ele>129.803</ele>
        <time>2019-08-04T08:36:18Z</time>
      </trkpt>
      <trkpt lat="45.1782" lon="0.72182">
        <ele>129.022</ele>
        <time>2019-08-04T08:36:22Z</time>
      </trkpt>
      <trkpt lat="45.17817" lon="0.7218">
        <ele>127.918</ele>
        <time>2019-08-04T08:36:23Z</time>
      </trkpt>
      <trkpt lat="45.17813" lon="0.72179">
        <ele>129.181</ele>
        <time>2019-08-04T08:36:24Z</time>
      </trkpt>
      <trkpt lat="45.17805" lon="0.72177">
        <ele>128.758</ele>
        <time>2019-08-04T08:36:26Z</time>
      </trkpt>
      <trkpt lat="45.17801" lon="0.72176">
        <ele>127.127</ele>
        <time>2019-08-04T08:36:27Z</time>
      </trkpt>
      <trkpt lat="45.17797" lon="0.72175">
        <ele>126.062</ele>
        <time>2019-08-04T08:36:28Z</time>
      </trkpt>
      <trkpt lat="45.17785" lon="0.7217">
        <ele>124.166</ele>
        <time>2019-08-04T08:36:31Z</time>
      </trkpt>
      <trkpt lat="45.1778" lon="0.72166">
        <ele>123.995</ele>
        <time>2019-08-04T08:36:32Z</time>
      </trkpt>
      <trkpt lat="45.17775" lon="0.72165">
        <ele>123.616</ele>
        <time>2019-08-04T08:36:33Z</time>
      </trkpt>
      <trkpt lat="45.17762" lon="0.72158">
        <ele>122.326</ele>
        <time>2019-08-04T08:36:36Z</time>
      </trkpt>
      <trkpt lat="45.17756" lon="0.72156">
        <ele>122.692</ele>
        <time>2019-08-04T08:36:37Z</time>
      </trkpt>
      <trkpt lat="45.17746" lon="0.72152">
        <ele>124.008</ele>
        <time>2019-08-04T08:36:39Z</time>
      </trkpt>
      <trkpt lat="45.1774" lon="0.7215">
        <ele>124.298</ele>
        <time>2019-08-04T08:36:40Z</time>
      </trkpt>
      <trkpt lat="45.17734" lon="0.72149">
        <ele>125.081</ele>
        <time>2019-08-04T08:36:41Z</time>
      </trkpt>
      <trkpt lat="45.17728" lon="0.72147">
        <ele>126.375</ele>
        <time>2019-08-04T08:36:42Z</time>
      </trkpt>
      <trkpt lat="45.17725" lon="0.72135">
        <ele>127.339</ele>
        <time>2019-08-04T08:36:44Z</time>
      </trkpt>
      <trkpt lat="45.1772" lon="0.72132">
        <ele>128.059</ele>
        <time>2019-08-04T08:36:45Z</time>
      </trkpt>
      <trkpt lat="45.17712" lon="0.72124">
        <ele>128.496</ele>
        <time>2019-08-04T08:36:47Z</time>
      </trkpt>
      <trkpt lat="45.17705" lon="0.72119">
        <ele>126.796</ele>
        <time>2019-08-04T08:36:49Z</time>
      </trkpt>
      <trkpt lat="45.17695" lon="0.72106">
        <ele>127.87</ele>
        <time>2019-08-04T08:36:52Z</time>
      </trkpt>
      <trkpt lat="45.17693" lon="0.72103">
        <ele>127.129</ele>
        <time>2019-08-04T08:36:53Z</time>
      </trkpt>
      <trkpt lat="45.17686" lon="0.721">
        <ele>127.045</ele>
        <time>2019-08-04T08:36:55Z</time>
      </trkpt>
      <trkpt lat="45.17682" lon="0.72098">
        <ele>127.987</ele>
        <time>2019-08-04T08:36:56Z</time>
      </trkpt>
      <trkpt lat="45.17676" lon="0.72093">
        <ele>128.812</ele>
        <time>2019-08-04T08:36:58Z</time>
      </trkpt>
      <trkpt lat="45.17674" lon="0.72086">
        <ele>130.905</ele>
        <time>2019-08-04T08:37:00Z</time>
      </trkpt>
      <trkpt lat="45.17673" lon="0.72079">
        <ele>130.39</ele>
        <time>2019-08-04T08:37:02Z</time>
      </trkpt>
      <trkpt lat="45.17674" lon="0.72071">
        <ele>130.333</ele>
        <time>2019-08-04T08:37:04Z</time>
      </trkpt>
      <trkpt lat="45.17672" lon="0.72064">
        <ele>131.659</ele>
        <time>2019-08-04T08:37:06Z</time>
      </trkpt>
      <trkpt lat="45.17669" lon="0.72057">
        <ele>133.431</ele>
        <time>2019-08-04T08:37:08Z</time>
      </trkpt>
      <trkpt lat="45.17665" lon="0.72053">
        <ele>134.705</ele>
        <time>2019-08-04T08:37:10Z</time>
      </trkpt>
      <trkpt lat="45.1766" lon="0.72051">
        <ele>133.157</ele>
        <time>2019-08-04T08:37:12Z</time>
      </trkpt>
      <trkpt lat="45.17658" lon="0.7205">
        <ele>132.167</ele>
        <time>2019-08-04T08:37:13Z</time>
      </trkpt>
      <trkpt lat="45.17655" lon="0.72048">
        <ele>132.429</ele>
        <time>2019-08-04T08:37:14Z</time>
      </trkpt>
      <trkpt lat="45.1765" lon="0.72048">
        <ele>131.76</ele>
        <time>2019-08-04T08:37:16Z</time>
      </trkpt>
      <trkpt lat="45.17645" lon="0.72052">
        <ele>130.707</ele>
        <time>2019-08-04T08:37:18Z</time>
      </trkpt>
      <trkpt lat="45.17641" lon="0.72058">
        <ele>130.954</ele>
        <time>2019-08-04T08:37:20Z</time>
      </trkpt>
      <trkpt lat="45.17636" lon="0.7207">
        <ele>132.075</ele>
        <time>2019-08-04T08:37:23Z</time>
      </trkpt>
      <trkpt lat="45.17631" lon="0.72084">
        <ele>132.463</ele>
        <time>2019-08-04T08:37:26Z</time>
      </trkpt>
      <trkpt lat="45.17625" lon="0.72088">
        <ele>132.61</ele>
        <time>2019-08-04T08:37:28Z</time>
      </trkpt>
      <trkpt lat="45.17604" lon="0.72069">
        <ele>131.099</ele>
        <time>2019-08-04T08:37:32Z</time>
      </trkpt>
      <trkpt lat="45.17595" lon="0.72062">
        <ele>129.716</ele>
        <time>2019-08-04T08:37:34Z</time>
      </trkpt>
      <trkpt lat="45.17591" lon="0.72058">
        <ele>129.06</ele>
        <time>2019-08-04T08:37:35Z</time>
      </trkpt>
      <trkpt lat="45.1758" lon="0.72047">
        <ele>131.228</ele>
        <time>2019-08-04T08:37:38Z</time>
      </trkpt>
      <trkpt lat="45.17574" lon="0.72042">
        <ele>129.736</ele>
        <time>2019-08-04T08:37:40Z</time>
      </trkpt>
      <trkpt lat="45.17563" lon="0.72028">
        <ele>129.664</ele>
        <time>2019-08-04T08:37:43Z</time>
      </trkpt>
      <trkpt lat="45.17555" lon="0.72016">
        <ele>129.077</ele>
        <time>2019-08-04T08:37:46Z</time>
      </trkpt>
      <trkpt lat="45.17548" lon="0.72002">
        <ele>128.763</ele>
        <time>2019-08-04T08:37:49Z</time>
      </trkpt>
      <trkpt lat="45.17545" lon="0.71998">
        <ele>128.166</ele>
        <time>2019-08-04T08:37:50Z</time>
      </trkpt>
      <trkpt lat="45.17541" lon="0.71993">
        <ele>127.374</ele>
        <time>2019-08-04T08:37:51Z</time>
      </trkpt>
      <trkpt lat="45.17538" lon="0.71982">
        <ele>126.78</ele>
        <time>2019-08-04T08:37:53Z</time>
      </trkpt>
      <trkpt lat="45.17531" lon="0.71967">
        <ele>126.422</ele>
        <time>2019-08-04T08:37:56Z</time>
      </trkpt>
      <trkpt lat="45.17526" lon="0.71959">
        <ele>126.459</ele>
        <time>2019-08-04T08:37:58Z</time>
      </trkpt>
      <trkpt lat="45.17524" lon="0.71947">
        <ele>126.767</ele>
        <time>2019-08-04T08:38:00Z</time>
      </trkpt>
      <trkpt lat="45.17519" lon="0.71918">
        <ele>127.03</ele>
        <time>2019-08-04T08:38:04Z</time>
      </trkpt>
      <trkpt lat="45.17516" lon="0.71905">
        <ele>125.156</ele>
        <time>2019-08-04T08:38:06Z</time>
      </trkpt>
      <trkpt lat="45.17513" lon="0.71891">
        <ele>126.96</ele>
        <time>2019-08-04T08:38:08Z</time>
      </trkpt>
      <trkpt lat="45.17512" lon="0.71877">
        <ele>125.908</ele>
        <time>2019-08-04T08:38:10Z</time>
      </trkpt>
      <trkpt lat="45.17511" lon="0.71869">
        <ele>126.088</ele>
        <time>2019-08-04T08:38:11Z</time>
      </trkpt>
      <trkpt lat="45.17512" lon="0.71861">
        <ele>127.264</ele>
        <time>2019-08-04T08:38:12Z</time>
      </trkpt>
      <trkpt lat="45.1751" lon="0.71854">
        <ele>127.141</ele>
        <time>2019-08-04T08:38:13Z</time>
      </trkpt>
      <trkpt lat="45.1751" lon="0.71844">
        <ele>127.284</ele>
        <time>2019-08-04T08:38:14Z</time>
      </trkpt>
      <trkpt lat="45.1751" lon="0.71836">
        <ele>127.051</ele>
        <time>2019-08-04T08:38:16Z</time>
      </trkpt>
      <trkpt lat="45.17507" lon="0.71827">
        <ele>128.375</ele>
        <time>2019-08-04T08:38:18Z</time>
      </trkpt>
      <trkpt lat="45.17505" lon="0.7182">
        <ele>127.74</ele>
        <time>2019-08-04T08:38:19Z</time>
      </trkpt>
      <trkpt lat="45.17505" lon="0.71813">
        <ele>127.821</ele>
        <time>2019-08-04T08:38:20Z</time>
      </trkpt>
      <trkpt lat="45.17504" lon="0.71806">
        <ele>128.745</ele>
        <time>2019-08-04T08:38:21Z</time>
      </trkpt>
      <trkpt lat="45.17505" lon="0.718">
        <ele>127.185</ele>
        <time>2019-08-04T08:38:22Z</time>
      </trkpt>
      <trkpt lat="45.17503" lon="0.71793">
        <ele>126.156</ele>
        <time>2019-08-04T08:38:23Z</time>
      </trkpt>
      <trkpt lat="45.17502" lon="0.71779">
        <ele>126.139</ele>
        <time>2019-08-04T08:38:25Z</time>
      </trkpt>
      <trkpt lat="45.17502" lon="0.71773">
        <ele>124.902</ele>
        <time>2019-08-04T08:38:26Z</time>
      </trkpt>
      <trkpt lat="45.17501" lon="0.71763">
        <ele>125.199</ele>
        <time>2019-08-04T08:38:28Z</time>
      </trkpt>
      <trkpt lat="45.175" lon="0.71756">
        <ele>125.019</ele>
        <time>2019-08-04T08:38:29Z</time>
      </trkpt>
      <trkpt lat="45.175" lon="0.71749">
        <ele>126.569</ele>
        <time>2019-08-04T08:38:30Z</time>
      </trkpt>
      <trkpt lat="45.175" lon="0.71738">
        <ele>124.686</ele>
        <time>2019-08-04T08:38:32Z</time>
      </trkpt>
      <trkpt lat="45.17498" lon="0.71731">
        <ele>125.966</ele>
        <time>2019-08-04T08:38:34Z</time>
      </trkpt>
      <trkpt lat="45.17496" lon="0.71724">
        <ele>125.482</ele>
        <time>2019-08-04T08:38:35Z</time>
      </trkpt>
      <trkpt lat="45.17497" lon="0.71715">
        <ele>126.251</ele>
        <time>2019-08-04T08:38:36Z</time>
      </trkpt>
      <trkpt lat="45.17497" lon="0.71708">
        <ele>126.703</ele>
        <time>2019-08-04T08:38:37Z</time>
      </trkpt>
      <trkpt lat="45.17494" lon="0.71701">
        <ele>125.299</ele>
        <time>2019-08-04T08:38:38Z</time>
      </trkpt>
      <trkpt lat="45.17494" lon="0.71688">
        <ele>125.419</ele>
        <time>2019-08-04T08:38:40Z</time>
      </trkpt>
      <trkpt lat="45.17491" lon="0.71666">
        <ele>124.542</ele>
        <time>2019-08-04T08:38:43Z</time>
      </trkpt>
      <trkpt lat="45.17493" lon="0.71643">
        <ele>126.39</ele>
        <time>2019-08-04T08:38:46Z</time>
      </trkpt>
      <trkpt lat="45.17493" lon="0.71636">
        <ele>124.921</ele>
        <time>2019-08-04T08:38:47Z</time>
      </trkpt>
      <trkpt lat="45.17491" lon="0.71628">
        <ele>123.723</ele>
        <time>2019-08-04T08:38:49Z</time>
      </trkpt>
      <trkpt lat="45.17487" lon="0.71619">
        <ele>123.346</ele>
        <time>2019-08-04T08:38:51Z</time>
      </trkpt>
      <trkpt lat="45.17484" lon="0.71597">
        <ele>123.581</ele>
        <time>2019-08-04T08:38:54Z</time>
      </trkpt>
      <trkpt lat="45.17489" lon="0.71583">
        <ele>124.259</ele>
        <time>2019-08-04T08:38:56Z</time>
      </trkpt>
      <trkpt lat="45.17492" lon="0.71572">
        <ele>125.955</ele>
        <time>2019-08-04T08:38:58Z</time>
      </trkpt>
      <trkpt lat="45.17492" lon="0.71565">
        <ele>126.596</ele>
        <time>2019-08-04T08:38:59Z</time>
      </trkpt>
      <trkpt lat="45.17494" lon="0.71554">
        <ele>127.241</ele>
        <time>2019-08-04T08:39:01Z</time>
      </trkpt>
      <trkpt lat="45.17496" lon="0.71547">
        <ele>127.006</ele>
        <time>2019-08-04T08:39:02Z</time>
      </trkpt>
      <trkpt lat="45.17496" lon="0.71539">
        <ele>126.106</ele>
        <time>2019-08-04T08:39:03Z</time>
      </trkpt>
      <trkpt lat="45.17499" lon="0.71527">
        <ele>126.645</ele>
        <time>2019-08-04T08:39:05Z</time>
      </trkpt>
      <trkpt lat="45.17504" lon="0.71519">
        <ele>125.476</ele>
        <time>2019-08-04T08:39:06Z</time>
      </trkpt>
      <trkpt lat="45.17506" lon="0.71512">
        <ele>125.204</ele>
        <time>2019-08-04T08:39:07Z</time>
      </trkpt>
      <trkpt lat="45.17508" lon="0.71499">
        <ele>123.815</ele>
        <time>2019-08-04T08:39:09Z</time>
      </trkpt>
      <trkpt lat="45.17511" lon="0.71491">
        <ele>123.477</ele>
        <time>2019-08-04T08:39:10Z</time>
      </trkpt>
      <trkpt lat="45.17517" lon="0.71471">
        <ele>123.347</ele>
        <time>2019-08-04T08:39:12Z</time>
      </trkpt>
      <trkpt lat="45.17518" lon="0.71463">
        <ele>126.612</ele>
        <time>2019-08-04T08:39:14Z</time>
      </trkpt>
      <trkpt lat="45.1752" lon="0.71457">
        <ele>126.738</ele>
        <time>2019-08-04T08:39:15Z</time>
      </trkpt>
      <trkpt lat="45.17521" lon="0.7145">
        <ele>127.23</ele>
        <time>2019-08-04T08:39:16Z</time>
      </trkpt>
      <trkpt lat="45.17523" lon="0.71436">
        <ele>127.201</ele>
        <time>2019-08-04T08:39:18Z</time>
      </trkpt>
      <trkpt lat="45.17526" lon="0.71426">
        <ele>126.494</ele>
        <time>2019-08-04T08:39:20Z</time>
      </trkpt>
      <trkpt lat="45.17527" lon="0.71415">
        <ele>128.032</ele>
        <time>2019-08-04T08:39:22Z</time>
      </trkpt>
      <trkpt lat="45.1753" lon="0.71405">
        <ele>126.396</ele>
        <time>2019-08-04T08:39:24Z</time>
      </trkpt>
      <trkpt lat="45.17532" lon="0.71399">
        <ele>126.395</ele>
        <time>2019-08-04T08:39:25Z</time>
      </trkpt>
      <trkpt lat="45.17534" lon="0.71394">
        <ele>126.645</ele>
        <time>2019-08-04T08:39:26Z</time>
      </trkpt>
      <trkpt lat="45.17536" lon="0.71388">
        <ele>126.985</ele>
        <time>2019-08-04T08:39:27Z</time>
      </trkpt>
      <trkpt lat="45.17539" lon="0.71382">
        <ele>127.027</ele>
        <time>2019-08-04T08:39:28Z</time>
      </trkpt>
      <trkpt lat="45.17542" lon="0.71371">
        <ele>127.443</ele>
        <time>2019-08-04T08:39:30Z</time>
      </trkpt>
      <trkpt lat="45.17546" lon="0.71358">
        <ele>126.621</ele>
        <time>2019-08-04T08:39:32Z</time>
      </trkpt>
      <trkpt lat="45.17551" lon="0.71345">
        <ele>126.572</ele>
        <time>2019-08-04T08:39:34Z</time>
      </trkpt>
      <trkpt lat="45.17553" lon="0.71338">
        <ele>126.196</ele>
        <time>2019-08-04T08:39:35Z</time>
      </trkpt>
      <trkpt lat="45.17556" lon="0.7133">
        <ele>126.546</ele>
        <time>2019-08-04T08:39:36Z</time>
      </trkpt>
      <trkpt lat="45.1756" lon="0.71303">
        <ele>125.917</ele>
        <time>2019-08-04T08:39:39Z</time>
      </trkpt>
      <trkpt lat="45.1756" lon="0.71296">
        <ele>125.809</ele>
        <time>2019-08-04T08:39:40Z</time>
      </trkpt>
      <trkpt lat="45.17561" lon="0.71286">
        <ele>125.952</ele>
        <time>2019-08-04T08:39:42Z</time>
      </trkpt>
      <trkpt lat="45.17567" lon="0.7127">
        <ele>125.796</ele>
        <time>2019-08-04T08:39:44Z</time>
      </trkpt>
      <trkpt lat="45.1757" lon="0.71261">
        <ele>125.105</ele>
        <time>2019-08-04T08:39:46Z</time>
      </trkpt>
      <trkpt lat="45.17572" lon="0.71256">
        <ele>126.498</ele>
        <time>2019-08-04T08:39:47Z</time>
      </trkpt>
      <trkpt lat="45.17575" lon="0.71242">
        <ele>126.159</ele>
        <time>2019-08-04T08:39:49Z</time>
      </trkpt>
      <trkpt lat="45.17578" lon="0.71231">
        <ele>126.015</ele>
        <time>2019-08-04T08:39:51Z</time>
      </trkpt>
      <trkpt lat="45.17578" lon="0.71223">
        <ele>125.727</ele>
        <time>2019-08-04T08:39:52Z</time>
      </trkpt>
      <trkpt lat="45.1758" lon="0.71216">
        <ele>125.805</ele>
        <time>2019-08-04T08:39:53Z</time>
      </trkpt>
      <trkpt lat="45.17583" lon="0.71206">
        <ele>124.043</ele>
        <time>2019-08-04T08:39:55Z</time>
      </trkpt>
      <trkpt lat="45.17584" lon="0.712">
        <ele>125.372</ele>
        <time>2019-08-04T08:39:56Z</time>
      </trkpt>
      <trkpt lat="45.17587" lon="0.71193">
        <ele>125.677</ele>
        <time>2019-08-04T08:39:57Z</time>
      </trkpt>
      <trkpt lat="45.1759" lon="0.71182">
        <ele>127.846</ele>
        <time>2019-08-04T08:39:59Z</time>
      </trkpt>
      <trkpt lat="45.17591" lon="0.71173">
        <ele>129.718</ele>
        <time>2019-08-04T08:40:00Z</time>
      </trkpt>
      <trkpt lat="45.17596" lon="0.7116">
        <ele>131.925</ele>
        <time>2019-08-04T08:40:02Z</time>
      </trkpt>
      <trkpt lat="45.17598" lon="0.71152">
        <ele>132.754</ele>
        <time>2019-08-04T08:40:03Z</time>
      </trkpt>
      <trkpt lat="45.176" lon="0.71146">
        <ele>133.18</ele>
        <time>2019-08-04T08:40:04Z</time>
      </trkpt>
      <trkpt lat="45.17605" lon="0.71127">
        <ele>136.035</ele>
        <time>2019-08-04T08:40:07Z</time>
      </trkpt>
      <trkpt lat="45.17614" lon="0.71103">
        <ele>135.905</ele>
        <time>2019-08-04T08:40:11Z</time>
      </trkpt>
      <trkpt lat="45.17618" lon="0.7109">
        <ele>135.743</ele>
        <time>2019-08-04T08:40:13Z</time>
      </trkpt>
      <trkpt lat="45.17622" lon="0.71078">
        <ele>134.436</ele>
        <time>2019-08-04T08:40:15Z</time>
      </trkpt>
      <trkpt lat="45.17625" lon="0.71072">
        <ele>133.735</ele>
        <time>2019-08-04T08:40:16Z</time>
      </trkpt>
      <trkpt lat="45.17628" lon="0.71066">
        <ele>133.626</ele>
        <time>2019-08-04T08:40:17Z</time>
      </trkpt>
      <trkpt lat="45.17636" lon="0.71047">
        <ele>133.007</ele>
        <time>2019-08-04T08:40:20Z</time>
      </trkpt>
      <trkpt lat="45.17639" lon="0.71041">
        <ele>132.681</ele>
        <time>2019-08-04T08:40:21Z</time>
      </trkpt>
      <trkpt lat="45.17648" lon="0.71025">
        <ele>133.302</ele>
        <time>2019-08-04T08:40:24Z</time>
      </trkpt>
      <trkpt lat="45.17651" lon="0.71018">
        <ele>134.898</ele>
        <time>2019-08-04T08:40:25Z</time>
      </trkpt>
      <trkpt lat="45.17657" lon="0.71006">
        <ele>134.958</ele>
        <time>2019-08-04T08:40:27Z</time>
      </trkpt>
      <trkpt lat="45.1766" lon="0.71">
        <ele>133.844</ele>
        <time>2019-08-04T08:40:28Z</time>
      </trkpt>
      <trkpt lat="45.17665" lon="0.70998">
        <ele>132.69</ele>
        <time>2019-08-04T08:40:29Z</time>
      </trkpt>
      <trkpt lat="45.17669" lon="0.70992">
        <ele>131.599</ele>
        <time>2019-08-04T08:40:30Z</time>
      </trkpt>
      <trkpt lat="45.17672" lon="0.70986">
        <ele>130.412</ele>
        <time>2019-08-04T08:40:31Z</time>
      </trkpt>
      <trkpt lat="45.17678" lon="0.70975">
        <ele>130.438</ele>
        <time>2019-08-04T08:40:33Z</time>
      </trkpt>
      <trkpt lat="45.17683" lon="0.70965">
        <ele>130.591</ele>
        <time>2019-08-04T08:40:35Z</time>
      </trkpt>
      <trkpt lat="45.17686" lon="0.70956">
        <ele>129.629</ele>
        <time>2019-08-04T08:40:36Z</time>
      </trkpt>
      <trkpt lat="45.1769" lon="0.70951">
        <ele>131.205</ele>
        <time>2019-08-04T08:40:37Z</time>
      </trkpt>
      <trkpt lat="45.17697" lon="0.70939">
        <ele>130.542</ele>
        <time>2019-08-04T08:40:39Z</time>
      </trkpt>
      <trkpt lat="45.177" lon="0.70933">
        <ele>131.484</ele>
        <time>2019-08-04T08:40:40Z</time>
      </trkpt>
      <trkpt lat="45.17702" lon="0.70927">
        <ele>130.954</ele>
        <time>2019-08-04T08:40:41Z</time>
      </trkpt>
      <trkpt lat="45.17709" lon="0.70917">
        <ele>131.138</ele>
        <time>2019-08-04T08:40:43Z</time>
      </trkpt>
      <trkpt lat="45.17712" lon="0.70912">
        <ele>131.345</ele>
        <time>2019-08-04T08:40:44Z</time>
      </trkpt>
      <trkpt lat="45.17716" lon="0.70907">
        <ele>131.66</ele>
        <time>2019-08-04T08:40:45Z</time>
      </trkpt>
      <trkpt lat="45.17724" lon="0.70895">
        <ele>132.933</ele>
        <time>2019-08-04T08:40:48Z</time>
      </trkpt>
      <trkpt lat="45.17729" lon="0.70888">
        <ele>132.9</ele>
        <time>2019-08-04T08:40:50Z</time>
      </trkpt>
      <trkpt lat="45.17732" lon="0.70885">
        <ele>131.574</ele>
        <time>2019-08-04T08:40:51Z</time>
      </trkpt>
      <trkpt lat="45.17735" lon="0.70882">
        <ele>130.819</ele>
        <time>2019-08-04T08:40:52Z</time>
      </trkpt>
      <trkpt lat="45.17738" lon="0.70878">
        <ele>129.174</ele>
        <time>2019-08-04T08:40:53Z</time>
      </trkpt>
      <trkpt lat="45.17743" lon="0.70872">
        <ele>126.474</ele>
        <time>2019-08-04T08:40:55Z</time>
      </trkpt>
      <trkpt lat="45.17746" lon="0.70869">
        <ele>125.922</ele>
        <time>2019-08-04T08:40:56Z</time>
      </trkpt>
      <trkpt lat="45.17749" lon="0.70865">
        <ele>125.849</ele>
        <time>2019-08-04T08:40:57Z</time>
      </trkpt>
      <trkpt lat="45.17758" lon="0.70855">
        <ele>123.187</ele>
        <time>2019-08-04T08:41:00Z</time>
      </trkpt>
      <trkpt lat="45.17765" lon="0.7085">
        <ele>123.092</ele>
        <time>2019-08-04T08:41:02Z</time>
      </trkpt>
      <trkpt lat="45.17776" lon="0.70837">
        <ele>123.194</ele>
        <time>2019-08-04T08:41:04Z</time>
      </trkpt>
      <trkpt lat="45.17781" lon="0.70834">
        <ele>124.798</ele>
        <time>2019-08-04T08:41:05Z</time>
      </trkpt>
      <trkpt lat="45.178" lon="0.70822">
        <ele>121.661</ele>
        <time>2019-08-04T08:41:08Z</time>
      </trkpt>
      <trkpt lat="45.17805" lon="0.70816">
        <ele>119.96</ele>
        <time>2019-08-04T08:41:10Z</time>
      </trkpt>
      <trkpt lat="45.17813" lon="0.70809">
        <ele>121.13</ele>
        <time>2019-08-04T08:41:12Z</time>
      </trkpt>
      <trkpt lat="45.17817" lon="0.70802">
        <ele>120.521</ele>
        <time>2019-08-04T08:41:13Z</time>
      </trkpt>
      <trkpt lat="45.17824" lon="0.70797">
        <ele>122.117</ele>
        <time>2019-08-04T08:41:15Z</time>
      </trkpt>
      <trkpt lat="45.17829" lon="0.70795">
        <ele>123.358</ele>
        <time>2019-08-04T08:41:16Z</time>
      </trkpt>
      <trkpt lat="45.17836" lon="0.7079">
        <ele>124.669</ele>
        <time>2019-08-04T08:41:18Z</time>
      </trkpt>
      <trkpt lat="45.17843" lon="0.70784">
        <ele>123.304</ele>
        <time>2019-08-04T08:41:20Z</time>
      </trkpt>
      <trkpt lat="45.17856" lon="0.70775">
        <ele>124.053</ele>
        <time>2019-08-04T08:41:23Z</time>
      </trkpt>
      <trkpt lat="45.1786" lon="0.7077">
        <ele>123.981</ele>
        <time>2019-08-04T08:41:24Z</time>
      </trkpt>
      <trkpt lat="45.17864" lon="0.70763">
        <ele>122.44</ele>
        <time>2019-08-04T08:41:25Z</time>
      </trkpt>
      <trkpt lat="45.1787" lon="0.70758">
        <ele>122.707</ele>
        <time>2019-08-04T08:41:27Z</time>
      </trkpt>
      <trkpt lat="45.17874" lon="0.70755">
        <ele>121.929</ele>
        <time>2019-08-04T08:41:28Z</time>
      </trkpt>
      <trkpt lat="45.1788" lon="0.70751">
        <ele>124.542</ele>
        <time>2019-08-04T08:41:30Z</time>
      </trkpt>
      <trkpt lat="45.17885" lon="0.70746">
        <ele>125.326</ele>
        <time>2019-08-04T08:41:31Z</time>
      </trkpt>
      <trkpt lat="45.17893" lon="0.7074">
        <ele>125.646</ele>
        <time>2019-08-04T08:41:33Z</time>
      </trkpt>
      <trkpt lat="45.17898" lon="0.70738">
        <ele>126.244</ele>
        <time>2019-08-04T08:41:35Z</time>
      </trkpt>
      <trkpt lat="45.17904" lon="0.70733">
        <ele>126.393</ele>
        <time>2019-08-04T08:41:36Z</time>
      </trkpt>
      <trkpt lat="45.17908" lon="0.70729">
        <ele>126.288</ele>
        <time>2019-08-04T08:41:37Z</time>
      </trkpt>
      <trkpt lat="45.17913" lon="0.70724">
        <ele>126.125</ele>
        <time>2019-08-04T08:41:38Z</time>
      </trkpt>
      <trkpt lat="45.17918" lon="0.70719">
        <ele>126.502</ele>
        <time>2019-08-04T08:41:39Z</time>
      </trkpt>
      <trkpt lat="45.17923" lon="0.70713">
        <ele>125.744</ele>
        <time>2019-08-04T08:41:40Z</time>
      </trkpt>
      <trkpt lat="45.17931" lon="0.70706">
        <ele>126.681</ele>
        <time>2019-08-04T08:41:42Z</time>
      </trkpt>
      <trkpt lat="45.17935" lon="0.70702">
        <ele>125.977</ele>
        <time>2019-08-04T08:41:43Z</time>
      </trkpt>
      <trkpt lat="45.17945" lon="0.70697">
        <ele>125.095</ele>
        <time>2019-08-04T08:41:45Z</time>
      </trkpt>
      <trkpt lat="45.17949" lon="0.70694">
        <ele>125.327</ele>
        <time>2019-08-04T08:41:46Z</time>
      </trkpt>
      <trkpt lat="45.17957" lon="0.70688">
        <ele>127.248</ele>
        <time>2019-08-04T08:41:48Z</time>
      </trkpt>
      <trkpt lat="45.1796" lon="0.70683">
        <ele>126.249</ele>
        <time>2019-08-04T08:41:49Z</time>
      </trkpt>
      <trkpt lat="45.17975" lon="0.70672">
        <ele>127.108</ele>
        <time>2019-08-04T08:41:52Z</time>
      </trkpt>
      <trkpt lat="45.17979" lon="0.70669">
        <ele>126.012</ele>
        <time>2019-08-04T08:41:53Z</time>
      </trkpt>
      <trkpt lat="45.17989" lon="0.70659">
        <ele>124.19</ele>
        <time>2019-08-04T08:41:56Z</time>
      </trkpt>
      <trkpt lat="45.18" lon="0.70648">
        <ele>125.835</ele>
        <time>2019-08-04T08:41:59Z</time>
      </trkpt>
      <trkpt lat="45.18006" lon="0.70645">
        <ele>125.544</ele>
        <time>2019-08-04T08:42:00Z</time>
      </trkpt>
      <trkpt lat="45.18012" lon="0.70639">
        <ele>127.249</ele>
        <time>2019-08-04T08:42:02Z</time>
      </trkpt>
      <trkpt lat="45.18018" lon="0.70634">
        <ele>126.677</ele>
        <time>2019-08-04T08:42:04Z</time>
      </trkpt>
      <trkpt lat="45.18027" lon="0.70625">
        <ele>129.512</ele>
        <time>2019-08-04T08:42:07Z</time>
      </trkpt>
      <trkpt lat="45.18034" lon="0.70619">
        <ele>129.128</ele>
        <time>2019-08-04T08:42:09Z</time>
      </trkpt>
      <trkpt lat="45.1804" lon="0.70621">
        <ele>128.482</ele>
        <time>2019-08-04T08:42:11Z</time>
      </trkpt>
      <trkpt lat="45.18045" lon="0.70624">
        <ele>128.493</ele>
        <time>2019-08-04T08:42:13Z</time>
      </trkpt>
      <trkpt lat="45.1805" lon="0.7063">
        <ele>129.029</ele>
        <time>2019-08-04T08:42:16Z</time>
      </trkpt>
      <trkpt lat="45.18053" lon="0.7064">
        <ele>130.452</ele>
        <time>2019-08-04T08:42:19Z</time>
      </trkpt>
      <trkpt lat="45.18063" lon="0.7065">
        <ele>130.175</ele>
        <time>2019-08-04T08:42:23Z</time>
      </trkpt>
      <trkpt lat="45.18096" lon="0.70607">
        <ele>130.574</ele>
        <time>2019-08-04T08:42:28Z</time>
      </trkpt>
      <trkpt lat="45.18101" lon="0.706">
        <ele>130.732</ele>
        <time>2019-08-04T08:42:29Z</time>
      </trkpt>
      <trkpt lat="45.18119" lon="0.7059">
        <ele>130.937</ele>
        <time>2019-08-04T08:42:32Z</time>
      </trkpt>
      <trkpt lat="45.18123" lon="0.70587">
        <ele>131.026</ele>
        <time>2019-08-04T08:42:33Z</time>
      </trkpt>
      <trkpt lat="45.18131" lon="0.70584">
        <ele>129.638</ele>
        <time>2019-08-04T08:42:35Z</time>
      </trkpt>
      <trkpt lat="45.18135" lon="0.70578">
        <ele>130.205</ele>
        <time>2019-08-04T08:42:36Z</time>
      </trkpt>
      <trkpt lat="45.18139" lon="0.70573">
        <ele>130.708</ele>
        <time>2019-08-04T08:42:37Z</time>
      </trkpt>
      <trkpt lat="45.18145" lon="0.70568">
        <ele>130.298</ele>
        <time>2019-08-04T08:42:38Z</time>
      </trkpt>
      <trkpt lat="45.18151" lon="0.70562">
        <ele>131.43</ele>
        <time>2019-08-04T08:42:40Z</time>
      </trkpt>
      <trkpt lat="45.18161" lon="0.70554">
        <ele>131.057</ele>
        <time>2019-08-04T08:42:43Z</time>
      </trkpt>
      <trkpt lat="45.18167" lon="0.70548">
        <ele>130.573</ele>
        <time>2019-08-04T08:42:45Z</time>
      </trkpt>
      <trkpt lat="45.18179" lon="0.70537">
        <ele>132.633</ele>
        <time>2019-08-04T08:42:48Z</time>
      </trkpt>
      <trkpt lat="45.1819" lon="0.70529">
        <ele>131.997</ele>
        <time>2019-08-04T08:42:51Z</time>
      </trkpt>
      <trkpt lat="45.18196" lon="0.7053">
        <ele>131.088</ele>
        <time>2019-08-04T08:42:52Z</time>
      </trkpt>
      <trkpt lat="45.18201" lon="0.70525">
        <ele>132.001</ele>
        <time>2019-08-04T08:42:53Z</time>
      </trkpt>
      <trkpt lat="45.18214" lon="0.70506">
        <ele>132.91</ele>
        <time>2019-08-04T08:42:57Z</time>
      </trkpt>
      <trkpt lat="45.18221" lon="0.70499">
        <ele>133.006</ele>
        <time>2019-08-04T08:42:59Z</time>
      </trkpt>
      <trkpt lat="45.1823" lon="0.70493">
        <ele>133.801</ele>
        <time>2019-08-04T08:43:01Z</time>
      </trkpt>
      <trkpt lat="45.18237" lon="0.70485">
        <ele>134.739</ele>
        <time>2019-08-04T08:43:03Z</time>
      </trkpt>
      <trkpt lat="45.18244" lon="0.70479">
        <ele>135.195</ele>
        <time>2019-08-04T08:43:05Z</time>
      </trkpt>
      <trkpt lat="45.18257" lon="0.70468">
        <ele>133.389</ele>
        <time>2019-08-04T08:43:08Z</time>
      </trkpt>
      <trkpt lat="45.18262" lon="0.70465">
        <ele>131.911</ele>
        <time>2019-08-04T08:43:09Z</time>
      </trkpt>
      <trkpt lat="45.18266" lon="0.70459">
        <ele>131.775</ele>
        <time>2019-08-04T08:43:10Z</time>
      </trkpt>
      <trkpt lat="45.18271" lon="0.70455">
        <ele>131.887</ele>
        <time>2019-08-04T08:43:11Z</time>
      </trkpt>
      <trkpt lat="45.18279" lon="0.70451">
        <ele>129.341</ele>
        <time>2019-08-04T08:43:13Z</time>
      </trkpt>
      <trkpt lat="45.18293" lon="0.70436">
        <ele>128.702</ele>
        <time>2019-08-04T08:43:16Z</time>
      </trkpt>
      <trkpt lat="45.18296" lon="0.70433">
        <ele>129.619</ele>
        <time>2019-08-04T08:43:17Z</time>
      </trkpt>
      <trkpt lat="45.183" lon="0.70428">
        <ele>129.28</ele>
        <time>2019-08-04T08:43:18Z</time>
      </trkpt>
      <trkpt lat="45.18308" lon="0.70425">
        <ele>128.474</ele>
        <time>2019-08-04T08:43:20Z</time>
      </trkpt>
      <trkpt lat="45.18316" lon="0.70418">
        <ele>128.882</ele>
        <time>2019-08-04T08:43:22Z</time>
      </trkpt>
      <trkpt lat="45.1832" lon="0.70413">
        <ele>128.629</ele>
        <time>2019-08-04T08:43:23Z</time>
      </trkpt>
      <trkpt lat="45.18323" lon="0.70409">
        <ele>128.61</ele>
        <time>2019-08-04T08:43:24Z</time>
      </trkpt>
      <trkpt lat="45.18328" lon="0.70405">
        <ele>128.102</ele>
        <time>2019-08-04T08:43:25Z</time>
      </trkpt>
      <trkpt lat="45.18337" lon="0.70397">
        <ele>127.519</ele>
        <time>2019-08-04T08:43:27Z</time>
      </trkpt>
      <trkpt lat="45.18342" lon="0.70395">
        <ele>125.92</ele>
        <time>2019-08-04T08:43:28Z</time>
      </trkpt>
      <trkpt lat="45.18346" lon="0.70393">
        <ele>125.985</ele>
        <time>2019-08-04T08:43:29Z</time>
      </trkpt>
      <trkpt lat="45.18357" lon="0.70383">
        <ele>126.455</ele>
        <time>2019-08-04T08:43:32Z</time>
      </trkpt>
      <trkpt lat="45.18364" lon="0.7038">
        <ele>126.478</ele>
        <time>2019-08-04T08:43:34Z</time>
      </trkpt>
      <trkpt lat="45.18378" lon="0.70381">
        <ele>125.503</ele>
        <time>2019-08-04T08:43:37Z</time>
      </trkpt>
      <trkpt lat="45.18382" lon="0.70382">
        <ele>124.896</ele>
        <time>2019-08-04T08:43:38Z</time>
      </trkpt>
      <trkpt lat="45.18384" lon="0.70376">
        <ele>125.251</ele>
        <time>2019-08-04T08:43:39Z</time>
      </trkpt>
      <trkpt lat="45.18389" lon="0.70373">
        <ele>123.746</ele>
        <time>2019-08-04T08:43:40Z</time>
      </trkpt>
      <trkpt lat="45.18392" lon="0.70367">
        <ele>123.068</ele>
        <time>2019-08-04T08:43:41Z</time>
      </trkpt>
      <trkpt lat="45.184" lon="0.70354">
        <ele>123.945</ele>
        <time>2019-08-04T08:43:44Z</time>
      </trkpt>
      <trkpt lat="45.18406" lon="0.70346">
        <ele>125.419</ele>
        <time>2019-08-04T08:43:46Z</time>
      </trkpt>
      <trkpt lat="45.18415" lon="0.70335">
        <ele>125.797</ele>
        <time>2019-08-04T08:43:49Z</time>
      </trkpt>
      <trkpt lat="45.18419" lon="0.70331">
        <ele>126.157</ele>
        <time>2019-08-04T08:43:50Z</time>
      </trkpt>
      <trkpt lat="45.18422" lon="0.70328">
        <ele>125.625</ele>
        <time>2019-08-04T08:43:51Z</time>
      </trkpt>
      <trkpt lat="45.18424" lon="0.70324">
        <ele>125.622</ele>
        <time>2019-08-04T08:43:52Z</time>
      </trkpt>
      <trkpt lat="45.18427" lon="0.70321">
        <ele>125.612</ele>
        <time>2019-08-04T08:43:53Z</time>
      </trkpt>
      <trkpt lat="45.18432" lon="0.70313">
        <ele>125.599</ele>
        <time>2019-08-04T08:43:55Z</time>
      </trkpt>
      <trkpt lat="45.18439" lon="0.70304">
        <ele>125.446</ele>
        <time>2019-08-04T08:43:56Z</time>
      </trkpt>
      <trkpt lat="45.18447" lon="0.70297">
        <ele>123.98</ele>
        <time>2019-08-04T08:43:58Z</time>
      </trkpt>
      <trkpt lat="45.18456" lon="0.70289">
        <ele>123.36</ele>
        <time>2019-08-04T08:44:00Z</time>
      </trkpt>
      <trkpt lat="45.18457" lon="0.70282">
        <ele>122.264</ele>
        <time>2019-08-04T08:44:01Z</time>
      </trkpt>
      <trkpt lat="45.18461" lon="0.70277">
        <ele>123.666</ele>
        <time>2019-08-04T08:44:02Z</time>
      </trkpt>
      <trkpt lat="45.18464" lon="0.70271">
        <ele>123.361</ele>
        <time>2019-08-04T08:44:03Z</time>
      </trkpt>
      <trkpt lat="45.18467" lon="0.70266">
        <ele>123.809</ele>
        <time>2019-08-04T08:44:04Z</time>
      </trkpt>
      <trkpt lat="45.1847" lon="0.70261">
        <ele>123.433</ele>
        <time>2019-08-04T08:44:05Z</time>
      </trkpt>
      <trkpt lat="45.18473" lon="0.70257">
        <ele>122.548</ele>
        <time>2019-08-04T08:44:06Z</time>
      </trkpt>
      <trkpt lat="45.18482" lon="0.7024">
        <ele>125.909</ele>
        <time>2019-08-04T08:44:09Z</time>
      </trkpt>
      <trkpt lat="45.18486" lon="0.70235">
        <ele>125.423</ele>
        <time>2019-08-04T08:44:10Z</time>
      </trkpt>
      <trkpt lat="45.18492" lon="0.70222">
        <ele>123.767</ele>
        <time>2019-08-04T08:44:12Z</time>
      </trkpt>
      <trkpt lat="45.18496" lon="0.70217">
        <ele>122.976</ele>
        <time>2019-08-04T08:44:13Z</time>
      </trkpt>
      <trkpt lat="45.185" lon="0.70212">
        <ele>122.275</ele>
        <time>2019-08-04T08:44:14Z</time>
      </trkpt>
      <trkpt lat="45.18504" lon="0.70206">
        <ele>122.465</ele>
        <time>2019-08-04T08:44:15Z</time>
      </trkpt>
      <trkpt lat="45.18509" lon="0.70193">
        <ele>122.387</ele>
        <time>2019-08-04T08:44:17Z</time>
      </trkpt>
      <trkpt lat="45.18519" lon="0.70166">
        <ele>120.444</ele>
        <time>2019-08-04T08:44:20Z</time>
      </trkpt>
      <trkpt lat="45.18521" lon="0.7016">
        <ele>121.416</ele>
        <time>2019-08-04T08:44:21Z</time>
      </trkpt>
      <trkpt lat="45.18525" lon="0.70154">
        <ele>119.701</ele>
        <time>2019-08-04T08:44:22Z</time>
      </trkpt>
      <trkpt lat="45.18532" lon="0.70135">
        <ele>119.885</ele>
        <time>2019-08-04T08:44:25Z</time>
      </trkpt>
      <trkpt lat="45.18534" lon="0.70129">
        <ele>120.72</ele>
        <time>2019-08-04T08:44:26Z</time>
      </trkpt>
      <trkpt lat="45.18537" lon="0.70116">
        <ele>121.34</ele>
        <time>2019-08-04T08:44:28Z</time>
      </trkpt>
      <trkpt lat="45.1854" lon="0.70108">
        <ele>121.209</ele>
        <time>2019-08-04T08:44:29Z</time>
      </trkpt>
      <trkpt lat="45.18547" lon="0.70094">
        <ele>121.161</ele>
        <time>2019-08-04T08:44:31Z</time>
      </trkpt>
      <trkpt lat="45.18556" lon="0.70079">
        <ele>120.557</ele>
        <time>2019-08-04T08:44:33Z</time>
      </trkpt>
      <trkpt lat="45.1857" lon="0.70074">
        <ele>121.596</ele>
        <time>2019-08-04T08:44:36Z</time>
      </trkpt>
      <trkpt lat="45.18575" lon="0.70068">
        <ele>120.717</ele>
        <time>2019-08-04T08:44:37Z</time>
      </trkpt>
      <trkpt lat="45.18581" lon="0.70065">
        <ele>122.523</ele>
        <time>2019-08-04T08:44:38Z</time>
      </trkpt>
      <trkpt lat="45.18585" lon="0.70061">
        <ele>122.369</ele>
        <time>2019-08-04T08:44:39Z</time>
      </trkpt>
      <trkpt lat="45.18589" lon="0.70056">
        <ele>122.309</ele>
        <time>2019-08-04T08:44:40Z</time>
      </trkpt>
      <trkpt lat="45.18593" lon="0.70051">
        <ele>122.904</ele>
        <time>2019-08-04T08:44:41Z</time>
      </trkpt>
      <trkpt lat="45.186" lon="0.70048">
        <ele>122.657</ele>
        <time>2019-08-04T08:44:42Z</time>
      </trkpt>
      <trkpt lat="45.18604" lon="0.70047">
        <ele>121.936</ele>
        <time>2019-08-04T08:44:43Z</time>
      </trkpt>
      <trkpt lat="45.18608" lon="0.70044">
        <ele>122.219</ele>
        <time>2019-08-04T08:44:44Z</time>
      </trkpt>
      <trkpt lat="45.18613" lon="0.7004">
        <ele>122.537</ele>
        <time>2019-08-04T08:44:45Z</time>
      </trkpt>
      <trkpt lat="45.18628" lon="0.70035">
        <ele>118.718</ele>
        <time>2019-08-04T08:44:47Z</time>
      </trkpt>
      <trkpt lat="45.18633" lon="0.70032">
        <ele>118.141</ele>
        <time>2019-08-04T08:44:48Z</time>
      </trkpt>
      <trkpt lat="45.18638" lon="0.7003">
        <ele>119.776</ele>
        <time>2019-08-04T08:44:49Z</time>
      </trkpt>
      <trkpt lat="45.18654" lon="0.70023">
        <ele>121.623</ele>
        <time>2019-08-04T08:44:52Z</time>
      </trkpt>
      <trkpt lat="45.1866" lon="0.70022">
        <ele>120.971</ele>
        <time>2019-08-04T08:44:53Z</time>
      </trkpt>
      <trkpt lat="45.18675" lon="0.70014">
        <ele>121.12</ele>
        <time>2019-08-04T08:44:56Z</time>
      </trkpt>
      <trkpt lat="45.18679" lon="0.70012">
        <ele>121.263</ele>
        <time>2019-08-04T08:44:57Z</time>
      </trkpt>
      <trkpt lat="45.18696" lon="0.70002">
        <ele>119.805</ele>
        <time>2019-08-04T08:45:00Z</time>
      </trkpt>
      <trkpt lat="45.18702" lon="0.69999">
        <ele>118.062</ele>
        <time>2019-08-04T08:45:01Z</time>
      </trkpt>
      <trkpt lat="45.18707" lon="0.69999">
        <ele>119.622</ele>
        <time>2019-08-04T08:45:02Z</time>
      </trkpt>
      <trkpt lat="45.18723" lon="0.69995">
        <ele>118.868</ele>
        <time>2019-08-04T08:45:05Z</time>
      </trkpt>
      <trkpt lat="45.18732" lon="0.69994">
        <ele>119.873</ele>
        <time>2019-08-04T08:45:07Z</time>
      </trkpt>
      <trkpt lat="45.18739" lon="0.69993">
        <ele>119.168</ele>
        <time>2019-08-04T08:45:08Z</time>
      </trkpt>
      <trkpt lat="45.18744" lon="0.6999">
        <ele>118.613</ele>
        <time>2019-08-04T08:45:09Z</time>
      </trkpt>
      <trkpt lat="45.18753" lon="0.69991">
        <ele>119.093</ele>
        <time>2019-08-04T08:45:11Z</time>
      </trkpt>
      <trkpt lat="45.18758" lon="0.69989">
        <ele>118.521</ele>
        <time>2019-08-04T08:45:12Z</time>
      </trkpt>
      <trkpt lat="45.18764" lon="0.69987">
        <ele>118.645</ele>
        <time>2019-08-04T08:45:13Z</time>
      </trkpt>
      <trkpt lat="45.18769" lon="0.69985">
        <ele>117.131</ele>
        <time>2019-08-04T08:45:14Z</time>
      </trkpt>
      <trkpt lat="45.18778" lon="0.69984">
        <ele>116.656</ele>
        <time>2019-08-04T08:45:16Z</time>
      </trkpt>
      <trkpt lat="45.18782" lon="0.69984">
        <ele>116.076</ele>
        <time>2019-08-04T08:45:17Z</time>
      </trkpt>
      <trkpt lat="45.18788" lon="0.69982">
        <ele>116.747</ele>
        <time>2019-08-04T08:45:18Z</time>
      </trkpt>
      <trkpt lat="45.18798" lon="0.6998">
        <ele>116.938</ele>
        <time>2019-08-04T08:45:20Z</time>
      </trkpt>
      <trkpt lat="45.18804" lon="0.6998">
        <ele>117.892</ele>
        <time>2019-08-04T08:45:21Z</time>
      </trkpt>
      <trkpt lat="45.1881" lon="0.69979">
        <ele>117.937</ele>
        <time>2019-08-04T08:45:22Z</time>
      </trkpt>
      <trkpt lat="45.18824" lon="0.69978">
        <ele>119.107</ele>
        <time>2019-08-04T08:45:25Z</time>
      </trkpt>
      <trkpt lat="45.18842" lon="0.6997">
        <ele>120.12</ele>
        <time>2019-08-04T08:45:29Z</time>
      </trkpt>
      <trkpt lat="45.18847" lon="0.69969">
        <ele>121.287</ele>
        <time>2019-08-04T08:45:30Z</time>
      </trkpt>
      <trkpt lat="45.18856" lon="0.69967">
        <ele>120.061</ele>
        <time>2019-08-04T08:45:32Z</time>
      </trkpt>
      <trkpt lat="45.18861" lon="0.69966">
        <ele>119.559</ele>
        <time>2019-08-04T08:45:33Z</time>
      </trkpt>
      <trkpt lat="45.18866" lon="0.69965">
        <ele>118.094</ele>
        <time>2019-08-04T08:45:34Z</time>
      </trkpt>
      <trkpt lat="45.18879" lon="0.69958">
        <ele>116.35</ele>
        <time>2019-08-04T08:45:37Z</time>
      </trkpt>
      <trkpt lat="45.18886" lon="0.69956">
        <ele>116.608</ele>
        <time>2019-08-04T08:45:38Z</time>
      </trkpt>
      <trkpt lat="45.189" lon="0.69951">
        <ele>117.398</ele>
        <time>2019-08-04T08:45:41Z</time>
      </trkpt>
      <trkpt lat="45.18905" lon="0.69948">
        <ele>119.047</ele>
        <time>2019-08-04T08:45:42Z</time>
      </trkpt>
      <trkpt lat="45.18916" lon="0.69947">
        <ele>118.855</ele>
        <time>2019-08-04T08:45:44Z</time>
      </trkpt>
      <trkpt lat="45.18923" lon="0.69945">
        <ele>118.252</ele>
        <time>2019-08-04T08:45:45Z</time>
      </trkpt>
      <trkpt lat="45.18928" lon="0.69943">
        <ele>119.356</ele>
        <time>2019-08-04T08:45:46Z</time>
      </trkpt>
      <trkpt lat="45.18933" lon="0.6994">
        <ele>118.735</ele>
        <time>2019-08-04T08:45:47Z</time>
      </trkpt>
      <trkpt lat="45.18939" lon="0.69939">
        <ele>119.462</ele>
        <time>2019-08-04T08:45:48Z</time>
      </trkpt>
      <trkpt lat="45.18945" lon="0.69937">
        <ele>118.104</ele>
        <time>2019-08-04T08:45:49Z</time>
      </trkpt>
      <trkpt lat="45.1895" lon="0.69935">
        <ele>118.891</ele>
        <time>2019-08-04T08:45:50Z</time>
      </trkpt>
      <trkpt lat="45.18961" lon="0.69932">
        <ele>120.088</ele>
        <time>2019-08-04T08:45:52Z</time>
      </trkpt>
      <trkpt lat="45.18967" lon="0.69928">
        <ele>121.738</ele>
        <time>2019-08-04T08:45:53Z</time>
      </trkpt>
      <trkpt lat="45.18971" lon="0.69925">
        <ele>121.877</ele>
        <time>2019-08-04T08:45:54Z</time>
      </trkpt>
      <trkpt lat="45.18977" lon="0.69923">
        <ele>123.198</ele>
        <time>2019-08-04T08:45:55Z</time>
      </trkpt>
      <trkpt lat="45.18984" lon="0.69921">
        <ele>124.157</ele>
        <time>2019-08-04T08:45:57Z</time>
      </trkpt>
      <trkpt lat="45.18989" lon="0.6992">
        <ele>124.499</ele>
        <time>2019-08-04T08:45:58Z</time>
      </trkpt>
      <trkpt lat="45.18996" lon="0.69921">
        <ele>122.331</ele>
        <time>2019-08-04T08:45:59Z</time>
      </trkpt>
      <trkpt lat="45.19006" lon="0.69918">
        <ele>121.652</ele>
        <time>2019-08-04T08:46:01Z</time>
      </trkpt>
      <trkpt lat="45.1901" lon="0.69914">
        <ele>121.335</ele>
        <time>2019-08-04T08:46:02Z</time>
      </trkpt>
      <trkpt lat="45.1903" lon="0.69907">
        <ele>121.226</ele>
        <time>2019-08-04T08:46:06Z</time>
      </trkpt>
      <trkpt lat="45.19036" lon="0.69903">
        <ele>121.671</ele>
        <time>2019-08-04T08:46:07Z</time>
      </trkpt>
      <trkpt lat="45.19042" lon="0.69901">
        <ele>121.529</ele>
        <time>2019-08-04T08:46:08Z</time>
      </trkpt>
      <trkpt lat="45.19048" lon="0.69899">
        <ele>122.004</ele>
        <time>2019-08-04T08:46:09Z</time>
      </trkpt>
      <trkpt lat="45.19057" lon="0.69895">
        <ele>121.924</ele>
        <time>2019-08-04T08:46:11Z</time>
      </trkpt>
      <trkpt lat="45.19062" lon="0.69893">
        <ele>122.105</ele>
        <time>2019-08-04T08:46:12Z</time>
      </trkpt>
      <trkpt lat="45.19068" lon="0.6989">
        <ele>121.593</ele>
        <time>2019-08-04T08:46:13Z</time>
      </trkpt>
      <trkpt lat="45.19077" lon="0.69887">
        <ele>122.055</ele>
        <time>2019-08-04T08:46:15Z</time>
      </trkpt>
      <trkpt lat="45.19081" lon="0.69884">
        <ele>121.866</ele>
        <time>2019-08-04T08:46:16Z</time>
      </trkpt>
      <trkpt lat="45.19089" lon="0.69882">
        <ele>121.666</ele>
        <time>2019-08-04T08:46:18Z</time>
      </trkpt>
      <trkpt lat="45.19095" lon="0.69878">
        <ele>122.663</ele>
        <time>2019-08-04T08:46:19Z</time>
      </trkpt>
      <trkpt lat="45.19105" lon="0.69873">
        <ele>124.645</ele>
        <time>2019-08-04T08:46:21Z</time>
      </trkpt>
      <trkpt lat="45.1911" lon="0.69873">
        <ele>125.209</ele>
        <time>2019-08-04T08:46:22Z</time>
      </trkpt>
      <trkpt lat="45.1912" lon="0.6987">
        <ele>125.342</ele>
        <time>2019-08-04T08:46:24Z</time>
      </trkpt>
      <trkpt lat="45.19124" lon="0.69868">
        <ele>124.11</ele>
        <time>2019-08-04T08:46:25Z</time>
      </trkpt>
      <trkpt lat="45.1913" lon="0.69866">
        <ele>124.267</ele>
        <time>2019-08-04T08:46:26Z</time>
      </trkpt>
      <trkpt lat="45.19134" lon="0.69863">
        <ele>124.35</ele>
        <time>2019-08-04T08:46:27Z</time>
      </trkpt>
      <trkpt lat="45.19138" lon="0.6986">
        <ele>124.493</ele>
        <time>2019-08-04T08:46:28Z</time>
      </trkpt>
      <trkpt lat="45.1915" lon="0.69858">
        <ele>122.325</ele>
        <time>2019-08-04T08:46:30Z</time>
      </trkpt>
      <trkpt lat="45.19156" lon="0.69856">
        <ele>123.696</ele>
        <time>2019-08-04T08:46:32Z</time>
      </trkpt>
      <trkpt lat="45.19161" lon="0.69853">
        <ele>124.327</ele>
        <time>2019-08-04T08:46:33Z</time>
      </trkpt>
      <trkpt lat="45.19168" lon="0.6985">
        <ele>124.354</ele>
        <time>2019-08-04T08:46:34Z</time>
      </trkpt>
      <trkpt lat="45.19173" lon="0.69848">
        <ele>125.283</ele>
        <time>2019-08-04T08:46:35Z</time>
      </trkpt>
      <trkpt lat="45.19177" lon="0.69848">
        <ele>123.714</ele>
        <time>2019-08-04T08:46:36Z</time>
      </trkpt>
      <trkpt lat="45.19182" lon="0.69846">
        <ele>123.824</ele>
        <time>2019-08-04T08:46:37Z</time>
      </trkpt>
      <trkpt lat="45.19187" lon="0.69843">
        <ele>122.766</ele>
        <time>2019-08-04T08:46:38Z</time>
      </trkpt>
      <trkpt lat="45.19194" lon="0.6984">
        <ele>121.312</ele>
        <time>2019-08-04T08:46:40Z</time>
      </trkpt>
      <trkpt lat="45.19213" lon="0.69837">
        <ele>120.976</ele>
        <time>2019-08-04T08:46:44Z</time>
      </trkpt>
      <trkpt lat="45.1922" lon="0.69833">
        <ele>121.631</ele>
        <time>2019-08-04T08:46:46Z</time>
      </trkpt>
      <trkpt lat="45.19223" lon="0.69831">
        <ele>121.686</ele>
        <time>2019-08-04T08:46:47Z</time>
      </trkpt>
      <trkpt lat="45.19227" lon="0.69828">
        <ele>122.144</ele>
        <time>2019-08-04T08:46:48Z</time>
      </trkpt>
      <trkpt lat="45.19238" lon="0.69815">
        <ele>122.495</ele>
        <time>2019-08-04T08:46:51Z</time>
      </trkpt>
      <trkpt lat="45.19246" lon="0.69813">
        <ele>121.424</ele>
        <time>2019-08-04T08:46:52Z</time>
      </trkpt>
      <trkpt lat="45.19252" lon="0.69819">
        <ele>119.669</ele>
        <time>2019-08-04T08:46:53Z</time>
      </trkpt>
      <trkpt lat="45.19257" lon="0.6982">
        <ele>118.7</ele>
        <time>2019-08-04T08:46:54Z</time>
      </trkpt>
      <trkpt lat="45.19262" lon="0.6982">
        <ele>119.013</ele>
        <time>2019-08-04T08:46:55Z</time>
      </trkpt>
      <trkpt lat="45.19268" lon="0.69815">
        <ele>120.375</ele>
        <time>2019-08-04T08:46:57Z</time>
      </trkpt>
      <trkpt lat="45.19272" lon="0.69812">
        <ele>119.855</ele>
        <time>2019-08-04T08:46:58Z</time>
      </trkpt>
      <trkpt lat="45.19276" lon="0.69808">
        <ele>122.211</ele>
        <time>2019-08-04T08:46:59Z</time>
      </trkpt>
      <trkpt lat="45.19288" lon="0.69806">
        <ele>124.071</ele>
        <time>2019-08-04T08:47:02Z</time>
      </trkpt>
      <trkpt lat="45.19296" lon="0.69809">
        <ele>124.66</ele>
        <time>2019-08-04T08:47:04Z</time>
      </trkpt>
      <trkpt lat="45.19299" lon="0.6981">
        <ele>124.866</ele>
        <time>2019-08-04T08:47:05Z</time>
      </trkpt>
      <trkpt lat="45.19304" lon="0.69808">
        <ele>123.293</ele>
        <time>2019-08-04T08:47:07Z</time>
      </trkpt>
      <trkpt lat="45.19311" lon="0.69802">
        <ele>122.247</ele>
        <time>2019-08-04T08:47:09Z</time>
      </trkpt>
      <trkpt lat="45.19319" lon="0.69797">
        <ele>123.706</ele>
        <time>2019-08-04T08:47:11Z</time>
      </trkpt>
      <trkpt lat="45.19328" lon="0.69795">
        <ele>124.011</ele>
        <time>2019-08-04T08:47:13Z</time>
      </trkpt>
      <trkpt lat="45.19335" lon="0.6979">
        <ele>124.432</ele>
        <time>2019-08-04T08:47:15Z</time>
      </trkpt>
      <trkpt lat="45.19343" lon="0.69787">
        <ele>123.161</ele>
        <time>2019-08-04T08:47:17Z</time>
      </trkpt>
      <trkpt lat="45.19348" lon="0.69786">
        <ele>121.818</ele>
        <time>2019-08-04T08:47:18Z</time>
      </trkpt>
      <trkpt lat="45.19354" lon="0.69784">
        <ele>121.613</ele>
        <time>2019-08-04T08:47:19Z</time>
      </trkpt>
      <trkpt lat="45.19366" lon="0.69779">
        <ele>119.629</ele>
        <time>2019-08-04T08:47:22Z</time>
      </trkpt>
      <trkpt lat="45.19371" lon="0.69776">
        <ele>120.017</ele>
        <time>2019-08-04T08:47:23Z</time>
      </trkpt>
      <trkpt lat="45.19376" lon="0.69773">
        <ele>119.97</ele>
        <time>2019-08-04T08:47:24Z</time>
      </trkpt>
      <trkpt lat="45.19391" lon="0.69768">
        <ele>119.764</ele>
        <time>2019-08-04T08:47:27Z</time>
      </trkpt>
      <trkpt lat="45.194" lon="0.69764">
        <ele>120.564</ele>
        <time>2019-08-04T08:47:29Z</time>
      </trkpt>
      <trkpt lat="45.19403" lon="0.69762">
        <ele>120.095</ele>
        <time>2019-08-04T08:47:30Z</time>
      </trkpt>
      <trkpt lat="45.19409" lon="0.69761">
        <ele>120.143</ele>
        <time>2019-08-04T08:47:31Z</time>
      </trkpt>
      <trkpt lat="45.19417" lon="0.69755">
        <ele>121.999</ele>
        <time>2019-08-04T08:47:33Z</time>
      </trkpt>
      <trkpt lat="45.1942" lon="0.69753">
        <ele>122.03</ele>
        <time>2019-08-04T08:47:34Z</time>
      </trkpt>
      <trkpt lat="45.19425" lon="0.69749">
        <ele>122.994</ele>
        <time>2019-08-04T08:47:35Z</time>
      </trkpt>
      <trkpt lat="45.19434" lon="0.69746">
        <ele>122.42</ele>
        <time>2019-08-04T08:47:37Z</time>
      </trkpt>
      <trkpt lat="45.19439" lon="0.69743">
        <ele>122.73</ele>
        <time>2019-08-04T08:47:38Z</time>
      </trkpt>
      <trkpt lat="45.19449" lon="0.69739">
        <ele>120.577</ele>
        <time>2019-08-04T08:47:40Z</time>
      </trkpt>
      <trkpt lat="45.19455" lon="0.69736">
        <ele>119.421</ele>
        <time>2019-08-04T08:47:41Z</time>
      </trkpt>
      <trkpt lat="45.19459" lon="0.69735">
        <ele>121.565</ele>
        <time>2019-08-04T08:47:42Z</time>
      </trkpt>
      <trkpt lat="45.19479" lon="0.69726">
        <ele>122.264</ele>
        <time>2019-08-04T08:47:46Z</time>
      </trkpt>
      <trkpt lat="45.19484" lon="0.69724">
        <ele>122.437</ele>
        <time>2019-08-04T08:47:47Z</time>
      </trkpt>
      <trkpt lat="45.19488" lon="0.69723">
        <ele>122.43</ele>
        <time>2019-08-04T08:47:48Z</time>
      </trkpt>
      <trkpt lat="45.19494" lon="0.6972">
        <ele>121.626</ele>
        <time>2019-08-04T08:47:49Z</time>
      </trkpt>
      <trkpt lat="45.19499" lon="0.69718">
        <ele>121.578</ele>
        <time>2019-08-04T08:47:50Z</time>
      </trkpt>
      <trkpt lat="45.19504" lon="0.69715">
        <ele>121.913</ele>
        <time>2019-08-04T08:47:51Z</time>
      </trkpt>
      <trkpt lat="45.19509" lon="0.69712">
        <ele>122.089</ele>
        <time>2019-08-04T08:47:52Z</time>
      </trkpt>
      <trkpt lat="45.1952" lon="0.69707">
        <ele>122.149</ele>
        <time>2019-08-04T08:47:54Z</time>
      </trkpt>
      <trkpt lat="45.19533" lon="0.69699">
        <ele>123.438</ele>
        <time>2019-08-04T08:47:57Z</time>
      </trkpt>
      <trkpt lat="45.19542" lon="0.69694">
        <ele>123.089</ele>
        <time>2019-08-04T08:47:59Z</time>
      </trkpt>
      <trkpt lat="45.19547" lon="0.6969">
        <ele>124.049</ele>
        <time>2019-08-04T08:48:00Z</time>
      </trkpt>
      <trkpt lat="45.19553" lon="0.69687">
        <ele>122.692</ele>
        <time>2019-08-04T08:48:01Z</time>
      </trkpt>
      <trkpt lat="45.19559" lon="0.69684">
        <ele>121.747</ele>
        <time>2019-08-04T08:48:02Z</time>
      </trkpt>
      <trkpt lat="45.19568" lon="0.69681">
        <ele>122.294</ele>
        <time>2019-08-04T08:48:04Z</time>
      </trkpt>
      <trkpt lat="45.19573" lon="0.69679">
        <ele>122.916</ele>
        <time>2019-08-04T08:48:05Z</time>
      </trkpt>
      <trkpt lat="45.19578" lon="0.69678">
        <ele>122.872</ele>
        <time>2019-08-04T08:48:06Z</time>
      </trkpt>
      <trkpt lat="45.19583" lon="0.69676">
        <ele>123.263</ele>
        <time>2019-08-04T08:48:07Z</time>
      </trkpt>
      <trkpt lat="45.19587" lon="0.69675">
        <ele>123.003</ele>
        <time>2019-08-04T08:48:08Z</time>
      </trkpt>
      <trkpt lat="45.19592" lon="0.69671">
        <ele>121.671</ele>
        <time>2019-08-04T08:48:09Z</time>
      </trkpt>
      <trkpt lat="45.19597" lon="0.6967">
        <ele>121.77</ele>
        <time>2019-08-04T08:48:10Z</time>
      </trkpt>
      <trkpt lat="45.19601" lon="0.69667">
        <ele>121.862</ele>
        <time>2019-08-04T08:48:11Z</time>
      </trkpt>
      <trkpt lat="45.19606" lon="0.69665">
        <ele>121.514</ele>
        <time>2019-08-04T08:48:12Z</time>
      </trkpt>
      <trkpt lat="45.19618" lon="0.69658">
        <ele>121.312</ele>
        <time>2019-08-04T08:48:14Z</time>
      </trkpt>
      <trkpt lat="45.19623" lon="0.69653">
        <ele>122.193</ele>
        <time>2019-08-04T08:48:15Z</time>
      </trkpt>
      <trkpt lat="45.19627" lon="0.69651">
        <ele>121.942</ele>
        <time>2019-08-04T08:48:16Z</time>
      </trkpt>
      <trkpt lat="45.19633" lon="0.6965">
        <ele>121.951</ele>
        <time>2019-08-04T08:48:17Z</time>
      </trkpt>
      <trkpt lat="45.19639" lon="0.69648">
        <ele>120.995</ele>
        <time>2019-08-04T08:48:18Z</time>
      </trkpt>
      <trkpt lat="45.19644" lon="0.69646">
        <ele>121.208</ele>
        <time>2019-08-04T08:48:19Z</time>
      </trkpt>
      <trkpt lat="45.19659" lon="0.6964">
        <ele>121.765</ele>
        <time>2019-08-04T08:48:22Z</time>
      </trkpt>
      <trkpt lat="45.19665" lon="0.69637">
        <ele>119.914</ele>
        <time>2019-08-04T08:48:23Z</time>
      </trkpt>
      <trkpt lat="45.19673" lon="0.6963">
        <ele>120.635</ele>
        <time>2019-08-04T08:48:25Z</time>
      </trkpt>
      <trkpt lat="45.19677" lon="0.69627">
        <ele>121.784</ele>
        <time>2019-08-04T08:48:26Z</time>
      </trkpt>
      <trkpt lat="45.19688" lon="0.69622">
        <ele>121.027</ele>
        <time>2019-08-04T08:48:28Z</time>
      </trkpt>
      <trkpt lat="45.19698" lon="0.69619">
        <ele>119.449</ele>
        <time>2019-08-04T08:48:30Z</time>
      </trkpt>
      <trkpt lat="45.19703" lon="0.69617">
        <ele>121.723</ele>
        <time>2019-08-04T08:48:31Z</time>
      </trkpt>
      <trkpt lat="45.19708" lon="0.69614">
        <ele>122.666</ele>
        <time>2019-08-04T08:48:32Z</time>
      </trkpt>
      <trkpt lat="45.19713" lon="0.69612">
        <ele>123.274</ele>
        <time>2019-08-04T08:48:33Z</time>
      </trkpt>
      <trkpt lat="45.19717" lon="0.69609">
        <ele>123.352</ele>
        <time>2019-08-04T08:48:34Z</time>
      </trkpt>
      <trkpt lat="45.19723" lon="0.69608">
        <ele>123.797</ele>
        <time>2019-08-04T08:48:35Z</time>
      </trkpt>
      <trkpt lat="45.19728" lon="0.69606">
        <ele>123.58</ele>
        <time>2019-08-04T08:48:36Z</time>
      </trkpt>
      <trkpt lat="45.19733" lon="0.69602">
        <ele>122.731</ele>
        <time>2019-08-04T08:48:37Z</time>
      </trkpt>
      <trkpt lat="45.19749" lon="0.69593">
        <ele>122.904</ele>
        <time>2019-08-04T08:48:40Z</time>
      </trkpt>
      <trkpt lat="45.19754" lon="0.69589">
        <ele>123.839</ele>
        <time>2019-08-04T08:48:41Z</time>
      </trkpt>
      <trkpt lat="45.19767" lon="0.69581">
        <ele>123.66</ele>
        <time>2019-08-04T08:48:44Z</time>
      </trkpt>
      <trkpt lat="45.19772" lon="0.6958">
        <ele>124.235</ele>
        <time>2019-08-04T08:48:45Z</time>
      </trkpt>
      <trkpt lat="45.19777" lon="0.69578">
        <ele>124.555</ele>
        <time>2019-08-04T08:48:46Z</time>
      </trkpt>
      <trkpt lat="45.19791" lon="0.69574">
        <ele>124.829</ele>
        <time>2019-08-04T08:48:49Z</time>
      </trkpt>
      <trkpt lat="45.19806" lon="0.69564">
        <ele>123.972</ele>
        <time>2019-08-04T08:48:53Z</time>
      </trkpt>
      <trkpt lat="45.1982" lon="0.69556">
        <ele>123.98</ele>
        <time>2019-08-04T08:48:56Z</time>
      </trkpt>
      <trkpt lat="45.19829" lon="0.69552">
        <ele>124.283</ele>
        <time>2019-08-04T08:48:58Z</time>
      </trkpt>
      <trkpt lat="45.1984" lon="0.69546">
        <ele>121.418</ele>
        <time>2019-08-04T08:49:01Z</time>
      </trkpt>
      <trkpt lat="45.19844" lon="0.69539">
        <ele>122.521</ele>
        <time>2019-08-04T08:49:03Z</time>
      </trkpt>
      <trkpt lat="45.1985" lon="0.69534">
        <ele>123.826</ele>
        <time>2019-08-04T08:49:05Z</time>
      </trkpt>
      <trkpt lat="45.19856" lon="0.6953">
        <ele>123.813</ele>
        <time>2019-08-04T08:49:08Z</time>
      </trkpt>
      <trkpt lat="45.19858" lon="0.69528">
        <ele>122.416</ele>
        <time>2019-08-04T08:49:09Z</time>
      </trkpt>
      <trkpt lat="45.19861" lon="0.69526">
        <ele>122.477</ele>
        <time>2019-08-04T08:49:10Z</time>
      </trkpt>
      <trkpt lat="45.19866" lon="0.69523">
        <ele>120.403</ele>
        <time>2019-08-04T08:49:12Z</time>
      </trkpt>
      <trkpt lat="45.19868" lon="0.69522">
        <ele>119.702</ele>
        <time>2019-08-04T08:49:13Z</time>
      </trkpt>
      <trkpt lat="45.19874" lon="0.69518">
        <ele>118.258</ele>
        <time>2019-08-04T08:49:16Z</time>
      </trkpt>
      <trkpt lat="45.1988" lon="0.6953">
        <ele>117.263</ele>
        <time>2019-08-04T08:49:24Z</time>
      </trkpt>
      <trkpt lat="45.19873" lon="0.69539">
        <ele>115.802</ele>
        <time>2019-08-04T08:49:27Z</time>
      </trkpt>
      <trkpt lat="45.19871" lon="0.69554">
        <ele>115.198</ele>
        <time>2019-08-04T08:49:30Z</time>
      </trkpt>
      <trkpt lat="45.1987" lon="0.69562">
        <ele>113.992</ele>
        <time>2019-08-04T08:49:31Z</time>
      </trkpt>
      <trkpt lat="45.19869" lon="0.69569">
        <ele>114.888</ele>
        <time>2019-08-04T08:49:32Z</time>
      </trkpt>
      <trkpt lat="45.19863" lon="0.69595">
        <ele>115.74</ele>
        <time>2019-08-04T08:49:34Z</time>
      </trkpt>
      <trkpt lat="45.19864" lon="0.6961">
        <ele>117.523</ele>
        <time>2019-08-04T08:49:37Z</time>
      </trkpt>
      <trkpt lat="45.19864" lon="0.69625">
        <ele>117.401</ele>
        <time>2019-08-04T08:49:42Z</time>
      </trkpt>
      <trkpt lat="45.19864" lon="0.69633">
        <ele>118.053</ele>
        <time>2019-08-04T08:49:45Z</time>
      </trkpt>
      <trkpt lat="45.1986" lon="0.6964">
        <ele>120.453</ele>
        <time>2019-08-04T08:49:47Z</time>
      </trkpt>
      <trkpt lat="45.19857" lon="0.69647">
        <ele>121.325</ele>
        <time>2019-08-04T08:49:49Z</time>
      </trkpt>
      <trkpt lat="45.19855" lon="0.69653">
        <ele>121.535</ele>
        <time>2019-08-04T08:49:51Z</time>
      </trkpt>
      <trkpt lat="45.19852" lon="0.69664">
        <ele>124.557</ele>
        <time>2019-08-04T08:49:54Z</time>
      </trkpt>
      <trkpt lat="45.19851" lon="0.69668">
        <ele>123.55</ele>
        <time>2019-08-04T08:49:55Z</time>
      </trkpt>
      <trkpt lat="45.1985" lon="0.69675">
        <ele>122.166</ele>
        <time>2019-08-04T08:49:57Z</time>
      </trkpt>
      <trkpt lat="45.1985" lon="0.69678">
        <ele>122.533</ele>
        <time>2019-08-04T08:49:58Z</time>
      </trkpt>
      <trkpt lat="45.19849" lon="0.69684">
        <ele>122.439</ele>
        <time>2019-08-04T08:50:00Z</time>
      </trkpt>
      <trkpt lat="45.19847" lon="0.69697">
        <ele>120.009</ele>
        <time>2019-08-04T08:50:03Z</time>
      </trkpt>
      <trkpt lat="45.19847" lon="0.69708">
        <ele>120.007</ele>
        <time>2019-08-04T08:50:05Z</time>
      </trkpt>
      <trkpt lat="45.1985" lon="0.69719">
        <ele>119.903</ele>
        <time>2019-08-04T08:50:07Z</time>
      </trkpt>
      <trkpt lat="45.19853" lon="0.69729">
        <ele>120.584</ele>
        <time>2019-08-04T08:50:09Z</time>
      </trkpt>
      <trkpt lat="45.19858" lon="0.69739">
        <ele>120.886</ele>
        <time>2019-08-04T08:50:11Z</time>
      </trkpt>
      <trkpt lat="45.19862" lon="0.69752">
        <ele>121.1</ele>
        <time>2019-08-04T08:50:14Z</time>
      </trkpt>
      <trkpt lat="45.19864" lon="0.69765">
        <ele>120.128</ele>
        <time>2019-08-04T08:50:17Z</time>
      </trkpt>
      <trkpt lat="45.19867" lon="0.69774">
        <ele>120.846</ele>
        <time>2019-08-04T08:50:19Z</time>
      </trkpt>
      <trkpt lat="45.19872" lon="0.69781">
        <ele>119.171</ele>
        <time>2019-08-04T08:50:21Z</time>
      </trkpt>
      <trkpt lat="45.19878" lon="0.69788">
        <ele>119.545</ele>
        <time>2019-08-04T08:50:23Z</time>
      </trkpt>
      <trkpt lat="45.19882" lon="0.69797">
        <ele>121.076</ele>
        <time>2019-08-04T08:50:25Z</time>
      </trkpt>
      <trkpt lat="45.19884" lon="0.69801">
        <ele>123.075</ele>
        <time>2019-08-04T08:50:26Z</time>
      </trkpt>
      <trkpt lat="45.19885" lon="0.69804">
        <ele>123.431</ele>
        <time>2019-08-04T08:50:27Z</time>
      </trkpt>
      <trkpt lat="45.19889" lon="0.6981">
        <ele>124.9</ele>
        <time>2019-08-04T08:50:29Z</time>
      </trkpt>
      <trkpt lat="45.19893" lon="0.69813">
        <ele>125.189</ele>
        <time>2019-08-04T08:50:31Z</time>
      </trkpt>
      <trkpt lat="45.19901" lon="0.69808">
        <ele>124.31</ele>
        <time>2019-08-04T08:50:34Z</time>
      </trkpt>
      <trkpt lat="45.19904" lon="0.69801">
        <ele>123.974</ele>
        <time>2019-08-04T08:50:36Z</time>
      </trkpt>
      <trkpt lat="45.19907" lon="0.69795">
        <ele>124.736</ele>
        <time>2019-08-04T08:50:38Z</time>
      </trkpt>
      <trkpt lat="45.19912" lon="0.69794">
        <ele>127.164</ele>
        <time>2019-08-04T08:50:40Z</time>
      </trkpt>
      <trkpt lat="45.19915" lon="0.69794">
        <ele>127</ele>
        <time>2019-08-04T08:50:41Z</time>
      </trkpt>
      <trkpt lat="45.1992" lon="0.6979">
        <ele>127.047</ele>
        <time>2019-08-04T08:50:43Z</time>
      </trkpt>
      <trkpt lat="45.19924" lon="0.69784">
        <ele>125.352</ele>
        <time>2019-08-04T08:50:45Z</time>
      </trkpt>
      <trkpt lat="45.19925" lon="0.69781">
        <ele>125.413</ele>
        <time>2019-08-04T08:50:46Z</time>
      </trkpt>
      <trkpt lat="45.19933" lon="0.69777">
        <ele>124.811</ele>
        <time>2019-08-04T08:50:49Z</time>
      </trkpt>
      <trkpt lat="45.19942" lon="0.6979">
        <ele>123.635</ele>
        <time>2019-08-04T08:50:53Z</time>
      </trkpt>
      <trkpt lat="45.19944" lon="0.69798">
        <ele>127.084</ele>
        <time>2019-08-04T08:50:57Z</time>
      </trkpt>
      <trkpt lat="45.19944" lon="0.69798">
        <ele>127.084</ele>
        <time>2019-08-04T08:51:05Z</time>
      </trkpt>
      <trkpt lat="45.19944" lon="0.69798">
        <ele>127.084</ele>
        <time>2019-08-04T08:51:06Z</time>
      </trkpt>
      <trkpt lat="45.19949" lon="0.69802">
        <ele>136.956</ele>
        <time>2019-08-04T08:51:33Z</time>
      </trkpt>
      <trkpt lat="45.19957" lon="0.69805">
        <ele>137.564</ele>
        <time>2019-08-04T08:51:35Z</time>
      </trkpt>
      <trkpt lat="45.19963" lon="0.69811">
        <ele>132.479</ele>
        <time>2019-08-04T08:51:37Z</time>
      </trkpt>
      <trkpt lat="45.19966" lon="0.69814">
        <ele>132.648</ele>
        <time>2019-08-04T08:51:38Z</time>
      </trkpt>
      <trkpt lat="45.19968" lon="0.69817">
        <ele>132.958</ele>
        <time>2019-08-04T08:51:39Z</time>
      </trkpt>
      <trkpt lat="45.19972" lon="0.69821">
        <ele>131.619</ele>
        <time>2019-08-04T08:51:42Z</time>
      </trkpt>
      <trkpt lat="45.19972" lon="0.69821">
        <ele>131.619</ele>
        <time>2019-08-04T08:51:47Z</time>
      </trkpt>
      <trkpt lat="45.19972" lon="0.69821">
        <ele>131.619</ele>
        <time>2019-08-04T08:51:49Z</time>
      </trkpt>
      <trkpt lat="45.19972" lon="0.69821">
        <ele>83.6</ele>
        <time>2019-08-04T08:53:09Z</time>
      </trkpt>
      <trkpt lat="45.19972" lon="0.69821">
        <ele>83.6</ele>
        <time>2019-08-04T08:53:13Z</time>
      </trkpt>
    </trkseg>
  </trk>
</gpx>